GFSGBSN_sfc_wetblb_000.txt.gz
Wetbulb
60.03 61.28 61.78 60.89 61.11 62.10 61.37 61.61 61.02 59.62 58.72 58.01 57.32 57.25 57.24 57.01 56.80 57.00 56.62 56.70 57.01 57.27 57.86 57.98 58.78 59.41 56.51 49.68 49.78 58.51 58.99 58.47 58.32 58.26 55.80 54.17 51.62 49.72 47.77 51.70 52.74 50.55 52.55 53.77 54.42 54.21 53.89
59.03 60.41 61.53 61.12 61.03 61.64 61.50 60.15 60.68 60.37 59.38 58.63 57.81 57.23 57.29 57.19 56.88 57.10 56.99 56.58 56.89 57.58 57.53 57.72 58.21 59.08 52.64 43.20 55.77 57.23 57.64 57.07 56.31 56.04 55.38 55.21 52.95 53.08 49.19 50.28 50.33 52.92 53.16 53.49 54.11 53.41 53.63
59.67 59.25 60.48 60.94 60.70 61.13 61.44 60.66 60.29 59.93 59.39 59.36 58.20 57.28 57.77 57.83 57.09 57.29 57.36 57.42 57.01 57.17 57.24 57.40 57.83 55.81 49.67 47.16 55.78 56.18 57.01 55.45 55.39 54.15 52.09 56.01 55.56 52.52 51.80 48.04 53.29 53.24 48.74 51.93 52.39 52.89 52.27
59.64 59.50 59.39 60.56 60.59 60.98 61.06 60.87 60.41 60.02 58.98 59.21 58.37 57.74 57.73 58.08 57.94 57.68 57.36 57.00 57.43 57.38 57.50 57.09 57.16 53.79 45.13 55.36 56.24 54.50 54.65 53.09 54.38 54.22 53.63 54.91 55.13 52.83 50.60 52.10 50.07 48.20 48.34 43.34 50.65 52.63 52.85
59.64 59.14 59.20 60.26 60.51 60.83 61.12 60.99 60.55 60.23 59.13 58.76 58.40 58.22 57.80 57.97 58.13 58.12 57.63 56.94 57.18 57.02 57.05 56.67 53.15 50.40 43.06 54.71 50.60 53.61 54.17 50.43 52.20 52.94 54.06 53.99 52.34 48.98 49.58 44.43 42.94 46.10 40.80 43.24 46.19 52.64 51.47
59.97 59.10 59.75 59.98 60.44 60.60 60.62 60.87 60.62 60.43 60.01 59.51 59.17 58.57 57.80 57.48 57.80 57.76 56.95 55.79 56.03 56.20 54.98 54.46 52.62 45.88 47.80 45.61 50.50 51.67 53.63 52.87 49.25 48.97 48.08 48.73 46.79 43.56 44.31 41.95 34.20 38.74 41.32 43.11 43.80 48.81 50.88
58.64 59.70 59.93 59.88 60.04 60.35 60.23 60.49 60.27 60.32 60.21 59.58 59.06 58.54 57.56 57.43 57.43 57.02 55.10 52.76 47.58 45.85 48.97 43.45 44.51 44.90 47.16 50.82 52.48 49.72 51.60 49.67 48.55 45.67 39.22 44.48 40.13 36.76 39.46 42.29 43.00 43.53 42.95 43.68 46.37 50.32 48.61
56.86 57.86 59.54 59.65 59.66 59.87 60.23 60.03 59.93 59.69 59.80 59.42 58.78 58.01 57.42 57.32 57.29 56.68 54.58 47.46 48.01 48.61 42.10 47.88 47.56 47.18 49.81 50.73 44.67 47.60 51.44 44.23 43.03 38.03 41.37 39.74 35.91 41.21 43.51 43.36 42.99 42.55 41.70 42.39 46.69 50.12 48.55
54.53 56.11 58.08 58.72 59.22 59.24 59.98 59.67 59.55 59.50 59.49 59.04 58.28 57.44 56.99 56.62 56.08 54.43 51.02 49.49 53.05 51.22 41.20 42.68 46.55 45.73 46.94 48.49 43.88 45.10 48.11 45.00 40.79 38.03 38.13 35.54 38.69 43.35 41.88 40.50 39.99 41.42 40.85 42.67 43.15 48.04 47.37
53.43 53.92 55.66 56.20 58.09 58.70 58.64 58.90 58.89 59.06 58.70 58.25 57.62 56.91 56.43 55.90 51.35 51.64 49.52 53.82 53.39 51.78 33.92 36.71 39.61 44.50 46.79 46.27 41.20 48.95 49.73 45.38 41.23 36.97 38.39 37.94 42.02 40.40 40.09 38.40 40.34 36.75 44.64 45.18 44.55 43.88 37.64
52.58 53.47 53.84 54.74 55.22 56.33 58.24 58.24 58.50 58.50 57.99 57.61 56.95 56.58 56.18 55.05 52.45 48.91 51.16 52.76 51.79 47.85 24.30 39.00 40.95 49.03 46.64 41.75 42.84 43.06 49.48 45.67 38.59 38.18 38.85 35.26 37.57 37.65 37.18 39.16 42.19 39.39 45.31 45.00 44.84 42.41 40.06
52.02 52.68 53.01 54.10 53.65 54.21 56.93 57.85 57.97 58.15 57.80 57.25 56.46 56.07 55.81 53.37 52.11 52.32 53.20 51.86 48.43 32.86 23.91 35.55 40.74 39.59 39.88 40.96 41.26 43.67 43.94 46.90 45.03 39.51 39.14 37.88 43.39 41.55 40.00 42.17 42.77 44.93 42.51 42.38 44.98 41.07 36.28
51.16 51.86 52.27 53.12 52.71 52.95 53.86 57.31 57.39 57.67 57.64 57.21 56.40 55.72 54.28 53.33 47.63 53.19 51.68 46.62 33.02 27.51 38.21 35.29 36.00 38.91 37.74 37.76 38.47 39.40 38.05 37.38 34.18 31.24 32.06 35.95 36.98 41.16 40.94 37.85 42.84 43.30 39.79 33.21 33.12 31.88 31.51
50.61 51.39 51.75 52.48 52.02 52.00 53.15 56.02 57.40 57.61 57.54 57.03 56.33 55.48 53.66 51.95 53.52 52.20 48.78 38.58 28.23 35.45 34.85 39.07 37.95 37.57 35.74 37.87 37.70 37.50 36.49 34.01 38.38 36.19 32.38 29.00 27.79 37.12 40.27 37.89 39.06 40.28 39.68 33.25 29.86 29.90 32.47
49.74 50.62 51.20 51.93 51.76 51.74 53.02 56.45 57.23 57.03 56.93 56.57 56.05 53.41 51.25 52.01 53.15 51.20 42.83 31.10 32.37 36.92 39.83 37.67 37.41 34.38 34.69 37.31 36.83 36.03 35.30 35.02 36.94 37.91 31.17 32.85 30.26 41.08 41.24 41.50 43.73 38.91 34.83 39.26 37.83 38.24 33.29
49.27 49.88 50.69 51.27 51.02 50.24 52.55 55.85 57.17 56.98 56.77 56.34 51.36 49.77 49.24 52.95 53.13 48.35 38.78 33.86 36.70 41.78 40.44 39.27 34.20 34.86 31.51 33.43 33.03 34.00 34.03 38.32 37.27 40.44 40.23 34.88 30.83 39.36 42.02 44.02 44.36 42.67 44.37 36.27 39.40 30.80 29.32
48.82 49.59 49.76 50.48 51.14 50.13 52.04 52.50 56.99 57.63 56.90 54.90 48.66 44.23 50.43 53.53 51.64 43.72 34.12 35.17 38.70 42.74 42.25 38.07 36.68 35.54 35.87 33.26 34.30 33.19 34.09 38.61 40.35 40.37 39.64 37.46 34.80 35.61 39.55 40.26 39.46 42.05 40.49 42.36 42.44 38.46 32.64
48.31 49.13 49.31 50.20 50.56 50.94 51.80 52.08 54.88 57.04 56.19 52.67 47.68 40.77 51.50 53.00 41.02 41.50 36.76 39.17 42.52 41.76 44.31 42.01 40.69 39.62 36.93 37.49 34.57 34.49 34.18 38.10 42.98 41.72 35.88 39.00 35.20 32.57 35.46 43.13 45.30 44.94 43.06 42.91 37.34 34.05 35.93
47.46 48.46 49.09 49.67 50.53 51.23 51.67 52.62 54.60 56.84 54.85 50.32 44.67 46.04 51.98 50.33 36.69 37.22 40.09 40.28 41.00 41.15 42.69 41.59 40.58 41.92 41.67 38.07 33.40 36.11 38.25 43.49 43.36 41.39 38.18 39.46 34.93 31.56 32.92 40.07 43.71 42.12 43.65 43.98 42.74 40.47 35.15
46.69 47.94 48.59 49.20 49.70 50.65 50.97 51.43 56.00 56.76 55.34 51.41 45.64 40.94 45.40 46.05 44.73 41.33 38.47 39.06 38.01 42.81 41.29 42.74 42.38 43.29 40.49 37.86 39.25 37.15 37.90 43.07 44.23 43.23 46.94 44.81 39.13 33.89 33.48 36.90 41.26 40.11 42.58 42.69 41.31 35.89 35.54
46.13 47.37 47.91 48.78 49.65 49.71 50.94 52.02 55.32 56.24 54.79 50.73 45.48 42.27 44.60 38.11 39.70 41.21 42.16 40.52 38.70 38.13 43.46 43.68 41.43 41.13 40.20 36.23 37.24 36.90 39.31 41.71 43.23 43.29 43.90 41.42 37.04 39.63 41.83 42.87 43.11 42.44 42.07 42.21 40.14 39.65 35.51
45.64 46.63 47.59 48.37 49.63 49.01 50.04 50.57 51.51 55.62 53.99 48.42 42.71 41.39 45.72 44.23 42.39 41.03 40.54 39.57 39.19 40.00 41.21 41.19 39.25 43.08 43.13 38.61 38.84 36.97 39.59 40.36 38.59 42.28 40.41 42.37 37.10 40.30 38.90 42.10 42.58 40.86 42.73 42.59 42.08 41.63 41.13
45.17 45.86 47.20 48.13 48.63 48.97 49.51 50.16 51.34 55.09 53.18 48.06 48.18 48.07 44.80 43.25 42.89 40.96 40.69 40.51 41.21 42.21 42.63 43.42 42.93 41.57 42.43 43.63 45.62 45.30 44.78 44.41 44.21 41.55 40.44 40.29 39.09 37.52 32.73 38.57 39.28 34.68 40.15 41.54 42.00 43.08 42.63
45.15 45.43 46.95 47.68 48.27 48.30 48.94 50.15 51.37 54.54 53.83 49.91 47.81 47.57 43.15 38.34 39.87 41.24 43.13 43.49 42.49 42.99 41.20 44.73 45.87 43.37 47.38 49.62 49.38 47.08 45.76 43.73 43.28 43.77 44.93 39.57 38.79 39.12 32.59 34.62 26.26 36.92 40.80 43.20 42.92 43.78 44.14
44.98 45.08 46.36 47.29 47.92 48.55 48.14 49.50 50.49 51.39 54.58 49.63 47.88 46.94 44.30 39.57 41.82 41.12 41.42 43.06 43.66 43.33 43.84 43.99 46.31 46.72 47.93 46.15 42.87 39.78 39.50 39.97 38.94 38.91 40.14 44.01 40.73 35.76 32.31 31.62 37.16 39.29 38.92 39.17 39.54 39.91 44.67
44.84 44.79 45.97 46.96 47.44 48.22 47.80 48.90 50.77 51.65 54.43 51.30 47.96 49.34 45.71 41.02 39.57 43.09 41.45 43.31 40.25 39.91 40.21 41.90 43.37 44.48 44.49 42.28 41.42 35.47 32.62 36.28 34.86 36.68 41.38 43.27 43.25 39.12 33.48 29.27 27.92 35.51 40.17 43.01 43.13 34.27 41.53
44.59 44.64 45.65 46.67 47.25 47.87 47.71 48.91 50.27 51.42 54.07 51.55 48.99 50.08 46.71 41.81 44.31 43.13 39.62 41.40 44.80 41.45 39.16 39.42 40.59 41.42 45.12 39.45 38.63 35.39 34.87 39.53 34.48 34.33 35.86 38.19 38.76 36.09 35.88 33.00 35.38 41.00 41.69 42.28 32.74 35.17 41.28
44.12 44.62 45.26 46.29 47.06 47.58 47.83 48.71 49.79 50.93 53.52 51.92 48.49 49.83 47.41 43.68 44.60 45.28 44.75 41.71 43.60 43.04 39.09 40.37 40.92 41.87 41.73 38.52 38.88 37.59 36.78 39.69 37.53 38.13 38.11 37.11 35.66 35.60 36.07 33.75 30.84 42.70 41.21 36.90 40.57 40.98 41.79
43.98 44.45 44.98 45.79 46.59 47.42 47.82 48.63 49.89 50.30 53.31 52.62 47.08 48.81 49.78 45.28 45.13 47.29 47.24 47.05 46.11 45.74 42.94 41.40 41.91 43.43 45.01 41.57 40.65 39.33 35.03 36.20 39.50 34.86 41.77 36.48 39.58 37.68 38.07 37.53 41.64 42.03 40.60 42.57 44.23 42.15 42.38

GFSGBSN_sfc_wetblb_003.txt.gz
Wetbulb
60.45 60.56 60.32 60.02 60.97 61.31 61.67 61.90 61.57 61.59 60.34 59.22 58.05 57.25 57.08 57.06 56.80 56.30 56.53 56.29 56.91 57.15 57.17 57.98 58.64 59.63 56.52 49.76 49.49 57.69 60.18 59.59 57.81 57.24 55.24 53.92 50.25 48.17 44.45 47.65 49.85 47.86 50.35 52.87 53.99 53.75 53.16
61.02 61.29 60.89 60.71 60.99 61.38 61.14 61.33 61.14 61.55 60.67 59.80 58.69 57.74 57.00 56.97 56.88 56.52 56.87 56.73 56.75 57.11 57.40 57.26 57.87 58.99 52.27 43.03 53.73 55.95 56.44 54.90 55.66 56.15 54.28 53.99 51.55 51.32 47.83 46.34 46.14 50.06 50.81 51.29 53.00 52.94 52.87
59.70 61.13 60.69 60.62 60.61 61.07 60.85 61.18 60.87 60.63 60.07 59.68 59.49 58.33 57.87 57.06 56.98 56.75 57.12 57.38 57.59 57.23 56.97 57.31 57.16 55.38 49.81 45.75 53.97 53.64 56.96 54.82 53.34 52.34 50.82 55.48 54.55 51.23 50.57 46.60 50.09 50.86 47.50 49.74 51.04 52.57 52.05
57.94 59.34 60.95 60.34 60.47 60.40 60.52 60.82 60.84 60.85 60.08 59.30 59.60 59.17 58.13 57.77 57.17 57.57 57.18 57.16 57.20 57.76 57.19 57.35 57.04 52.95 44.69 54.58 54.52 53.44 53.34 51.75 52.39 52.66 51.86 52.47 55.22 49.93 49.49 50.43 47.45 46.50 47.55 42.61 48.79 50.57 51.86
55.45 57.13 58.83 59.92 60.42 60.44 60.63 60.62 60.79 60.84 60.56 59.49 59.62 59.26 58.45 57.86 58.00 57.90 57.94 56.78 56.94 57.01 56.45 56.54 52.97 49.13 42.55 55.35 50.32 52.31 52.20 49.59 50.38 50.84 51.35 53.29 50.66 47.85 46.96 42.32 41.05 41.51 38.50 40.32 44.29 50.05 49.89
54.15 55.13 57.09 58.44 59.65 60.12 60.44 60.60 60.74 60.34 60.41 60.00 59.45 58.89 58.38 57.85 57.81 57.61 57.39 55.86 55.59 55.93 54.36 54.55 52.60 45.37 47.38 45.12 49.97 51.62 51.96 51.50 47.98 47.67 47.21 47.64 44.51 40.41 40.09 40.32 32.97 37.25 37.26 40.69 41.22 46.22 49.15
53.50 54.07 55.39 57.09 58.12 59.94 59.54 59.97 60.18 60.34 59.98 59.54 59.31 58.72 58.16 57.54 57.46 57.33 54.15 50.66 45.12 43.37 48.62 42.25 43.42 43.13 46.64 50.11 51.87 49.55 50.71 48.79 48.03 43.67 36.84 41.64 37.81 35.48 37.28 39.65 41.26 39.49 39.31 40.41 43.56 47.89 46.47
53.06 53.40 53.21 55.43 56.65 57.57 59.31 59.50 59.52 59.87 59.72 59.38 59.13 58.44 57.98 57.52 57.69 57.24 52.68 47.70 45.85 46.65 41.63 47.17 46.89 46.48 48.84 50.81 44.61 47.32 50.49 43.57 42.34 37.57 38.87 37.25 33.92 39.57 41.75 41.18 40.29 39.60 37.87 37.69 41.97 46.51 45.83
52.07 53.08 53.51 53.93 55.23 56.24 57.25 59.20 59.05 59.55 59.31 59.11 58.93 58.13 57.63 57.11 57.05 53.87 49.54 48.52 51.16 50.75 40.64 43.41 46.35 45.16 46.13 48.38 43.68 44.51 47.29 43.99 39.68 36.99 37.20 34.09 36.65 41.51 40.47 38.31 37.51 37.80 37.09 37.63 38.34 43.95 46.61
51.58 51.75 52.63 53.16 53.93 54.94 55.79 57.05 58.36 58.33 58.05 57.94 58.01 57.97 57.16 56.54 50.49 50.06 47.44 51.72 52.52 50.60 34.80 37.02 39.32 44.86 47.10 47.59 41.94 48.82 48.95 44.32 40.67 36.08 37.52 36.06 40.14 38.44 38.31 37.04 38.04 33.34 40.49 40.75 40.48 40.20 37.45
50.68 50.94 51.58 52.07 53.02 53.54 54.91 55.52 56.52 58.00 57.46 57.50 57.52 57.56 56.66 54.27 48.15 46.68 50.05 52.17 51.80 48.53 21.71 37.89 40.21 48.96 47.41 42.23 43.31 43.30 49.92 45.56 38.03 37.11 38.10 34.26 36.14 36.18 35.23 36.98 39.97 35.80 41.12 40.00 41.41 40.27 39.49
49.57 50.33 50.74 51.45 52.41 52.89 53.88 53.49 55.06 56.30 57.28 56.99 57.14 56.72 55.95 52.45 49.64 51.20 52.35 51.60 47.58 32.67 20.20 35.80 41.08 39.33 39.74 42.15 42.47 44.22 43.41 46.92 44.92 39.57 39.22 36.76 40.84 39.63 38.03 40.21 41.26 42.41 40.47 40.62 40.84 38.34 32.35
48.51 49.37 49.94 50.86 51.30 52.27 52.89 52.96 54.75 54.45 57.14 57.03 56.54 56.08 54.09 52.49 46.18 52.36 51.40 45.31 33.20 26.09 36.81 34.77 35.98 38.76 37.76 37.79 38.85 40.07 38.67 38.22 35.70 31.31 31.03 35.49 36.28 39.07 41.25 36.74 40.08 38.88 36.02 29.98 26.42 29.39 29.23
48.00 48.66 49.48 50.50 50.48 52.05 52.32 51.83 52.62 53.70 56.94 56.80 55.93 55.53 53.48 52.05 52.90 51.20 47.37 39.33 27.95 33.11 32.98 39.31 37.83 37.77 35.10 37.31 37.84 38.00 35.93 34.73 38.56 35.47 30.50 27.17 23.23 35.92 39.68 37.54 34.64 35.40 35.23 30.21 21.85 26.12 30.34
47.59 48.07 49.01 49.94 50.04 50.99 52.21 52.30 51.12 52.28 56.51 56.44 55.32 52.43 49.97 51.79 52.57 50.43 40.73 30.62 30.01 34.45 39.90 37.83 37.62 34.68 35.17 36.96 36.25 36.84 34.97 34.30 36.73 36.63 27.91 30.44 28.64 38.52 39.98 41.37 40.31 34.82 33.33 39.26 33.23 36.25 33.37
47.13 47.56 48.35 49.39 50.00 50.50 50.24 50.56 51.11 52.33 56.24 56.08 51.75 49.35 48.26 52.67 52.48 47.43 39.05 32.90 35.19 41.42 41.46 40.41 34.64 35.65 31.28 33.21 34.09 33.58 34.07 37.20 36.14 38.42 39.11 34.86 28.40 36.85 39.31 41.17 41.70 39.38 41.83 33.52 34.50 28.81 28.41
46.85 47.41 47.91 48.89 48.99 50.06 50.73 49.97 51.48 53.96 56.30 56.04 50.15 44.68 50.40 53.05 51.40 43.12 34.13 34.62 38.43 42.94 42.91 38.99 36.99 35.11 33.50 32.51 33.49 32.30 32.04 36.93 38.88 38.76 39.35 37.12 32.57 32.14 38.31 36.43 36.37 36.76 36.34 38.52 37.93 34.37 31.55
46.72 47.36 47.57 48.33 48.28 49.99 50.45 51.06 51.94 51.79 53.71 53.27 47.86 41.34 51.18 52.06 40.97 40.51 36.65 38.48 42.37 41.67 44.17 42.04 40.89 38.80 36.27 34.93 33.06 31.09 31.43 35.78 41.49 40.33 35.30 38.61 35.61 30.38 31.73 41.82 41.98 41.27 39.31 39.48 32.37 32.48 35.02
46.62 47.09 47.15 48.01 47.99 49.56 49.32 50.65 51.47 54.20 55.58 50.59 45.07 45.42 51.28 49.36 35.55 36.87 40.11 39.97 41.52 40.99 42.09 41.91 39.70 41.28 40.97 36.54 33.34 34.33 35.92 41.50 42.32 40.19 37.62 38.88 34.25 28.89 32.01 38.37 41.30 39.24 40.45 42.16 41.38 39.62 33.86
46.57 46.47 46.54 47.98 48.33 49.02 49.54 50.35 50.66 52.74 55.39 51.65 46.00 40.42 45.24 46.29 44.56 39.71 37.89 38.54 38.96 43.39 41.63 42.81 42.22 42.29 40.60 36.58 37.70 35.34 35.20 41.08 42.68 41.93 44.21 41.73 36.95 33.53 30.35 35.73 40.04 38.20 38.69 42.17 39.67 34.75 33.45
46.31 45.98 46.21 46.67 47.79 48.83 49.25 49.91 50.77 51.05 55.24 50.85 46.31 42.34 43.81 37.39 39.41 41.34 41.50 40.85 39.04 38.31 42.05 43.23 40.31 39.98 39.28 34.81 34.41 34.59 38.20 39.28 41.72 45.44 41.66 39.36 32.44 32.26 34.59 36.57 39.04 39.86 39.73 38.90 34.91 39.73 35.16
46.04 45.75 46.01 46.29 47.65 48.47 49.31 49.38 50.04 50.00 53.02 49.27 42.60 42.40 44.73 41.68 41.65 40.32 40.53 39.99 39.48 40.56 40.84 40.45 39.30 41.81 41.22 38.41 36.45 34.30 38.03 38.01 36.30 41.44 38.51 38.53 32.49 34.57 37.42 41.17 41.73 39.48 40.76 41.71 41.23 40.89 40.30
45.97 45.44 45.66 45.91 47.12 47.89 48.50 48.91 48.95 49.70 50.82 48.64 48.17 48.41 45.67 43.26 41.46 39.76 39.69 38.77 40.13 42.29 42.92 42.89 42.13 41.60 40.92 42.41 45.00 44.14 43.85 42.01 42.05 37.81 36.75 36.86 35.55 37.02 33.13 41.06 40.46 36.29 40.43 40.06 40.07 40.21 40.47
45.77 45.20 45.54 45.53 46.85 47.67 48.63 48.85 49.01 49.39 50.15 48.28 48.54 47.88 42.67 39.10 40.44 40.77 41.53 41.49 41.01 42.41 40.80 43.30 43.96 41.04 44.63 48.03 48.47 47.01 45.70 41.68 42.53 40.50 39.73 34.92 36.62 38.51 33.32 33.95 25.96 35.97 40.40 43.12 41.75 42.02 41.80
45.73 45.31 45.41 45.40 46.52 47.47 47.85 48.71 49.33 49.73 50.35 50.23 49.05 47.86 44.75 39.89 41.91 41.54 40.41 38.20 41.17 43.52 42.93 43.14 44.94 44.80 49.34 46.63 41.47 39.01 38.53 38.66 38.55 38.20 38.40 40.92 36.98 35.15 30.67 29.32 34.48 35.73 37.47 38.28 39.30 38.67 41.50
45.68 45.09 44.97 45.43 46.17 47.18 47.84 48.54 49.36 49.87 50.49 50.73 48.44 50.12 46.35 41.24 40.31 43.17 39.46 39.14 37.67 39.17 40.38 42.41 44.18 45.01 47.50 43.78 40.98 34.44 32.89 35.98 34.04 37.52 40.41 41.23 40.71 37.99 31.17 26.58 27.15 34.36 39.14 41.06 40.59 33.74 39.48
45.55 45.31 44.80 45.20 45.92 46.78 47.48 48.37 49.24 49.86 50.60 50.89 49.09 50.56 47.38 41.46 44.11 44.53 40.28 39.92 43.15 42.37 39.92 40.33 41.18 41.62 44.99 41.36 37.93 33.95 33.49 36.84 33.00 34.02 35.87 37.62 37.61 32.46 32.95 30.33 33.26 39.14 39.83 41.00 32.97 33.74 39.50
45.16 44.98 44.60 44.87 45.32 46.50 47.29 48.19 49.24 50.13 51.00 51.33 48.73 50.37 48.00 43.64 44.52 45.35 43.99 40.92 42.69 42.96 39.63 41.10 41.43 41.58 41.18 38.53 38.25 37.28 36.53 36.93 35.55 35.74 37.65 36.72 35.42 35.23 35.93 32.90 29.04 41.13 38.88 35.28 38.57 39.87 40.15
44.96 44.63 44.53 44.68 44.93 45.94 47.11 47.87 48.92 49.97 50.89 51.41 46.92 49.74 50.49 45.87 44.90 47.75 46.63 46.06 46.62 46.96 43.75 42.73 41.75 42.57 43.24 40.78 40.14 39.16 33.55 37.75 35.87 33.29 38.59 36.17 37.95 37.35 38.69 36.95 41.03 39.55 39.42 41.73 42.17 40.57 39.52

GFSGBSN_sfc_wetblb_006.txt.gz
Wetbulb
59.19 59.82 61.09 60.92 60.23 60.70 61.17 61.37 61.43 61.58 60.90 60.97 59.78 58.64 57.76 57.32 57.28 56.82 56.38 56.05 56.24 57.01 57.08 57.76 58.48 59.32 55.61 49.29 48.61 56.14 59.69 60.23 57.96 57.66 56.05 53.95 49.64 47.60 43.82 45.40 46.93 45.74 47.30 51.34 52.91 53.13 52.66
57.38 58.03 59.33 60.13 60.93 61.04 60.37 60.55 60.88 61.26 61.22 61.19 60.22 58.98 57.96 57.29 57.35 57.00 56.60 56.75 56.31 56.65 57.02 57.16 57.72 58.28 50.88 41.28 53.08 54.05 55.96 53.87 55.61 55.14 53.32 53.80 51.32 50.56 46.76 45.35 44.63 47.19 48.32 49.41 51.09 51.26 51.86
54.85 55.53 56.20 57.99 60.07 60.83 60.74 60.71 60.67 60.91 61.06 60.73 60.59 59.64 58.93 57.73 57.18 57.06 56.85 57.29 57.42 57.20 56.98 56.80 56.94 55.03 49.42 44.97 52.63 52.83 53.36 52.38 53.26 53.29 52.58 54.31 53.97 50.41 49.76 45.98 48.54 47.70 44.30 46.69 47.84 49.78 49.45
54.74 55.02 55.04 55.48 57.61 58.94 59.96 60.24 60.40 60.44 61.07 60.57 60.24 60.25 59.04 58.21 57.55 57.62 57.02 57.38 56.64 57.43 57.04 57.32 56.92 52.45 43.47 53.65 53.05 52.13 52.21 51.17 51.66 52.27 51.58 51.88 53.99 52.00 49.35 50.36 46.27 43.30 43.21 39.62 45.72 48.82 50.07
53.65 54.02 54.00 54.45 55.06 56.70 58.22 59.95 59.83 60.07 60.36 60.66 60.42 59.94 59.25 58.31 57.97 57.90 57.91 57.11 56.76 56.82 56.73 56.86 51.85 48.48 41.53 54.83 49.91 51.49 51.60 49.12 49.34 49.50 50.18 52.73 51.11 47.29 44.92 43.70 40.47 40.30 35.03 37.09 41.47 48.61 48.35
52.82 52.71 53.24 54.06 54.14 54.81 56.49 58.02 59.74 59.64 59.86 59.74 59.80 59.56 59.11 58.28 57.91 57.87 57.55 56.42 55.90 55.77 54.57 54.67 52.52 46.03 47.06 45.06 49.32 50.74 50.97 50.79 46.95 46.83 45.90 46.34 44.96 39.06 39.71 40.09 32.87 36.30 35.64 37.17 37.54 44.31 47.07
52.32 52.21 52.15 53.14 54.02 54.16 54.89 56.24 57.05 59.39 59.32 59.03 58.93 58.77 58.63 58.12 57.60 57.32 54.19 49.51 43.84 42.61 48.40 42.13 42.93 43.48 44.71 49.60 51.41 49.12 50.18 48.11 46.75 42.91 36.33 40.29 37.51 34.54 35.98 38.27 38.87 38.60 37.09 35.80 38.81 43.99 43.53
51.18 51.36 51.98 51.84 52.56 53.32 54.15 54.92 55.64 57.08 58.83 58.57 58.17 58.31 58.29 58.13 57.46 57.12 51.14 44.72 43.90 45.28 39.41 46.05 46.08 45.90 48.28 50.05 44.14 47.18 49.74 43.07 42.61 37.32 38.13 36.42 33.80 37.98 40.17 39.28 38.69 37.86 35.49 35.04 39.20 43.25 42.21
49.84 49.50 50.71 51.47 51.32 51.98 53.11 53.94 55.10 56.18 58.68 58.40 57.75 57.86 57.92 57.65 56.96 54.37 49.45 47.97 50.17 48.21 39.17 42.60 45.42 44.42 45.50 47.52 43.41 44.30 46.48 43.43 40.80 37.61 37.63 33.59 35.59 39.92 38.98 37.74 36.36 36.10 34.51 34.66 35.36 40.26 42.62
49.67 49.66 49.30 50.52 50.81 51.15 52.19 52.89 54.21 55.44 57.26 57.19 57.41 57.85 57.59 56.68 51.72 49.53 48.36 50.69 50.05 50.75 33.95 35.85 39.56 44.54 46.98 47.37 42.04 48.76 48.54 44.56 40.70 36.25 37.21 36.05 39.39 37.37 36.43 35.75 36.55 31.97 38.70 38.82 37.82 36.60 31.46
49.40 49.65 48.79 49.64 50.05 50.95 51.64 52.34 53.24 54.50 54.87 56.41 56.71 57.35 56.98 54.78 46.85 46.70 48.19 51.02 50.24 47.60 12.07 36.23 39.28 48.46 47.41 42.62 43.91 43.58 49.51 45.10 38.31 36.64 36.82 33.20 35.48 35.50 33.74 35.03 38.55 34.65 39.57 37.58 37.79 35.41 34.31
49.02 48.90 48.34 49.19 49.53 50.56 50.93 51.00 51.91 52.99 54.38 54.84 56.22 57.04 55.94 51.38 49.12 49.60 51.22 51.26 47.66 27.65 15.71 34.75 40.52 38.91 40.17 42.09 42.55 44.15 44.30 46.98 45.07 39.03 38.95 35.52 40.27 38.83 36.70 38.56 38.72 40.29 37.51 36.67 36.88 35.06 28.58
48.47 48.36 47.95 48.54 49.18 50.27 50.48 50.68 52.17 52.53 52.48 54.80 54.23 56.55 53.84 51.50 46.47 51.65 51.51 45.73 29.62 20.13 35.13 34.06 35.53 38.42 37.49 37.21 38.85 40.49 38.52 38.19 35.13 30.93 30.53 35.49 35.37 38.46 41.07 36.50 38.45 37.18 33.30 27.68 25.75 24.39 25.31
48.42 48.17 47.72 48.07 48.36 49.36 50.00 50.13 51.57 52.13 52.28 52.81 52.82 55.83 53.55 50.71 52.85 51.71 47.75 36.33 22.09 30.14 31.70 38.23 37.08 37.43 34.22 36.87 37.90 38.11 37.14 34.53 38.69 35.87 32.82 28.73 25.66 35.46 39.00 36.57 34.37 35.02 33.90 27.21 18.23 20.95 24.45
48.25 47.98 47.44 47.75 48.47 48.88 49.81 49.51 51.84 50.96 51.40 52.30 53.00 53.17 49.74 50.75 52.63 50.26 42.10 29.86 25.69 32.11 37.23 35.86 36.82 33.59 34.08 36.98 36.50 37.15 35.88 33.96 35.46 37.21 30.07 28.82 28.19 37.61 38.03 39.03 38.52 33.76 30.13 36.37 30.89 31.36 28.21
48.01 47.64 47.24 47.81 48.11 48.72 49.24 49.29 50.74 51.02 51.13 51.83 48.95 48.57 47.38 52.03 52.12 47.00 37.80 31.33 32.91 39.32 40.87 39.49 33.62 36.10 30.93 33.99 33.16 33.79 34.02 36.02 35.73 38.62 38.07 31.42 23.70 34.82 37.55 39.55 39.02 36.38 37.97 29.39 30.55 21.35 22.37
47.75 47.51 47.44 47.33 47.57 48.55 48.75 49.13 50.85 50.84 51.55 51.56 48.69 42.97 48.71 52.25 50.52 41.98 32.59 31.30 36.56 41.93 42.23 39.19 37.30 36.03 34.46 30.86 32.98 32.29 31.50 35.65 37.68 36.94 37.88 34.27 31.70 30.94 35.58 34.00 32.89 33.79 32.43 33.90 32.80 31.28 27.13
47.52 47.40 47.40 46.92 47.12 48.15 48.23 49.50 49.86 51.06 50.89 49.87 47.17 38.13 50.11 51.32 39.72 39.12 36.26 38.20 41.42 40.37 42.95 41.69 41.10 38.88 35.52 33.56 32.67 31.24 31.08 33.42 39.90 38.70 33.59 37.04 34.99 28.35 30.97 36.89 39.78 36.85 34.20 34.36 29.45 27.86 33.61
47.72 47.15 47.08 46.26 47.70 48.55 48.10 49.20 49.53 51.06 52.82 49.97 44.07 44.28 50.22 48.85 34.79 35.25 39.35 39.02 40.68 40.87 41.36 41.09 39.96 40.29 39.67 36.03 31.68 33.33 34.45 39.64 40.87 38.80 35.55 38.40 34.03 27.11 29.43 34.12 36.82 36.20 36.04 37.58 37.00 37.39 31.83
47.30 46.92 46.83 46.17 47.30 48.05 48.32 48.80 49.65 49.84 50.68 50.72 44.57 39.11 43.93 44.98 44.25 38.95 36.79 37.43 37.47 43.33 41.56 42.67 41.97 41.97 39.79 37.89 36.61 34.28 34.93 39.71 41.72 40.51 44.29 41.63 35.40 31.67 26.97 32.80 35.80 33.86 36.55 37.51 35.87 32.45 32.54
46.94 46.75 46.67 45.79 46.33 47.53 48.62 48.97 49.69 49.58 49.58 50.30 46.21 41.23 43.08 36.16 38.86 39.62 39.64 39.83 37.44 37.59 42.19 43.01 39.33 39.86 39.20 34.97 34.01 34.08 36.97 37.56 41.62 43.77 41.97 39.07 32.01 32.47 34.34 35.01 36.02 35.01 38.09 37.36 36.66 37.15 32.79
46.66 46.60 46.45 45.78 46.12 46.47 48.04 48.60 49.23 49.06 50.35 49.02 43.56 42.64 43.77 39.84 41.63 40.58 39.66 39.12 38.66 40.29 41.31 39.98 38.68 41.22 39.68 37.83 35.16 33.10 36.48 37.42 37.15 40.61 38.86 38.88 31.88 33.56 31.94 38.08 37.37 35.84 39.13 39.10 39.40 37.41 36.65
46.39 46.42 46.25 45.56 45.62 46.63 48.00 48.56 49.14 48.84 49.53 42.86 48.02 46.55 44.92 41.05 39.98 38.75 38.87 39.30 39.23 40.77 42.48 43.03 42.46 40.76 40.33 40.75 43.72 43.59 43.29 41.81 40.71 39.89 36.17 35.17 33.88 33.06 32.72 39.56 38.86 35.55 38.07 39.17 35.53 37.22 36.74
46.06 46.13 46.11 45.68 45.42 46.59 47.44 48.03 49.06 48.93 49.12 46.83 48.41 45.61 43.18 39.30 40.20 39.81 41.34 41.06 39.82 40.53 39.60 42.60 43.56 41.22 44.35 48.80 48.25 47.03 44.17 42.60 40.30 39.55 40.20 34.77 34.76 34.93 33.49 37.07 27.47 35.69 43.37 41.90 40.26 40.92 41.55
46.01 46.04 46.02 45.72 45.25 46.26 47.12 47.97 49.03 48.98 49.67 47.50 48.87 44.81 41.39 39.49 41.41 40.74 40.89 39.66 39.26 40.81 41.11 42.60 44.21 46.20 47.20 45.63 41.64 38.06 37.81 37.88 35.82 38.55 36.15 37.21 36.54 32.01 30.07 28.88 32.81 35.28 37.21 39.81 39.71 39.47 40.77
45.76 45.92 45.75 45.65 45.06 45.65 46.79 47.67 48.93 49.49 50.25 49.21 48.91 47.98 45.02 41.58 40.39 43.70 40.71 40.47 37.80 35.76 38.57 42.20 45.25 45.61 46.91 43.69 40.52 34.59 31.06 31.86 31.59 34.21 38.39 39.78 38.52 36.34 30.64 26.26 27.35 33.38 37.23 39.11 39.29 33.55 39.37
45.67 45.69 45.32 44.88 45.14 45.57 46.24 47.27 48.23 49.22 49.92 49.27 49.25 50.59 47.08 42.39 43.72 43.07 39.61 38.81 40.97 38.84 38.51 40.51 41.71 42.57 45.87 41.25 37.17 34.99 32.95 35.05 30.53 30.28 32.43 35.09 35.85 30.50 30.03 30.40 31.75 38.02 38.38 38.99 32.40 33.94 38.28
45.41 45.29 45.15 44.58 45.13 45.29 45.70 46.89 47.82 48.74 49.27 49.04 48.80 50.29 48.24 43.97 44.27 44.99 43.93 41.06 41.53 41.33 38.68 41.56 41.51 42.04 41.81 38.59 37.59 37.60 35.56 34.37 33.27 33.18 33.98 33.97 34.12 32.85 33.45 29.29 26.12 39.54 38.03 33.41 37.44 38.29 38.35
44.97 44.98 45.08 44.41 44.86 45.22 45.52 46.74 47.72 48.09 49.12 49.87 47.17 50.31 50.80 46.10 44.73 47.64 47.23 46.31 45.08 45.85 43.80 43.09 41.98 42.36 43.50 40.66 40.02 40.53 35.05 34.28 37.63 30.40 35.85 33.98 37.44 37.05 34.81 34.00 39.43 38.93 39.24 40.42 40.04 38.96 37.86

GFSGBSN_sfc_wetblb_009.txt.gz
Wetbulb
55.47 55.52 55.82 56.57 57.17 58.12 59.89 60.55 60.70 60.83 60.52 61.01 61.04 60.01 59.16 58.27 57.72 57.63 57.17 57.09 56.62 57.05 56.98 57.68 58.29 58.96 55.37 49.52 48.41 55.27 60.62 60.11 59.25 59.63 55.90 54.01 49.55 46.32 42.25 43.90 45.49 44.13 45.72 48.40 50.49 51.63 51.82
54.64 54.98 55.29 55.49 55.77 56.50 57.35 58.75 60.54 60.46 60.37 60.28 61.49 60.43 59.55 58.34 57.76 57.59 57.19 57.05 56.83 56.66 57.04 57.04 57.53 57.55 50.22 40.56 51.84 52.83 52.72 53.82 55.19 55.06 54.28 54.06 51.00 49.99 46.23 44.54 43.26 45.52 46.09 46.94 49.38 49.28 49.88
53.59 53.75 53.79 54.45 54.99 55.14 55.84 57.01 58.41 59.87 60.20 59.98 60.71 60.85 59.94 59.12 57.66 57.44 57.25 57.15 57.50 57.28 56.79 56.67 56.88 54.49 48.59 44.72 51.59 51.74 52.48 50.96 51.97 54.55 51.82 53.42 53.54 49.73 49.20 45.08 47.69 46.53 42.95 44.97 45.76 47.06 47.63
53.31 53.46 53.62 53.50 54.02 54.67 55.18 56.31 57.43 58.60 59.38 59.61 60.17 60.48 59.93 59.16 58.31 57.74 57.27 57.04 57.32 56.98 57.22 57.14 56.84 51.98 42.83 52.68 52.29 51.55 51.46 49.92 51.24 52.22 51.30 52.33 54.63 51.11 49.24 49.41 46.20 43.31 40.84 36.49 42.89 46.41 47.82
52.05 52.57 52.50 52.62 53.10 53.85 54.51 54.61 56.20 56.93 57.42 59.34 59.56 59.72 59.84 59.22 58.29 57.67 57.85 57.01 56.65 56.54 56.82 56.86 51.08 47.13 41.23 53.68 49.74 51.25 51.08 48.55 48.28 48.80 49.36 52.56 50.90 46.27 45.56 43.08 40.35 39.65 33.72 35.43 39.75 46.04 46.53
51.32 51.14 51.18 51.21 51.96 52.48 53.03 53.51 54.21 55.10 56.10 57.69 58.93 58.94 58.68 58.95 58.11 57.71 57.62 56.76 55.91 55.39 55.02 54.15 52.08 44.83 46.37 44.48 48.92 50.16 50.46 50.47 46.35 46.11 45.37 45.59 45.55 41.53 41.51 39.74 31.08 34.53 33.99 34.09 35.79 42.00 44.02
50.97 50.92 50.39 50.43 50.30 51.19 52.11 52.26 53.21 54.45 54.77 56.67 57.69 58.06 58.24 58.17 57.92 57.64 54.84 49.46 43.13 41.78 48.52 42.60 43.44 43.47 44.66 48.87 50.75 48.81 49.70 47.95 46.19 42.58 36.42 39.28 37.84 35.74 37.53 37.95 39.86 36.66 36.10 36.01 39.20 42.18 39.63
50.53 50.53 50.20 50.42 50.12 49.93 51.32 51.77 52.37 52.91 54.13 55.15 56.31 57.76 57.98 58.13 57.95 57.33 50.17 44.20 42.74 44.57 38.48 45.51 45.70 45.78 47.58 49.01 43.78 46.76 49.51 43.11 41.33 37.10 37.97 35.95 32.31 37.07 38.83 37.70 36.66 35.97 35.18 35.08 38.72 41.60 41.03
49.91 50.28 49.74 50.10 49.38 49.90 50.61 51.06 51.83 52.38 53.05 54.53 55.38 57.68 57.62 57.67 57.44 54.25 49.00 47.60 49.34 47.46 37.77 41.13 44.30 43.51 44.60 46.71 43.26 43.80 46.25 43.04 38.87 36.45 36.27 33.49 34.94 39.61 37.64 35.94 35.33 34.76 32.91 33.74 33.83 37.92 39.42
49.69 49.82 49.48 49.04 48.74 49.53 49.81 50.62 51.03 51.54 52.18 53.52 54.79 56.53 56.93 57.15 52.32 51.35 47.90 49.99 49.47 48.53 29.18 33.67 39.55 43.49 45.15 46.10 41.02 48.12 47.65 43.57 39.80 35.67 38.09 37.01 40.15 36.91 35.09 33.80 35.33 31.09 37.16 37.14 35.76 33.18 27.89
49.68 49.43 49.27 48.79 48.43 48.69 49.51 49.99 51.14 50.88 51.32 52.71 54.12 55.77 56.76 56.06 49.27 47.30 48.20 49.93 49.68 42.80 12.36 35.50 38.68 48.21 47.23 41.33 43.39 42.80 47.92 45.04 37.92 36.76 35.87 34.10 34.87 34.40 33.16 34.17 36.83 33.42 38.30 36.03 36.17 33.87 31.31
49.54 49.43 49.08 48.50 48.40 48.54 49.07 49.78 50.94 50.38 51.00 52.49 52.94 54.05 55.59 51.49 50.15 49.62 50.98 50.38 46.45 25.53 14.74 33.76 39.65 39.21 40.64 41.94 42.47 43.81 43.81 46.64 44.29 38.89 38.19 34.95 39.00 37.54 35.91 37.74 37.64 38.95 35.79 35.38 34.35 32.57 25.93
49.18 49.05 48.86 48.41 48.13 48.48 49.14 49.49 50.37 49.85 51.10 51.65 52.17 53.06 53.40 51.79 46.33 50.70 51.15 45.64 29.44 18.98 34.28 33.15 34.96 37.90 37.18 37.52 38.81 40.28 39.34 38.18 35.80 31.40 30.84 36.39 35.11 37.93 39.58 34.51 37.19 35.87 31.85 25.74 24.94 24.54 23.60
49.12 48.77 48.14 48.26 48.02 48.25 48.61 48.75 49.69 50.00 51.06 51.11 51.46 51.65 51.61 51.77 51.86 51.28 48.12 37.58 20.66 28.89 30.33 37.28 36.52 36.63 33.16 36.12 36.70 37.43 37.35 34.44 38.87 34.97 32.44 28.63 27.04 34.81 37.64 35.41 33.20 33.37 31.98 25.00 19.00 20.91 21.89
49.02 48.53 47.96 48.15 48.06 48.05 48.15 48.59 49.09 49.75 50.87 50.83 51.16 49.52 48.13 51.17 52.06 50.52 41.71 29.06 26.01 29.58 35.30 35.00 36.14 32.99 33.37 36.52 36.85 36.55 36.06 34.26 36.17 36.66 30.37 26.97 26.39 36.17 37.58 38.63 37.88 33.73 30.83 34.43 28.51 30.36 27.98
48.60 48.44 48.14 47.69 47.75 47.36 47.65 48.56 49.21 50.51 50.47 50.44 47.84 45.44 46.44 52.19 52.21 47.57 37.51 29.24 30.64 37.54 38.84 37.30 31.18 35.06 30.88 33.52 33.57 34.00 33.17 35.06 35.39 37.57 38.80 33.13 26.95 33.46 36.67 37.89 37.51 34.80 36.79 29.19 29.55 21.98 21.11
48.32 48.15 48.05 47.64 47.39 46.76 47.26 48.36 49.52 49.96 50.26 50.39 45.83 40.84 48.73 52.40 50.46 42.46 32.86 29.94 34.93 40.24 41.83 37.84 35.63 34.98 33.96 33.14 33.50 31.91 32.14 34.27 37.30 36.28 39.20 35.93 28.95 27.58 33.43 32.83 31.25 33.11 31.42 32.90 31.20 28.20 20.77
48.07 47.85 47.93 47.38 46.99 46.39 47.00 48.23 49.28 49.97 50.15 48.80 44.05 34.05 50.13 50.89 39.20 39.67 34.91 36.15 40.53 39.03 41.81 40.95 40.26 38.87 36.06 34.11 31.98 30.54 30.41 33.66 38.55 37.86 34.43 36.48 33.06 25.90 28.93 35.70 38.74 36.86 32.59 32.77 27.62 20.23 26.68
47.78 47.57 47.54 46.98 46.68 46.33 46.85 48.11 49.06 49.86 50.04 44.96 41.64 42.62 49.65 48.10 33.34 34.50 38.13 37.91 39.84 39.85 40.66 40.28 39.48 40.44 40.43 35.23 30.73 32.80 33.26 38.86 39.69 37.95 35.21 36.74 33.41 25.55 29.49 33.57 35.63 33.42 33.67 34.14 33.64 32.73 26.69
47.38 47.20 47.20 46.78 46.68 46.81 47.30 47.83 48.76 49.79 49.78 47.10 42.54 35.36 42.07 43.94 43.31 36.58 34.75 36.07 36.41 42.03 40.18 42.28 41.38 41.75 38.87 36.68 36.15 33.01 33.77 38.79 39.85 39.75 42.89 40.51 34.99 30.64 25.33 30.69 34.27 30.65 34.30 34.38 32.72 27.54 28.07
46.90 46.93 46.96 46.64 46.34 45.90 46.91 47.76 48.65 49.64 49.21 47.64 43.42 38.86 39.99 34.87 37.90 37.59 38.26 38.28 35.95 36.72 41.82 42.12 39.84 39.82 38.69 35.03 35.31 33.23 36.10 37.42 40.73 42.33 40.76 38.26 31.30 32.89 33.81 34.28 34.81 34.75 35.05 34.11 32.07 32.91 29.37
46.69 46.39 46.86 46.40 46.38 45.71 46.70 47.46 48.35 49.66 49.46 46.47 42.52 41.48 41.78 38.29 40.88 37.98 38.37 36.75 38.23 38.51 40.22 39.35 38.77 39.98 40.36 37.75 35.93 31.71 36.33 36.68 36.46 40.29 38.48 39.60 32.22 33.03 31.39 34.46 33.70 31.77 34.06 36.28 35.30 35.63 35.48
46.37 46.31 46.47 46.49 46.18 45.61 46.31 48.12 48.87 49.60 48.77 42.76 44.29 47.10 43.08 39.50 39.54 37.50 37.20 37.65 38.96 41.42 42.65 42.69 41.74 40.58 39.77 41.23 42.13 41.86 41.97 42.03 41.11 38.90 37.66 35.64 33.56 32.57 28.69 36.53 35.25 29.91 33.28 35.00 37.31 38.66 38.59
46.19 46.26 46.35 46.13 46.02 45.39 45.62 47.17 48.34 49.14 49.15 46.05 45.39 43.88 41.91 36.65 38.56 38.39 40.48 40.38 39.55 40.62 39.05 42.22 43.36 41.49 43.70 47.85 46.06 43.83 43.67 43.11 42.18 40.54 40.31 35.32 33.70 34.06 29.88 33.31 28.36 36.60 42.80 41.27 39.28 39.01 39.64
46.33 46.23 46.25 45.90 45.14 45.22 45.47 46.73 47.99 48.73 49.49 46.51 47.46 46.10 44.05 38.91 39.66 40.18 40.68 40.80 41.36 41.64 41.06 40.76 42.81 44.90 47.35 44.71 40.84 37.44 37.50 38.16 37.79 36.98 38.44 38.38 35.63 32.81 32.31 29.28 33.50 36.49 40.96 39.67 37.93 36.96 41.01
46.25 46.08 45.90 45.79 44.83 45.17 45.42 46.33 47.64 48.37 49.09 47.31 46.72 49.47 45.19 41.22 39.68 43.34 41.17 40.98 39.18 38.43 39.37 41.27 44.03 45.74 46.19 42.89 39.81 33.66 30.18 30.20 30.02 31.98 35.25 36.19 36.86 34.96 32.61 27.97 26.08 32.47 39.80 42.16 43.18 34.98 43.68
46.13 45.68 45.63 45.64 44.98 45.10 45.55 45.89 47.27 47.95 48.42 47.65 46.54 49.70 45.93 39.30 43.22 42.77 40.35 38.93 41.44 38.35 36.09 39.38 41.73 42.65 44.85 39.40 36.44 34.22 32.07 33.15 29.01 29.94 33.03 33.85 34.91 31.62 32.18 31.22 30.94 37.15 37.75 39.79 33.36 33.72 38.60
45.78 45.67 45.46 45.35 45.42 44.91 45.45 45.64 46.81 47.53 47.85 47.08 46.18 48.96 47.48 42.86 43.62 44.39 44.32 41.00 40.70 40.44 37.85 41.47 40.98 41.91 41.17 37.77 36.92 36.28 32.40 33.80 30.60 30.85 32.12 32.22 31.69 30.62 30.01 29.10 24.57 38.57 37.56 34.04 36.87 36.73 37.96
45.45 45.43 45.11 45.13 45.31 44.95 45.33 45.33 46.64 47.12 47.29 47.83 45.49 50.29 49.84 45.44 43.93 46.87 46.07 46.13 46.10 46.04 43.12 43.06 41.91 42.24 43.44 40.07 38.75 39.54 35.84 32.72 33.06 28.80 33.91 32.04 35.14 32.86 33.43 32.45 38.15 38.28 37.82 38.98 39.10 38.17 36.28

GFSGBSN_sfc_wetblb_012.txt.gz
Wetbulb
54.49 54.42 54.30 54.52 54.55 55.18 55.85 56.28 57.46 57.47 59.70 60.13 60.48 60.72 60.39 59.52 58.55 57.76 57.43 57.04 56.79 56.92 57.23 57.69 58.23 58.80 55.37 50.22 49.86 54.76 59.82 58.09 59.57 58.93 55.59 53.74 49.26 45.26 41.25 42.33 43.59 42.75 44.71 47.58 48.55 49.01 49.42
53.60 53.55 53.49 53.53 54.15 54.04 54.53 55.70 55.83 56.38 57.50 60.18 59.98 60.40 60.38 59.93 58.69 57.94 57.56 57.01 57.02 56.66 56.90 56.98 57.36 57.03 49.61 40.38 50.59 51.94 52.19 52.89 56.75 57.83 55.06 54.14 50.20 49.53 44.50 43.84 42.07 44.28 44.90 45.42 46.92 47.78 48.27
52.84 52.59 52.73 53.09 52.94 52.74 53.45 54.10 54.63 55.25 56.23 58.49 59.39 59.94 59.95 59.67 59.00 57.94 57.51 57.10 57.19 57.17 56.98 56.49 56.80 53.90 47.47 44.54 50.82 51.03 52.09 49.94 51.52 53.91 52.54 54.22 52.71 48.43 47.60 43.22 46.78 45.75 41.84 43.65 44.53 45.63 45.45
52.14 52.18 52.21 51.88 51.48 51.55 52.34 52.98 53.10 53.82 55.06 56.22 57.50 58.83 59.14 59.28 58.86 58.43 57.59 57.20 57.23 57.15 57.55 57.14 56.92 50.70 41.39 51.67 51.34 50.95 50.40 49.02 50.31 52.89 51.58 53.81 54.40 50.65 47.35 47.51 44.85 43.57 43.49 34.99 41.31 44.16 45.73
51.67 51.80 51.60 51.39 51.58 51.78 51.26 50.97 52.40 52.68 53.84 55.40 56.09 56.92 58.69 58.83 58.66 58.14 57.85 57.09 56.87 56.20 57.01 57.02 50.27 46.21 40.67 52.96 49.35 50.24 50.16 47.56 48.01 48.60 49.24 52.41 51.46 46.02 44.35 39.92 36.75 39.34 31.43 34.81 38.08 43.66 43.99
51.95 51.12 51.21 50.67 50.71 51.02 50.83 50.64 51.55 52.08 52.65 53.84 54.64 54.82 57.02 58.32 58.31 57.74 57.69 56.78 56.16 55.14 54.42 53.84 51.28 43.27 45.37 43.86 48.28 49.58 49.75 49.84 45.76 45.75 45.22 45.09 44.81 40.99 40.18 36.47 26.89 30.52 33.19 37.17 36.57 40.39 40.61
51.11 50.57 50.41 50.56 50.17 50.10 50.11 50.49 51.24 51.56 51.59 52.64 53.69 55.22 55.58 57.17 57.99 57.52 55.14 50.33 44.48 44.18 48.43 42.53 43.00 42.45 44.69 48.41 50.04 48.24 49.14 47.37 45.30 42.06 37.34 39.82 37.18 35.57 37.99 37.74 37.21 35.80 33.91 34.99 38.73 42.12 39.52
50.43 50.53 50.72 50.55 50.49 49.86 49.64 49.91 50.47 50.90 51.75 51.99 52.25 53.41 55.05 55.65 58.13 57.39 52.03 44.65 43.04 43.56 37.95 45.54 45.52 45.59 47.64 48.33 43.22 46.17 49.03 42.77 40.94 35.86 36.59 36.68 32.10 37.20 39.99 39.82 38.09 36.83 34.75 33.81 36.28 39.35 38.21
50.97 50.86 50.53 50.30 49.95 49.80 49.51 49.14 49.85 50.63 51.39 51.64 51.87 52.15 54.41 54.35 57.60 53.82 49.08 45.49 48.63 46.93 36.73 39.81 43.74 43.49 44.37 46.22 42.29 43.07 45.75 42.18 38.10 35.39 37.04 33.08 34.45 38.67 37.61 35.37 35.06 34.25 32.12 31.22 31.54 35.55 37.15
50.91 50.57 50.40 50.28 49.88 49.33 49.23 48.78 49.72 50.33 50.78 50.85 51.03 51.79 53.56 54.50 53.75 51.17 47.80 49.52 48.74 46.74 24.93 31.68 39.36 42.48 44.33 45.34 40.19 47.40 47.04 42.82 38.79 35.65 36.15 35.41 39.00 36.81 34.43 33.31 34.06 30.08 35.67 35.94 34.65 32.05 25.97
50.64 50.42 49.91 49.86 49.46 49.11 48.71 48.90 49.60 50.02 50.05 50.20 50.53 51.92 53.23 54.66 51.03 47.72 49.04 50.07 49.56 41.35 13.37 34.95 39.15 48.56 45.85 40.73 42.02 41.70 47.07 44.25 36.40 35.65 36.35 32.62 34.04 34.07 33.49 34.22 35.34 32.40 37.03 35.07 34.80 32.57 29.47
50.64 50.39 50.04 49.29 49.08 48.92 48.53 48.72 49.35 49.23 49.40 49.66 50.96 51.76 52.33 49.49 51.72 50.41 50.89 50.85 44.94 23.81 13.30 33.22 38.90 40.44 39.83 40.68 42.38 43.10 43.49 46.09 44.11 38.77 38.29 34.83 38.46 37.03 34.86 36.71 37.09 37.94 34.35 34.18 33.41 33.05 25.19
50.31 49.79 49.49 49.25 48.92 48.57 48.58 48.49 48.51 48.73 49.15 50.66 50.94 51.61 50.43 50.67 47.11 51.59 51.45 45.33 28.79 20.46 33.61 32.43 34.67 38.02 38.40 37.01 38.84 40.18 38.63 37.52 35.12 31.74 31.55 35.90 35.86 38.72 39.42 33.28 36.17 35.66 31.56 24.33 23.98 23.97 21.19
49.79 49.42 49.12 48.94 48.80 48.30 48.31 48.12 48.05 48.46 49.50 50.29 51.09 50.67 50.35 49.80 51.19 51.83 48.14 35.32 23.84 28.54 29.19 36.71 35.80 36.26 33.44 36.96 37.03 38.47 37.51 35.09 38.72 36.90 32.57 28.91 23.74 34.81 37.63 35.13 31.69 32.05 31.42 24.97 17.73 19.03 20.01
49.45 49.12 48.77 48.51 48.60 48.12 48.00 47.77 48.22 49.32 49.65 50.64 50.63 48.83 47.53 48.87 51.47 50.88 40.85 29.29 26.79 29.21 35.38 34.82 35.14 31.51 32.10 35.22 35.54 35.83 35.83 35.30 36.76 37.98 30.69 29.18 24.63 35.07 36.77 37.65 37.85 34.47 28.93 33.18 27.70 28.42 24.49
48.75 48.57 48.47 48.29 48.28 47.88 47.46 47.95 48.53 49.32 49.65 50.21 45.92 45.29 44.58 49.71 52.05 47.45 36.59 29.83 30.24 36.25 37.91 36.58 30.13 33.35 30.14 33.06 32.51 34.74 33.31 34.98 36.05 38.97 37.79 33.29 26.90 32.22 35.31 37.48 37.49 35.09 37.35 29.06 28.59 19.82 17.14
48.26 48.39 48.19 48.07 47.71 47.51 47.24 47.64 48.65 49.32 50.00 50.13 44.87 39.01 46.88 50.70 50.82 41.44 32.18 30.82 33.57 40.07 40.62 36.10 34.05 32.77 34.23 33.34 34.15 33.22 30.83 33.58 36.64 35.36 38.10 35.89 31.82 27.42 34.83 32.11 30.44 33.01 31.49 32.75 32.05 29.70 20.19
47.92 47.97 47.89 47.68 47.42 47.21 46.76 47.07 48.61 49.46 49.72 46.95 43.40 34.33 48.98 49.81 37.86 37.43 34.76 34.20 39.75 38.20 41.39 40.89 38.98 37.87 35.46 34.40 33.08 31.23 29.58 32.32 37.47 37.46 33.74 36.91 34.06 26.09 28.22 34.20 37.16 35.34 32.04 31.61 25.74 20.74 24.32
47.79 47.73 47.37 47.37 47.08 46.82 46.39 47.19 48.37 49.39 49.58 44.66 39.94 41.44 49.60 47.11 33.06 34.89 37.43 36.65 38.35 38.49 39.33 39.34 38.18 39.63 40.25 35.91 31.40 32.48 32.64 37.92 38.51 37.28 34.31 36.68 32.68 26.17 26.90 32.42 36.03 33.32 34.02 33.90 32.43 30.47 23.36
47.52 47.51 47.14 47.09 46.92 46.59 46.18 46.98 47.96 49.22 49.87 45.58 41.04 34.92 42.14 42.19 42.40 37.05 34.53 34.70 35.61 40.31 39.73 41.53 40.60 40.90 38.84 36.95 36.36 32.20 33.13 37.66 38.96 38.49 41.54 39.97 34.72 30.24 24.75 29.69 33.20 31.59 33.22 34.04 31.68 27.05 26.45
47.28 47.37 46.97 46.76 46.84 46.55 46.10 47.08 47.80 49.29 49.41 46.16 42.61 36.46 38.18 32.20 36.48 37.29 37.87 36.81 35.20 35.91 40.87 41.23 39.75 39.31 38.21 35.86 35.90 33.99 34.78 35.79 38.50 40.58 40.50 38.01 31.24 32.90 33.58 33.99 33.82 33.64 33.50 33.67 30.59 30.97 26.89
47.09 47.18 47.08 46.96 46.69 46.42 45.80 46.86 47.68 49.24 49.74 44.51 40.77 40.04 40.20 36.33 40.03 36.37 36.31 36.39 36.17 37.15 39.64 38.12 37.32 39.21 39.91 37.79 37.12 33.76 35.82 35.45 36.21 38.47 37.36 38.97 31.43 32.99 30.81 34.50 34.46 32.72 33.80 34.00 34.97 33.01 32.20
47.01 46.85 46.98 46.74 46.60 45.67 45.78 47.38 47.42 48.96 48.98 41.44 42.24 44.23 40.39 39.16 39.05 35.92 35.51 36.21 36.01 40.39 41.21 41.31 40.54 40.26 39.02 41.07 43.13 43.07 42.34 41.62 41.47 38.65 36.65 36.08 33.09 32.02 27.95 33.42 34.25 29.12 32.80 34.06 34.62 36.71 34.79
46.86 46.76 46.73 46.52 46.31 45.52 45.58 46.69 47.57 48.57 48.84 46.12 43.99 43.83 40.34 36.01 38.18 37.12 38.75 38.09 38.57 40.36 38.45 41.22 42.77 40.94 43.91 47.08 46.48 44.01 42.16 40.70 41.76 41.22 41.31 34.84 32.99 33.15 28.87 32.02 26.75 36.88 41.03 38.04 35.09 36.67 38.58
46.81 46.59 46.44 46.28 46.23 45.72 45.51 46.12 46.65 48.20 48.77 45.51 46.32 44.49 43.82 36.85 39.50 37.98 40.44 38.66 39.95 41.41 40.89 41.04 42.09 44.76 46.83 44.65 40.05 37.85 37.47 37.13 37.88 40.16 38.82 39.63 34.45 31.62 30.38 30.63 33.84 37.06 38.96 36.46 33.82 34.33 39.46
46.67 46.49 46.36 46.09 45.96 45.87 45.35 45.95 46.33 47.92 48.09 45.83 45.53 48.32 45.65 39.56 37.04 41.77 40.02 40.39 38.92 39.07 39.59 41.74 43.15 44.43 44.19 42.39 38.76 33.75 29.48 32.59 29.94 32.59 34.98 37.92 37.04 33.62 31.07 29.12 25.47 32.20 41.48 44.01 42.78 35.25 41.31
46.47 46.35 46.09 45.95 45.67 45.90 45.48 45.90 46.00 47.50 47.56 45.82 45.12 48.84 46.44 41.41 41.22 43.32 39.85 40.16 42.22 39.86 38.01 37.96 39.20 40.00 44.99 39.88 35.54 34.18 31.97 34.25 28.15 30.39 33.26 32.73 33.56 30.41 30.52 30.30 30.81 35.94 37.42 42.18 33.74 34.65 38.22
46.25 46.09 45.89 45.69 45.76 45.75 45.54 45.80 45.69 47.10 47.86 46.07 44.19 48.16 47.19 42.79 42.54 43.45 43.91 40.92 40.34 39.35 36.58 39.57 40.65 41.47 40.26 36.84 36.36 35.82 33.71 32.43 29.14 30.16 31.52 31.02 29.64 31.34 32.33 29.32 24.11 37.83 36.89 32.39 36.54 37.20 37.06
46.14 45.87 45.54 45.72 45.51 45.59 45.36 45.69 45.36 46.47 47.35 47.14 42.23 46.68 49.65 42.95 42.63 45.64 45.60 45.16 45.63 44.64 43.02 42.66 41.09 42.16 42.49 40.18 38.69 39.59 35.89 32.06 31.11 28.07 32.20 30.43 33.70 31.77 32.43 31.49 37.14 37.48 37.83 39.25 38.37 37.58 35.53

GFSGBSN_sfc_wetblb_015.txt.gz
Wetbulb
53.62 53.36 53.20 53.32 53.29 52.99 52.73 53.57 54.09 54.38 55.50 57.15 58.62 59.80 60.13 60.38 60.26 59.09 57.72 57.17 57.02 56.52 57.44 57.01 57.66 58.43 55.47 50.62 50.97 55.37 58.13 57.50 60.10 59.17 56.26 54.06 49.41 46.54 43.20 44.62 46.10 45.20 46.06 48.26 49.18 49.02 49.19
53.01 52.98 52.84 52.82 52.53 52.27 52.74 52.17 52.28 52.95 53.78 55.17 56.83 58.09 58.83 59.65 60.00 59.50 58.30 57.60 57.02 56.90 56.89 56.97 57.18 56.42 50.22 43.05 51.49 52.08 52.75 53.76 58.62 58.49 55.95 54.18 51.34 50.01 46.33 45.37 44.04 45.49 46.05 46.42 47.64 47.73 49.00
52.83 52.79 52.52 52.38 51.85 51.76 52.12 52.30 51.54 51.53 52.80 53.95 55.30 57.09 57.17 58.64 59.46 59.39 58.28 57.73 57.11 57.34 56.98 56.71 56.97 53.36 47.47 44.38 51.74 51.81 52.01 50.87 53.52 57.22 54.52 55.18 54.07 49.87 48.82 45.09 48.15 47.02 43.56 44.63 45.42 46.55 46.22
52.24 52.11 51.64 51.72 51.90 51.27 50.75 50.68 50.63 51.05 52.02 52.90 53.74 55.08 55.80 57.02 58.47 58.95 58.48 57.80 57.17 57.35 57.52 57.04 57.11 50.45 41.40 51.39 52.15 51.18 51.32 50.05 51.51 54.81 53.43 55.23 54.85 51.52 48.93 48.53 44.99 43.49 43.13 37.91 42.83 45.31 46.26
51.01 51.75 51.31 51.72 51.88 51.73 51.25 50.83 50.45 50.39 51.91 52.30 52.62 53.54 54.74 55.60 57.43 58.42 58.23 57.76 57.22 56.83 56.42 57.36 50.68 46.17 40.93 52.71 49.47 50.72 50.37 47.90 49.23 50.13 50.78 55.39 51.97 46.86 47.24 41.50 37.86 39.82 33.29 36.40 39.00 44.95 44.88
51.17 51.19 51.69 51.48 51.49 51.44 51.15 50.84 50.56 49.85 51.07 51.73 52.07 52.52 53.45 54.33 55.52 57.86 57.93 57.32 56.61 54.95 54.35 53.80 51.34 43.71 45.36 43.85 48.52 49.43 50.74 49.37 46.60 46.54 46.12 46.00 44.91 40.98 41.67 39.10 29.26 32.03 34.71 36.21 36.34 41.60 41.60
52.22 52.14 51.90 51.22 51.10 50.99 51.04 50.65 50.36 50.24 50.51 50.90 51.66 52.24 52.51 52.96 55.30 57.01 55.83 51.41 46.28 45.33 47.71 42.27 42.64 42.72 44.77 48.55 50.27 48.03 49.57 47.29 45.72 43.36 38.59 42.03 38.81 35.29 37.50 38.64 37.90 37.04 35.57 34.76 37.61 41.60 38.77
52.23 51.73 51.39 51.31 51.02 50.81 50.45 50.08 49.82 50.01 50.14 50.52 51.21 51.56 51.80 52.15 54.96 55.59 53.27 45.92 44.27 44.40 39.21 45.99 45.48 45.24 47.58 48.19 42.99 46.08 49.17 42.80 41.17 36.58 38.32 37.43 34.31 39.35 39.97 40.26 38.85 37.90 35.61 35.22 37.93 39.62 38.22
51.67 51.67 51.64 51.37 50.96 50.73 50.32 49.93 49.63 49.55 49.79 50.22 50.50 50.98 50.87 51.73 53.64 53.15 49.44 46.44 47.85 46.81 36.92 39.51 44.12 43.67 44.46 46.35 42.27 42.99 45.94 42.66 38.99 36.10 36.29 34.22 35.54 39.04 38.02 36.84 35.81 35.88 34.27 33.81 33.27 36.35 37.74
51.57 51.61 51.32 50.85 50.56 50.29 50.02 49.67 49.17 49.36 49.50 49.74 49.89 50.04 50.66 51.41 49.38 51.97 47.60 49.56 48.72 45.89 25.37 32.39 38.91 42.24 44.43 45.70 40.51 47.30 47.41 43.53 39.47 36.23 37.12 36.63 39.51 37.00 35.21 34.29 35.49 31.51 36.26 35.92 34.38 32.46 26.95
51.54 51.14 50.88 50.34 50.03 49.83 49.61 49.51 49.06 49.25 48.91 48.91 49.52 49.52 50.58 51.53 48.00 48.42 49.53 50.02 46.78 41.83 12.23 34.47 38.38 48.24 45.50 40.95 41.02 41.91 47.26 44.07 36.71 36.22 36.65 33.37 34.96 34.76 34.29 34.80 35.68 33.01 36.95 35.05 34.98 33.11 31.59
50.89 50.67 50.39 50.01 49.69 49.39 49.24 49.10 48.95 48.87 48.56 48.61 48.75 50.84 50.74 49.58 48.90 50.13 51.27 49.97 43.51 25.69 15.52 33.10 39.02 39.84 39.27 40.33 41.71 43.20 43.28 46.21 43.84 37.88 37.82 34.93 39.00 37.34 35.95 37.28 37.55 38.67 35.68 34.81 34.37 32.70 25.68
49.86 49.83 49.57 49.42 49.31 48.99 48.88 48.66 48.67 48.60 48.85 48.89 49.78 50.85 49.70 49.66 45.27 50.37 51.60 45.52 29.92 19.01 33.43 32.00 34.30 39.66 37.93 36.48 38.93 39.59 38.40 37.40 35.43 30.72 31.17 35.73 36.09 38.28 38.93 34.02 36.65 35.94 32.46 25.46 23.45 24.23 22.45
49.17 48.99 49.20 49.07 48.90 48.73 48.53 48.28 48.30 48.73 49.13 49.48 49.45 50.44 49.64 49.44 49.80 48.52 47.97 36.71 24.25 28.50 29.43 36.85 36.54 37.42 34.63 36.53 37.09 38.41 36.69 34.51 38.30 36.87 32.38 26.92 23.85 35.27 38.83 35.54 32.44 32.92 32.22 25.87 18.64 19.78 23.32
48.65 48.58 48.69 48.59 48.55 48.48 48.23 48.33 48.12 48.66 49.35 49.87 49.76 46.92 47.50 48.69 49.59 47.90 40.48 29.94 26.88 29.21 35.39 34.30 35.29 32.28 32.28 35.45 36.11 36.30 36.24 35.23 37.53 37.81 31.29 28.28 27.53 35.43 36.75 37.61 37.01 32.90 29.53 34.38 28.18 28.80 24.68
48.06 48.53 48.58 48.42 48.21 48.16 47.99 48.15 47.69 48.63 49.77 49.75 45.00 44.94 44.22 49.13 48.72 44.59 35.18 31.53 30.05 36.71 37.55 36.43 30.72 32.72 29.60 32.41 32.72 33.79 33.72 35.63 35.97 38.98 39.80 33.43 26.71 32.11 35.49 37.67 37.51 36.00 37.00 27.95 29.00 20.11 18.82
48.74 48.38 48.33 48.08 47.82 47.80 47.52 47.57 47.94 48.83 49.45 49.37 43.63 39.30 46.16 49.34 47.37 39.13 31.69 30.69 34.00 39.48 39.45 35.26 33.46 32.10 32.37 32.77 32.67 33.09 31.40 34.30 37.14 36.30 39.35 36.04 32.00 28.31 34.51 32.74 31.22 32.97 31.44 33.32 32.03 29.60 22.47
48.43 48.15 48.11 47.71 47.53 47.35 47.23 47.11 47.66 48.67 49.68 46.37 40.51 35.20 47.05 49.41 34.19 34.34 34.16 34.67 39.81 38.88 41.36 39.95 38.05 36.11 33.54 34.06 33.68 33.03 31.52 32.24 37.23 36.90 34.85 36.65 33.91 27.09 27.93 35.52 37.60 35.67 32.89 32.50 26.72 24.17 27.33
48.28 48.19 47.93 47.55 47.48 47.20 46.85 46.65 47.44 48.70 49.63 44.93 37.11 39.57 47.70 45.31 32.21 33.92 36.88 37.37 38.39 38.19 39.11 38.98 37.63 39.02 38.49 34.30 31.62 33.08 32.55 37.37 38.04 36.82 34.27 36.46 32.25 23.42 25.82 32.16 35.20 32.80 33.53 34.00 32.98 31.60 25.75
48.13 48.05 47.82 47.68 47.24 47.05 46.43 46.35 47.17 48.71 49.61 46.01 38.75 33.40 40.82 42.56 41.49 36.82 34.39 34.39 34.77 39.82 39.75 40.67 39.89 40.12 38.39 36.12 36.67 33.06 32.65 37.24 38.26 38.43 41.34 39.85 33.12 28.51 24.94 29.49 33.61 30.97 32.27 33.66 31.98 27.80 26.84
48.01 47.93 47.72 47.43 47.14 46.94 46.16 46.73 47.40 48.14 49.75 46.72 40.74 34.67 38.65 33.00 36.03 37.04 36.58 34.88 34.79 35.07 39.39 39.76 39.43 39.64 37.28 35.06 35.65 34.10 34.77 35.36 37.73 39.92 39.92 37.67 30.87 32.41 32.97 33.49 33.52 32.16 33.53 32.97 31.10 31.48 27.24
47.80 47.71 47.60 47.30 47.01 46.90 46.05 46.66 48.16 48.23 49.77 43.23 37.57 38.78 39.90 37.17 39.10 36.97 37.63 33.01 33.31 36.40 38.76 36.96 36.18 38.90 39.66 36.91 36.95 33.81 35.61 34.57 34.78 36.71 37.32 39.00 31.81 33.42 30.81 34.26 33.90 31.25 33.47 33.86 33.48 33.37 32.50
47.55 47.50 47.35 47.15 46.79 46.74 46.08 47.24 47.92 48.41 48.70 42.31 42.43 43.63 41.45 38.72 37.26 35.72 33.67 35.92 35.58 38.23 39.94 41.38 40.00 39.09 38.79 40.15 42.99 43.45 43.16 42.04 38.94 37.27 35.98 36.02 33.71 31.82 28.03 33.93 33.39 29.98 33.54 34.09 34.27 35.67 34.28
47.27 47.31 47.10 46.91 46.77 46.60 46.45 45.88 47.25 48.06 48.37 44.85 44.12 43.00 39.96 34.81 37.01 36.00 36.32 36.49 37.36 39.17 37.11 41.61 41.46 40.33 43.68 46.93 45.23 44.25 43.26 42.08 41.19 39.91 40.79 36.30 33.04 32.86 29.10 31.84 26.08 37.10 40.73 38.53 35.92 36.45 37.47
47.28 47.08 46.95 46.73 46.36 46.19 46.45 45.80 46.71 46.90 48.42 44.63 45.06 43.21 42.21 35.63 37.60 37.17 36.51 36.62 36.52 38.09 40.28 41.08 41.94 44.29 46.49 44.52 38.00 37.10 37.31 37.44 37.43 38.86 39.13 40.45 35.94 32.11 29.17 28.89 33.53 36.05 38.37 37.06 34.76 34.56 38.61
47.06 47.05 46.69 46.55 46.23 46.21 46.23 45.93 46.44 46.52 47.87 45.68 44.57 47.57 44.46 37.48 36.03 39.57 38.75 38.19 37.46 36.68 39.50 41.29 43.69 44.54 43.71 39.83 36.51 32.81 29.97 30.50 28.47 30.64 35.57 39.12 38.44 34.48 31.07 27.35 27.55 33.91 40.48 41.20 41.29 33.87 40.09
46.90 46.83 46.45 46.36 46.25 46.14 46.17 45.86 46.27 45.97 47.30 45.88 44.15 47.72 44.31 41.55 41.71 41.05 38.03 38.69 42.29 40.66 38.84 39.63 40.75 40.28 42.54 37.15 33.56 33.61 32.44 32.36 27.83 30.12 31.17 32.75 33.31 31.24 30.85 29.62 31.48 36.95 38.43 42.24 32.70 33.94 37.80
46.30 45.96 45.76 45.81 45.83 45.92 45.85 45.78 46.21 45.61 47.44 45.71 43.06 47.52 42.53 42.27 41.62 42.40 43.27 40.78 39.12 38.50 37.12 39.24 39.28 40.70 40.22 36.23 35.71 35.28 34.43 31.95 28.79 30.03 30.99 30.76 29.46 29.70 31.87 29.62 23.75 37.36 38.40 34.35 36.97 37.43 38.12
45.49 45.28 45.50 45.70 45.69 45.70 45.57 45.87 45.28 45.43 46.56 47.05 41.19 45.10 45.03 44.01 43.56 46.04 45.62 44.31 45.42 44.28 42.92 42.24 40.89 41.67 41.91 38.71 38.66 39.25 35.31 31.47 30.47 28.26 31.79 29.90 33.20 31.31 32.08 31.32 37.49 38.47 38.08 39.69 38.86 37.33 37.64

GFSGBSN_sfc_wetblb_018.txt.gz
Wetbulb
53.68 53.77 53.23 53.35 53.07 52.57 52.49 52.54 52.39 52.33 52.46 52.99 54.14 55.04 57.20 58.52 59.50 59.88 59.83 58.54 57.92 57.61 57.14 57.20 57.51 58.13 57.06 52.36 52.62 57.67 57.87 58.87 62.00 61.31 57.25 55.25 52.32 50.69 47.40 48.28 49.21 47.96 49.08 50.26 51.66 51.80 51.68
53.30 53.22 52.42 52.27 52.63 52.69 52.21 52.03 51.51 51.60 51.72 52.34 53.06 54.02 55.24 57.32 57.97 59.32 59.53 58.87 58.06 57.72 57.18 57.58 57.17 56.67 52.08 46.60 55.29 55.67 55.66 58.28 60.10 59.67 56.82 55.58 52.74 52.05 48.76 47.88 47.52 48.36 48.90 49.43 50.34 50.34 50.74
52.14 52.09 52.90 52.40 52.59 52.58 52.61 52.25 51.76 51.47 50.92 51.51 53.03 53.10 53.42 55.09 56.36 58.40 59.13 58.76 58.21 57.69 57.33 57.55 57.03 54.81 49.52 46.58 54.44 55.23 54.55 54.92 59.71 59.44 55.71 55.96 55.02 52.49 51.70 47.09 50.30 48.74 44.93 47.20 48.17 48.96 48.18
52.04 52.35 52.06 52.57 52.30 52.13 52.16 51.99 51.63 51.15 51.34 50.85 52.18 52.52 52.76 53.66 55.09 56.69 58.38 58.80 58.43 57.95 57.51 57.31 57.22 52.38 45.31 52.73 55.56 53.46 54.20 53.74 56.89 57.23 57.71 57.93 57.35 52.07 49.01 50.56 47.38 44.67 45.13 41.15 46.52 47.85 48.87
52.20 53.17 52.86 52.35 52.39 52.00 51.99 51.57 51.39 50.93 50.64 51.06 51.22 51.83 52.51 53.03 53.64 55.23 57.02 58.46 58.19 57.71 57.29 57.38 53.08 49.13 44.61 53.71 50.02 53.06 53.81 52.11 54.05 54.36 56.02 57.65 54.67 49.18 49.00 43.60 41.58 42.94 38.62 40.05 42.61 47.66 47.27
53.46 52.51 52.63 52.36 52.38 51.99 51.89 51.43 51.18 50.61 50.85 50.80 50.74 50.89 51.86 52.73 52.93 53.55 56.13 58.28 57.08 56.51 55.81 54.40 51.59 45.93 48.22 45.71 50.11 51.31 53.34 52.97 50.73 51.28 49.78 49.40 48.01 43.95 44.02 42.05 36.11 37.96 37.62 39.97 39.80 44.20 45.20
52.72 52.43 52.62 52.48 52.24 51.85 51.80 51.26 50.78 50.50 50.17 49.94 50.13 50.47 51.41 51.98 52.28 52.62 53.45 53.54 46.85 46.58 49.88 45.30 45.22 44.62 46.37 50.08 52.17 49.46 51.94 50.15 49.80 48.55 42.61 45.47 40.07 37.30 40.99 42.91 42.88 40.31 39.16 38.57 41.80 44.29 42.08
52.40 52.81 52.40 52.15 51.88 51.45 51.13 50.82 50.88 50.33 50.03 49.82 50.06 50.25 50.74 51.03 51.79 52.11 51.59 46.41 46.97 49.69 41.56 47.85 47.16 47.01 48.65 49.69 44.36 47.53 51.67 45.55 44.61 40.47 43.69 40.72 36.00 42.18 43.08 42.50 40.63 39.88 38.26 38.31 41.15 43.11 41.27
52.44 52.23 52.07 51.69 51.54 51.28 50.70 50.35 50.21 49.93 49.59 49.70 49.78 49.53 50.14 50.42 50.74 50.34 48.74 48.89 51.16 51.77 42.03 42.76 46.56 45.43 46.33 48.23 44.27 45.04 48.22 45.94 42.98 40.13 40.65 38.22 39.12 42.09 41.02 39.83 37.92 38.94 37.39 37.74 36.82 39.91 41.15
50.93 51.15 51.46 51.06 50.90 50.40 50.07 49.80 49.70 49.67 49.44 49.33 49.09 49.10 49.66 50.01 47.28 48.59 46.14 52.08 50.48 50.63 37.26 36.51 40.89 44.77 46.60 47.26 42.27 49.32 49.68 46.09 42.27 39.35 40.37 39.90 43.01 39.07 38.56 37.65 39.40 35.18 40.58 38.92 37.13 34.81 30.24
50.75 50.52 50.69 50.18 50.00 49.88 49.70 49.52 49.38 49.31 49.15 49.02 48.78 48.80 48.78 50.18 46.14 45.06 49.54 51.30 50.00 46.29 25.84 37.79 39.34 48.96 47.13 42.41 43.68 43.92 50.01 45.64 40.05 39.60 40.03 37.13 37.65 37.74 35.67 36.61 39.56 36.06 39.44 37.50 37.22 35.10 33.36
50.57 50.41 49.88 49.73 49.58 49.42 49.21 49.19 49.06 49.03 49.41 49.88 49.34 49.52 49.98 48.57 48.28 48.72 52.14 50.15 46.28 31.69 24.98 33.68 40.00 40.25 39.80 41.16 42.05 44.13 44.35 47.05 45.53 40.16 40.50 39.54 42.03 40.31 39.42 40.60 40.60 40.54 37.37 36.80 36.04 33.71 27.81
49.42 49.32 49.38 49.37 49.28 48.94 48.80 48.73 48.82 48.78 48.52 49.29 49.49 50.32 49.11 49.15 43.54 50.99 51.31 44.65 30.61 28.99 35.96 32.11 34.31 38.69 37.74 36.88 39.17 40.49 39.34 37.99 36.36 31.96 32.41 36.99 37.41 40.76 40.98 36.57 39.58 38.29 33.23 27.91 25.51 25.89 26.40
49.60 49.74 49.32 49.14 48.88 48.59 48.62 48.51 48.50 48.46 49.11 49.38 50.33 49.96 49.29 49.79 50.49 50.89 48.31 35.46 28.07 33.08 33.57 37.60 37.81 37.64 35.31 37.00 38.00 38.52 37.52 35.40 39.46 37.37 34.33 31.11 30.35 37.70 40.44 37.68 35.28 34.35 34.17 28.21 21.78 25.17 28.49
49.66 49.44 48.87 48.69 48.63 48.47 48.42 48.30 48.32 48.23 49.50 49.73 49.76 47.29 48.28 49.79 50.23 47.32 38.82 31.08 32.10 33.90 36.89 35.19 36.66 33.30 33.70 35.95 37.25 36.39 35.83 35.15 37.69 38.97 32.75 30.58 29.72 38.39 39.96 40.74 39.54 34.50 30.73 37.49 30.23 32.13 27.10
49.32 49.08 48.65 48.45 48.39 48.36 48.28 48.12 47.98 48.18 49.73 50.22 44.08 44.14 45.12 49.96 49.25 45.13 33.91 33.89 33.60 39.11 38.99 38.52 32.14 34.63 30.51 33.34 34.08 34.56 35.08 39.10 38.29 41.44 41.93 36.18 29.96 35.90 38.16 40.36 40.14 37.28 38.77 29.46 30.95 22.02 21.46
48.99 48.95 48.64 48.42 48.31 48.10 47.92 47.65 47.74 48.46 49.34 49.89 43.15 38.24 46.38 50.15 47.19 38.15 32.82 33.61 37.39 41.08 41.19 37.61 35.31 34.05 35.05 33.09 34.97 33.70 35.31 37.90 40.55 40.30 41.97 38.99 34.42 32.55 35.83 34.03 33.80 33.78 32.08 34.42 32.92 31.03 24.20
48.88 48.81 48.68 48.32 47.95 47.77 47.69 46.90 47.89 48.71 49.50 47.14 41.34 33.02 46.53 48.42 36.29 35.65 35.04 36.76 41.07 39.81 43.36 41.06 40.41 38.46 36.41 36.53 34.61 35.04 34.94 36.93 41.52 41.60 36.43 39.83 34.80 29.26 32.12 38.51 40.16 38.64 35.09 33.80 28.05 26.68 29.41
48.87 48.70 48.47 48.09 47.75 47.38 47.44 46.61 47.53 48.54 48.76 44.20 37.86 36.14 47.23 46.64 33.86 35.01 37.36 38.34 40.82 40.28 40.82 40.48 39.03 40.50 40.17 36.95 33.77 36.83 36.82 40.24 41.14 40.38 38.34 39.21 33.31 27.41 30.79 34.89 37.63 34.25 35.97 36.10 34.50 33.03 28.29
48.60 48.44 48.21 47.97 47.62 47.40 47.31 46.47 47.44 48.45 49.10 47.28 38.79 33.58 40.09 42.20 42.37 38.07 36.74 36.96 37.38 42.48 41.56 42.42 40.89 42.21 39.49 37.00 38.60 35.77 36.23 39.40 41.10 41.16 41.89 41.58 35.71 31.71 28.97 33.40 36.59 32.82 34.17 35.04 33.46 28.65 29.81
48.58 48.23 48.06 47.83 47.53 47.29 47.24 46.50 47.22 48.41 49.70 46.74 39.90 35.32 39.38 34.59 37.84 39.32 39.58 38.63 36.74 36.61 41.70 42.71 40.01 40.23 38.70 35.75 36.32 35.96 37.75 38.17 39.70 41.18 41.13 39.29 31.80 33.56 34.24 35.23 35.39 34.09 33.87 33.87 31.62 32.81 28.98
47.64 47.99 47.78 47.57 47.40 47.13 47.00 46.40 47.87 48.85 49.45 43.04 36.29 37.43 40.94 38.94 40.42 39.34 38.81 36.78 36.79 38.20 39.42 38.00 37.95 40.27 40.64 37.29 37.92 35.31 37.53 38.48 38.23 39.80 38.69 39.61 32.50 34.40 31.74 35.40 35.35 33.04 35.02 35.35 34.63 34.41 33.90
47.47 47.92 47.61 47.36 47.03 46.72 46.96 47.07 47.86 48.51 48.11 41.63 43.16 43.35 41.57 39.04 39.10 37.26 37.25 37.59 37.59 40.51 40.95 42.61 40.97 40.22 38.32 40.20 42.65 43.36 42.85 42.33 41.10 39.10 37.83 36.93 34.71 32.38 29.53 35.71 35.42 31.56 34.48 35.25 35.42 36.70 35.52
47.55 47.64 47.52 47.20 46.97 46.78 46.72 46.73 46.86 47.72 48.07 44.42 43.36 42.52 39.84 35.98 38.43 38.17 38.89 39.51 38.99 39.64 39.67 42.11 43.04 40.60 44.06 48.18 47.48 46.07 45.14 44.20 43.63 42.11 41.24 36.41 34.27 33.38 29.80 33.56 27.56 36.82 41.57 40.60 38.26 38.51 38.68
47.43 47.32 47.11 46.89 46.87 46.82 46.55 46.57 46.65 46.65 47.69 44.37 45.02 42.32 41.05 37.75 39.93 39.14 39.11 39.29 41.55 42.37 40.93 41.50 43.41 45.47 47.52 44.73 40.01 36.89 37.73 38.14 39.68 41.71 41.28 40.46 37.06 33.24 30.48 30.59 34.56 37.26 38.95 39.83 37.16 37.31 41.45
46.92 46.55 46.13 46.01 46.03 46.25 46.31 46.23 46.75 46.26 47.10 44.80 44.94 46.56 43.50 40.78 38.65 42.06 39.94 40.19 38.44 39.03 40.30 41.97 45.94 47.40 46.64 42.42 37.96 31.40 32.07 34.17 34.02 35.91 40.83 40.40 40.06 35.01 32.21 28.71 27.36 38.76 41.43 43.73 42.08 36.10 41.64
46.32 45.87 45.79 46.22 46.17 46.16 46.02 46.20 46.42 45.62 46.90 45.55 44.31 45.93 42.58 41.60 45.21 43.83 40.80 40.41 44.31 42.66 40.24 41.20 42.46 42.91 45.25 39.72 34.80 32.15 33.00 37.12 33.37 32.87 32.43 34.11 34.27 31.66 30.99 30.47 34.21 41.47 41.44 44.45 34.73 35.88 41.38
45.87 45.66 45.51 45.24 44.98 45.28 45.58 45.31 45.11 45.32 46.11 45.72 43.01 46.44 41.34 39.85 45.49 46.05 46.42 43.90 43.32 43.73 39.67 42.53 41.34 42.08 41.05 36.20 34.87 35.30 35.26 36.81 35.95 37.28 36.22 35.47 34.08 33.15 33.73 30.48 30.06 42.45 42.96 39.16 42.08 43.14 41.93
45.59 45.43 45.15 44.65 44.44 44.40 44.30 44.45 44.85 45.34 45.40 46.23 41.38 45.20 44.96 40.31 45.84 48.22 48.13 48.38 47.58 46.51 44.98 44.32 42.98 42.33 42.99 38.41 38.59 39.26 36.21 36.49 37.28 34.18 38.61 35.26 39.07 38.41 37.75 37.85 43.55 43.55 44.27 45.64 43.86 42.30 42.36

GFSGBSN_sfc_wetblb_021.txt.gz
Wetbulb
53.12 52.84 53.12 53.23 53.12 53.13 53.43 53.10 52.60 52.30 52.50 52.22 51.73 52.97 53.80 54.26 55.60 57.44 58.75 59.92 59.00 58.40 57.82 57.87 57.71 58.09 56.29 52.81 52.76 59.41 58.37 59.78 62.80 61.17 57.40 55.14 52.78 51.77 48.13 50.11 50.57 48.45 49.45 50.66 52.08 52.43 52.30
52.76 52.99 53.15 53.15 53.52 53.11 52.79 52.97 52.73 52.53 52.25 52.19 51.90 52.14 53.14 53.34 53.98 55.63 57.16 59.07 59.48 58.53 57.85 58.02 57.40 57.06 53.68 47.46 58.15 59.15 57.89 59.36 59.94 59.97 57.11 56.71 54.06 54.01 51.19 49.78 48.98 50.82 50.35 50.63 51.81 51.51 51.84
53.23 53.08 53.86 53.36 53.17 52.83 52.73 52.62 52.30 52.14 52.17 52.04 51.92 51.72 51.86 52.67 53.45 54.63 55.36 58.41 59.36 58.37 57.86 58.15 57.45 55.27 50.13 49.87 55.81 56.76 56.83 57.92 60.52 60.13 56.39 57.20 56.17 52.04 52.32 48.66 51.78 50.74 47.01 49.13 50.00 50.78 49.79
53.81 54.23 53.75 53.40 53.47 52.97 52.94 52.72 52.34 52.06 52.09 51.71 51.67 51.56 51.79 51.90 52.86 53.61 54.19 55.29 58.70 58.88 57.98 57.91 57.46 53.64 46.77 54.60 56.94 54.45 55.83 57.06 60.14 61.01 59.02 58.38 56.82 52.49 51.18 51.40 48.72 45.77 46.87 42.83 48.75 49.42 50.06
53.72 53.31 53.21 53.52 53.42 53.17 52.97 52.37 51.72 51.83 51.75 51.69 51.05 50.76 50.87 51.07 52.13 53.00 53.32 53.70 56.34 57.88 57.79 57.62 53.81 50.98 45.89 54.41 50.11 54.17 55.07 54.24 56.84 57.10 58.18 58.43 55.18 49.52 48.98 45.47 42.84 44.30 40.13 42.75 45.26 49.82 48.45
53.04 53.25 53.46 53.64 53.32 52.90 52.81 52.35 51.69 51.46 51.18 51.00 50.79 50.34 50.52 50.98 51.81 52.21 52.87 53.16 54.36 56.84 55.97 54.86 53.12 47.00 49.37 47.51 51.75 52.86 54.64 56.05 53.37 53.11 52.27 51.48 49.65 45.32 45.71 43.45 37.00 40.14 40.48 42.35 42.01 46.33 46.67
53.43 53.41 53.13 52.94 52.67 52.29 52.32 51.80 51.23 51.08 50.69 50.50 50.06 50.16 50.02 50.36 51.14 51.33 50.91 48.96 49.22 46.41 50.43 46.33 46.60 46.40 48.43 51.52 53.37 50.99 53.22 53.27 51.97 50.00 43.44 46.42 41.19 39.12 43.13 44.93 45.18 43.19 41.30 40.92 44.02 46.57 44.05
52.19 51.75 51.65 51.68 51.85 51.43 51.17 51.03 50.65 50.62 50.27 50.12 49.76 49.96 49.94 50.03 50.63 51.08 49.52 42.91 45.13 48.24 42.69 48.86 48.21 48.57 50.39 51.64 45.73 48.86 53.06 47.40 45.90 41.98 44.53 41.14 37.78 43.74 45.50 44.61 43.13 42.16 40.13 40.07 43.34 45.27 43.20
51.61 51.61 51.58 51.11 50.93 50.80 50.64 50.54 50.24 50.19 49.99 49.61 49.48 49.61 49.47 49.51 50.18 49.20 46.79 44.44 50.64 49.83 42.50 44.61 47.68 47.21 47.59 49.58 46.02 46.11 49.62 47.60 44.47 41.74 41.24 39.12 41.55 44.63 43.02 41.38 39.50 39.99 38.51 39.26 39.21 42.68 43.23
50.92 51.24 50.92 50.60 50.43 50.32 50.14 49.89 49.69 49.57 49.67 49.25 49.27 49.11 48.88 49.27 46.83 48.36 45.85 49.33 51.04 49.44 36.38 37.76 41.60 45.26 47.57 48.38 43.61 50.61 50.90 47.42 43.53 39.74 41.06 40.43 44.18 40.77 40.70 39.39 40.74 36.53 42.61 41.23 39.37 37.14 33.67
51.22 50.70 50.61 50.34 50.14 49.94 49.65 49.43 49.39 49.32 49.14 49.02 49.11 49.59 49.32 49.78 46.05 42.72 47.62 51.10 50.06 46.76 27.40 39.32 41.13 50.46 48.28 43.83 44.95 45.42 50.99 46.63 40.82 41.59 41.26 38.96 39.65 39.30 37.02 38.87 41.68 37.56 40.97 38.78 38.05 35.48 33.68
50.56 50.91 50.53 50.05 49.67 49.40 49.24 49.22 49.16 49.14 48.81 49.15 49.67 49.98 50.46 48.37 48.41 48.46 50.43 50.20 45.35 32.08 26.97 34.50 40.14 40.24 39.96 42.37 42.98 45.27 45.00 47.82 46.53 41.20 41.86 41.22 43.63 42.00 41.21 41.84 41.90 41.58 38.45 37.75 37.36 34.35 27.26
50.23 50.51 50.00 49.62 49.28 49.05 48.95 48.90 48.89 48.79 49.01 49.25 49.79 50.75 49.58 49.26 43.89 51.71 51.08 45.04 30.45 28.15 37.45 32.85 34.88 39.03 38.43 36.82 39.17 40.58 39.54 38.76 37.31 32.56 33.01 37.98 38.12 41.24 42.47 38.23 40.89 39.01 34.20 29.78 27.29 26.55 26.73
50.03 50.06 49.72 49.40 49.15 48.92 48.85 48.64 48.60 48.76 49.09 49.45 50.66 49.52 49.31 49.44 51.28 51.37 45.19 36.51 27.06 34.17 34.31 38.26 37.99 38.09 34.61 37.45 37.71 38.39 37.11 35.45 39.48 38.58 35.34 30.99 31.24 38.23 41.50 39.10 36.38 35.50 34.71 29.72 23.42 26.69 30.39
49.93 49.76 49.50 49.22 48.98 48.90 48.67 48.50 48.03 48.50 49.24 50.01 50.02 48.09 48.89 49.74 50.96 49.82 39.77 30.01 32.88 36.50 37.87 35.96 36.40 33.47 34.09 36.68 37.96 37.84 36.58 35.94 39.01 39.74 34.58 33.49 32.38 40.61 41.76 42.23 40.73 35.29 30.82 38.22 31.00 32.48 27.88
49.78 49.67 49.39 49.19 48.89 48.70 48.54 48.33 47.96 48.79 49.82 49.78 46.53 43.70 45.00 50.82 50.80 45.14 37.03 33.51 35.48 40.58 40.28 39.55 32.87 35.28 30.92 33.71 35.06 35.49 35.06 39.72 37.91 42.11 43.48 38.01 31.41 38.18 40.13 41.38 41.03 38.07 39.71 29.72 31.12 22.65 23.07
49.41 49.50 49.29 48.91 48.64 48.21 48.23 47.88 47.81 48.70 49.29 49.25 44.31 37.92 45.88 48.92 49.02 41.00 33.31 34.40 38.16 42.49 42.44 39.10 36.59 34.91 34.78 33.54 35.48 34.01 35.24 40.11 42.13 41.59 42.19 39.35 35.87 33.80 36.80 34.33 34.91 34.74 32.70 34.23 34.48 32.41 25.66
48.99 49.47 49.15 48.77 48.37 47.95 48.05 47.71 47.74 48.70 49.66 47.83 41.53 34.17 47.18 49.17 37.04 38.63 35.38 38.30 41.47 40.56 43.77 41.46 41.70 39.71 37.52 37.32 35.03 36.47 37.02 38.95 43.79 43.26 37.64 40.11 35.89 31.07 33.76 40.17 41.49 39.81 35.69 34.72 28.48 27.96 30.20
49.20 48.99 48.89 48.50 48.10 47.88 47.80 47.65 47.81 48.88 49.60 46.59 37.38 36.05 47.81 46.15 34.38 35.25 37.43 39.13 41.15 40.74 41.59 41.32 39.80 41.34 41.90 38.32 35.17 38.38 39.36 42.16 43.09 42.03 39.37 39.99 34.58 28.72 31.81 36.62 39.52 35.76 37.41 37.08 35.78 34.22 29.68
48.24 48.56 48.50 48.19 47.91 47.85 47.54 47.49 47.80 48.63 49.86 47.85 39.31 33.75 39.22 42.28 43.69 38.70 36.93 37.83 38.37 43.78 42.77 43.62 41.97 42.54 40.51 38.44 40.80 37.82 37.86 40.36 42.63 42.60 42.89 43.20 36.51 32.92 29.82 34.18 36.98 33.63 35.26 36.72 34.77 29.99 30.67
48.17 48.33 48.38 48.06 47.80 47.33 47.67 47.39 47.73 48.86 49.67 46.60 40.09 37.51 39.88 34.87 38.50 39.38 39.87 39.37 37.69 37.44 42.59 43.83 40.63 40.88 39.75 36.50 37.65 37.20 39.55 39.93 41.44 42.93 41.58 39.95 33.17 34.72 35.50 36.55 36.74 35.75 35.39 35.80 32.93 34.14 29.99
47.84 48.14 48.20 47.70 47.71 47.48 47.37 47.31 47.73 48.87 49.27 44.05 37.27 36.98 39.84 40.28 42.31 40.69 39.86 38.09 37.68 39.40 40.32 38.86 39.35 41.20 41.34 38.73 39.38 37.30 39.66 39.62 38.64 41.02 39.55 40.14 33.38 35.26 31.61 35.87 35.97 33.77 36.52 36.78 36.86 36.40 35.23
47.79 47.63 47.44 47.38 47.62 47.44 47.21 47.70 47.82 47.95 48.59 41.99 42.83 43.34 40.34 40.61 40.26 39.21 39.49 39.71 39.40 41.42 42.70 43.37 42.12 41.14 39.58 41.35 43.98 44.48 44.12 43.13 41.78 39.47 37.53 37.08 34.81 32.66 30.06 35.91 35.93 33.67 36.54 37.04 37.41 38.52 36.92
47.33 47.06 46.55 46.50 46.54 46.77 46.88 46.82 47.38 46.86 48.26 45.04 43.98 42.41 39.95 36.74 40.00 39.92 40.46 41.08 40.05 40.78 40.41 42.76 43.63 41.23 44.49 48.72 47.70 46.67 45.48 44.07 43.02 41.60 41.51 36.99 35.25 34.25 31.62 33.78 28.38 39.32 42.57 40.81 39.76 40.84 40.57
47.02 46.60 46.29 46.77 46.88 46.73 46.72 46.85 47.02 46.42 47.83 44.53 45.00 42.71 40.28 38.13 40.97 40.76 40.98 41.24 42.63 42.48 41.65 42.31 43.57 46.42 48.45 45.45 40.85 37.68 38.40 38.16 39.92 41.73 41.29 40.19 36.57 33.18 30.71 31.15 35.91 39.36 41.20 39.61 38.13 38.39 42.08
46.88 46.42 46.13 46.06 45.51 45.58 46.29 46.23 45.96 46.08 46.85 45.51 45.53 45.83 41.87 38.97 40.68 43.42 41.54 42.69 40.96 40.93 41.35 42.51 46.89 48.94 47.23 43.37 39.11 31.79 30.81 35.62 34.62 36.25 41.10 40.93 39.06 35.41 33.07 28.87 27.79 39.10 43.32 44.67 43.37 35.65 43.03
46.68 46.11 45.84 45.50 45.09 45.07 44.91 45.01 45.28 45.87 46.12 45.92 44.58 45.64 41.05 39.51 45.86 44.91 42.01 41.52 44.05 42.93 41.44 42.69 43.43 43.78 46.44 40.42 36.15 33.10 32.65 38.88 33.68 34.62 33.77 34.67 34.91 32.54 32.09 30.47 35.26 42.84 43.82 45.23 34.96 36.89 43.31
46.37 45.81 45.55 45.25 45.01 44.81 44.83 44.86 45.19 45.28 45.15 45.13 44.14 46.14 40.71 38.19 42.08 47.16 47.21 44.82 45.43 45.24 41.21 43.56 42.29 42.59 40.94 37.00 35.35 35.10 35.35 38.01 36.70 39.35 37.91 36.71 34.23 32.50 33.12 29.94 29.53 45.07 45.34 40.07 43.50 45.58 44.46
45.95 45.71 45.50 45.19 44.89 44.75 44.73 44.81 44.88 44.83 45.32 45.24 41.13 45.35 45.30 39.05 41.83 50.09 50.18 50.44 49.66 49.12 46.65 45.48 43.96 43.12 43.86 38.90 38.11 38.90 36.93 38.33 37.53 33.42 41.97 36.31 40.74 38.66 39.27 39.88 46.46 46.94 45.19 47.16 46.51 44.66 45.03

GFSGBSN_sfc_wetblb_024.txt.gz
Wetbulb
54.03 54.04 54.00 54.60 54.21 54.09 53.64 53.65 53.39 53.34 53.30 53.36 52.98 52.88 52.90 52.55 52.59 53.63 55.19 56.92 58.32 59.96 59.06 58.23 57.92 58.02 55.25 50.84 51.89 59.80 61.67 61.93 61.98 60.61 56.74 53.82 50.64 49.44 45.75 46.98 47.93 45.97 47.98 49.87 50.48 50.65 50.06
54.25 54.47 55.01 54.50 54.02 54.11 54.00 53.98 53.81 53.40 53.40 53.26 53.11 52.78 52.19 52.56 52.56 53.17 54.05 55.54 56.73 59.29 58.98 58.00 58.06 58.03 52.00 45.64 58.59 58.29 58.04 58.35 58.93 58.80 56.86 55.49 52.17 52.54 49.72 48.16 46.78 49.17 49.09 49.00 49.84 49.31 49.94
54.97 54.61 54.40 53.95 53.98 53.96 54.02 53.85 53.56 53.07 52.87 53.04 53.10 52.63 51.97 51.78 52.24 52.29 53.18 54.57 55.59 56.84 58.95 58.04 58.32 55.09 49.16 48.81 56.32 58.04 57.77 57.02 59.18 58.96 55.61 56.73 56.19 52.31 51.45 47.68 51.25 49.32 45.31 47.44 48.11 48.59 47.90
55.23 54.14 53.97 54.74 54.44 54.29 53.83 53.30 53.17 52.78 52.34 52.54 52.38 52.17 51.93 51.32 51.17 51.60 52.60 53.78 54.37 54.75 58.66 58.08 58.31 53.03 46.09 55.36 56.18 54.01 55.82 56.48 58.83 60.14 58.53 58.74 56.58 52.51 49.84 50.78 48.28 44.83 44.65 39.22 46.26 47.96 48.73
53.67 54.85 53.36 53.34 52.91 53.05 53.14 52.69 52.32 52.03 51.88 51.81 51.45 51.54 51.42 50.94 51.21 51.39 52.21 53.25 53.73 53.88 57.59 58.01 53.71 50.46 44.35 53.90 50.27 53.84 54.28 53.56 56.55 57.53 58.36 57.96 55.23 50.05 48.80 43.94 40.80 41.88 35.56 38.69 42.58 47.89 46.93
54.56 53.03 52.68 52.74 52.68 52.43 52.48 51.97 51.58 51.37 51.42 51.13 50.86 50.70 50.48 50.44 50.45 50.75 51.43 52.37 52.68 53.40 56.43 55.16 53.16 45.96 48.61 47.06 50.81 52.29 53.92 55.16 53.31 53.55 52.71 52.27 49.40 44.44 43.45 41.67 33.72 37.02 37.00 39.00 39.08 44.08 44.23
52.84 52.70 52.35 52.23 52.17 51.76 51.72 51.48 51.16 51.08 50.88 50.60 50.44 50.25 50.16 50.09 50.43 50.63 50.02 48.31 45.94 47.52 50.21 45.64 45.68 46.10 47.07 51.75 53.20 50.60 52.46 52.98 52.04 49.97 43.63 47.76 42.14 38.03 40.99 42.98 43.30 42.48 39.53 37.84 41.32 44.96 41.52
52.23 52.00 52.16 51.97 51.82 51.52 51.26 51.04 50.77 50.45 50.42 50.16 50.20 49.80 49.97 49.92 50.04 50.38 48.85 42.61 42.93 47.61 42.41 48.90 48.93 48.84 50.60 51.27 45.68 48.50 52.68 47.63 46.07 42.01 44.40 41.61 36.72 42.65 44.78 44.18 42.18 40.68 38.00 37.14 41.10 44.00 40.90
51.84 51.58 52.17 51.94 51.56 51.02 50.73 50.43 50.20 50.09 50.12 50.05 49.98 49.66 49.24 49.67 49.76 47.89 45.40 44.59 48.30 46.52 41.85 44.32 47.57 46.84 47.53 49.49 45.43 45.56 49.40 47.58 43.60 41.18 40.61 38.16 40.79 44.37 42.63 40.78 38.73 38.24 36.70 36.47 36.36 40.45 40.69
51.47 51.62 51.77 51.38 50.91 50.44 50.08 49.89 49.80 49.79 49.58 49.53 49.37 49.85 49.30 49.27 44.91 46.47 43.55 49.57 48.80 47.93 33.91 38.41 41.93 45.76 47.68 48.89 43.61 50.02 50.55 47.53 43.95 39.95 41.40 40.13 44.11 41.30 40.25 39.03 39.72 34.36 40.74 39.57 38.16 34.49 28.18
51.65 51.51 51.26 50.78 50.52 50.01 49.81 49.71 49.73 49.49 49.30 49.26 49.76 50.12 50.46 49.47 45.17 42.18 46.27 50.05 48.59 45.70 25.33 39.33 41.09 50.78 48.18 44.25 44.67 45.30 50.79 46.88 40.77 40.97 40.83 38.39 39.68 38.76 36.91 38.65 40.85 36.53 40.82 38.06 36.99 32.83 30.43
50.92 51.05 50.95 50.46 50.15 49.78 49.67 49.46 49.37 49.20 49.08 49.54 49.98 50.55 51.28 48.42 47.40 46.96 49.76 49.81 45.78 30.91 24.36 35.61 39.92 40.40 40.89 43.19 43.32 45.21 45.17 48.04 46.88 42.10 41.94 40.76 43.04 41.37 40.30 41.71 41.11 41.06 37.59 36.44 35.30 33.04 22.12
50.35 50.81 50.67 50.31 49.91 49.60 49.26 49.18 49.06 48.53 49.25 49.85 50.15 51.25 49.70 48.96 43.25 50.03 49.83 44.70 29.87 24.49 36.36 33.40 35.64 39.01 38.62 38.09 39.61 40.97 39.56 38.51 36.03 31.93 33.02 37.58 37.80 40.99 42.20 37.50 39.89 39.18 34.09 23.53 22.11 24.31 20.46
49.78 50.60 50.48 50.10 49.62 49.39 49.24 49.19 48.90 48.42 49.25 50.00 50.18 50.89 49.83 49.10 50.76 49.94 45.95 35.53 24.58 33.28 33.32 37.91 37.95 38.03 34.31 37.82 37.85 38.62 37.69 35.13 39.76 37.23 34.16 29.37 28.21 37.00 40.45 37.43 35.28 35.36 34.20 25.25 19.26 20.05 23.49
49.38 50.18 50.22 49.92 49.54 49.25 49.05 49.16 48.41 48.33 49.52 50.34 50.15 47.23 47.60 49.58 50.87 48.35 40.84 28.69 30.21 34.51 37.07 35.77 37.06 33.58 33.35 36.65 37.30 36.90 36.14 35.35 37.92 38.97 32.48 30.24 31.67 40.27 40.89 40.87 40.17 35.05 30.36 34.57 28.51 28.11 20.61
49.72 49.81 49.81 49.65 49.55 49.03 49.05 49.17 48.39 48.67 50.06 50.26 46.22 43.97 44.94 50.46 50.56 45.63 36.70 32.20 33.34 40.02 39.82 38.64 31.67 35.31 30.50 33.63 34.39 34.98 34.59 38.44 37.29 40.39 40.91 37.75 29.80 37.48 39.91 40.88 40.51 36.91 37.92 28.13 28.90 14.72 17.39
49.80 49.40 49.52 49.50 49.12 48.60 48.36 48.98 48.40 49.31 49.35 50.88 44.61 38.71 45.70 50.23 49.23 40.95 32.18 32.60 37.66 42.36 42.06 38.84 35.44 34.23 34.53 33.18 35.58 33.91 34.19 39.17 40.30 39.68 41.31 38.70 34.40 32.69 35.93 33.71 32.70 33.57 32.42 33.03 32.31 29.22 18.64
49.44 48.82 49.35 49.04 48.81 48.09 48.25 48.55 48.54 49.25 50.00 47.93 41.04 33.68 45.37 49.12 37.35 37.77 34.75 35.48 41.94 41.52 44.38 41.79 41.32 38.62 35.68 35.90 34.64 34.30 34.70 38.16 42.20 41.79 36.64 39.28 35.61 29.01 31.07 37.69 39.09 37.82 33.71 32.71 27.07 22.00 26.41
49.28 48.68 49.28 48.68 48.39 47.90 48.16 48.29 48.44 48.93 50.34 46.22 37.73 37.80 47.36 45.85 32.87 34.92 35.92 39.11 41.36 40.94 41.82 41.36 39.59 41.11 39.98 36.24 32.85 37.34 38.74 41.78 42.72 40.79 38.43 39.12 33.60 24.69 27.36 33.45 36.91 33.44 35.19 35.99 34.42 32.66 26.40
49.03 48.73 48.84 48.25 48.22 48.32 47.96 48.16 48.94 48.91 50.21 48.15 39.96 34.05 40.59 42.40 42.60 36.89 35.48 37.68 38.64 43.90 42.82 43.06 41.19 42.01 39.16 36.98 40.29 36.89 37.43 40.54 41.99 41.86 44.00 42.13 36.00 28.62 23.50 28.81 33.97 30.71 33.77 35.49 33.97 28.93 28.55
48.56 48.47 47.92 47.98 48.30 48.05 47.84 47.83 48.82 49.23 50.35 47.35 40.43 37.83 40.23 36.81 38.72 37.67 39.88 39.72 37.56 37.47 43.00 43.62 40.74 40.74 38.88 35.45 37.04 36.73 38.94 38.49 40.65 42.75 40.95 38.11 31.85 30.46 33.77 34.83 34.58 33.55 33.86 34.73 33.07 34.07 30.24
48.15 47.95 47.31 47.08 47.28 47.28 47.40 47.87 48.51 48.81 49.77 44.15 38.44 37.36 39.68 40.18 41.50 38.85 39.72 37.94 37.93 39.64 40.76 38.78 39.22 41.15 40.94 37.74 38.49 36.24 38.57 38.56 37.22 39.51 37.60 39.39 29.48 34.08 31.05 34.39 34.31 31.83 34.58 34.92 35.89 36.60 36.06
47.71 47.39 47.05 47.31 47.60 47.47 47.30 48.48 47.90 48.26 47.90 42.32 43.39 43.51 40.02 40.30 40.32 38.31 38.79 39.13 39.46 41.62 42.40 43.14 42.03 40.49 39.46 41.21 43.24 43.07 42.57 41.94 40.51 38.08 37.06 37.39 34.74 32.19 27.75 34.25 33.14 30.93 34.75 37.48 38.13 38.85 38.24
47.52 47.16 46.91 46.86 46.37 46.37 46.97 46.80 46.56 47.20 47.60 44.16 43.97 42.59 39.01 37.04 38.54 39.25 40.89 41.33 40.41 40.86 39.87 42.51 43.39 41.45 44.24 47.14 45.80 45.06 42.83 42.31 41.40 38.84 40.77 36.65 34.94 33.74 29.68 31.32 23.24 37.59 41.68 41.01 38.57 40.40 41.81
47.39 47.25 46.81 46.55 45.96 45.70 45.59 45.67 45.95 46.65 46.92 43.73 45.08 42.19 39.82 36.98 40.32 40.38 40.84 40.75 41.18 42.70 41.75 42.07 43.73 45.77 46.98 44.11 39.97 37.35 37.38 37.89 38.80 41.08 39.65 40.01 36.51 32.84 30.25 29.34 32.22 37.16 40.76 39.23 38.25 37.09 41.59
47.35 47.08 46.57 46.35 45.89 45.44 45.37 45.38 45.63 46.12 45.96 43.58 44.97 45.66 41.23 37.84 39.14 43.41 40.54 42.03 38.94 38.48 39.54 42.28 45.91 47.31 45.31 41.92 37.63 29.86 28.69 34.82 33.47 35.79 40.44 40.36 38.98 35.08 32.10 27.97 24.92 37.32 40.81 43.12 41.73 34.52 41.22
47.72 46.25 46.42 46.15 45.86 45.55 45.28 45.18 45.36 45.52 45.62 43.80 44.10 45.15 41.03 38.37 43.68 43.62 40.07 39.92 42.64 41.00 39.81 41.22 43.15 42.54 44.64 39.05 34.80 32.20 30.59 36.17 30.83 33.41 32.86 34.77 35.09 31.47 31.34 30.44 31.66 39.08 40.57 43.46 32.54 33.62 41.23
47.40 46.10 46.25 46.02 45.98 45.59 45.37 45.16 45.08 45.02 45.18 43.60 42.69 45.33 40.13 37.39 39.81 44.61 46.85 42.70 42.70 42.53 39.51 42.45 40.96 41.69 40.44 36.94 35.30 34.54 32.68 36.19 33.53 35.53 35.83 33.46 31.67 31.38 32.23 29.75 24.52 41.27 41.10 36.03 39.55 42.30 42.02
47.24 46.07 45.55 45.95 45.78 45.69 45.52 45.33 45.16 44.63 44.83 44.63 39.66 45.06 44.46 38.04 39.55 44.68 46.57 49.70 47.57 47.16 45.45 43.49 43.00 41.84 42.88 38.79 36.38 37.85 35.37 36.12 35.43 32.31 38.02 32.89 36.95 36.17 34.45 33.91 41.59 42.48 42.29 43.32 42.85 40.99 41.51

GFSGBSN_sfc_wetblb_027.txt.gz
Wetbulb
55.14 55.50 55.31 55.07 54.92 54.52 54.91 54.81 54.45 54.46 54.59 54.10 53.93 53.87 53.75 53.31 52.84 52.24 52.85 53.53 55.18 57.29 58.05 59.83 58.60 58.36 55.32 49.10 49.75 59.94 62.71 64.18 61.60 59.88 55.78 53.72 49.46 46.96 43.60 44.21 45.28 43.42 45.71 48.68 48.74 48.42 47.86
56.31 55.96 54.93 55.01 54.91 54.94 54.40 54.76 54.29 54.07 53.95 53.68 53.12 53.17 53.24 52.86 52.51 52.02 51.98 52.59 53.96 55.79 57.38 59.32 58.56 58.55 51.60 44.25 56.35 58.81 58.99 59.86 59.45 58.23 56.25 54.61 49.64 49.53 45.84 45.39 43.22 45.76 46.65 46.73 48.09 47.88 48.07
54.70 54.44 54.69 53.91 53.85 53.70 53.31 53.61 53.56 53.07 53.01 52.95 52.67 52.49 52.52 52.48 52.25 51.82 51.84 52.12 53.14 54.70 55.78 57.85 58.42 55.27 48.47 47.77 55.54 56.53 57.72 55.73 57.89 57.99 54.48 56.21 55.20 50.86 49.00 45.50 48.73 47.29 43.34 45.25 46.21 47.28 46.02
54.57 55.45 54.11 53.49 53.16 53.18 53.07 52.69 52.50 52.39 52.34 52.32 52.06 51.71 51.87 51.67 51.55 51.25 51.52 52.06 52.89 53.90 54.96 55.67 58.50 53.19 45.20 54.77 53.88 53.74 54.44 54.30 57.76 58.94 57.71 57.76 55.32 50.76 47.80 48.24 46.17 43.38 42.17 37.02 44.16 46.59 47.34
54.66 53.25 53.11 52.69 53.38 53.00 52.74 52.28 51.93 51.81 51.75 51.66 51.39 51.08 51.17 50.96 50.90 50.76 51.06 51.36 52.31 53.29 53.90 54.82 53.75 49.75 43.61 55.07 50.64 52.56 52.24 52.66 54.68 58.02 57.72 57.87 54.96 49.82 48.07 42.17 39.03 40.03 33.16 36.14 40.10 45.91 45.71
52.98 53.15 52.80 53.18 53.14 52.77 52.46 51.85 51.44 51.26 51.22 50.96 50.69 50.61 50.58 50.50 50.53 50.48 50.87 51.68 51.69 52.09 52.32 55.61 53.01 45.31 47.32 45.95 50.20 52.18 52.26 52.81 52.78 53.89 53.05 52.32 49.68 45.17 44.19 40.85 33.01 34.48 34.12 35.87 36.33 42.59 43.71
52.88 52.43 52.74 52.83 52.35 51.95 51.79 51.30 51.00 50.91 50.75 50.52 50.42 50.37 50.36 50.18 50.29 50.34 48.36 45.31 40.98 43.31 48.66 43.18 44.75 44.58 46.56 51.15 52.62 49.95 51.52 52.32 51.16 49.37 44.75 48.58 42.07 39.13 39.49 40.69 41.40 40.50 38.66 35.45 38.65 43.00 39.43
52.49 52.54 52.67 52.35 51.91 51.59 51.14 51.01 50.69 50.51 50.27 50.17 50.27 50.04 50.10 49.51 49.71 50.23 46.74 40.28 41.46 43.62 37.50 48.01 48.22 47.59 49.69 50.72 45.04 48.03 51.32 47.13 45.89 41.29 43.77 41.26 37.61 42.82 44.77 43.87 42.03 38.61 35.37 34.30 38.42 41.58 39.11
52.48 52.03 52.28 52.01 51.57 51.30 50.89 50.66 50.37 50.24 50.10 50.04 49.85 49.99 50.31 49.41 49.27 46.25 43.26 42.26 46.89 46.02 38.00 43.69 47.99 46.30 46.98 49.05 44.74 44.73 48.04 46.53 43.08 40.89 40.34 36.60 39.23 43.30 41.46 39.35 37.40 35.56 34.24 34.10 33.86 37.78 37.37
52.02 51.55 51.92 51.70 51.23 50.84 50.47 50.06 49.96 49.95 49.58 49.41 49.90 50.40 50.56 50.91 45.03 45.06 41.21 47.29 47.70 46.31 32.40 38.42 42.69 46.00 47.50 48.38 42.74 49.16 50.16 46.48 44.05 40.31 41.42 40.01 42.90 40.80 39.30 38.01 37.87 32.14 38.06 37.93 36.49 31.98 26.34
51.28 51.09 51.66 51.37 51.00 50.50 50.22 50.11 49.95 49.85 48.87 49.41 50.10 50.49 50.69 50.56 44.69 41.77 44.65 47.92 47.96 43.33 23.10 38.83 42.23 50.76 47.54 43.57 43.90 44.76 50.59 47.30 40.90 40.90 40.88 37.85 39.51 38.91 36.95 38.27 39.76 35.28 39.10 36.39 35.17 30.55 27.60
50.60 50.75 51.24 51.09 50.71 50.18 49.93 49.95 49.97 49.28 48.68 50.54 50.12 50.41 50.89 48.59 47.52 46.14 47.69 48.60 44.00 28.13 22.73 34.99 40.87 40.83 40.60 43.21 42.87 44.81 45.37 48.33 46.58 42.21 40.81 38.68 42.05 41.32 40.14 40.58 39.85 40.13 35.99 34.51 32.84 29.28 18.62
50.31 50.56 50.76 50.77 50.33 49.95 49.70 49.64 49.97 49.06 48.85 50.21 50.18 50.74 49.54 49.53 43.37 47.60 48.02 44.02 27.15 22.70 35.76 33.86 36.87 39.61 38.80 38.45 39.36 41.21 39.87 38.75 35.51 31.98 33.65 38.36 37.98 39.80 41.05 36.27 38.38 36.95 29.73 17.47 22.16 22.29 18.98
49.94 50.47 50.23 50.42 50.04 49.86 49.47 49.27 49.67 48.99 49.42 50.38 50.46 50.61 48.90 48.91 48.05 47.88 45.43 33.83 21.78 33.14 33.53 38.93 38.78 38.25 35.59 38.17 37.48 39.31 37.95 35.37 37.86 35.20 32.13 30.41 23.93 35.59 38.97 36.16 33.29 33.04 30.62 20.11 17.48 17.78 21.33
49.98 49.49 49.93 49.87 49.74 49.64 48.96 49.51 49.23 49.68 49.97 50.59 50.91 44.67 45.41 47.34 50.24 46.53 39.83 25.46 28.92 34.27 36.66 36.73 36.91 33.18 33.64 37.13 36.63 37.09 35.94 35.34 35.95 35.86 29.19 26.37 28.14 38.50 38.81 39.12 37.82 32.63 27.92 32.93 25.55 25.12 15.65
49.83 50.01 49.76 49.86 49.65 49.19 49.10 49.40 49.09 50.05 50.56 51.18 45.84 42.85 44.59 49.09 47.95 44.08 35.20 31.68 31.71 38.67 39.61 38.72 31.98 34.84 30.54 33.90 33.13 34.32 34.64 37.57 36.35 38.73 37.74 36.70 29.20 36.87 39.01 39.23 40.09 35.45 35.92 23.68 22.02 11.36 16.29
49.81 49.47 49.79 49.41 49.10 48.78 48.86 49.20 49.43 49.83 51.20 49.95 40.19 39.14 44.36 48.39 48.01 40.34 31.21 30.76 35.99 41.40 41.64 37.96 34.17 33.93 32.68 33.54 33.22 32.33 33.47 37.63 38.94 38.07 39.33 38.24 34.46 32.37 37.56 32.78 31.42 32.94 32.09 30.84 29.83 24.69 15.77
49.65 49.09 49.19 48.66 48.93 48.83 48.66 48.71 49.20 50.18 51.47 46.24 38.34 32.87 45.36 47.87 34.93 37.07 33.39 32.88 38.72 39.92 43.39 40.70 39.11 36.08 34.05 34.07 33.31 33.00 32.46 36.05 40.29 41.05 34.73 38.79 34.95 29.46 28.92 35.76 37.78 35.22 31.94 31.20 23.47 19.09 23.45
49.27 49.01 48.51 48.20 48.43 48.66 48.23 48.60 48.57 49.81 50.67 43.06 37.12 38.26 46.08 44.24 31.04 33.55 35.70 36.97 41.61 41.40 40.70 40.08 38.48 39.21 38.12 34.63 31.71 35.56 36.89 41.21 41.85 40.45 37.58 38.16 32.52 21.26 25.83 31.11 34.95 33.17 34.00 34.70 33.93 31.11 25.07
48.98 48.66 47.98 47.46 47.50 48.12 48.53 48.68 48.02 49.42 50.44 45.03 39.12 31.84 36.80 39.48 40.62 35.91 35.85 37.72 37.99 43.38 41.95 42.02 38.76 39.23 38.16 36.26 37.20 35.26 36.31 39.05 41.12 41.41 44.89 41.04 33.91 24.72 21.79 26.09 31.94 27.54 32.26 33.49 32.93 27.86 27.02
48.69 48.31 47.77 47.84 47.84 48.07 48.19 48.38 48.56 49.74 49.94 44.21 37.42 34.88 37.20 29.44 36.33 37.18 38.19 39.45 37.61 37.23 41.55 41.60 39.40 38.67 37.14 34.31 36.12 35.96 37.47 36.56 39.41 42.48 40.44 36.77 28.03 27.89 31.75 33.41 33.27 30.79 32.00 33.03 30.78 32.21 29.43
48.64 48.15 47.60 47.45 46.79 46.72 47.16 47.11 48.31 49.24 48.75 41.28 37.73 36.72 38.20 36.75 37.01 35.30 37.08 36.69 36.60 38.34 38.97 37.36 38.33 40.35 40.34 36.75 36.78 35.24 37.65 35.52 34.59 36.70 35.51 37.00 26.86 31.54 29.78 32.95 32.88 30.76 33.20 33.36 33.71 34.19 34.28
48.48 47.87 47.39 47.24 46.61 46.26 46.16 46.22 47.04 48.10 46.79 41.49 42.70 43.56 40.20 36.40 35.07 33.13 34.92 36.56 37.82 39.86 40.79 41.53 40.39 39.62 39.47 40.99 42.28 41.14 41.77 41.33 40.29 35.54 34.29 36.00 31.06 31.64 23.00 32.07 31.37 28.78 32.95 34.89 37.22 39.08 38.52
48.17 47.48 47.31 46.99 46.56 46.10 45.85 46.00 46.37 46.78 46.20 43.76 43.42 42.17 38.60 33.44 34.75 36.11 38.57 39.69 38.85 40.15 38.40 41.26 42.10 40.34 42.98 45.13 43.55 42.82 40.83 40.35 40.38 37.35 38.75 35.52 34.79 33.95 28.38 30.74 20.17 35.50 41.10 40.00 37.81 39.41 40.79
47.44 47.68 46.98 46.87 46.60 46.09 45.78 45.70 46.02 46.27 46.53 42.88 44.45 41.40 39.05 33.90 36.54 39.32 38.02 38.65 40.36 40.43 40.02 40.84 42.60 43.47 44.90 41.99 37.64 36.28 37.18 37.26 38.15 38.38 38.32 39.56 36.65 32.63 29.95 29.04 30.84 35.08 39.67 38.02 36.40 37.26 40.17
46.93 48.38 46.37 46.80 46.25 46.07 45.79 45.65 45.63 45.77 46.06 42.53 44.55 43.11 40.14 36.67 34.65 41.21 38.33 38.76 35.28 34.61 37.08 41.14 44.51 45.71 44.02 39.95 35.96 28.53 27.56 32.81 33.18 35.40 40.23 39.59 39.14 34.88 31.95 27.44 24.56 34.98 39.12 41.55 40.74 32.58 40.86
46.56 47.93 46.47 46.12 46.30 46.06 45.74 45.63 45.63 45.25 45.44 40.82 43.12 44.00 40.43 37.42 39.89 41.08 39.96 38.42 42.35 37.86 35.93 38.67 40.24 40.71 42.63 36.03 33.20 30.24 26.90 34.13 29.33 31.57 33.08 35.22 34.83 31.75 31.45 30.17 31.47 37.30 39.52 42.31 30.83 32.78 40.10
46.19 47.43 46.48 45.78 45.64 45.94 45.65 45.55 45.67 45.16 44.88 40.58 38.30 44.66 39.78 36.26 37.40 41.62 44.06 43.53 41.17 38.85 36.07 39.38 39.06 40.15 39.09 34.00 33.37 31.32 29.86 33.12 31.25 33.37 33.53 32.50 31.55 31.53 32.71 29.67 25.08 39.16 39.51 35.19 39.14 40.00 40.26
45.50 46.95 46.01 45.61 45.58 45.87 45.43 45.10 45.30 45.09 44.66 43.20 34.60 41.03 44.28 37.50 36.21 41.95 42.44 44.56 45.36 44.93 43.12 42.63 41.59 40.95 40.42 37.42 33.61 35.47 34.66 34.15 32.02 28.86 37.24 33.27 35.47 34.47 32.76 31.51 38.04 40.80 40.97 41.55 41.43 39.84 39.31

GFSGBSN_sfc_wetblb_030.txt.gz
Wetbulb
55.29 54.92 54.99 55.31 55.01 54.27 53.69 53.78 53.83 53.91 54.14 54.05 53.90 53.86 53.34 53.33 53.27 53.10 52.48 52.31 52.43 52.91 54.52 56.44 57.86 59.39 55.19 48.10 48.48 57.76 63.02 63.60 60.90 59.07 54.94 52.42 49.04 46.88 43.26 44.33 45.22 41.15 43.74 47.05 48.29 48.26 46.22
54.62 55.56 54.71 54.29 53.70 53.38 53.98 53.90 53.30 53.14 53.15 53.18 53.18 52.98 52.71 53.13 52.48 52.41 52.29 51.82 52.18 52.46 53.44 55.25 57.41 58.53 51.27 42.39 54.83 58.59 59.09 59.11 59.10 57.00 54.54 53.55 50.46 49.42 45.14 44.54 42.89 44.17 45.21 45.34 47.10 46.82 47.15
55.32 54.59 54.20 53.42 53.59 54.19 53.80 53.37 52.90 52.59 52.50 52.58 52.26 52.02 52.00 52.02 51.80 51.53 51.49 51.64 52.12 52.50 53.22 54.82 56.25 55.63 47.80 45.49 54.50 57.22 59.14 57.87 58.71 57.63 54.32 55.49 54.15 48.67 47.35 44.58 47.87 46.43 42.51 43.82 45.07 45.91 45.39
54.09 54.05 53.66 53.50 54.01 53.49 52.96 52.42 52.03 51.92 51.86 51.75 51.60 51.42 51.23 51.04 51.19 50.96 51.00 51.28 51.64 52.00 53.00 54.33 55.34 53.96 44.16 54.02 53.83 53.41 55.01 53.80 57.74 58.35 56.65 56.89 55.03 50.25 47.53 47.17 45.05 42.49 41.18 36.28 43.05 44.91 45.86
53.46 53.50 53.05 53.71 53.55 53.02 52.48 51.94 51.56 51.31 51.45 51.27 51.10 50.92 50.80 50.78 50.85 50.53 50.64 51.10 51.70 52.13 52.80 53.38 49.83 50.37 42.17 55.99 50.28 52.45 52.95 52.02 53.84 56.34 57.12 57.22 53.72 48.94 45.97 41.16 37.47 38.38 32.51 35.50 39.11 44.85 44.20
53.08 53.30 53.17 53.28 52.99 52.55 52.35 51.82 51.45 51.27 51.07 50.84 50.54 50.58 50.53 50.59 50.54 50.30 50.52 51.10 51.33 50.92 50.09 50.75 50.20 44.67 46.02 45.29 50.61 51.74 51.64 52.54 52.32 53.36 52.79 52.07 49.53 45.31 42.73 38.08 31.17 34.15 33.17 34.29 35.22 40.78 41.65
53.19 53.42 52.60 52.73 52.56 52.27 52.01 51.54 50.95 50.94 50.68 50.49 50.48 50.33 50.28 50.03 49.72 49.98 47.74 43.85 38.42 40.26 44.93 44.48 45.70 44.13 44.70 50.40 52.20 50.23 51.33 50.21 51.51 49.69 45.92 48.44 43.07 39.96 42.07 40.99 39.78 40.31 39.09 34.49 37.52 41.79 38.20
52.84 52.73 52.09 52.58 52.39 51.95 51.55 51.17 50.91 50.61 50.42 50.13 50.02 50.06 50.33 50.58 50.71 49.13 45.54 38.96 40.59 42.54 35.73 45.20 47.54 47.08 48.54 49.79 44.54 47.98 51.70 47.79 46.43 42.17 44.47 42.09 38.96 43.70 45.73 44.64 41.66 39.81 36.10 33.73 37.46 40.24 37.73
52.18 51.57 51.60 52.30 52.05 51.64 51.17 50.83 50.81 50.61 50.53 49.42 49.61 50.19 50.57 50.69 50.67 46.45 43.54 42.73 46.93 46.14 36.35 41.24 46.86 45.68 46.74 48.40 43.77 44.32 49.09 47.00 44.22 41.04 40.94 38.98 40.34 44.75 42.26 40.95 36.99 34.41 32.85 33.08 33.41 36.49 35.73
51.67 51.41 51.56 51.86 51.69 51.14 50.70 50.40 50.41 50.40 49.76 48.86 49.73 50.25 50.58 50.94 46.69 44.78 40.40 46.61 47.76 45.75 31.29 37.84 42.45 44.95 47.64 47.84 41.85 48.37 50.64 46.58 43.64 39.37 40.91 38.57 41.69 40.38 38.70 38.35 36.76 31.60 36.56 36.78 34.83 31.57 25.94
51.38 50.86 51.34 51.30 51.20 50.68 50.38 50.18 50.09 50.37 49.47 49.52 49.88 50.71 50.99 50.74 45.38 42.16 44.56 46.86 47.30 42.96 21.12 36.71 40.88 50.74 47.31 43.02 43.01 44.56 50.44 47.37 40.13 40.98 40.41 36.82 38.40 37.75 36.57 37.68 38.75 34.73 38.07 35.50 33.97 29.37 26.03
50.65 51.00 50.59 50.99 50.64 50.36 49.91 49.36 50.03 49.78 49.47 49.95 50.29 50.76 51.28 47.82 45.34 45.49 48.17 47.79 43.43 27.35 21.93 34.10 41.35 40.83 40.66 41.84 41.97 45.14 45.54 47.62 46.96 42.30 41.13 37.99 41.01 40.69 38.74 39.14 39.45 39.54 35.14 33.10 31.76 27.37 17.19
50.49 50.81 50.05 50.78 50.30 50.08 49.25 49.87 49.71 49.62 50.36 50.28 50.59 51.17 49.15 49.06 41.96 47.23 48.32 42.56 26.23 20.03 35.02 32.10 37.13 39.12 38.48 37.69 39.53 41.42 40.10 38.00 35.97 33.67 33.81 38.07 36.99 38.91 40.58 35.63 38.09 35.22 29.08 17.81 16.37 15.91 18.34
50.37 50.21 50.06 50.59 49.88 49.79 49.61 49.73 49.69 50.57 50.83 51.45 51.49 49.27 48.09 48.69 47.81 47.73 43.54 31.61 20.96 32.43 33.57 39.14 38.80 38.32 35.72 38.28 38.87 39.44 37.97 35.39 38.86 35.40 31.01 27.42 28.13 35.13 38.03 35.49 33.17 31.79 29.97 20.59 15.63 17.39 20.07
50.11 49.93 50.14 49.52 49.60 49.87 49.63 49.48 50.24 50.86 51.89 51.03 49.36 44.60 46.83 47.90 49.08 47.60 39.82 25.63 27.49 32.77 37.50 37.01 37.01 32.99 34.09 36.33 37.96 37.20 36.30 35.95 37.27 35.60 28.93 25.56 27.37 37.51 38.12 38.41 37.29 32.54 25.92 31.94 24.77 23.17 15.24
50.05 49.66 49.09 49.19 49.96 49.52 49.27 49.53 49.62 51.20 51.88 49.91 40.54 43.70 42.89 48.37 48.50 44.57 35.48 31.46 31.68 38.35 39.37 38.32 30.45 33.56 31.28 32.76 34.24 34.76 34.20 37.85 36.47 38.40 37.23 33.66 26.04 37.02 38.06 38.75 39.16 33.99 35.33 25.76 23.20 9.37 14.83
49.57 49.33 48.73 48.36 48.38 48.34 48.83 49.53 49.17 50.67 51.60 49.02 39.32 36.81 43.79 48.42 47.62 39.13 30.56 30.49 36.05 41.36 41.37 37.38 33.19 31.88 34.09 32.33 31.67 33.11 32.58 36.52 38.04 36.93 37.65 35.17 30.79 31.05 37.38 32.23 30.94 31.84 31.12 28.96 27.19 21.94 14.80
49.38 49.09 48.46 48.24 48.65 48.71 48.87 48.80 48.89 50.28 50.98 45.35 38.15 28.39 44.50 46.58 35.43 37.03 33.20 33.75 38.09 39.55 41.52 39.08 37.00 35.02 32.98 34.59 31.53 31.09 31.34 34.44 39.65 38.89 34.35 36.14 32.68 22.07 29.97 34.85 36.23 33.99 31.10 29.54 19.82 17.40 21.23
49.14 48.76 48.27 48.09 47.46 48.00 48.16 48.17 48.52 49.48 50.61 39.91 36.46 36.64 43.68 41.64 28.35 33.82 35.87 35.51 37.94 40.97 39.48 39.03 36.15 37.19 36.60 33.32 30.38 32.64 34.64 41.01 40.10 38.70 36.29 36.45 29.55 20.92 24.94 30.72 33.47 31.70 32.58 32.91 32.08 30.85 18.01
49.23 48.60 48.08 47.83 47.06 46.96 47.11 47.51 48.39 48.99 50.37 41.44 35.33 28.32 35.69 40.24 38.01 36.36 34.49 36.35 36.56 41.25 39.29 38.64 36.95 38.22 35.67 34.12 34.99 33.75 35.70 39.86 42.01 41.36 44.36 40.67 31.45 23.81 21.09 24.74 29.78 25.48 30.66 32.66 31.90 23.66 24.67
48.65 48.40 47.98 47.71 47.11 46.87 46.81 47.04 47.85 49.06 49.44 40.96 35.55 34.96 38.38 28.55 34.57 34.69 37.89 37.48 36.05 36.28 40.28 40.03 37.91 37.86 37.67 34.73 35.53 35.36 37.03 36.16 40.24 42.66 40.73 37.25 24.47 25.76 30.32 32.01 31.58 29.49 30.92 31.30 28.96 30.87 25.74
48.22 48.36 47.77 47.56 47.12 46.72 46.46 46.59 47.99 48.55 48.13 41.02 35.49 36.74 38.72 34.17 35.44 33.95 35.62 34.59 35.68 37.33 38.07 37.46 37.57 40.72 39.77 36.41 35.74 34.07 35.46 34.14 33.89 36.32 34.37 36.72 24.20 30.70 29.24 31.60 31.77 28.98 31.92 31.93 32.70 32.90 32.77
47.35 48.57 47.64 47.30 47.02 46.52 46.15 46.20 46.61 47.33 45.75 41.61 41.79 43.09 40.17 35.09 33.87 32.04 33.15 35.16 36.92 38.63 39.94 41.02 39.68 39.37 38.54 40.68 42.14 39.64 39.99 38.79 36.97 34.70 33.27 33.28 29.87 31.26 25.16 30.12 30.07 27.80 31.58 33.59 34.32 34.96 34.25
46.71 48.34 47.08 47.24 46.79 46.38 46.16 45.85 46.11 46.34 46.07 43.10 42.96 41.84 38.33 31.72 33.65 34.45 37.22 38.30 37.57 38.80 37.35 40.63 41.46 39.38 42.17 44.25 43.26 41.91 40.61 40.05 38.07 35.49 39.11 34.88 33.87 33.93 27.15 27.58 18.35 33.94 38.49 37.81 35.83 37.94 39.64
46.39 47.28 47.40 46.64 46.46 46.43 46.02 45.92 45.81 45.72 46.12 41.93 44.24 40.65 38.75 33.30 35.40 36.80 37.73 37.76 38.65 38.82 38.84 40.10 41.96 42.70 44.13 41.51 37.17 36.29 36.80 37.19 38.05 38.07 38.15 38.89 35.91 31.07 28.10 27.40 30.35 34.00 38.48 37.41 35.82 35.17 39.83
45.99 46.84 47.89 46.17 46.46 46.57 46.32 45.86 45.72 45.52 45.35 38.85 44.34 43.59 39.41 35.50 32.75 38.73 37.96 36.85 34.66 33.19 35.73 39.91 43.62 44.53 42.77 39.08 35.16 28.57 29.38 30.44 33.42 35.47 39.09 39.21 39.05 34.40 31.92 25.63 24.77 32.72 37.96 40.79 39.72 30.73 39.84
45.61 46.34 47.78 46.23 45.74 45.80 45.99 46.01 45.88 45.17 44.92 39.01 41.06 43.61 40.01 36.14 38.02 37.98 37.61 39.17 41.52 35.95 34.12 36.50 38.19 38.52 40.46 34.69 32.09 28.99 25.72 33.03 30.83 31.35 33.77 34.65 34.97 32.02 31.68 29.96 31.14 37.27 37.90 41.25 28.98 31.56 39.81
45.71 45.80 46.89 46.04 45.57 45.40 45.38 45.51 45.40 45.29 44.62 39.21 36.06 43.79 39.03 35.04 35.64 38.77 42.52 42.55 42.03 37.54 34.26 37.22 37.02 37.78 36.21 31.83 31.16 30.42 28.72 31.36 29.74 31.72 32.81 33.27 31.76 31.05 33.01 29.77 25.23 38.09 39.16 34.82 37.91 39.54 40.29
46.01 45.66 46.46 47.19 45.95 45.00 45.63 45.04 45.28 44.79 44.84 41.90 32.94 38.56 40.92 36.97 34.00 39.88 40.65 42.31 43.23 44.19 41.05 39.73 38.39 39.70 38.74 34.15 32.14 33.08 32.62 35.34 30.56 26.97 33.88 32.51 34.18 32.03 32.54 31.94 38.45 39.70 40.23 41.59 40.24 39.04 38.84

GFSGBSN_sfc_wetblb_033.txt.gz
Wetbulb
54.57 56.30 54.75 54.68 54.05 53.98 54.81 54.54 53.88 53.38 53.47 53.28 53.14 53.00 53.09 53.02 53.04 52.73 53.11 52.83 53.04 52.75 52.68 53.13 54.26 56.24 55.50 47.29 46.30 56.12 62.02 63.48 60.40 59.10 54.75 52.50 48.35 46.36 43.36 44.31 44.52 41.61 43.43 46.33 47.63 47.70 45.86
55.38 54.58 54.27 53.85 53.76 54.64 54.18 53.78 52.88 52.45 52.58 52.65 52.43 52.26 52.23 52.57 52.04 51.66 52.11 52.00 52.35 52.50 52.42 52.65 53.77 55.78 51.65 40.64 53.52 55.60 59.14 59.35 58.96 56.87 53.78 52.19 49.21 48.67 44.93 43.57 43.50 44.14 45.04 45.42 46.11 45.83 46.17
55.27 54.28 54.00 53.76 54.07 54.05 53.48 53.02 52.43 52.15 52.06 52.16 52.01 51.62 51.32 51.44 51.49 51.02 51.35 51.55 51.89 51.93 52.19 52.33 54.07 53.19 48.35 45.12 53.27 54.80 59.27 57.93 58.40 56.56 53.05 53.63 52.33 47.73 46.42 43.50 46.25 45.06 41.16 42.80 44.29 45.03 44.77
54.44 54.08 53.55 53.78 53.77 53.46 52.97 52.42 52.31 51.89 51.90 51.69 51.51 51.23 51.08 51.08 51.10 50.84 50.73 51.22 51.31 51.49 51.94 52.44 53.83 51.00 44.88 53.40 52.96 51.52 56.51 56.22 58.16 57.58 56.17 56.56 55.73 49.93 46.35 46.50 44.37 41.80 40.42 36.03 41.97 44.57 45.13
53.75 53.79 53.92 52.80 53.66 53.38 52.82 52.46 51.84 51.60 51.39 51.35 51.00 50.88 50.78 50.78 50.82 50.58 50.51 50.91 51.21 51.58 51.74 52.17 48.86 47.97 42.82 54.92 49.87 51.53 52.35 52.13 55.05 56.46 56.89 56.82 52.95 47.57 45.21 40.26 37.12 37.04 32.05 34.87 38.67 43.87 43.16
53.93 53.45 52.98 52.49 53.36 53.18 52.65 52.07 51.75 51.41 51.43 50.97 50.94 50.32 50.55 50.47 50.51 50.10 50.65 50.72 50.66 50.08 48.95 49.52 48.75 44.57 47.01 44.90 50.29 51.18 51.40 54.42 52.32 53.05 52.35 50.48 47.91 42.85 40.85 38.01 31.48 33.21 33.28 33.31 34.48 38.87 40.72
53.45 52.85 52.25 52.31 52.89 52.63 52.17 51.74 51.31 51.18 50.85 51.00 50.12 49.70 50.24 50.80 50.82 50.75 47.41 42.74 37.06 38.87 42.37 39.36 42.82 42.28 45.32 50.13 52.23 49.88 51.24 51.66 51.67 49.39 45.33 47.68 43.24 39.68 41.33 39.92 38.08 37.47 35.88 34.20 36.72 40.19 37.36
52.85 52.36 51.97 51.90 52.32 52.07 51.61 51.31 51.13 51.06 50.99 50.60 49.29 49.91 50.42 50.81 50.92 50.36 45.90 37.66 38.57 41.96 34.70 42.49 45.43 46.94 48.87 49.38 44.41 47.63 51.59 47.30 46.83 42.85 45.10 43.23 39.47 43.22 45.12 43.17 42.30 40.52 37.70 33.33 36.74 39.09 36.49
52.31 51.82 51.80 51.97 51.91 51.53 51.30 51.00 50.65 50.44 50.79 50.07 49.49 49.66 50.27 50.92 51.02 47.20 42.53 42.34 45.53 44.51 36.00 38.45 43.93 45.94 46.25 47.77 43.34 44.87 49.08 47.53 44.31 41.82 41.18 38.72 41.46 45.64 44.12 42.63 40.48 36.34 33.69 32.53 32.74 35.75 34.41
51.45 51.59 51.50 51.32 51.61 51.19 50.86 49.94 50.08 50.77 50.16 49.92 50.18 50.50 50.77 51.05 46.56 45.18 41.32 45.38 46.64 43.78 30.40 35.74 40.19 45.55 47.24 46.51 41.25 48.25 50.58 47.08 44.04 40.55 41.05 39.55 43.05 42.59 41.33 39.73 36.94 31.27 35.69 36.11 33.90 31.04 26.17
51.16 51.30 51.14 51.13 50.96 50.72 50.03 50.20 50.61 50.60 50.61 50.84 50.90 51.01 51.35 50.87 44.84 42.05 44.85 46.18 45.26 42.03 21.21 36.53 40.98 50.18 46.96 41.41 42.60 43.61 50.54 46.98 41.10 40.46 40.94 37.24 38.23 39.11 38.14 38.64 38.80 34.82 37.08 34.48 32.95 28.46 24.84
50.85 51.06 50.59 50.83 50.09 50.53 50.39 50.41 50.57 51.25 51.62 51.83 51.63 51.17 50.83 46.26 46.72 45.83 47.48 47.59 41.35 27.17 20.04 32.99 41.20 41.37 40.27 41.01 41.61 45.28 45.25 48.09 47.01 41.56 40.63 37.38 40.72 40.57 38.89 39.16 38.81 38.54 34.25 31.42 30.10 26.94 17.27
50.55 50.95 50.32 49.64 50.33 50.47 50.04 50.00 50.77 51.50 52.01 51.72 50.95 50.76 48.54 47.95 41.77 47.59 47.23 41.55 27.15 19.40 34.78 32.43 36.39 39.36 38.28 38.49 40.26 41.48 40.04 38.88 37.28 33.79 33.87 37.34 36.51 38.28 40.02 34.93 37.09 34.41 29.29 18.31 16.07 15.71 17.76
50.62 50.41 49.67 49.40 49.85 49.45 49.44 50.41 50.32 51.46 51.87 51.04 50.14 49.62 48.93 47.72 47.29 47.35 43.90 32.90 22.46 30.78 33.28 39.12 38.93 38.40 35.53 38.22 39.12 39.51 37.91 35.40 38.08 36.07 34.19 30.46 29.16 34.82 37.23 34.63 32.59 30.84 29.86 21.17 15.27 15.56 18.85
50.24 49.93 49.17 48.74 48.97 49.39 49.75 49.79 50.23 51.06 51.90 51.42 48.84 44.51 44.83 45.91 47.83 46.41 39.54 24.03 26.81 31.44 37.95 37.09 37.37 33.66 33.10 36.77 38.52 38.12 36.04 33.53 36.78 35.27 29.74 25.38 26.69 36.38 37.38 37.65 36.83 31.87 24.44 30.27 23.91 21.02 15.54
50.02 49.67 48.94 48.97 49.30 49.42 49.60 49.24 50.00 50.85 51.38 50.49 41.07 42.10 41.31 46.66 47.09 41.59 31.54 30.99 32.87 38.39 39.51 35.88 29.71 33.50 30.27 33.01 34.67 35.50 34.18 37.27 36.86 37.88 36.19 32.08 25.45 35.31 36.86 37.93 37.70 33.61 34.76 23.40 19.70 10.57 14.12
49.74 49.42 48.98 48.55 47.94 47.99 48.25 48.75 49.78 50.39 51.08 48.67 38.67 34.78 42.68 46.66 45.29 36.17 28.73 31.37 37.05 40.95 40.12 35.61 32.19 31.29 31.78 30.61 31.62 31.15 32.53 35.39 39.10 37.26 36.77 34.03 30.37 31.17 36.05 31.24 30.56 30.89 29.13 27.88 26.42 21.80 14.12
49.68 49.10 48.85 48.41 47.60 47.56 47.78 48.27 49.19 49.86 50.99 43.56 35.61 27.49 42.00 45.07 33.23 34.45 33.09 34.27 38.15 38.68 40.41 37.60 35.86 34.48 32.14 32.08 30.64 30.18 30.97 33.56 38.87 38.11 33.82 35.38 30.87 25.26 29.71 34.08 35.42 33.49 30.54 28.96 20.61 17.31 20.68
49.57 49.10 48.57 48.24 47.52 47.32 47.44 47.91 48.58 49.51 50.33 39.11 33.15 33.79 42.15 40.82 33.01 34.83 37.10 36.58 37.93 39.54 38.22 37.09 34.73 35.85 35.28 32.16 29.24 31.45 32.90 38.80 39.48 37.55 34.89 35.76 27.93 17.79 25.60 29.41 32.67 30.90 31.71 31.37 29.35 27.89 16.24
48.77 49.11 48.32 48.06 47.47 47.14 47.02 47.39 47.94 48.86 50.11 40.72 34.27 27.71 35.24 37.78 38.86 36.64 34.99 36.10 36.03 39.69 37.36 37.55 35.85 37.13 34.69 32.56 33.32 32.25 33.84 39.18 39.71 39.36 43.32 39.93 30.23 24.05 20.18 24.69 28.44 24.43 30.04 31.24 28.20 21.12 22.15
48.13 49.03 48.36 47.88 47.57 47.10 46.84 46.99 47.42 48.09 49.20 40.06 34.95 35.06 35.72 29.92 33.02 34.02 35.25 35.76 35.16 35.31 38.73 38.53 35.36 35.92 34.98 32.50 33.80 33.37 36.04 37.23 40.40 43.03 39.10 35.53 25.25 25.54 29.52 31.26 30.28 29.13 30.00 30.64 26.40 29.57 23.35
47.73 48.96 48.00 47.72 47.44 47.07 46.67 46.51 46.77 48.17 47.79 41.14 37.62 36.82 38.75 33.35 33.91 33.10 34.76 33.91 34.99 36.56 37.27 36.32 36.04 39.37 39.40 35.46 34.46 33.20 34.73 33.64 34.20 36.19 36.07 36.47 26.71 28.57 24.86 30.87 30.78 28.08 30.97 31.36 31.28 31.44 31.12
47.63 48.24 48.22 47.39 47.27 46.92 46.52 46.25 46.36 46.77 44.93 39.79 42.22 41.70 39.77 34.30 32.51 30.97 32.23 33.98 35.56 37.16 39.03 40.20 39.58 38.94 38.49 39.72 39.91 37.72 38.13 37.98 36.64 34.66 33.28 33.06 29.26 30.09 25.31 29.06 29.16 27.25 30.56 31.41 31.86 33.23 33.00
47.22 47.42 48.96 46.95 46.96 46.69 46.60 46.18 46.14 45.97 44.70 39.16 42.15 41.35 37.71 31.29 32.45 33.39 35.96 37.03 36.74 37.83 36.18 39.60 40.29 38.27 41.61 43.70 42.15 41.28 39.63 38.31 37.20 34.89 37.80 33.66 32.98 33.50 27.51 25.88 16.54 31.72 37.15 36.01 34.19 35.73 36.14
46.72 46.95 48.35 47.15 46.43 46.14 46.23 46.07 46.01 45.84 45.60 38.52 42.18 39.57 38.18 33.01 33.76 34.88 36.75 36.72 37.14 37.37 37.74 39.25 40.84 41.67 42.97 40.51 36.30 35.21 36.09 36.38 36.95 37.48 37.98 38.23 35.16 30.63 26.96 27.23 28.67 33.78 37.59 36.42 35.03 34.63 38.75
46.45 46.36 47.35 47.72 46.16 45.78 46.43 45.74 45.85 45.62 45.31 37.19 43.74 41.99 37.17 35.37 31.56 36.71 35.99 36.06 33.81 32.28 34.77 38.37 42.01 43.28 41.33 37.56 34.14 28.70 26.88 29.79 31.93 35.32 38.82 38.67 37.86 34.27 31.51 25.78 24.41 33.24 37.61 40.23 38.97 30.19 38.31
46.47 45.98 46.58 47.73 46.05 45.67 45.97 46.09 45.59 45.27 45.02 37.65 39.29 42.67 39.20 35.30 36.00 37.33 35.16 35.49 37.53 34.32 32.96 34.64 36.74 37.25 39.07 33.75 31.06 28.05 25.35 31.80 30.63 30.16 33.33 34.57 34.95 30.85 31.80 29.91 30.47 36.81 37.71 40.57 28.24 31.16 38.56
45.96 46.26 45.82 46.83 46.99 45.96 45.25 45.86 45.84 45.68 45.22 38.42 35.23 41.57 34.99 34.82 34.70 36.95 39.54 37.44 39.59 36.42 34.02 36.41 36.80 36.95 34.90 31.40 30.87 29.86 27.90 30.23 28.51 30.56 34.37 33.73 31.83 31.71 31.75 29.83 24.46 38.11 38.90 33.83 37.52 38.19 38.45
45.73 45.99 45.68 46.30 47.07 46.12 45.44 45.37 45.38 45.18 45.25 40.55 32.62 37.24 39.18 33.26 31.81 37.86 38.76 39.30 39.84 43.45 39.94 38.37 36.55 36.74 37.27 32.57 31.57 31.55 30.95 32.81 29.54 26.58 31.90 31.58 33.40 30.62 31.76 31.52 37.62 38.97 38.62 40.40 39.63 38.49 37.03

GFSGBSN_sfc_wetblb_036.txt.gz
Wetbulb
55.96 55.78 54.53 54.64 54.76 54.41 54.77 54.30 53.67 53.20 53.17 53.13 52.83 52.68 52.64 52.52 52.53 52.25 52.55 52.70 52.72 52.71 53.19 53.03 52.81 53.36 52.94 47.46 45.50 54.86 59.90 62.11 57.82 58.85 55.48 53.44 49.01 46.03 42.78 44.13 44.26 41.86 43.05 46.16 47.34 47.52 45.73
55.78 54.97 54.35 54.70 54.91 54.18 54.40 53.99 53.14 53.07 52.86 52.59 52.79 52.21 51.86 51.82 51.70 51.29 51.58 51.57 52.03 52.10 52.29 52.42 52.29 53.07 49.61 42.18 53.21 54.47 54.46 58.23 56.28 56.89 54.35 53.31 50.14 48.29 45.48 44.14 43.23 44.49 45.05 45.01 45.70 45.50 45.16
54.68 54.70 54.86 54.76 53.44 54.10 54.15 53.57 52.93 52.54 52.41 52.30 52.06 51.62 51.55 51.23 51.23 51.21 51.24 51.24 51.38 51.78 51.63 51.91 51.81 50.67 48.12 46.04 53.58 52.48 57.58 56.94 57.98 56.97 52.86 53.17 51.82 48.25 45.96 42.61 45.98 43.94 40.28 42.06 43.47 44.16 44.11
54.57 54.80 54.22 53.58 53.34 53.75 53.51 52.95 52.36 52.30 52.11 52.05 51.84 51.63 51.03 51.05 51.08 51.08 51.13 51.08 51.21 51.15 51.19 51.81 52.10 50.10 44.71 53.19 54.54 52.69 54.99 56.73 57.51 56.91 55.39 54.84 54.54 49.12 45.57 45.64 43.70 41.05 40.16 35.38 41.32 44.19 44.94
54.03 54.04 53.78 53.17 52.83 53.48 53.07 52.43 52.05 52.01 51.95 51.71 51.87 51.46 50.98 50.69 50.57 50.71 50.35 50.79 50.77 51.01 51.30 51.22 47.03 46.30 43.14 54.13 50.57 51.52 51.90 54.14 55.93 55.66 55.49 56.42 53.10 47.44 44.81 39.71 37.05 36.50 31.51 34.61 38.62 43.43 42.37
53.94 53.75 53.08 52.64 52.86 53.08 52.75 52.14 51.84 51.71 51.75 51.52 51.55 50.68 49.98 50.32 50.69 50.89 50.66 50.32 50.25 49.24 48.48 48.91 47.77 41.83 46.41 44.63 49.68 50.92 52.58 55.23 53.20 52.61 51.24 49.70 48.89 41.99 39.77 39.09 29.94 33.62 31.86 32.58 34.52 37.91 39.60
53.40 52.97 52.68 52.40 52.37 52.60 52.38 51.92 51.58 51.03 51.05 51.15 51.22 50.21 49.53 50.60 50.47 49.27 47.93 41.77 36.16 38.44 41.21 36.78 39.76 42.19 45.33 50.22 51.68 49.72 51.43 52.96 52.64 50.04 43.54 46.62 42.40 38.21 39.28 39.46 37.61 37.02 35.19 33.47 35.60 39.01 36.57
52.37 52.15 52.24 52.14 52.29 52.18 51.74 51.11 50.69 51.31 51.29 51.15 50.54 49.90 49.84 50.44 50.76 50.49 44.79 37.31 37.26 40.77 33.23 40.79 41.66 44.27 48.81 50.26 44.24 47.91 52.06 47.04 46.76 43.03 42.62 42.60 38.93 41.45 42.90 41.88 40.43 38.43 35.59 32.84 36.61 38.18 35.48
52.19 51.95 51.72 51.51 52.44 51.14 51.07 51.37 51.38 51.76 52.03 51.82 51.45 51.23 51.05 50.95 51.00 47.65 42.12 41.10 43.87 43.07 33.61 38.37 42.40 44.52 46.31 47.78 44.00 44.95 49.04 47.54 43.89 42.36 41.38 39.52 41.72 45.64 43.73 41.42 38.99 36.01 34.43 32.38 32.76 34.91 33.42
51.81 51.64 51.89 51.39 50.69 51.76 51.20 51.10 51.50 52.16 52.29 52.08 51.73 51.61 51.34 51.18 45.16 45.03 40.54 44.08 45.63 43.32 22.61 34.44 39.45 45.32 47.37 46.86 41.69 48.89 50.84 47.24 44.13 40.37 40.01 39.12 44.47 43.50 42.29 41.08 38.78 34.87 37.44 35.73 33.70 31.10 26.86
51.23 51.70 51.27 50.07 51.30 50.87 50.20 51.10 51.70 52.20 52.19 51.88 51.71 51.55 50.61 48.68 42.71 42.08 43.41 45.03 44.42 40.65 14.86 37.03 39.47 49.39 47.67 41.49 42.18 44.58 50.49 47.17 41.37 41.06 41.66 36.74 40.79 40.90 39.76 39.35 40.24 36.29 36.74 34.10 32.29 28.47 25.35
51.04 51.32 50.64 49.80 49.93 49.82 50.35 51.29 51.25 52.05 51.97 51.55 51.54 51.46 49.55 45.91 43.72 44.53 48.23 46.54 41.02 22.81 20.99 32.74 39.92 40.84 39.81 40.93 41.77 45.50 45.44 47.91 46.99 41.07 40.69 38.63 42.37 42.07 40.94 40.50 40.27 38.35 33.44 30.81 28.88 26.60 17.86
50.69 50.71 50.06 49.54 50.14 50.14 50.54 50.28 51.26 51.64 51.95 51.63 51.08 51.00 48.27 47.27 39.47 46.33 45.17 40.54 24.55 19.85 34.86 32.65 35.99 38.94 38.27 38.57 39.96 41.51 40.26 38.67 37.31 33.05 33.74 37.16 37.05 38.95 40.34 35.38 36.70 34.78 29.47 19.01 17.06 13.93 18.13
50.61 50.45 49.61 49.54 49.16 49.53 49.57 49.96 51.06 51.47 51.57 51.86 50.70 49.43 48.02 47.08 46.27 45.49 43.13 29.20 19.81 32.21 34.21 39.00 38.62 37.67 35.75 38.60 39.29 39.53 38.09 35.69 38.31 36.87 33.78 29.35 29.51 36.37 38.71 35.98 32.92 30.36 29.46 21.50 17.03 15.95 19.06
50.25 49.98 49.51 49.22 48.67 48.97 49.18 49.67 50.69 50.96 51.66 51.99 47.91 42.53 42.62 45.40 47.26 44.66 34.98 25.20 27.08 31.87 37.67 37.03 37.00 33.73 34.16 36.91 38.66 37.34 35.56 34.96 35.78 34.94 29.30 25.33 26.52 36.94 36.92 36.88 35.70 31.14 25.38 29.20 22.86 20.61 15.66
50.11 49.80 49.40 49.14 48.61 48.62 48.95 49.54 50.20 50.36 51.26 50.59 39.84 39.31 39.96 45.33 45.67 40.47 32.84 32.35 34.19 38.44 37.62 35.58 29.90 32.35 30.50 33.67 32.54 35.32 32.18 35.77 36.18 36.13 34.82 30.64 25.15 34.54 36.07 37.07 36.61 33.05 34.05 23.24 18.96 11.32 14.73
49.98 49.80 49.33 49.04 48.44 48.16 48.42 49.07 49.78 50.28 51.21 47.59 38.14 33.91 40.93 45.41 43.05 36.53 30.39 32.29 37.65 40.13 39.28 34.47 31.22 30.77 30.91 30.53 31.44 32.44 31.04 34.32 36.53 36.13 36.66 32.81 29.45 31.99 34.29 30.84 30.11 30.45 28.24 26.60 25.25 21.21 14.31
49.53 49.91 49.24 48.78 48.28 47.90 47.97 48.47 49.17 50.05 51.14 42.66 35.50 31.18 41.73 43.14 34.42 36.04 34.38 35.04 38.51 38.09 39.89 36.18 35.31 33.58 30.80 30.72 29.02 28.81 31.14 32.48 37.87 37.74 33.00 34.31 30.41 24.45 27.84 33.15 34.76 32.50 29.69 27.44 19.30 16.32 21.17
49.06 49.37 49.12 48.61 48.16 47.71 47.53 47.87 48.40 49.39 50.06 38.34 32.88 32.20 41.49 40.67 33.39 34.25 36.90 36.74 37.96 38.13 37.24 35.62 33.65 35.29 34.37 31.54 28.97 30.30 32.18 37.66 38.67 36.82 34.75 35.31 27.03 18.40 25.15 28.75 32.02 30.25 30.92 30.39 27.82 25.46 16.36
48.82 49.01 49.04 48.42 48.14 47.67 47.30 47.31 47.68 48.62 49.70 39.44 33.85 29.78 35.17 37.17 35.91 36.60 35.07 33.77 34.56 38.66 36.50 36.55 34.81 35.72 33.35 31.07 32.83 30.84 32.02 38.21 38.64 38.20 42.92 38.98 29.20 24.55 19.78 24.05 28.61 25.10 29.82 30.33 27.49 19.86 21.52
48.54 48.56 49.25 48.44 48.10 47.70 47.18 46.98 47.15 47.70 48.65 39.34 34.79 34.46 37.45 30.77 32.09 31.98 33.01 34.11 33.77 34.31 37.93 36.94 34.58 34.40 33.67 30.26 32.35 32.25 34.79 35.50 38.61 42.23 38.11 35.32 25.35 25.40 29.14 30.36 29.99 28.97 29.79 29.72 25.23 27.32 22.30
48.12 48.21 49.27 48.58 47.85 47.59 47.22 46.74 46.76 47.24 47.31 40.49 33.79 35.12 38.70 32.77 32.41 30.94 33.38 33.05 34.14 35.24 35.68 34.14 33.61 36.78 38.01 32.97 33.02 31.93 33.83 32.22 33.62 35.63 34.26 35.06 26.66 28.84 24.48 30.38 29.97 27.64 29.77 30.11 30.01 30.30 29.99
47.52 47.75 48.06 48.69 47.61 47.12 47.00 46.54 46.62 46.31 43.92 36.55 40.85 41.86 38.24 33.72 31.07 29.64 30.98 33.34 35.13 36.66 38.26 39.30 39.52 39.16 38.34 38.67 38.40 36.79 37.65 37.04 36.49 34.31 32.90 34.15 29.18 26.92 19.55 28.33 28.26 24.95 29.43 30.63 31.49 32.05 32.85
47.25 47.24 47.53 48.72 47.23 46.46 46.49 46.32 46.36 46.09 43.47 40.87 41.73 41.13 35.14 30.23 31.06 32.66 34.50 35.39 36.34 36.76 35.01 38.78 39.61 36.92 40.25 42.61 40.58 40.76 37.33 36.91 36.82 35.02 36.53 33.14 31.44 30.66 27.17 26.52 16.51 30.65 35.42 36.07 34.01 34.41 34.94
47.03 46.86 46.92 48.05 47.34 46.69 46.28 46.20 45.96 46.06 45.26 41.13 42.14 39.47 37.63 31.98 32.94 33.30 34.64 35.27 35.81 36.24 36.15 38.07 39.44 41.37 41.48 39.03 34.87 34.93 35.76 35.72 35.98 37.07 37.44 37.60 33.94 28.39 26.16 26.41 28.10 32.10 36.04 35.04 33.62 34.37 37.27
47.22 47.16 46.66 47.16 47.33 46.42 46.12 46.44 45.60 45.61 45.15 36.90 42.59 41.81 37.95 34.78 29.62 35.31 35.14 34.47 32.36 31.10 33.89 37.34 40.93 42.29 40.15 36.06 33.06 27.69 25.91 28.35 31.29 34.69 38.56 38.38 35.87 32.24 30.37 26.03 22.32 32.42 38.61 40.56 37.99 30.85 38.05
47.15 46.49 46.43 46.54 47.77 46.97 46.18 45.74 46.38 46.11 45.05 37.59 36.58 38.20 38.05 34.48 35.97 36.02 34.55 34.81 36.47 33.02 32.16 33.00 35.95 36.60 38.28 32.73 30.37 27.51 24.26 30.28 29.55 30.80 32.68 34.10 34.72 31.20 29.33 28.84 29.65 35.82 38.51 41.07 29.52 31.09 37.58
46.46 46.28 46.54 46.11 46.86 47.61 46.36 45.83 45.69 45.98 45.24 38.67 35.77 38.37 32.90 29.43 31.36 35.14 38.02 36.06 39.88 35.37 32.43 35.17 36.06 35.91 33.77 33.23 31.97 29.39 26.29 29.23 27.71 32.86 32.69 32.12 30.72 31.25 30.82 28.65 24.75 38.15 39.21 35.72 37.81 37.56 37.98
45.91 45.93 45.99 45.77 45.82 46.65 47.39 46.78 45.92 45.21 45.26 41.05 33.80 36.83 38.59 30.84 28.36 35.40 37.38 38.40 38.47 40.17 41.30 37.77 35.28 35.30 36.25 31.62 30.74 30.17 29.99 29.10 27.84 25.71 30.47 29.63 31.92 29.70 31.10 30.09 36.99 38.17 38.12 40.26 39.58 38.63 37.11

GFSGBSN_sfc_wetblb_039.txt.gz
Wetbulb
56.02 54.83 54.72 55.40 55.32 54.71 54.52 54.76 54.23 53.63 53.71 53.32 53.27 52.84 52.57 52.26 51.92 51.72 51.89 52.02 52.07 52.22 52.59 52.48 52.69 52.05 50.77 45.93 46.82 54.62 57.80 57.41 58.14 57.48 55.19 52.23 50.51 49.22 45.18 45.19 45.25 43.88 44.95 46.98 48.59 48.29 47.82
54.72 54.98 55.28 54.92 54.35 53.50 54.39 54.26 53.66 53.29 53.18 53.00 52.83 52.36 51.79 51.45 51.66 51.21 51.15 51.49 51.70 51.75 52.03 52.12 52.02 51.49 46.87 41.08 53.35 54.78 53.30 55.01 55.57 56.54 55.11 53.32 50.61 50.47 46.93 45.58 44.96 46.05 46.23 46.33 47.40 47.17 47.28
54.49 54.82 54.89 54.47 53.66 53.31 53.94 53.65 53.10 52.82 52.85 52.84 52.62 52.23 51.78 51.62 51.12 51.25 51.29 51.27 51.01 51.30 51.55 51.66 51.53 48.85 44.49 43.29 53.23 54.62 53.60 56.29 56.00 56.76 53.89 54.83 52.95 49.15 46.93 44.21 47.19 45.28 42.45 44.35 45.10 45.80 45.72
54.10 54.56 54.34 54.02 53.18 53.44 53.47 53.17 52.75 52.67 52.42 52.50 51.98 52.13 51.80 51.31 50.51 50.81 51.08 51.04 51.09 51.09 50.93 51.04 51.45 48.13 40.05 53.37 54.38 53.20 52.98 55.75 56.82 58.08 56.22 55.56 53.92 49.36 47.38 47.32 44.96 42.40 42.53 37.45 43.39 44.86 45.90
54.29 53.84 53.41 53.57 52.83 53.48 53.30 52.85 52.32 51.99 51.85 51.87 51.76 51.63 51.62 50.48 50.15 50.78 51.00 51.38 51.43 51.15 50.68 50.66 46.71 44.85 41.12 54.41 49.60 52.76 52.43 53.23 55.43 55.63 55.25 56.04 53.51 48.86 46.35 41.17 38.83 39.32 33.83 35.95 39.70 44.77 44.10
54.01 53.29 52.93 52.79 52.51 53.39 52.54 52.40 51.79 52.26 52.48 52.50 52.00 51.44 50.81 49.72 50.32 50.41 50.15 50.77 50.10 48.70 48.09 48.76 47.05 40.34 44.64 44.24 50.01 50.92 52.75 54.58 52.63 52.38 50.84 50.11 48.06 43.42 41.43 38.92 31.83 34.28 34.15 36.32 36.51 40.46 41.62
52.96 53.05 52.89 52.48 52.38 51.95 52.85 52.79 52.32 52.55 52.90 52.78 52.55 51.31 50.60 49.75 49.96 49.69 48.45 42.07 36.06 36.83 41.28 35.88 37.24 40.30 45.17 49.73 51.86 49.87 53.70 53.17 52.17 49.00 43.19 46.50 41.18 37.88 40.81 40.56 38.66 38.17 36.63 35.84 38.21 40.47 39.24
52.57 52.59 52.39 52.00 51.67 52.97 51.88 51.90 52.54 52.88 53.01 52.62 52.16 51.77 51.74 51.61 50.70 49.84 44.86 36.89 36.53 40.16 32.35 39.95 40.84 41.88 45.59 49.96 44.26 47.48 52.34 48.13 46.55 41.44 44.83 42.00 37.58 41.80 43.04 41.83 40.00 38.55 36.34 35.49 38.60 39.31 38.39
52.52 52.25 52.20 51.29 51.70 51.36 51.19 52.08 52.16 53.06 52.94 52.72 52.37 51.89 51.48 51.21 50.88 48.24 42.88 40.16 43.54 42.76 33.08 38.69 42.88 42.79 44.74 48.09 44.10 44.72 49.06 47.79 38.97 38.09 41.32 37.91 41.29 44.28 42.68 40.70 38.69 37.45 36.38 35.09 35.62 36.84 36.25
51.95 52.23 51.67 50.80 50.71 50.93 51.67 51.75 52.01 52.73 52.73 52.14 52.04 51.53 50.76 50.57 43.91 44.75 41.39 44.47 44.84 43.04 24.07 33.78 38.84 44.89 46.36 46.93 42.28 49.12 50.74 47.46 44.69 34.75 40.51 40.04 44.17 42.90 41.50 39.73 40.10 34.85 38.18 37.13 35.04 33.92 30.14
51.48 51.73 51.02 50.46 50.77 50.99 51.05 51.05 52.02 52.34 52.39 51.88 51.71 51.62 50.80 48.73 43.27 40.34 42.95 44.15 43.77 41.50 12.36 37.37 39.59 48.44 45.97 41.34 43.48 44.94 50.58 47.34 41.57 41.09 41.18 36.46 41.16 41.77 40.18 40.49 41.17 37.02 37.90 35.16 33.62 30.94 30.13
51.12 51.43 50.66 50.36 49.96 49.97 50.15 50.69 51.73 51.81 52.08 52.27 51.68 51.17 49.71 44.78 42.72 44.88 47.66 44.83 41.66 20.92 19.55 32.79 39.83 40.41 39.86 41.90 43.04 45.45 45.70 48.54 46.63 40.53 40.02 38.80 42.96 42.61 40.83 41.16 40.09 37.96 34.11 31.99 30.52 29.32 24.85
50.73 51.03 50.45 50.12 49.62 49.72 49.82 50.28 51.38 51.53 51.86 52.17 51.76 50.60 47.60 46.53 39.69 46.35 44.88 39.30 21.28 20.38 34.09 32.04 35.50 39.16 38.02 38.22 40.37 41.89 40.29 39.30 37.66 33.49 33.95 37.45 36.07 39.54 41.44 35.99 38.34 36.31 33.62 25.65 21.98 21.62 24.10
50.69 50.74 50.22 50.02 49.56 49.44 49.77 50.11 50.75 51.43 51.55 51.83 51.30 48.24 47.12 46.60 45.55 46.82 44.39 27.20 24.42 33.26 34.25 38.79 38.57 38.71 35.57 37.62 39.18 39.46 38.76 35.75 37.44 37.54 34.45 30.52 29.50 36.17 39.12 36.89 34.42 33.42 32.55 25.88 20.64 19.37 22.26
50.30 50.87 50.01 49.85 49.56 49.31 49.34 49.62 50.40 50.88 50.96 52.03 48.22 41.09 41.75 43.67 46.07 45.82 36.01 28.78 27.88 33.00 38.06 36.72 35.36 32.45 33.37 36.57 38.05 38.06 36.31 35.13 35.98 35.64 31.63 27.89 29.25 37.75 37.38 37.64 37.32 32.90 29.91 30.98 24.26 22.65 20.78
49.91 50.54 50.07 49.74 49.55 49.09 49.06 49.35 49.69 50.27 50.97 51.15 38.34 37.90 38.98 44.36 44.80 39.39 31.29 33.02 34.39 38.58 37.00 35.10 30.00 33.15 30.44 33.53 34.15 34.31 33.34 36.29 35.96 36.84 36.30 32.28 28.60 35.85 36.69 38.54 37.18 34.57 34.17 26.84 23.45 16.15 18.59
49.66 50.18 50.17 49.59 49.07 48.81 48.68 48.85 49.35 49.87 50.59 47.96 36.88 34.57 40.73 43.88 41.87 36.60 29.78 32.15 36.36 39.36 38.53 33.68 30.42 30.21 32.84 31.82 31.64 31.86 31.17 35.23 37.43 36.50 36.61 33.86 31.62 32.52 36.13 33.16 31.16 31.78 29.77 27.93 26.83 23.58 20.12
49.47 49.59 50.10 49.24 48.68 48.51 48.35 48.32 48.67 49.48 50.02 42.12 34.89 31.40 42.19 42.44 34.14 37.07 34.60 35.65 38.52 37.66 39.23 35.37 34.80 32.92 30.55 31.23 29.73 30.24 30.68 33.13 37.70 37.85 33.14 34.55 30.96 28.87 30.22 34.40 35.59 33.75 30.87 28.77 23.67 21.13 21.79
49.22 49.18 50.13 49.01 48.47 48.36 48.13 47.89 48.12 48.86 49.51 38.19 32.59 32.03 40.78 40.77 28.66 31.81 33.96 36.32 37.42 36.83 35.47 34.86 33.30 35.25 34.14 31.63 29.13 30.72 32.75 37.75 38.18 36.65 34.75 35.14 27.45 20.09 24.74 30.05 33.12 31.64 31.38 30.40 28.02 26.53 21.10
48.73 48.82 49.59 49.10 48.43 48.27 47.82 47.60 47.61 48.13 49.29 38.40 33.51 28.41 35.18 36.41 34.35 32.45 32.27 32.54 33.79 38.06 36.04 35.90 34.22 35.07 32.72 30.92 32.58 30.55 31.41 37.66 38.11 37.77 42.52 38.19 29.54 25.51 20.57 25.48 29.99 27.67 30.59 30.28 28.77 23.06 23.29
48.32 48.51 48.68 49.89 48.41 48.03 47.76 47.34 47.30 47.29 48.28 38.92 34.02 32.88 35.55 28.21 31.07 29.87 31.02 32.87 32.44 33.39 37.40 36.09 33.77 33.76 32.72 29.57 31.48 31.12 34.02 35.02 37.58 41.49 37.35 35.60 26.21 26.61 29.83 30.60 30.64 29.91 30.52 29.93 25.81 27.38 24.27
47.95 48.16 48.17 49.05 48.38 47.55 47.26 47.00 47.00 46.60 46.99 40.12 33.78 34.08 37.81 31.27 31.26 28.32 31.43 30.61 32.64 34.35 34.78 33.12 32.88 35.90 36.04 31.79 32.05 31.22 33.39 31.94 32.74 34.69 34.30 35.76 28.88 28.80 24.64 31.34 30.48 28.71 30.45 30.61 30.68 30.37 29.49
47.78 47.71 47.90 48.18 48.44 47.48 46.91 46.70 46.69 46.29 44.24 36.11 39.63 41.63 38.45 32.56 29.87 28.27 30.36 31.35 33.94 35.44 37.04 38.36 37.22 38.87 38.04 37.99 38.45 36.64 36.13 36.36 36.10 34.39 32.99 34.14 28.81 25.70 21.18 29.22 29.05 26.29 29.25 30.62 31.40 32.08 32.71
47.17 47.37 47.29 47.56 48.80 47.45 46.62 46.82 46.33 46.17 43.07 41.67 41.22 40.67 35.74 29.43 30.23 31.25 33.42 34.66 35.01 35.63 34.24 37.52 37.93 36.17 39.17 41.06 39.46 38.42 38.34 36.40 36.54 35.24 36.29 32.54 31.15 28.02 25.52 26.27 18.20 30.57 35.50 34.84 33.21 34.14 34.65
47.08 47.15 46.97 46.88 47.64 47.55 46.72 46.51 46.06 46.03 44.91 40.27 40.10 38.48 36.98 30.92 31.36 31.66 33.03 33.66 35.82 35.43 35.15 36.89 38.40 41.27 41.32 38.16 34.95 34.30 34.95 34.71 35.55 37.28 36.97 37.71 33.40 28.63 25.98 26.20 28.13 32.27 34.32 33.75 33.68 35.64 36.93
47.30 47.84 46.84 46.96 46.95 48.22 47.10 46.04 46.71 46.14 45.16 36.69 36.86 38.35 36.63 33.40 28.88 33.49 34.34 34.31 31.25 29.43 32.56 35.99 39.67 41.07 40.45 37.75 34.25 29.17 26.25 27.89 30.86 33.17 38.37 37.39 33.77 29.98 29.52 23.55 22.01 31.84 38.74 40.86 39.50 32.93 39.16
47.50 47.32 46.75 47.05 46.69 47.29 47.87 46.36 46.13 46.09 44.91 37.31 35.33 36.85 34.34 31.40 32.03 36.78 33.54 34.78 35.44 31.61 30.97 31.55 35.55 35.81 37.19 31.51 30.31 28.33 25.04 29.56 28.86 29.41 32.15 33.56 34.33 30.17 29.54 27.17 28.23 35.06 39.22 42.33 31.89 33.44 38.84
47.48 46.51 46.30 46.22 46.32 46.57 47.13 47.45 46.91 45.54 45.06 39.75 36.04 37.36 32.00 27.27 28.83 32.89 36.21 33.76 38.81 37.05 31.20 33.75 34.98 35.13 32.72 31.41 31.90 32.24 26.16 28.11 27.99 29.83 32.51 31.57 29.91 30.37 30.97 27.93 23.04 38.04 38.77 36.89 40.02 39.41 39.27
47.01 46.07 46.19 45.97 45.84 46.11 46.44 47.28 47.42 45.84 45.27 41.39 34.60 36.99 37.68 31.05 29.64 33.75 36.33 36.63 35.72 37.13 36.85 38.70 34.20 33.95 35.48 31.31 30.42 29.88 29.41 28.01 27.25 25.81 30.61 31.36 31.29 29.72 30.44 29.53 35.72 37.65 38.42 40.60 40.35 39.79 38.72

GFSGBSN_sfc_wetblb_042.txt.gz
Wetbulb
55.73 55.37 55.46 55.54 55.01 54.38 54.67 54.78 54.46 54.19 54.23 53.97 53.52 53.32 53.09 52.47 52.13 52.01 51.66 51.81 52.02 51.80 52.08 52.24 52.18 52.73 49.73 43.76 46.08 56.96 56.55 56.35 59.88 57.96 55.77 53.73 51.47 51.29 47.07 48.44 48.87 46.86 48.27 49.43 50.57 51.37 51.18
55.09 55.46 55.11 54.90 54.39 53.94 54.60 54.54 54.08 53.59 53.62 53.50 53.01 52.82 52.64 52.41 52.01 51.70 51.74 51.63 51.51 51.37 51.44 51.45 51.71 52.04 46.58 38.26 53.57 56.17 55.03 55.59 57.31 56.22 55.55 54.89 51.52 53.54 49.43 48.46 47.58 49.13 48.63 49.00 49.95 49.84 50.26
54.82 55.43 54.45 54.40 53.74 53.70 54.36 53.79 53.29 52.86 52.99 53.11 52.95 52.00 52.25 52.34 51.65 51.25 51.29 51.58 51.61 51.07 51.50 51.33 50.83 49.66 44.38 42.44 55.15 56.36 54.84 54.91 57.97 55.67 53.04 56.05 55.14 52.16 51.29 46.95 50.49 49.39 45.69 47.88 48.32 48.93 48.34
55.09 54.29 53.74 54.10 53.59 53.83 52.96 52.78 52.97 53.14 53.25 53.49 53.50 52.81 51.83 51.87 51.28 50.28 50.99 51.59 51.29 51.28 51.29 50.91 50.90 48.42 39.32 50.44 52.70 52.01 54.38 54.04 57.61 57.20 55.90 57.70 57.10 52.78 50.65 50.47 48.06 45.79 45.64 41.03 46.59 48.40 48.77
54.52 53.75 53.79 53.77 53.09 52.76 53.65 53.31 53.03 53.48 53.73 53.67 53.33 52.90 51.91 51.31 50.07 50.16 50.71 51.22 51.52 51.48 50.66 50.76 47.81 45.87 39.41 54.35 50.15 53.95 54.72 53.27 55.14 55.68 57.13 56.92 55.42 50.41 48.82 44.28 41.16 43.67 38.16 39.36 41.81 48.05 47.13
53.53 53.51 53.83 52.97 52.32 53.67 52.92 52.67 53.29 53.42 53.76 53.29 52.89 52.47 51.24 50.24 48.99 49.78 49.86 51.00 49.97 49.81 49.55 49.70 48.14 40.54 45.01 45.04 51.34 53.03 54.61 53.93 52.68 52.98 51.37 50.36 49.22 46.12 45.47 42.16 32.95 36.91 38.02 39.94 39.23 43.74 45.71
53.73 53.21 53.58 52.31 51.99 52.36 52.56 53.35 53.18 53.56 53.58 52.99 52.66 52.13 51.83 50.23 49.83 49.74 49.47 47.00 42.69 40.75 43.56 38.04 38.51 39.71 44.95 50.65 52.98 50.91 53.69 51.43 52.55 49.36 42.57 46.77 42.76 40.14 42.87 43.91 42.30 41.89 39.53 38.32 41.61 43.06 42.54
52.91 52.97 52.48 51.71 51.88 52.54 52.91 52.87 53.02 53.43 53.59 52.89 52.54 51.76 51.85 51.01 50.81 49.89 48.36 41.48 40.61 43.49 35.29 41.52 41.10 40.93 44.10 48.89 45.26 48.49 53.37 47.29 45.80 41.52 44.65 42.22 39.14 44.47 46.12 45.01 42.53 41.36 38.85 38.51 41.65 42.48 42.58
52.32 52.69 52.30 51.60 51.42 51.62 51.99 52.15 52.97 53.41 53.21 52.70 52.36 51.79 51.08 50.13 50.23 48.46 44.89 42.91 47.49 46.71 37.46 39.19 42.74 41.60 44.68 49.11 45.02 45.67 49.41 45.22 43.83 41.56 42.49 38.94 41.58 45.66 44.48 42.78 40.87 40.66 38.66 38.94 39.00 41.00 40.83
51.94 52.24 51.84 51.34 50.96 51.01 51.30 51.70 52.73 52.91 52.56 52.78 52.17 51.87 50.48 48.84 45.98 45.72 42.31 47.36 48.30 47.45 34.07 35.34 39.02 44.00 46.87 47.91 43.47 50.34 50.63 45.13 40.22 39.47 42.21 41.26 45.05 43.01 42.09 41.16 42.61 37.63 41.87 40.87 38.90 38.79 35.90
51.70 52.19 51.58 51.14 50.57 50.66 50.73 51.23 52.31 52.47 52.06 52.66 52.39 51.43 50.36 49.54 46.04 43.55 45.62 47.95 47.45 44.97 23.62 37.17 39.09 48.34 47.00 43.50 44.61 45.10 51.28 47.74 38.92 37.42 40.36 37.56 41.56 41.96 40.45 41.69 44.14 38.92 41.93 39.43 37.71 37.57 37.04
51.38 51.90 51.18 51.01 50.45 50.26 50.52 50.70 51.65 51.88 51.78 52.04 52.56 51.37 49.65 48.63 47.99 46.12 49.59 48.13 45.57 31.75 23.97 33.59 40.50 40.30 40.03 42.67 43.46 46.40 46.21 48.27 46.22 40.79 40.49 38.52 43.25 42.78 41.52 41.12 43.71 41.01 38.61 37.03 37.02 36.27 32.29
51.00 51.62 50.99 50.80 50.44 50.00 50.06 50.32 50.87 51.32 51.57 51.26 51.82 51.49 49.29 49.10 44.26 49.61 48.42 45.09 32.88 28.65 35.35 33.35 36.47 40.41 39.45 39.36 40.37 41.72 41.88 40.38 38.29 33.20 33.43 36.08 36.90 41.20 41.88 36.62 39.15 40.01 38.34 31.77 30.42 30.64 30.62
50.66 51.36 51.04 50.63 50.43 50.04 49.84 49.89 50.30 50.96 51.00 50.96 51.48 49.67 48.98 49.17 50.58 48.91 47.00 37.90 29.68 33.26 33.54 38.87 39.47 39.63 36.95 39.43 39.28 39.67 39.80 37.58 40.67 39.58 36.83 33.97 30.95 36.98 40.66 38.38 35.88 37.47 38.21 33.77 26.26 26.16 29.44
50.23 50.87 50.87 50.55 50.23 50.00 49.80 49.68 49.86 50.19 50.63 51.12 48.18 47.62 48.33 49.07 49.11 49.26 42.28 32.10 31.22 34.32 38.60 37.59 39.06 36.00 35.71 38.66 39.17 39.02 37.66 38.08 39.28 39.99 35.89 33.32 32.37 38.50 39.54 40.39 40.39 35.29 34.67 35.61 30.55 28.95 29.69
49.92 50.29 50.43 50.26 50.05 49.77 49.63 49.55 49.46 49.76 51.03 50.15 46.66 45.18 46.01 47.60 49.44 46.24 42.08 34.27 36.11 39.82 39.78 38.79 33.18 35.98 32.99 35.49 36.55 37.63 37.41 39.32 38.17 39.84 41.05 36.17 31.54 37.17 37.92 40.03 39.90 38.76 38.69 32.55 33.54 26.07 25.80
49.88 49.94 50.51 50.02 49.60 49.49 49.29 49.33 49.21 49.42 50.44 48.29 45.45 44.75 46.25 48.11 47.75 45.21 33.38 34.85 38.61 41.77 41.08 37.57 35.27 34.64 35.69 34.68 36.30 35.72 35.07 38.57 40.53 39.09 40.62 39.14 36.68 33.51 37.77 36.15 35.58 35.24 34.64 33.31 34.77 31.38 28.14
49.75 49.76 50.31 49.80 49.33 49.17 48.88 48.75 48.86 48.85 49.92 46.25 43.21 43.49 47.30 47.42 42.96 42.73 37.84 37.35 39.52 40.95 42.22 39.40 39.40 37.36 35.94 35.71 34.98 35.41 34.72 38.11 41.72 41.58 37.36 38.37 37.08 32.09 33.09 37.25 38.63 37.80 36.57 35.86 32.35 27.50 29.19
49.27 49.44 49.61 50.80 49.17 48.69 48.58 48.35 48.51 48.36 49.20 45.75 41.40 42.23 48.61 48.14 38.94 38.88 39.67 39.16 40.17 39.56 38.80 38.39 37.21 38.90 38.57 36.22 33.83 35.85 36.50 40.30 41.42 40.58 38.75 39.15 34.17 28.83 28.92 34.21 36.68 34.82 36.21 35.99 33.77 33.28 28.93
48.80 48.98 49.16 49.73 49.14 48.56 48.09 47.96 47.96 47.85 49.02 45.35 42.41 40.38 44.79 44.58 41.87 40.02 37.90 37.57 37.35 41.07 39.57 39.32 38.39 39.33 37.61 35.81 37.59 35.01 36.38 39.88 40.90 41.21 41.97 41.96 34.30 32.12 28.85 30.98 35.15 32.31 34.15 34.85 34.70 31.11 31.28
48.34 48.54 48.78 48.93 49.63 48.55 47.90 47.61 47.58 47.20 48.28 45.22 41.69 37.46 38.84 39.55 39.34 38.67 38.55 37.90 36.85 36.83 41.03 40.39 38.12 38.05 37.12 34.21 35.31 35.06 37.70 38.53 40.44 42.13 40.76 39.97 33.46 32.64 33.67 33.98 34.06 33.78 33.77 33.31 31.09 34.04 31.79
47.97 48.04 48.23 48.31 49.13 48.53 47.64 47.47 47.16 46.64 47.23 44.14 38.91 37.03 40.22 38.56 36.87 37.15 37.23 37.49 37.12 38.51 38.93 37.28 36.93 38.81 39.87 36.80 36.96 35.19 37.79 38.10 37.56 40.08 39.12 39.13 32.77 32.94 31.50 33.49 33.67 31.66 34.14 34.81 34.24 34.69 34.06
47.49 47.67 47.81 47.73 47.82 48.50 47.43 47.25 46.79 46.41 46.10 41.94 41.94 42.52 39.26 36.64 36.64 37.08 38.04 37.87 38.00 39.67 41.03 41.69 40.65 40.52 39.27 40.20 42.52 42.59 43.06 42.64 41.86 39.22 37.68 37.61 34.18 32.41 29.40 32.05 32.18 29.78 33.57 34.40 35.22 36.46 36.28
47.32 47.27 47.33 47.04 47.42 48.39 47.61 46.96 47.02 46.49 44.62 44.04 41.64 40.79 36.38 36.27 36.45 37.28 37.21 37.71 38.58 40.09 39.30 42.00 42.80 41.07 42.56 44.76 44.18 43.79 42.53 41.49 41.59 39.41 41.64 36.72 34.96 34.20 30.48 31.11 25.12 35.01 39.04 38.75 36.32 37.54 38.72
47.31 47.70 48.22 47.11 47.49 47.58 48.22 46.72 47.11 46.59 45.38 43.18 41.89 39.49 37.55 33.04 36.04 35.62 36.01 37.37 39.62 40.74 40.73 41.34 43.21 44.53 47.02 43.74 39.18 35.85 36.22 36.33 37.09 38.98 39.34 40.64 37.07 32.64 28.77 27.60 32.61 35.38 36.18 36.46 35.92 37.01 39.80
47.87 47.95 47.61 47.42 47.11 47.20 47.94 47.60 46.68 46.43 45.58 42.38 41.76 41.16 39.03 33.40 34.56 36.15 34.80 36.10 38.61 39.14 39.52 41.44 45.08 46.54 44.99 40.88 37.88 31.60 29.73 32.73 32.14 34.68 40.07 39.26 39.44 34.57 31.14 25.31 25.18 36.37 40.85 43.08 42.86 35.55 41.97
48.31 47.92 46.88 46.79 46.80 46.75 46.97 47.60 47.96 46.25 44.86 42.12 40.91 40.81 38.79 32.42 35.90 36.78 34.44 36.28 40.33 38.58 38.99 39.38 42.10 42.60 43.03 39.92 35.03 32.22 32.18 35.30 31.03 30.11 32.68 33.90 34.52 31.69 30.93 28.66 33.05 40.06 42.88 45.17 34.57 36.64 42.40
48.60 47.47 46.40 46.49 46.46 46.42 46.43 46.83 47.18 47.57 45.39 43.19 40.98 41.34 37.90 33.13 33.51 34.86 38.61 36.85 39.42 39.82 37.70 39.22 40.62 40.38 40.17 37.11 36.37 35.78 34.07 34.70 34.33 36.10 34.07 32.82 31.19 31.10 32.30 28.91 26.11 41.53 42.22 38.51 42.71 43.72 42.48
48.67 46.67 46.29 46.14 46.13 46.58 46.43 46.32 46.26 47.35 47.44 43.38 39.22 40.00 40.56 35.42 34.56 36.57 37.72 39.12 38.36 37.50 35.48 39.98 39.51 39.12 42.31 39.75 38.41 38.63 34.95 34.83 35.43 31.37 37.88 32.48 36.81 34.33 35.82 35.15 40.93 43.53 43.41 45.26 44.65 43.13 43.26

GFSGBSN_sfc_wetblb_045.txt.gz
Wetbulb
55.59 56.00 55.40 55.06 55.12 54.38 55.06 54.98 54.26 53.85 54.17 54.26 54.14 53.68 53.14 53.00 53.03 52.47 52.27 52.41 51.84 52.03 51.97 51.85 52.06 52.32 50.44 44.52 44.60 57.86 59.95 62.55 60.25 58.48 54.08 53.34 50.40 50.91 47.13 48.43 49.14 47.09 49.38 50.57 51.43 51.34 51.06
55.46 55.69 54.71 54.76 54.23 54.54 54.57 54.00 54.27 54.11 54.29 54.38 54.28 53.98 53.25 52.55 52.69 51.98 51.96 52.07 52.03 52.01 51.66 51.46 51.32 51.71 47.56 39.32 52.04 57.47 55.94 57.41 58.38 56.83 53.88 54.32 51.42 53.74 50.01 48.89 47.79 49.38 49.80 49.67 50.49 50.49 51.28
55.07 54.70 54.63 54.39 54.31 53.71 54.36 54.41 53.67 53.89 54.36 54.61 54.06 53.62 53.18 52.53 52.06 51.67 51.30 51.28 51.53 51.08 51.45 51.75 50.97 50.16 44.88 43.72 53.19 56.53 54.62 55.00 57.89 57.74 52.85 54.71 54.45 52.82 51.34 47.55 51.53 49.69 46.18 48.28 48.88 49.35 48.93
54.70 54.54 54.43 54.08 53.33 53.56 53.75 53.39 53.87 54.15 54.43 54.36 53.76 53.22 52.96 52.17 51.48 51.12 50.34 51.39 51.78 51.69 51.49 51.24 51.06 48.84 40.18 51.06 52.97 52.66 54.96 54.50 58.14 58.46 55.81 56.47 56.52 52.63 50.42 51.21 49.12 45.70 46.06 41.05 47.11 48.29 49.08
54.49 54.45 54.20 53.75 53.21 53.36 53.50 54.06 53.83 54.12 54.37 53.95 53.36 52.90 52.77 50.77 50.86 49.42 50.23 50.85 51.67 51.72 51.68 50.93 48.20 45.74 40.05 52.77 47.70 51.41 54.16 51.46 54.68 56.04 56.34 56.93 55.05 50.23 50.07 44.75 42.64 43.74 37.68 40.74 43.08 48.51 47.72
54.26 53.98 53.66 52.82 52.89 53.44 53.73 53.65 53.48 54.13 54.28 53.62 53.13 52.45 52.43 50.84 49.01 49.48 49.94 50.60 49.91 50.26 50.25 50.15 48.34 41.04 44.34 43.89 50.40 52.12 54.75 54.49 52.34 52.22 50.83 50.51 49.60 45.62 44.75 42.92 34.86 37.49 37.57 40.96 40.98 45.36 46.40
53.72 53.67 53.37 52.60 52.46 52.39 52.92 53.02 53.34 54.14 53.89 53.18 53.03 52.04 52.18 51.03 49.42 50.21 49.86 47.85 44.14 41.76 44.43 39.69 40.05 40.47 44.31 49.71 53.79 52.02 53.41 52.87 52.81 49.39 43.39 47.22 43.31 39.67 42.61 44.18 44.00 42.08 40.03 39.44 42.79 44.85 44.11
53.11 53.30 53.07 52.44 52.14 51.98 52.52 52.69 53.16 53.71 53.24 53.28 52.90 51.12 51.42 50.84 50.33 50.10 49.67 43.29 42.90 44.98 36.46 41.91 41.91 41.33 44.29 46.73 45.76 49.28 53.01 45.70 46.60 41.40 44.96 42.89 38.77 44.37 45.72 45.14 43.57 42.35 39.71 38.88 42.60 44.47 42.53
52.87 53.03 52.77 52.31 51.90 51.64 51.83 52.22 52.79 53.38 53.29 53.27 53.25 51.41 50.39 50.58 50.67 48.18 46.17 44.33 49.11 48.34 37.48 39.02 42.25 41.74 45.11 49.11 45.12 46.02 48.46 46.13 44.21 41.81 42.35 38.64 41.12 45.56 44.27 42.54 41.45 41.42 39.38 38.64 39.21 42.57 43.71
52.46 52.81 52.46 52.16 51.81 51.42 51.16 51.56 52.19 52.79 52.84 52.46 52.95 52.29 50.56 50.25 47.31 47.50 44.36 47.96 49.05 48.54 34.33 34.55 39.01 43.15 47.54 48.10 43.51 49.59 48.51 45.44 40.90 40.72 42.45 41.23 44.84 42.91 43.29 41.48 42.41 37.91 43.47 42.06 40.18 39.09 34.66
52.14 52.39 52.21 51.89 51.64 51.25 51.06 51.11 51.36 52.07 52.19 52.13 51.86 52.89 50.73 50.91 48.00 45.14 46.20 49.43 48.96 46.23 25.10 35.62 37.19 49.13 47.77 44.11 45.28 45.93 50.03 46.52 39.38 39.95 40.74 38.25 41.68 41.42 40.99 42.23 44.21 40.23 44.56 41.84 40.09 38.72 38.57
51.72 52.26 52.01 51.68 51.50 51.15 50.92 50.90 50.92 51.00 51.53 51.67 51.39 51.98 51.83 50.36 50.40 47.92 50.67 50.01 47.00 32.62 24.77 34.57 41.45 40.90 42.17 44.04 44.10 45.90 45.88 48.03 45.61 40.16 40.51 39.15 44.13 42.46 42.10 44.39 44.96 44.27 41.34 40.43 39.52 37.91 32.37
51.47 51.67 51.79 51.56 51.37 51.03 50.80 50.60 50.50 50.64 50.83 51.23 51.24 51.59 50.91 50.84 47.04 51.16 50.49 46.48 33.20 29.64 36.98 34.23 37.54 40.71 40.15 39.45 40.79 42.07 40.31 40.28 36.86 32.50 32.78 35.91 36.14 41.26 42.47 39.75 42.83 42.26 38.60 31.57 30.13 30.86 30.10
50.95 51.16 51.13 51.22 51.05 50.93 50.78 50.56 50.40 50.30 50.41 51.25 51.14 50.35 50.44 50.61 52.65 50.78 47.36 39.12 30.07 33.65 35.48 40.36 40.06 40.09 37.41 39.66 39.28 41.04 40.70 38.37 41.18 39.51 36.03 33.17 30.22 34.38 39.70 39.24 37.41 39.23 39.52 34.26 26.43 28.59 31.65
50.29 50.62 51.11 51.03 50.72 50.77 50.85 50.48 50.28 49.90 50.85 51.06 50.33 50.50 50.17 51.73 51.41 49.45 42.43 33.03 32.96 35.35 39.50 38.51 39.85 36.76 36.54 39.90 39.62 39.82 39.78 39.52 41.11 41.75 35.81 34.75 32.85 38.33 39.28 40.66 41.05 36.15 36.06 38.76 33.31 33.09 31.60
50.24 50.24 50.80 50.86 50.68 50.42 50.32 50.36 50.08 50.17 50.62 50.91 48.29 48.03 49.45 50.24 51.58 47.15 42.96 34.82 37.25 41.14 41.56 40.80 35.06 37.83 35.68 37.88 38.00 38.84 38.81 41.23 39.97 41.70 43.23 39.37 32.57 37.60 38.90 41.01 39.42 38.65 42.24 33.42 35.48 28.03 26.84
49.85 50.13 50.32 51.26 50.41 49.90 49.72 49.85 49.71 49.56 50.58 50.59 48.32 46.06 49.04 51.13 50.69 47.20 35.86 35.92 39.95 43.13 42.61 39.27 37.44 36.61 38.12 36.81 38.61 37.48 37.76 40.50 42.37 40.72 42.88 41.38 38.44 34.74 38.68 37.02 36.53 35.34 35.42 36.47 37.17 33.78 29.94
49.47 49.77 49.85 50.48 50.13 49.62 49.38 49.25 49.10 49.01 50.00 50.37 47.16 44.06 50.16 50.68 45.28 45.77 40.21 39.56 40.50 41.94 43.49 41.30 41.42 39.33 38.37 38.80 37.79 37.58 37.18 40.61 43.79 43.28 39.03 40.62 38.32 32.70 34.91 39.31 40.58 39.94 38.96 38.54 33.41 30.62 32.58
49.06 49.41 49.53 49.56 50.30 49.36 49.02 48.68 48.55 48.56 48.73 46.50 44.36 45.86 51.25 50.24 41.57 41.09 41.98 41.28 42.07 41.30 40.63 40.11 38.99 40.60 40.87 38.48 35.58 38.44 38.86 42.19 43.30 42.39 40.38 41.00 36.36 29.64 31.19 36.13 38.77 36.31 38.49 38.96 37.56 35.46 31.82
48.65 48.85 49.04 49.19 49.56 49.30 48.62 48.35 47.91 48.05 48.18 47.23 44.36 40.35 47.80 48.53 46.39 42.90 40.21 39.55 39.17 42.91 41.31 41.26 40.13 41.30 39.86 37.92 39.87 37.21 38.13 41.22 42.57 42.84 42.19 43.41 36.88 33.80 30.70 32.84 37.49 33.73 36.26 37.78 35.61 32.79 33.11
48.30 48.24 48.54 48.54 48.60 49.09 48.35 47.96 47.63 47.41 47.71 47.29 45.31 42.28 41.25 42.37 42.59 42.48 42.04 40.32 38.30 38.14 42.38 42.13 39.56 39.80 38.84 35.95 37.10 36.59 39.60 39.69 41.70 41.73 42.30 41.38 34.63 34.04 35.33 35.89 35.95 35.18 35.33 36.05 33.43 35.02 33.76
47.49 48.04 48.28 47.98 47.85 48.76 48.42 47.67 47.46 47.16 47.71 45.76 38.10 37.10 41.41 42.25 41.35 41.16 39.08 39.92 38.85 39.70 40.32 38.80 38.31 40.17 40.51 37.87 38.27 36.46 39.23 39.82 38.85 41.68 40.48 41.45 33.43 34.87 32.68 35.35 35.07 32.73 35.39 36.29 35.75 35.84 36.21
47.05 47.61 47.80 47.83 47.94 48.35 48.61 47.38 47.52 46.96 46.90 42.40 41.79 43.63 40.01 40.30 40.58 40.07 41.22 40.73 39.92 41.58 42.41 43.17 41.69 40.98 39.69 41.38 43.56 44.33 44.31 43.69 42.80 40.43 39.31 38.94 35.97 33.39 30.36 33.57 33.56 30.40 34.37 35.44 36.55 37.81 37.29
47.18 47.45 48.86 48.07 48.04 47.88 48.58 47.49 47.37 47.00 45.34 43.55 41.35 40.95 36.49 38.64 39.54 40.17 40.03 40.31 40.45 41.69 40.51 42.81 44.21 41.77 43.07 46.72 46.32 45.48 44.27 43.15 43.00 41.99 42.99 38.18 36.47 35.33 30.94 31.68 24.67 36.33 40.80 40.43 37.78 38.96 40.02
47.52 47.51 48.52 47.93 47.71 47.58 47.82 48.14 47.59 47.06 46.32 43.45 42.31 39.25 36.77 33.82 38.76 39.00 38.86 39.52 41.84 43.06 42.22 42.79 44.54 46.13 48.08 45.33 39.84 36.49 36.57 37.31 38.58 40.57 41.01 41.80 37.78 33.29 29.15 29.55 33.98 36.45 38.33 37.54 36.96 38.20 41.67
47.94 47.98 48.18 47.47 47.21 47.29 47.24 47.69 48.04 47.02 46.30 44.34 42.95 42.75 39.00 33.66 35.95 38.05 36.87 37.94 39.19 41.05 41.11 43.02 46.61 48.51 46.85 42.50 38.50 31.81 30.07 33.72 32.55 35.79 41.25 40.74 40.60 34.77 31.64 26.21 25.51 37.17 41.31 43.85 43.27 36.23 43.51
48.36 48.41 47.48 46.89 46.92 46.82 46.84 46.92 47.20 47.30 45.98 44.57 42.90 43.25 39.19 33.67 36.76 37.73 36.50 36.64 40.74 41.07 40.39 42.49 43.69 43.88 45.78 40.57 34.98 31.85 31.06 37.29 31.79 31.07 32.61 34.36 34.80 31.63 31.73 28.70 33.26 40.94 43.88 45.32 33.97 36.55 43.89
48.82 48.53 47.21 46.77 46.45 46.73 47.14 46.85 46.63 46.63 46.98 44.69 42.93 43.61 38.84 35.01 36.23 36.91 38.53 36.65 38.42 40.40 38.41 42.02 42.05 42.62 41.75 37.24 35.75 34.87 34.65 36.78 35.29 37.08 35.20 33.28 31.67 31.28 32.39 29.65 26.48 43.47 43.61 38.79 43.18 45.50 45.58
49.35 48.95 47.02 46.81 46.20 46.35 47.20 47.16 47.38 46.35 45.88 44.54 40.10 42.92 42.55 36.56 35.97 40.01 39.16 39.79 38.82 40.21 37.25 41.18 40.07 41.60 43.20 39.90 40.33 40.10 36.19 38.30 36.45 31.73 40.21 33.06 37.32 34.65 36.04 35.62 42.67 44.76 45.09 47.54 47.21 45.85 44.98

GFSGBSN_sfc_wetblb_048.txt.gz
Wetbulb
55.97 55.77 55.28 55.45 55.41 54.46 55.02 55.34 54.42 54.61 55.29 55.49 55.19 54.88 54.63 53.78 52.93 52.94 52.81 52.38 52.41 52.15 51.96 51.88 51.89 52.05 49.71 42.53 43.27 54.87 59.09 60.80 60.22 58.12 53.83 52.89 48.03 49.20 45.46 47.40 47.97 46.23 47.78 49.33 50.27 50.02 49.29
55.63 55.46 55.18 55.38 54.34 54.20 54.81 54.44 54.88 55.04 55.24 55.38 54.72 54.16 53.86 53.38 53.05 52.31 51.60 51.93 51.91 52.13 51.44 51.95 51.45 51.11 46.14 38.59 51.17 54.09 56.20 58.08 58.06 56.91 53.36 53.62 49.01 51.68 48.24 47.29 45.78 47.99 48.65 48.70 48.90 49.14 49.98
55.37 55.27 54.95 54.40 53.99 54.21 54.28 54.65 54.50 54.56 55.05 55.14 54.50 53.71 53.22 53.23 52.89 51.28 51.47 50.85 51.26 51.89 51.33 51.77 51.43 49.34 43.94 42.32 52.27 55.95 55.24 54.80 57.93 56.59 51.98 54.06 53.65 50.13 50.97 46.64 49.79 48.84 44.48 46.80 47.05 47.75 47.99
55.08 54.90 54.75 53.90 53.64 53.92 54.20 54.06 53.98 54.56 55.02 54.76 54.21 53.44 53.10 52.72 51.20 50.81 50.38 50.71 51.31 51.96 52.09 51.70 51.25 48.08 39.47 50.33 51.67 50.93 54.45 52.42 55.41 57.67 55.69 54.98 55.31 50.99 50.01 50.65 47.81 44.88 44.31 39.03 45.98 47.18 48.07
54.77 54.43 54.28 53.54 53.42 53.45 53.45 53.62 53.78 54.53 54.97 54.73 54.01 52.87 53.36 51.54 50.75 49.59 49.98 50.69 51.64 51.86 51.74 51.43 47.57 44.99 38.66 52.74 46.03 49.76 53.24 50.72 54.40 56.14 56.76 56.22 54.82 49.19 48.64 43.20 40.76 41.81 35.87 38.14 41.83 47.45 46.55
54.33 54.25 53.97 53.31 53.03 52.99 53.38 53.34 53.66 54.38 54.41 54.21 53.76 52.05 52.84 51.29 49.68 50.26 50.10 50.74 50.50 49.91 49.73 49.89 47.69 40.21 43.11 42.74 46.77 48.17 52.34 52.70 51.76 52.43 51.23 50.23 48.47 44.17 43.57 41.08 33.31 35.61 36.22 38.50 38.81 44.02 45.47
54.01 53.85 53.57 53.12 52.91 52.70 52.76 52.89 53.37 53.95 53.97 53.78 53.75 51.82 52.17 51.05 49.72 50.28 50.08 48.15 43.30 41.16 43.98 38.91 39.60 39.55 41.69 46.89 51.26 47.63 52.78 51.49 51.62 49.05 42.15 46.33 40.82 37.97 40.59 42.21 41.44 40.42 38.50 37.10 41.21 45.02 43.21
53.45 53.59 53.39 52.94 52.75 52.44 52.23 52.26 52.50 53.17 53.19 53.33 52.98 52.98 51.35 51.66 50.59 50.81 49.47 42.76 42.34 44.02 36.51 42.18 42.08 41.20 44.11 45.93 43.89 48.51 52.95 46.31 46.10 41.32 43.78 41.85 38.51 42.48 45.04 43.81 42.34 40.30 36.77 36.85 39.78 43.88 41.72
53.18 53.30 53.33 52.73 52.62 52.41 52.04 51.79 51.67 52.35 52.77 52.78 52.13 52.83 51.61 50.40 49.62 49.19 45.83 43.99 48.99 48.02 37.42 39.24 42.12 42.30 44.63 47.31 43.69 46.08 48.68 45.68 43.83 40.57 41.27 38.22 40.47 45.64 43.84 41.48 39.95 38.92 36.33 35.86 36.44 41.20 41.58
52.68 52.88 52.78 52.66 52.46 52.13 51.78 51.65 51.41 51.43 51.50 52.12 52.12 52.11 52.89 51.24 46.72 47.53 43.97 48.10 49.80 48.99 33.44 35.27 39.40 43.42 46.86 47.58 43.49 48.59 48.52 46.06 42.31 39.16 41.12 41.04 44.50 42.42 41.93 40.64 41.35 36.55 41.26 40.32 39.18 36.37 31.02
52.28 52.49 52.58 52.42 52.31 52.13 51.75 51.59 51.45 51.16 50.96 50.90 51.75 51.69 52.14 52.11 47.82 45.00 46.28 49.45 49.70 46.02 23.80 35.73 38.79 47.82 47.46 44.03 43.72 43.67 49.75 44.89 39.45 41.30 41.77 38.81 40.83 40.67 40.22 41.30 42.80 39.50 43.17 40.45 38.80 35.41 34.63
51.95 52.00 52.03 52.09 52.00 52.06 52.00 51.54 51.25 51.03 50.71 50.75 51.03 51.27 51.60 51.04 49.69 48.34 50.59 50.29 46.80 30.72 23.98 34.23 41.42 38.84 41.51 43.71 43.74 44.53 45.68 47.14 44.64 41.09 40.43 39.24 43.97 43.23 41.79 44.53 44.35 44.67 39.81 38.54 36.53 34.37 27.91
51.37 51.49 51.80 52.08 51.86 51.66 51.63 51.71 51.30 50.94 50.56 50.61 51.15 51.41 50.41 50.53 46.22 51.29 50.68 45.31 31.71 26.44 37.15 34.67 37.16 41.07 40.06 39.69 40.54 39.93 38.00 38.18 35.66 32.30 32.57 35.62 36.31 41.01 42.75 40.32 42.78 41.40 35.78 27.42 23.64 23.15 24.14
50.69 51.06 51.40 51.87 51.70 51.42 51.30 51.20 51.32 50.90 50.39 51.15 51.41 50.24 50.71 50.21 51.94 51.37 47.17 38.20 27.07 33.80 35.12 40.26 40.24 40.39 37.31 39.66 39.93 39.16 37.74 36.50 41.01 38.71 35.11 31.96 28.85 36.49 39.43 39.48 36.75 37.08 36.21 28.52 21.49 22.14 24.55
50.53 50.77 51.04 51.57 51.89 51.28 51.03 50.92 50.79 50.56 50.79 50.99 51.68 50.42 49.44 51.85 51.79 49.36 41.60 31.54 30.95 34.64 39.78 38.76 39.74 36.42 37.01 39.51 39.31 39.79 38.88 38.59 39.73 41.44 34.80 33.11 31.58 38.14 38.63 41.15 40.04 37.06 34.40 35.98 29.74 28.41 23.38
50.34 50.59 50.70 51.20 51.41 50.94 50.74 50.48 50.33 50.50 50.21 51.18 46.96 48.00 48.96 51.19 51.37 45.99 40.84 34.18 36.53 41.34 41.76 40.84 34.85 37.79 34.70 37.43 37.55 38.31 38.50 41.04 39.09 42.10 42.45 37.96 31.33 37.02 38.53 40.97 40.05 37.85 39.55 31.87 30.58 21.55 21.68
49.98 50.20 50.62 50.61 50.67 50.37 50.27 50.04 49.87 49.71 49.93 51.17 47.51 44.69 47.84 51.78 50.22 43.81 34.91 34.58 39.75 43.22 42.75 38.87 37.57 36.92 37.41 36.79 38.59 37.37 37.49 40.21 42.02 40.51 41.94 40.15 35.53 34.66 37.38 35.39 34.83 35.83 33.82 34.23 33.38 29.19 23.54
49.59 50.02 50.25 50.21 50.14 49.99 49.68 49.55 49.27 49.19 49.30 48.95 47.21 42.08 49.52 50.85 43.87 44.89 39.01 39.78 41.52 41.86 43.83 41.57 41.45 39.39 37.97 38.07 37.40 36.16 37.25 39.19 42.85 42.12 37.47 38.73 35.64 30.97 33.92 38.69 41.15 39.21 36.81 36.56 30.29 27.53 27.00
49.10 49.33 49.49 49.52 49.36 49.24 49.21 49.02 48.83 48.53 48.09 44.92 42.11 44.52 50.58 49.30 39.34 39.62 41.48 40.86 42.49 41.44 40.94 40.54 39.20 40.95 40.41 37.64 34.02 37.27 38.17 42.35 42.83 41.57 38.27 38.77 33.38 25.83 28.92 33.72 37.60 35.07 37.55 38.17 36.30 33.68 29.58
48.31 48.61 48.77 48.76 48.52 48.62 49.38 48.66 48.54 48.37 48.36 46.20 43.06 38.42 46.29 46.96 44.88 41.94 39.50 39.27 39.14 43.34 41.90 41.59 40.26 41.27 38.93 36.83 38.52 35.99 37.35 41.20 42.00 41.91 43.19 41.48 34.76 29.96 26.20 29.16 34.72 30.64 35.13 36.76 33.03 25.76 29.41
47.87 48.11 48.69 48.51 48.46 48.87 49.41 48.30 48.26 48.50 48.89 46.27 43.89 39.69 41.06 39.46 40.59 41.18 41.23 40.34 38.64 37.96 42.13 41.98 39.28 39.55 38.45 34.80 35.97 35.50 38.56 38.77 41.14 41.46 40.15 38.78 29.89 28.95 33.68 35.53 35.06 33.64 34.06 34.58 30.10 32.88 26.30
47.10 47.94 48.29 48.72 48.61 48.64 49.07 48.15 48.01 47.66 48.53 42.74 37.10 36.31 39.14 39.01 41.17 39.83 38.68 39.45 39.21 40.02 40.16 38.57 37.54 40.00 39.31 36.40 36.68 35.01 37.85 37.08 36.19 38.82 37.08 38.64 29.26 31.62 28.09 34.63 33.56 30.31 33.59 34.25 34.52 34.74 33.67
46.91 47.66 48.78 48.62 48.41 48.26 48.82 48.38 47.93 47.60 46.98 40.40 40.32 42.45 39.16 37.97 39.85 37.87 38.52 40.08 40.13 41.51 42.19 42.82 41.38 39.63 38.62 40.95 42.40 42.04 40.96 40.69 39.50 37.74 35.86 35.81 32.26 27.77 24.06 31.98 30.80 27.06 32.35 33.40 34.47 35.83 35.16
47.04 47.28 48.68 48.31 48.02 47.88 47.90 48.41 48.45 47.44 46.13 41.72 39.66 40.41 36.26 34.54 37.73 38.66 39.36 39.94 40.10 41.57 40.04 42.17 43.20 40.56 41.49 44.52 43.24 41.72 39.61 40.33 39.30 37.54 39.68 34.81 34.95 30.88 23.72 26.68 17.10 33.18 38.48 38.90 35.86 37.32 37.67
47.18 47.45 48.46 47.85 47.49 47.44 47.48 47.48 47.99 47.79 46.89 42.69 41.21 38.00 35.12 30.10 34.02 36.65 37.16 38.01 39.73 41.61 40.69 42.31 43.96 44.57 44.97 42.20 37.66 34.32 34.15 35.05 37.00 37.39 37.83 39.65 36.38 31.56 26.00 22.89 30.65 33.90 36.68 35.79 34.83 35.03 39.65
47.69 47.90 48.00 47.52 47.18 47.10 47.21 47.36 47.30 47.65 46.62 43.86 41.70 41.74 36.95 30.98 31.28 34.83 34.12 36.76 35.38 37.69 39.12 42.03 45.48 46.45 44.23 40.79 37.38 30.76 28.86 30.58 31.44 34.40 38.47 38.71 38.41 31.57 30.34 24.89 22.51 35.56 38.95 41.30 40.01 32.14 40.67
48.19 48.32 48.45 47.48 47.10 46.91 47.38 47.27 47.03 46.96 46.73 44.68 42.63 42.67 38.03 32.09 35.23 34.67 33.42 34.59 39.30 38.62 38.10 41.25 41.77 41.33 43.13 36.88 32.42 31.13 29.74 33.81 29.27 30.08 31.91 32.17 32.94 28.94 30.57 28.19 29.53 39.26 41.22 42.20 31.86 33.34 40.76
48.67 48.97 48.91 47.28 46.86 46.58 47.12 47.41 47.57 46.72 46.67 45.38 42.57 42.77 37.95 33.38 34.83 37.30 36.72 33.39 34.38 36.58 36.17 39.41 39.24 39.94 39.72 34.11 33.82 33.80 29.29 32.31 30.46 32.95 32.23 31.01 30.18 29.85 31.19 28.67 22.58 41.28 41.10 36.59 40.03 42.62 42.33
49.10 49.34 48.95 46.89 46.78 46.76 47.34 47.48 47.36 46.72 46.85 44.57 40.51 42.82 42.30 36.56 34.98 39.25 38.96 39.35 37.21 36.59 34.79 38.12 38.99 39.61 40.67 36.89 35.75 34.74 31.81 32.75 31.84 26.86 35.42 29.58 33.04 30.80 32.12 31.44 39.24 40.59 40.18 43.31 44.05 41.97 42.07

GFSGBSN_sfc_wetblb_051.txt.gz
Wetbulb
56.16 55.89 55.53 55.13 54.81 54.81 55.05 55.33 55.09 55.13 55.86 56.08 55.58 54.90 54.20 53.87 53.76 53.02 52.22 52.16 51.97 52.14 51.80 52.04 51.83 51.76 49.30 41.35 41.75 51.51 57.29 58.73 57.77 57.82 53.14 51.74 47.08 48.55 43.74 45.90 47.42 45.33 47.09 49.73 50.50 50.09 49.91
55.92 55.67 55.29 54.76 54.23 54.45 54.73 54.79 54.65 55.07 55.87 55.65 55.42 53.88 54.10 53.80 53.38 51.73 51.26 51.23 51.51 52.03 51.65 51.77 51.73 51.09 45.54 37.76 50.08 54.29 53.97 56.04 57.22 55.72 53.31 52.33 45.94 50.21 45.92 46.44 44.52 47.15 48.13 48.12 48.52 48.72 49.14
55.50 55.36 55.09 54.48 54.20 53.82 54.29 54.62 54.32 54.84 55.61 55.55 54.95 53.53 54.09 53.13 52.96 51.77 51.19 50.83 51.08 51.48 51.26 51.86 51.67 48.97 43.43 40.73 51.01 50.39 54.69 54.66 56.94 55.26 51.74 52.79 51.53 49.12 46.96 43.76 47.86 46.82 43.92 45.98 46.65 46.46 47.14
55.26 55.05 54.98 54.34 53.82 53.47 54.05 53.89 54.07 54.71 55.10 54.88 54.74 52.99 53.26 52.23 51.68 51.29 50.59 50.91 51.25 51.68 51.94 51.82 51.40 47.29 39.36 49.70 50.34 49.25 52.64 52.12 54.21 56.76 55.48 53.76 53.41 49.51 47.35 46.89 45.88 42.69 42.77 38.07 45.25 46.30 46.92
55.01 54.80 54.66 54.12 53.91 53.44 53.36 53.64 53.86 54.20 54.72 54.61 54.65 52.60 52.82 51.61 50.54 50.46 50.87 50.74 51.63 51.60 51.31 51.26 46.86 43.56 37.94 52.23 45.83 48.23 51.13 48.64 52.17 54.70 55.37 54.88 52.48 48.02 46.60 41.07 37.85 41.27 34.44 37.26 41.18 46.04 45.74
54.64 54.55 54.27 53.81 53.72 53.36 53.13 53.02 53.37 53.72 54.29 53.93 53.70 52.72 52.57 51.35 50.35 51.01 51.00 51.06 50.43 50.09 49.03 49.47 47.43 39.30 42.76 41.76 46.27 49.35 52.11 50.62 49.20 51.93 50.65 48.93 46.56 41.17 41.63 37.89 31.93 34.66 35.24 37.34 38.11 43.20 44.23
54.04 54.15 54.09 53.58 53.46 53.19 52.94 52.77 52.30 52.84 53.17 53.39 52.76 53.29 51.76 51.91 51.01 51.14 48.84 45.57 39.70 38.31 42.19 38.96 39.24 39.46 41.38 45.64 49.24 47.47 49.88 49.69 50.03 49.45 42.52 45.41 38.94 36.84 39.41 39.37 39.36 38.59 37.23 35.65 40.09 43.83 42.26
53.67 53.71 53.53 53.46 53.34 53.00 52.75 52.55 52.45 52.09 52.04 52.42 52.66 52.65 52.65 51.40 51.38 50.88 47.28 39.96 41.25 41.63 35.73 42.83 43.06 41.33 43.70 45.49 42.49 44.80 49.93 46.37 45.97 40.64 44.45 41.51 35.24 40.62 43.26 42.14 40.51 38.05 35.39 35.91 38.92 43.16 41.93
53.27 53.26 53.44 53.36 53.17 53.01 52.64 52.31 52.19 52.15 51.93 51.55 51.89 51.97 52.54 51.72 51.07 47.61 43.35 42.93 46.91 46.14 36.23 39.75 42.49 41.89 44.35 46.54 41.99 41.43 48.91 46.34 43.70 41.04 40.95 38.48 39.97 43.59 43.01 40.02 38.47 37.00 33.35 33.63 35.66 39.74 39.82
52.79 52.82 53.07 53.02 52.96 52.74 52.62 52.62 52.31 51.91 51.58 51.02 51.31 52.00 51.85 52.65 45.21 44.36 42.31 47.57 47.47 45.97 31.60 34.46 39.28 43.39 45.08 46.64 40.99 48.98 49.11 46.02 42.85 39.45 40.85 39.60 42.88 41.89 40.02 39.24 38.57 32.99 38.75 38.28 37.87 34.97 29.91
52.42 52.38 52.59 52.76 52.72 52.62 52.50 52.30 52.22 52.23 51.46 50.96 50.86 51.72 51.26 51.53 44.71 42.49 45.22 47.27 47.00 43.15 16.82 37.34 39.04 47.91 46.41 41.27 42.74 43.30 49.47 45.62 40.19 40.41 41.47 37.24 39.61 39.75 38.82 39.69 40.91 36.74 41.63 38.59 36.96 33.77 32.26
52.06 51.94 52.23 52.57 52.52 52.38 52.23 52.15 52.02 51.84 51.57 50.73 50.51 51.50 50.87 49.63 46.91 45.82 47.97 47.46 44.56 25.04 20.70 34.21 40.57 39.38 40.62 42.80 42.53 44.84 44.17 46.24 44.91 39.81 39.91 39.06 42.77 41.34 40.64 43.50 43.98 43.31 38.27 37.18 34.63 31.64 22.88
51.29 51.59 51.80 52.20 52.59 52.20 51.91 51.78 51.59 51.47 51.31 51.13 50.92 51.50 49.75 49.79 44.75 49.74 47.93 42.66 28.55 19.24 36.41 30.99 36.67 40.80 40.28 39.78 38.78 40.07 39.32 38.98 37.01 31.87 32.70 37.47 36.97 40.91 42.51 39.99 42.36 40.90 33.90 28.39 23.83 20.50 21.36
50.65 51.28 51.49 51.92 51.90 51.91 51.66 51.47 51.35 51.15 50.73 50.95 51.82 51.22 49.30 49.10 49.15 48.73 46.32 36.07 24.12 33.35 33.70 39.78 40.05 39.44 36.97 39.51 38.64 38.82 37.55 36.28 39.57 37.58 33.79 29.69 29.10 37.71 39.88 38.42 37.02 37.47 33.68 25.84 19.45 20.14 22.99
50.47 50.94 51.34 51.41 51.49 51.66 51.29 50.94 50.81 50.66 51.04 50.27 51.14 46.14 45.39 47.81 48.91 48.04 41.16 26.62 29.68 33.12 39.85 38.58 39.29 35.27 35.91 39.13 38.99 35.73 34.73 37.46 39.95 40.38 32.13 32.22 31.23 38.23 39.58 41.28 39.95 36.83 33.65 34.64 28.66 27.40 19.46
50.28 50.61 51.12 51.08 51.09 50.70 50.52 50.62 50.37 49.98 50.31 50.15 42.77 42.50 44.26 49.27 47.95 45.50 34.46 29.18 31.68 40.00 40.50 40.10 34.32 36.21 33.63 35.97 35.29 36.71 36.92 39.87 39.56 42.37 41.21 37.31 29.19 37.25 38.60 41.26 40.68 38.26 39.39 31.12 26.87 20.32 20.09
49.85 50.32 50.60 50.60 50.35 50.07 49.94 50.34 49.99 49.66 49.90 50.16 41.98 39.12 44.85 48.95 46.59 42.41 28.10 30.21 38.17 42.38 41.32 37.12 35.00 35.60 35.38 36.71 37.63 36.48 36.42 38.52 40.79 40.34 40.74 39.05 33.63 33.94 37.87 35.61 35.79 36.19 34.86 33.68 32.61 27.50 21.61
49.31 49.72 49.82 49.88 49.39 49.09 49.91 49.80 49.63 49.16 49.59 44.73 39.35 33.18 45.39 47.44 35.24 38.22 30.76 36.63 41.09 40.48 41.58 39.65 38.41 36.87 34.70 36.65 36.82 34.52 35.21 37.41 41.77 40.65 36.97 38.35 34.35 31.25 32.86 39.76 41.66 39.23 36.12 34.82 27.37 25.83 24.50
48.72 49.01 49.09 49.02 49.01 49.13 50.05 49.24 49.32 48.86 48.91 43.08 35.84 37.42 45.90 44.38 33.34 34.70 37.32 39.74 41.18 39.97 38.66 38.49 37.42 38.63 37.49 34.65 32.80 35.49 36.23 40.94 41.31 40.31 36.91 37.77 30.75 26.77 29.35 32.79 37.31 34.80 37.12 38.30 36.64 32.24 26.84
48.26 48.36 49.00 48.96 49.03 49.07 49.54 49.13 49.02 48.61 49.20 43.12 37.12 35.54 41.24 41.33 39.31 37.34 35.50 36.72 37.30 40.92 40.21 39.67 38.03 38.48 36.09 33.97 35.46 33.59 34.91 39.56 40.74 40.08 43.87 40.96 33.21 27.03 23.42 28.02 32.92 30.92 35.08 37.54 35.25 27.03 28.43
47.65 48.09 48.67 49.05 48.87 48.83 49.30 49.01 49.10 49.02 49.65 41.91 36.98 36.52 38.67 33.99 38.29 35.59 36.95 37.47 36.43 36.48 39.90 39.47 36.70 37.28 35.79 32.06 33.39 33.44 36.17 36.69 39.30 41.88 38.47 36.55 25.86 25.78 31.77 34.40 33.54 32.41 32.63 34.37 30.72 32.78 27.49
47.16 47.84 49.10 48.80 48.65 48.51 48.61 48.93 48.76 48.69 48.07 37.00 32.69 34.63 36.22 33.52 36.72 35.16 36.12 36.04 36.70 37.91 38.12 36.41 35.35 37.85 36.83 33.85 33.91 32.64 35.88 34.70 34.35 35.93 35.20 35.94 25.04 27.71 24.07 32.74 31.80 29.46 33.04 33.44 33.50 34.05 32.89
47.11 47.42 48.90 48.47 48.30 48.22 48.16 48.39 48.48 48.04 44.79 34.21 35.12 36.62 37.64 34.25 34.34 32.50 34.52 38.73 38.03 39.13 40.04 40.63 39.04 37.24 36.09 39.08 39.29 38.73 38.29 38.15 37.82 35.79 34.08 34.31 29.34 23.22 20.72 30.43 29.28 25.70 30.83 32.09 33.09 34.97 34.86
47.27 47.23 48.37 48.00 47.73 47.67 47.78 47.90 48.22 48.17 45.97 35.71 34.35 36.71 32.04 29.67 31.39 31.89 35.91 37.67 37.17 38.49 37.58 40.04 41.28 37.62 40.45 42.26 41.08 39.66 38.42 38.62 38.32 35.78 37.21 33.22 31.91 26.36 19.71 24.48 15.59 30.25 36.56 36.22 34.19 35.38 35.76
47.60 47.58 47.93 47.73 47.39 47.40 47.78 47.75 47.55 48.08 47.51 37.81 36.85 33.77 30.08 24.77 29.74 30.95 32.57 34.96 36.36 37.84 38.01 40.17 42.05 42.37 42.61 40.34 34.99 32.66 32.27 32.95 35.31 35.63 35.29 36.18 34.45 30.36 21.36 22.33 26.00 31.83 34.95 34.82 33.19 33.59 37.86
48.22 48.19 47.84 47.47 47.04 47.08 47.57 47.73 47.84 47.54 47.64 39.54 37.59 37.60 32.04 26.30 26.68 32.68 30.04 32.11 31.71 32.55 36.39 40.24 43.35 44.26 42.36 38.87 36.97 30.16 26.72 28.15 30.63 33.73 36.64 37.77 37.80 29.51 30.00 24.14 20.42 33.06 36.81 39.78 39.01 30.65 38.88
48.52 48.50 48.46 47.28 46.84 46.72 47.22 47.72 47.74 47.01 46.94 42.39 38.85 38.78 33.99 27.55 31.06 33.61 29.32 30.54 34.87 36.07 34.01 40.36 39.76 39.06 40.86 34.21 30.02 28.91 25.71 31.67 27.31 28.74 31.05 31.93 32.10 28.07 29.64 27.66 27.90 35.59 38.51 40.89 29.47 31.08 39.14
48.93 48.91 48.93 47.34 46.44 46.42 47.25 47.53 47.56 47.08 47.11 42.05 38.39 40.40 34.84 29.18 31.37 34.64 35.20 30.83 31.37 30.79 33.11 37.72 38.16 37.39 36.02 31.76 30.38 30.49 27.39 29.42 28.51 30.20 30.37 28.68 28.08 29.75 30.98 27.84 21.90 38.80 39.02 35.10 38.62 40.84 39.95
48.99 49.15 49.15 47.10 46.45 46.64 47.04 47.57 47.24 46.80 46.68 44.45 37.25 42.63 41.96 35.02 32.07 36.77 37.91 38.36 37.36 33.98 30.58 35.16 36.75 38.81 39.76 34.15 33.27 31.68 29.73 30.22 29.10 25.50 31.69 27.65 30.93 28.09 29.94 29.05 36.50 40.04 39.41 41.44 42.51 41.97 41.48

GFSGBSN_sfc_wetblb_054.txt.gz
Wetbulb
56.28 55.97 55.74 55.21 54.84 54.87 54.98 55.06 54.89 55.06 56.29 56.00 55.78 54.05 55.04 54.36 53.86 52.55 52.18 51.79 51.68 51.90 51.75 51.76 51.79 52.14 48.74 41.62 41.11 50.99 56.05 56.99 55.86 56.07 53.86 49.61 47.70 48.26 44.08 44.99 48.20 44.73 48.25 50.38 51.72 52.07 51.37
56.21 55.82 55.32 55.10 54.56 54.20 54.75 54.99 54.71 54.89 55.66 55.66 55.25 53.75 53.64 53.83 53.08 52.47 52.05 51.58 51.39 52.02 51.54 51.82 51.46 51.37 45.45 37.18 49.61 51.93 50.14 53.75 53.63 54.71 52.97 51.14 47.92 50.04 45.60 45.38 46.22 47.53 47.58 47.62 49.40 49.67 50.39
55.63 55.66 55.52 54.78 54.48 53.93 54.26 54.60 54.41 54.66 55.35 55.50 54.97 53.58 52.97 52.58 52.22 52.03 51.53 51.20 51.30 51.56 51.42 51.33 51.51 48.73 43.31 40.31 50.39 51.82 50.16 53.31 55.21 55.91 51.75 52.91 49.88 48.59 46.11 43.31 46.90 46.72 43.67 45.58 46.23 46.35 46.57
55.44 55.22 54.92 54.58 54.15 53.79 53.58 53.62 53.81 54.49 54.86 54.89 54.48 52.99 52.84 51.85 51.00 50.93 51.30 51.30 51.14 51.52 51.48 52.03 51.62 46.41 38.61 49.21 50.48 49.45 50.38 52.25 55.34 56.35 55.02 54.54 52.02 48.67 45.20 45.25 44.06 41.58 42.11 37.94 44.34 45.53 47.11
54.97 54.91 54.89 54.38 54.15 53.88 53.49 53.26 52.68 53.47 54.26 54.33 53.95 53.74 52.66 52.01 50.97 51.15 50.84 51.33 51.61 51.91 51.10 51.23 45.67 42.42 36.96 50.91 45.80 48.53 51.22 49.50 52.54 54.08 55.09 54.69 51.41 46.25 45.39 39.56 36.52 38.44 33.65 36.27 40.57 45.70 45.37
54.56 54.49 54.09 54.09 53.99 53.77 53.45 53.18 53.03 52.73 52.97 53.45 53.23 53.27 52.61 52.43 51.55 51.54 51.84 51.63 50.79 49.91 48.98 49.43 47.30 37.91 41.75 40.77 45.84 49.88 51.17 50.59 49.73 51.41 50.42 49.04 46.09 40.65 41.86 38.62 31.55 33.77 33.96 36.90 37.69 43.14 44.04
54.18 54.03 54.10 53.99 53.67 53.72 53.61 53.21 52.84 52.70 52.35 52.16 52.71 52.44 53.16 51.84 52.01 51.93 48.63 42.55 38.23 36.69 40.99 37.63 38.58 38.81 41.13 45.27 48.22 47.47 49.74 48.68 50.24 48.65 42.63 45.20 39.20 36.58 38.35 38.02 38.19 37.65 36.08 36.07 38.56 42.81 41.87
53.62 53.55 53.88 53.67 53.58 53.43 53.22 53.41 52.97 52.72 52.19 51.88 51.87 52.18 52.22 53.01 51.64 51.91 46.07 39.66 40.10 40.84 35.03 42.60 42.44 42.07 43.93 44.86 41.90 44.79 49.36 45.57 43.58 39.13 44.01 41.56 36.65 40.09 42.46 41.30 39.03 37.89 35.28 34.30 38.10 41.79 41.46
53.13 53.16 53.49 53.44 53.13 53.26 53.34 53.17 53.02 52.60 52.54 51.72 51.18 51.73 51.51 52.11 51.86 45.86 42.17 42.03 45.93 44.70 34.71 39.74 42.45 42.10 43.87 46.76 41.51 42.17 46.75 46.23 41.27 40.80 40.80 37.97 38.72 43.35 42.33 38.75 37.41 34.68 33.01 32.97 34.34 38.70 38.46
52.80 52.87 52.94 53.08 52.93 52.93 52.91 52.70 52.74 52.71 52.07 51.88 51.17 50.91 51.43 51.71 45.52 43.43 41.29 46.29 46.57 45.90 29.26 35.46 39.33 42.45 45.29 46.11 39.67 48.88 49.74 46.20 42.56 40.08 41.40 39.23 41.63 40.59 39.99 38.26 37.52 32.07 37.44 36.87 36.55 34.86 30.09
52.40 52.34 52.44 52.39 52.64 52.75 52.79 52.57 52.47 52.16 51.80 51.40 50.80 50.97 51.08 50.96 43.25 41.67 44.56 46.39 45.68 41.15 13.02 37.45 39.68 48.22 43.94 41.59 42.40 43.41 49.52 46.73 40.09 40.31 40.16 37.28 38.33 38.45 37.39 38.84 39.56 36.21 39.30 37.01 35.54 33.08 31.89
51.93 51.82 52.02 51.93 52.26 52.29 52.41 52.32 52.04 51.79 51.42 51.04 50.45 51.26 50.63 48.29 46.01 45.31 46.84 46.15 43.89 22.46 13.62 33.15 40.56 37.37 37.42 40.57 42.29 44.43 44.09 46.93 45.24 40.90 39.90 39.21 42.83 40.95 39.60 42.23 41.97 40.62 37.67 35.44 33.35 30.23 23.79
51.22 51.59 51.75 51.88 51.74 51.82 51.96 51.72 51.49 51.37 50.93 50.28 50.32 51.39 49.56 49.43 43.24 47.48 46.61 41.43 23.46 21.81 35.26 31.03 37.02 40.66 39.65 38.05 38.93 39.97 39.38 38.76 36.31 32.79 31.12 37.37 37.71 40.47 41.48 38.15 40.45 38.51 34.45 25.64 24.81 21.97 22.91
50.49 51.22 51.51 51.62 51.24 51.36 50.86 51.03 51.22 50.94 50.39 50.56 50.63 51.30 48.82 48.79 48.05 47.13 43.37 29.78 20.80 32.32 32.41 39.18 39.70 39.43 36.58 38.16 38.53 38.42 37.35 34.68 38.90 35.49 32.38 28.69 28.73 36.65 39.14 37.29 35.92 35.41 34.82 23.78 19.51 20.37 21.87
50.10 50.72 51.15 51.30 50.99 51.09 50.81 51.02 50.77 50.29 50.43 50.71 49.83 44.49 44.51 46.55 48.10 47.40 36.06 21.22 24.58 28.53 37.96 38.09 38.34 34.33 34.28 38.36 38.24 37.15 35.89 36.29 39.02 38.16 30.59 31.15 31.40 38.60 40.04 40.65 40.02 37.33 32.35 33.63 25.99 23.85 18.66
49.73 50.32 50.71 50.71 50.64 50.16 50.37 50.96 50.50 49.98 50.32 49.90 41.61 41.18 42.81 48.02 47.35 45.05 30.92 27.69 30.53 38.56 39.59 38.64 32.43 35.48 31.65 34.93 34.91 36.27 35.75 39.86 39.69 42.41 38.86 34.32 29.82 37.47 38.88 41.13 40.05 38.72 39.19 28.63 25.58 20.43 18.23
49.33 49.82 50.11 50.02 49.73 49.65 50.52 50.40 50.37 49.83 50.02 48.93 41.57 38.73 44.04 47.44 46.29 40.84 23.99 26.01 36.40 41.56 40.24 36.23 33.87 33.59 34.49 34.97 35.30 34.47 34.65 38.01 42.16 40.74 40.72 36.95 31.57 34.39 38.07 36.10 35.53 36.03 35.09 34.22 32.60 26.35 20.34
49.02 49.24 49.45 49.43 49.48 49.55 50.22 50.11 50.18 49.42 49.65 43.89 37.33 33.32 44.48 46.37 39.24 39.02 28.53 34.79 41.11 39.18 40.18 38.42 37.03 35.76 33.40 34.97 34.26 35.56 33.65 35.48 40.06 40.17 34.70 37.84 32.24 29.53 33.19 38.90 41.21 39.91 36.01 35.43 29.94 26.71 24.19
48.57 48.53 49.22 49.22 49.30 49.19 49.69 49.72 49.96 48.97 49.42 41.73 36.28 35.62 45.04 43.89 35.57 34.31 35.78 38.46 39.97 38.69 37.53 37.12 36.11 37.44 36.36 35.11 32.67 33.94 34.93 39.59 39.92 38.85 36.15 36.78 28.64 24.28 27.90 32.90 38.60 36.93 37.79 38.04 36.19 31.95 23.45
48.27 48.21 48.90 49.11 48.99 48.86 49.03 49.34 49.38 48.65 49.50 41.95 36.98 34.08 41.58 42.98 38.35 37.58 34.17 35.44 35.66 39.86 38.86 38.27 36.68 37.15 34.79 32.71 34.34 32.69 33.81 38.58 39.89 38.93 43.63 40.43 31.37 25.93 22.87 27.10 32.01 29.96 35.93 37.13 34.17 24.26 27.85
47.94 48.02 49.04 48.85 48.70 48.62 48.62 49.17 48.93 48.30 48.25 40.78 34.45 33.69 37.64 34.16 35.81 37.05 36.20 38.33 35.34 35.35 38.74 37.94 35.26 35.92 34.44 30.47 31.87 32.04 34.85 35.55 38.21 41.36 37.52 35.32 25.49 24.30 30.09 33.42 32.48 31.17 32.35 34.96 34.10 34.25 27.68
47.78 47.91 48.70 48.43 48.34 48.38 48.28 48.69 48.70 48.30 45.68 34.98 30.94 32.11 35.61 32.40 34.32 33.54 35.00 36.91 35.41 36.60 36.83 35.27 33.95 36.34 35.38 32.37 33.25 31.49 34.77 33.54 33.22 35.19 34.29 34.35 23.97 26.52 23.39 31.11 30.48 29.37 31.71 33.76 35.14 35.84 34.96
48.03 47.70 48.28 47.92 48.01 48.01 48.15 48.10 48.34 47.93 42.46 32.05 33.08 34.38 37.45 32.49 31.45 30.68 34.27 37.60 37.18 38.04 39.09 39.53 37.54 36.26 35.71 37.54 37.95 36.88 37.70 37.46 36.24 34.81 32.96 32.62 27.75 22.26 18.61 28.61 28.32 25.01 29.75 31.25 32.68 34.73 35.09
48.07 47.70 47.96 47.66 47.69 47.71 47.97 47.74 48.12 48.17 42.83 34.46 33.31 32.85 29.11 28.54 28.17 30.39 32.58 36.00 36.27 36.46 36.26 39.21 39.87 36.35 38.26 40.69 40.17 38.18 37.15 36.70 36.65 34.73 36.12 31.93 29.43 24.46 17.60 23.78 13.14 29.55 35.00 34.77 33.37 35.02 35.77
48.31 48.16 48.05 47.63 47.30 47.29 47.73 48.05 48.11 47.80 47.03 36.75 35.62 32.52 28.07 23.79 27.25 28.77 30.02 32.29 34.26 36.09 36.67 38.67 40.80 41.17 41.84 39.20 33.32 31.27 30.79 31.76 33.49 35.26 34.73 35.43 33.65 27.92 19.02 18.03 24.63 29.67 33.14 33.22 31.40 32.09 36.35
48.65 48.58 48.24 47.37 46.84 46.65 47.42 47.78 48.05 47.20 47.75 38.52 36.48 36.14 31.14 25.55 25.50 30.25 28.06 30.38 31.53 31.05 34.25 38.70 42.68 43.29 40.84 38.48 35.65 27.20 24.14 27.00 28.00 33.35 35.32 37.70 36.61 27.61 28.68 23.78 19.26 30.54 36.37 37.70 37.19 28.82 37.61
49.04 48.85 48.83 47.49 46.59 46.31 47.33 47.63 47.26 47.18 47.25 40.34 37.83 37.22 32.76 27.28 29.71 31.02 27.34 27.10 32.43 31.79 33.48 37.85 37.56 38.51 39.39 32.66 29.23 28.12 23.83 30.05 28.03 27.37 30.35 31.82 32.26 26.05 28.14 26.08 27.14 33.52 36.30 39.34 27.86 30.06 38.49
49.10 49.00 49.06 47.97 46.45 46.22 47.07 47.63 47.52 46.89 46.72 40.38 37.12 39.94 33.69 28.56 29.79 33.15 33.77 29.61 30.80 30.09 30.37 35.55 36.48 37.94 34.78 30.95 29.70 28.82 25.82 28.15 26.93 29.04 29.03 28.39 27.92 29.26 30.44 27.19 20.55 35.62 37.53 33.09 36.95 39.08 39.42
49.28 49.14 49.43 47.85 46.54 46.39 46.64 46.94 46.70 46.67 46.63 44.06 36.99 42.66 41.61 33.94 30.93 35.23 36.70 37.09 36.51 35.77 31.57 32.88 34.02 37.36 37.05 35.85 32.79 30.37 29.10 28.17 27.86 24.67 29.78 27.25 29.76 26.95 29.48 28.91 35.25 37.65 38.26 40.68 41.59 40.51 39.32

GFSGBSN_sfc_wetblb_057.txt.gz
Wetbulb
56.19 55.76 55.81 55.26 55.00 54.45 54.42 55.01 54.49 55.06 56.02 56.34 55.75 54.29 53.76 54.16 53.54 52.84 52.23 52.02 51.70 52.08 51.59 51.54 51.68 52.06 48.05 41.00 40.60 51.12 54.80 53.40 52.01 54.62 52.23 48.42 45.66 47.02 45.27 45.51 46.87 44.65 47.17 49.67 51.21 51.04 50.78
55.75 55.67 55.50 55.12 54.65 54.36 54.15 54.27 54.53 54.80 55.35 55.74 55.26 53.73 53.43 52.93 52.74 52.46 52.10 51.48 51.43 51.74 51.21 51.90 51.36 51.39 44.50 35.92 48.90 51.78 51.58 49.46 50.41 52.86 51.29 51.23 46.81 50.02 47.10 45.69 45.94 48.38 49.19 49.26 50.61 49.98 50.38
55.61 55.41 55.15 54.94 54.57 54.05 53.95 53.64 53.52 53.95 54.60 55.24 54.94 53.89 53.31 52.23 51.52 51.83 51.64 51.54 51.41 51.87 51.77 51.43 51.51 48.45 42.58 39.69 48.78 51.12 50.47 48.96 53.47 52.64 48.54 52.67 50.64 48.14 45.65 42.98 47.21 47.00 44.33 45.96 47.75 48.98 48.64
55.34 55.16 55.03 54.74 54.33 54.20 53.83 53.44 53.21 52.91 53.51 54.04 54.35 53.90 52.67 52.35 51.34 51.34 51.30 51.33 51.51 51.93 52.07 52.16 51.67 45.51 37.11 49.19 49.42 49.60 49.65 51.76 54.00 53.96 54.31 54.52 52.16 48.60 44.41 44.85 43.18 40.84 41.45 38.05 44.46 47.04 47.96
54.84 54.80 54.56 54.44 54.35 54.54 54.08 53.46 53.15 53.10 53.02 52.68 53.25 53.41 53.61 52.59 51.80 51.41 51.89 52.33 51.84 52.22 51.20 51.30 44.60 41.26 35.37 50.22 45.31 48.06 49.65 49.46 52.52 54.35 54.80 54.89 51.04 45.73 44.24 38.83 35.59 37.14 33.43 36.01 40.10 46.02 45.21
54.44 54.57 54.48 54.15 53.86 53.78 53.68 53.70 53.35 53.27 52.82 52.52 52.16 52.39 52.95 52.54 52.04 51.95 52.36 52.18 51.67 49.75 48.69 49.28 46.83 36.75 41.25 39.38 45.45 48.65 51.06 50.38 49.86 50.82 49.49 48.80 45.32 39.75 38.97 36.53 31.69 31.76 31.72 36.02 37.32 42.09 43.05
54.01 54.04 54.09 53.46 53.68 53.80 53.78 53.64 53.24 52.93 52.94 52.16 51.60 51.63 52.17 52.65 52.33 51.88 48.77 41.03 37.36 35.59 39.96 36.67 37.85 38.04 40.64 44.90 48.74 47.53 49.02 47.67 49.68 47.86 42.22 45.11 37.66 35.43 36.50 37.42 36.94 36.08 35.15 34.72 37.79 42.49 41.21
53.63 53.64 53.65 53.39 53.11 53.23 53.52 52.99 53.18 52.97 53.04 51.98 51.58 50.86 51.55 52.09 52.73 51.90 44.57 39.06 38.86 40.05 34.39 42.13 41.66 41.71 43.99 45.00 41.48 44.69 49.01 42.30 44.59 40.85 43.51 40.53 34.96 39.27 41.70 41.07 38.36 37.03 33.82 33.28 37.73 41.50 41.39
52.98 53.31 53.20 53.25 52.93 53.16 53.01 52.75 52.91 52.94 52.84 52.39 51.59 50.78 51.39 51.40 52.27 45.08 41.22 41.00 45.19 44.83 33.90 39.59 42.02 42.11 43.86 46.29 41.86 41.47 45.89 44.78 41.95 41.12 39.94 36.77 37.74 42.56 41.96 39.85 36.55 33.05 32.92 32.01 33.72 38.03 38.72
52.38 52.85 52.67 52.60 52.40 52.73 52.78 52.79 52.39 52.32 52.25 52.05 51.67 50.73 51.49 50.83 46.80 42.40 40.45 44.96 45.96 44.88 24.17 35.24 38.33 40.98 44.69 45.64 40.67 47.13 47.85 44.55 42.00 36.41 41.08 39.85 41.44 40.91 39.63 38.39 36.80 30.99 36.67 36.43 35.31 33.90 29.26
51.86 52.24 52.23 52.27 52.24 52.29 52.19 52.61 52.46 52.05 51.90 51.49 51.07 50.56 51.37 50.31 42.34 41.01 43.51 45.60 45.26 39.32 15.65 35.85 38.12 47.31 44.43 41.24 42.02 41.77 49.68 46.20 39.63 40.42 40.30 36.83 38.56 38.47 37.18 38.07 38.80 35.11 38.00 35.17 34.00 31.87 30.67
51.49 51.41 51.84 51.94 51.94 52.18 51.51 51.30 51.69 51.46 51.29 51.31 50.47 50.78 50.22 47.98 47.21 45.30 45.96 45.67 43.44 21.29 12.92 31.99 39.80 37.48 38.29 41.10 42.41 44.20 44.97 47.52 45.90 41.09 40.13 39.09 41.81 40.10 38.56 41.40 40.13 39.83 35.90 34.14 31.66 29.53 22.98
51.03 50.92 51.51 51.66 51.55 51.61 51.73 51.35 51.25 51.01 50.79 50.30 50.44 51.40 49.05 48.40 42.42 46.64 45.76 40.80 22.87 16.25 32.26 28.52 36.60 37.50 37.87 37.44 38.52 40.26 39.66 38.36 35.93 32.42 33.28 37.64 37.17 39.57 40.83 37.83 39.83 36.69 33.43 23.78 21.23 23.41 21.01
50.37 50.58 51.03 51.39 51.08 51.20 51.02 51.03 51.12 50.94 50.44 50.37 50.54 51.18 49.44 48.27 46.92 46.36 42.15 28.97 17.77 27.01 29.44 36.98 39.54 39.09 35.01 38.29 38.07 38.25 37.62 35.27 39.24 35.49 31.93 29.59 29.54 36.53 39.27 36.33 34.52 33.45 33.71 24.11 19.00 20.66 21.42
50.03 50.10 50.60 50.80 50.72 50.48 50.63 50.93 50.94 50.62 50.62 51.05 49.04 43.27 43.76 45.74 47.40 45.74 36.40 19.05 22.88 27.09 36.27 36.72 37.23 34.49 34.46 38.47 36.00 36.53 35.35 34.44 37.34 36.29 28.98 26.90 29.48 38.54 40.31 39.30 38.11 34.47 32.70 32.09 24.60 21.68 17.65
49.94 49.72 49.94 50.04 50.06 50.06 50.48 50.85 50.74 50.60 50.29 49.92 40.45 40.58 42.10 47.05 47.02 45.20 29.75 27.57 27.37 36.82 38.99 37.52 30.76 34.48 31.07 34.21 34.70 34.60 34.75 37.95 38.45 39.96 36.76 32.49 26.94 36.89 38.96 40.90 39.16 36.59 37.09 29.88 24.09 16.90 17.83
49.83 49.35 49.26 49.49 49.67 49.70 50.11 50.39 50.62 50.40 49.64 48.73 40.46 38.43 43.20 46.66 46.34 40.40 23.52 26.15 34.74 40.10 39.55 35.10 32.58 31.81 33.24 33.15 34.03 34.11 34.99 37.44 41.08 40.67 39.97 34.46 31.07 32.44 37.68 35.81 34.86 36.21 35.70 33.60 31.72 25.66 19.23
49.72 48.85 48.77 49.14 49.28 49.32 49.47 49.86 50.23 49.73 49.44 43.21 36.93 32.26 43.84 45.39 38.93 38.69 26.90 33.71 40.67 37.97 39.10 37.37 35.83 34.51 33.27 34.85 33.95 32.66 33.15 34.88 42.17 42.23 36.48 37.66 31.39 30.07 32.29 37.65 40.29 39.01 36.70 35.75 29.04 22.97 22.20
49.58 48.39 48.47 48.86 48.86 48.88 49.08 49.66 49.81 49.35 49.00 39.42 36.06 36.87 44.74 44.69 30.99 28.76 34.68 37.32 38.89 37.58 36.84 35.94 34.84 36.33 35.19 32.58 30.56 33.19 33.92 39.20 41.62 40.70 37.85 38.24 31.87 27.51 29.13 33.85 38.34 36.67 37.62 37.96 34.86 29.34 21.47
49.26 48.61 48.41 48.40 48.56 48.56 48.66 49.26 49.33 49.06 48.90 41.04 35.59 31.43 41.62 43.42 40.91 36.85 32.35 34.55 33.91 38.87 37.52 37.35 35.55 36.08 33.66 31.64 34.17 32.42 33.04 37.54 39.62 39.24 43.40 40.86 30.51 26.05 23.86 26.36 31.59 33.38 35.24 37.18 35.72 29.26 29.34
48.99 48.70 48.51 48.03 48.28 48.30 48.47 48.67 48.97 48.39 47.43 39.03 33.23 30.78 34.02 27.79 36.14 36.08 35.69 36.14 33.70 34.12 37.42 36.95 34.30 34.62 33.00 29.29 31.08 31.24 34.20 35.26 37.22 40.90 36.83 34.85 26.53 26.19 29.49 32.25 31.95 31.24 31.86 35.27 33.81 35.06 30.56
48.93 49.06 48.31 47.91 47.87 48.01 48.28 48.26 48.70 47.91 44.00 33.96 29.35 29.36 32.59 30.70 32.66 31.62 35.91 36.85 34.47 35.34 35.84 33.93 32.91 35.45 34.04 30.58 32.27 30.85 33.82 32.56 32.34 34.00 33.80 33.21 23.93 25.85 22.71 30.03 30.29 28.98 31.10 33.40 35.23 35.79 35.16
48.96 49.18 48.33 47.74 47.54 47.99 48.01 48.20 48.40 47.83 40.44 30.77 31.68 33.16 32.90 31.51 28.79 29.00 31.70 34.84 37.04 37.79 37.74 38.15 35.88 35.48 33.25 35.68 36.59 36.08 36.71 36.51 35.89 33.97 32.15 31.34 27.21 22.00 17.71 26.94 27.46 24.46 28.69 30.32 32.63 34.98 35.67
48.91 49.10 48.35 47.51 47.10 47.54 48.04 48.40 48.03 48.06 41.50 33.67 32.41 31.68 28.53 27.89 27.38 28.23 30.14 32.24 35.51 35.90 35.18 38.14 39.08 35.31 37.47 40.40 39.01 36.83 36.24 35.50 35.48 33.38 35.18 30.30 27.44 23.71 17.02 23.43 12.66 27.50 32.31 33.82 32.15 34.21 35.81
48.90 49.10 48.44 47.60 46.87 47.36 47.80 48.01 47.87 47.96 46.07 36.03 34.28 30.98 27.18 23.54 26.69 27.05 28.49 31.77 35.16 36.78 36.55 37.30 40.27 40.10 41.10 37.88 33.00 31.12 29.70 30.63 32.09 33.78 33.25 34.05 30.85 23.37 18.55 16.97 24.15 27.89 31.72 31.72 30.72 31.21 34.52
49.06 49.10 48.58 47.59 46.62 47.11 47.67 47.88 47.44 47.62 47.01 37.47 35.43 34.62 29.96 24.68 25.07 28.81 26.48 28.60 29.56 30.14 32.97 36.93 41.32 41.87 41.74 35.99 33.29 26.76 23.98 26.30 26.03 30.98 35.61 36.72 35.98 26.68 24.03 22.20 18.30 27.27 34.56 36.30 35.03 27.41 36.28
49.32 49.12 49.00 47.70 46.71 46.99 47.27 47.36 47.57 47.14 47.11 39.11 36.52 35.82 31.51 26.99 28.69 29.57 26.23 25.63 29.75 28.85 29.86 34.86 33.42 36.84 38.97 34.11 29.70 27.05 23.68 28.36 26.52 26.16 30.11 31.70 31.83 24.95 24.58 26.10 26.17 32.24 34.31 37.80 26.34 28.19 37.55
49.43 49.29 49.27 47.78 46.84 46.93 47.37 47.10 46.84 46.85 46.76 39.46 36.51 37.95 32.77 27.70 28.88 32.02 33.09 28.94 29.77 27.84 28.00 31.88 35.88 38.09 35.14 32.00 31.01 28.41 25.10 26.90 25.10 28.00 28.15 27.71 26.84 27.92 29.52 26.61 20.01 33.76 35.76 31.51 35.25 38.12 38.29
49.38 49.46 49.57 47.80 46.95 46.78 46.83 46.74 46.64 46.58 46.51 42.88 38.12 42.68 40.78 35.48 30.25 34.30 35.46 36.08 34.98 33.99 29.90 30.34 32.57 33.39 36.11 35.57 32.00 30.82 28.88 26.61 25.88 23.72 28.38 26.66 29.28 26.84 28.74 28.01 34.33 35.00 37.64 39.68 40.19 39.45 38.47

GFSGBSN_sfc_wetblb_060.txt.gz
Wetbulb
56.09 55.94 55.72 55.56 55.07 54.74 54.54 54.27 54.17 54.44 55.16 56.12 55.85 54.83 54.09 53.25 53.16 52.99 52.90 52.49 52.57 52.74 52.09 52.25 52.09 51.85 47.45 40.03 39.79 49.99 53.90 54.00 51.26 51.13 51.28 49.30 45.38 42.99 42.16 44.83 46.04 41.89 47.85 49.24 51.34 51.33 50.42
56.09 55.84 55.78 55.38 54.92 54.69 54.43 54.13 53.68 53.14 54.21 55.13 55.53 55.04 53.60 52.81 52.04 52.42 52.45 52.45 52.21 52.22 51.90 52.27 51.78 51.50 43.47 34.39 47.06 51.03 51.15 50.61 49.22 50.34 50.86 51.18 47.20 46.74 44.27 44.88 44.22 45.63 46.05 47.29 50.40 49.86 49.95
55.70 55.57 55.45 55.03 54.57 54.75 54.37 54.02 53.56 53.27 53.20 54.01 54.63 54.67 53.80 53.12 51.69 51.52 51.77 51.80 51.80 52.27 52.58 52.47 51.87 48.03 41.63 38.30 48.41 50.41 49.72 48.99 49.32 47.94 49.55 51.41 49.89 46.97 45.74 43.52 46.89 46.23 43.39 45.42 47.89 48.32 47.71
55.21 55.33 55.08 54.82 54.48 54.55 54.27 53.91 53.70 53.74 53.33 52.97 53.14 53.80 53.75 52.82 52.22 51.52 51.82 52.35 52.14 52.31 52.49 52.27 52.11 44.71 36.62 48.48 49.34 48.60 49.03 47.78 49.69 51.61 52.33 52.76 52.51 48.88 45.09 45.13 43.76 40.90 40.98 39.01 45.00 48.39 49.10
54.92 55.02 54.69 54.33 54.37 54.20 53.94 53.86 53.26 53.12 53.45 53.39 52.33 52.70 53.18 53.42 52.40 52.14 51.96 52.59 52.41 51.78 51.62 51.36 44.17 40.18 35.27 50.31 45.06 48.17 48.40 45.39 51.15 52.39 53.75 54.12 51.47 46.16 45.08 38.79 36.49 39.92 31.19 34.54 40.87 48.33 47.36
54.66 54.59 54.30 53.81 53.70 54.13 54.18 53.76 53.49 53.37 53.55 52.83 52.92 51.59 52.28 52.64 53.14 52.31 52.45 51.95 51.52 49.38 48.09 48.74 46.47 35.79 40.47 39.67 45.01 48.10 50.35 50.57 48.55 49.04 47.90 48.19 46.25 39.81 38.82 37.07 31.76 33.63 31.33 32.31 35.45 43.19 45.54
54.38 54.18 53.91 53.70 53.37 53.24 53.55 53.80 53.48 53.37 53.00 53.01 52.55 52.01 51.62 51.79 52.47 52.93 48.59 40.12 36.37 35.78 41.48 36.10 36.79 37.33 40.62 45.26 47.90 45.95 48.67 48.05 49.44 45.80 39.84 43.62 38.59 35.50 34.36 36.92 36.11 35.56 33.99 33.71 35.99 42.14 40.55
54.19 53.75 53.57 53.55 53.03 53.03 53.56 53.40 52.78 52.83 52.79 52.59 52.37 51.75 51.14 51.44 51.65 52.52 43.38 38.16 37.66 39.80 36.70 42.39 41.61 40.90 43.55 45.55 40.98 44.69 49.18 43.21 44.59 38.08 40.50 39.92 34.32 38.80 40.79 39.82 37.59 36.16 33.40 31.71 36.22 40.60 41.15
53.85 53.44 53.28 53.01 52.64 52.82 52.80 52.86 52.79 52.54 52.33 52.16 52.00 51.52 50.88 51.93 51.34 44.79 40.16 40.34 44.86 43.65 35.53 39.48 41.50 41.41 42.80 45.73 41.78 42.09 45.29 43.23 41.15 39.19 38.39 36.09 36.48 41.95 40.91 37.23 35.64 32.32 32.48 31.50 33.11 36.15 37.26
53.44 53.07 52.85 52.74 52.51 52.40 52.63 52.04 51.94 51.77 51.79 51.47 51.18 50.61 50.75 51.48 46.22 41.52 39.71 44.11 45.17 43.63 22.65 34.02 37.64 40.33 44.38 44.73 39.37 46.36 47.13 42.74 41.01 39.22 40.44 38.63 41.58 40.04 39.59 36.72 36.32 31.28 36.25 35.65 34.94 33.20 28.30
53.12 52.67 52.28 52.32 52.44 52.29 52.33 52.30 52.11 51.59 51.14 50.82 50.37 50.52 51.15 50.71 41.51 40.42 42.54 44.86 44.29 37.87 11.82 33.68 37.16 46.05 44.11 41.12 40.23 41.90 48.28 45.25 38.47 39.64 39.36 37.13 37.85 37.81 36.64 37.43 39.14 34.49 36.86 34.94 33.25 30.48 27.99
52.76 52.22 51.74 51.84 51.98 51.94 51.94 51.82 51.44 51.29 51.30 50.73 50.65 50.61 50.72 48.38 46.95 44.57 45.15 45.05 40.38 21.02 15.55 32.86 39.69 37.34 38.23 41.29 41.47 43.13 44.66 47.07 45.99 40.28 40.39 38.93 41.04 39.50 37.81 40.72 39.50 38.21 34.96 33.19 30.47 29.01 20.84
52.20 51.60 51.34 51.48 51.59 51.43 51.37 51.19 51.33 51.39 51.17 50.45 50.86 51.21 49.36 47.62 41.58 46.01 44.96 39.47 21.39 16.56 30.38 32.36 35.80 36.88 36.51 37.35 38.14 38.56 37.58 36.80 36.09 31.82 33.52 38.04 37.78 38.62 40.28 38.69 38.92 35.91 34.22 25.18 24.34 21.61 20.15
52.03 51.06 50.91 51.00 51.04 50.93 50.81 51.10 51.26 51.09 50.90 50.24 50.34 50.69 49.21 47.79 46.11 45.45 40.83 28.44 16.28 25.17 28.37 36.92 38.76 37.64 33.32 37.37 37.57 38.65 36.19 34.92 38.19 36.10 32.10 29.16 30.04 36.02 38.57 36.00 34.33 32.00 32.81 24.10 18.33 20.67 21.02
51.69 50.78 50.53 50.22 50.41 50.38 50.49 50.94 50.87 50.94 50.18 50.31 48.38 42.48 43.42 44.96 47.87 45.97 37.40 17.58 20.54 25.68 35.74 36.39 37.47 34.93 35.23 37.40 35.95 36.33 35.76 35.77 37.87 36.42 30.80 26.63 29.70 38.74 40.13 38.05 37.03 33.26 28.78 30.97 23.64 20.13 16.64
51.15 50.68 50.10 49.48 49.82 49.99 50.15 50.35 50.56 50.52 49.57 49.67 39.87 39.81 41.57 46.27 47.84 44.85 30.28 27.41 26.55 34.65 37.99 37.28 30.03 34.98 30.46 34.24 32.42 34.20 34.17 37.78 38.25 38.47 35.53 31.26 27.72 37.14 39.14 39.49 38.52 35.15 35.94 28.08 27.70 16.23 17.19
51.00 50.45 49.59 49.05 49.29 49.44 49.55 49.89 50.32 50.05 49.34 47.97 39.76 37.83 42.99 45.82 46.71 39.75 23.52 27.16 33.20 38.53 38.79 34.15 31.73 32.26 31.81 33.89 33.85 31.96 32.93 36.64 39.77 37.85 37.39 33.39 30.03 32.86 37.66 35.37 35.55 36.49 34.06 31.65 29.57 24.51 18.01
50.94 50.24 49.08 48.59 48.75 49.02 49.09 49.72 49.88 49.65 49.07 42.52 36.91 33.60 43.80 44.41 38.88 37.84 26.38 32.38 39.97 36.99 38.34 36.52 34.97 33.92 33.02 34.07 32.50 31.50 32.33 34.23 41.14 40.33 33.82 34.26 31.70 29.70 32.68 38.92 40.11 35.85 36.45 34.40 29.50 22.42 21.57
50.70 49.80 48.96 48.32 48.32 48.55 48.69 49.24 49.49 48.97 48.68 38.89 34.41 38.45 44.73 43.94 31.22 27.69 33.06 36.32 38.16 36.53 36.03 35.00 33.87 35.43 34.43 34.24 29.78 31.92 33.24 37.85 41.42 38.52 35.17 35.42 27.81 26.89 29.26 33.60 37.75 36.28 36.75 36.87 35.33 31.18 19.72
50.48 49.50 48.95 48.11 47.78 48.22 48.55 48.79 49.11 48.03 48.30 39.94 34.74 30.44 41.55 43.44 40.99 33.38 31.18 33.49 32.80 37.99 36.77 36.45 34.56 35.16 33.06 31.84 33.01 31.56 32.10 36.67 40.09 40.37 44.02 39.84 30.22 25.40 22.15 25.51 30.49 32.08 34.82 36.34 34.94 30.10 28.78
50.11 49.51 49.13 47.98 47.47 48.01 48.30 48.65 48.79 46.73 48.16 38.17 32.43 30.69 32.95 29.31 35.76 32.30 32.79 34.55 32.51 33.00 36.28 36.22 33.30 33.65 32.07 28.60 30.92 31.11 33.44 34.32 36.90 42.07 39.22 38.47 26.68 25.61 28.51 30.02 32.27 31.11 32.17 34.76 33.74 34.55 30.64
49.88 49.78 48.89 47.87 47.32 47.85 48.07 48.34 48.55 46.18 43.40 33.15 29.02 29.50 31.15 29.74 31.07 29.47 34.88 32.95 36.00 35.59 36.46 33.24 32.24 34.33 32.94 29.80 31.65 30.39 33.07 31.53 32.71 34.12 33.74 32.92 26.95 25.66 22.59 29.68 30.05 28.88 30.50 31.99 34.04 35.21 35.23
49.74 49.77 48.78 47.99 47.75 48.23 48.34 48.15 48.30 46.27 39.39 30.26 30.10 31.92 32.08 30.08 27.95 28.26 28.71 32.04 35.71 37.56 38.23 38.52 35.03 34.68 32.17 34.06 35.90 34.82 35.86 35.65 34.57 33.43 32.35 32.47 29.19 22.54 17.57 26.12 26.59 23.47 28.60 29.93 31.27 33.61 34.55
49.89 49.50 48.67 47.95 47.40 47.78 47.84 47.90 48.21 46.41 40.23 33.36 31.22 30.84 28.63 28.21 27.25 28.03 28.74 30.86 34.43 35.57 35.09 38.69 38.79 34.51 36.65 40.37 37.62 36.29 35.46 34.89 34.92 32.19 34.16 28.73 26.33 23.22 16.56 21.67 11.50 26.49 30.99 32.45 31.40 33.11 35.03
49.98 49.36 48.71 47.81 47.78 47.84 47.85 47.57 47.82 47.27 44.40 35.05 33.06 30.32 26.17 23.19 26.55 26.17 27.51 29.75 34.32 36.34 37.03 35.83 38.94 39.33 41.38 37.67 33.42 30.77 29.29 29.67 30.98 32.48 32.58 32.40 29.11 22.92 17.78 16.60 23.79 26.47 30.67 30.49 29.77 30.48 33.37
49.89 49.45 48.71 47.64 47.39 47.58 47.55 47.51 47.40 47.53 45.31 36.59 34.21 33.37 29.14 23.96 24.00 28.04 25.35 27.11 26.80 27.36 33.27 35.15 39.11 37.66 41.09 36.45 33.64 27.57 24.90 25.74 25.25 29.15 35.19 36.13 34.34 26.74 23.32 18.02 17.49 25.85 31.21 35.81 34.38 26.03 35.34
49.81 49.50 48.71 47.56 47.39 47.30 47.14 47.41 46.90 46.96 46.00 38.24 35.34 34.61 30.81 26.76 27.90 28.55 25.63 24.93 27.68 25.65 25.17 32.64 33.07 35.87 36.73 32.87 30.35 27.73 23.48 27.44 25.05 25.24 29.88 31.60 31.43 26.05 24.81 21.79 25.22 31.17 33.35 35.18 24.59 27.19 36.25
49.94 49.56 48.74 47.50 47.27 47.63 47.14 46.78 46.86 46.36 45.08 38.95 36.00 38.06 33.14 27.69 28.13 30.87 32.10 27.41 28.52 26.51 24.42 30.72 34.01 36.13 36.51 31.77 32.13 29.76 25.00 25.72 24.00 26.40 27.02 27.57 26.86 25.26 26.45 24.11 18.79 33.29 33.97 30.05 34.05 36.18 37.48
50.06 49.68 48.76 47.43 47.29 47.19 47.03 46.64 46.53 46.60 45.97 40.97 35.12 42.17 38.76 34.82 30.35 33.36 34.31 34.43 33.96 32.75 29.19 28.07 31.84 34.26 35.15 34.27 31.06 29.37 28.48 25.65 24.36 22.59 26.96 25.61 28.72 26.52 28.21 27.63 33.43 33.25 36.42 37.95 38.89 38.31 37.68

GFSGBSN_sfc_wetblb_063.txt.gz
Wetbulb
56.72 56.56 56.15 55.78 55.36 55.11 55.37 54.60 54.21 53.86 54.01 54.73 55.33 55.73 54.76 53.98 52.84 53.07 53.18 53.06 52.93 52.88 52.50 52.89 52.60 52.26 47.59 40.55 40.52 49.60 54.41 55.14 52.42 52.63 51.21 49.28 46.28 45.97 43.93 46.66 47.22 45.21 47.84 49.01 51.52 51.29 50.76
56.50 56.31 55.94 55.56 55.22 54.87 54.88 54.86 54.42 54.05 53.84 53.78 53.89 54.70 54.66 53.69 52.67 52.09 52.42 52.51 52.25 52.47 52.76 52.31 52.18 51.35 43.98 33.53 47.32 50.84 50.71 50.59 49.63 50.43 50.74 51.19 46.94 47.23 46.25 46.34 45.53 46.93 47.94 48.57 50.05 50.26 50.26
56.32 56.08 55.73 55.34 55.04 54.47 54.53 53.95 53.60 53.86 53.95 54.32 53.05 53.46 53.87 54.23 52.85 52.13 52.10 52.52 52.56 52.62 52.86 52.26 51.94 48.17 41.81 37.75 48.26 50.04 49.04 49.20 49.61 48.09 48.44 51.68 51.32 47.47 47.35 45.53 48.05 46.83 44.33 45.85 47.91 49.23 48.23
56.41 55.84 55.57 55.05 54.71 54.65 54.41 54.22 54.20 53.36 54.00 53.87 53.75 52.39 52.68 53.44 53.37 52.41 52.47 52.54 52.84 52.80 52.36 51.52 51.66 45.21 36.22 47.62 49.09 48.87 48.85 47.47 49.58 49.99 49.06 53.03 53.06 48.83 46.30 47.29 45.10 42.79 43.66 39.94 45.81 47.72 48.85
56.41 55.82 55.38 54.79 54.13 54.31 54.21 54.56 53.87 53.93 53.69 54.20 53.31 52.48 51.91 52.65 53.07 53.13 52.58 52.80 53.18 52.38 51.68 51.06 44.20 41.30 36.45 49.86 45.28 47.47 47.78 44.13 47.22 51.03 52.77 52.94 51.55 46.76 45.03 41.84 38.95 40.80 36.40 37.63 41.09 47.56 47.73
56.41 55.50 55.13 54.49 53.97 53.70 53.76 54.15 54.01 53.81 53.67 53.72 53.58 52.94 51.42 51.63 52.43 52.79 53.15 52.63 51.54 49.36 47.37 48.53 46.36 36.70 40.37 40.23 45.46 47.09 48.74 47.69 47.64 48.90 47.38 48.55 46.56 41.34 39.60 39.88 31.61 34.82 35.36 37.15 38.78 45.12 46.36
56.29 55.24 54.73 54.17 54.03 53.46 53.33 53.87 53.59 53.42 53.31 53.21 53.24 52.67 51.44 51.73 51.57 52.14 48.00 39.72 36.07 35.34 40.51 36.54 36.95 37.11 40.41 45.63 48.28 46.31 48.63 48.24 48.26 45.54 38.98 42.24 39.42 36.45 38.33 38.43 38.35 37.67 36.42 36.39 38.80 44.88 44.16
56.36 54.98 54.32 54.02 53.70 53.28 53.41 53.13 52.89 53.28 52.79 52.82 52.66 52.11 50.90 50.99 51.27 51.68 42.96 37.51 37.24 39.30 35.71 41.47 41.11 40.78 43.22 46.17 40.56 45.14 49.73 43.85 42.46 37.79 39.93 39.03 35.61 39.48 41.15 40.19 38.56 38.24 35.01 35.89 39.18 42.53 43.20
56.43 54.75 54.06 53.64 53.37 53.29 53.07 53.15 52.60 52.15 52.31 52.08 51.60 50.80 50.37 51.26 50.90 44.57 39.80 39.83 44.54 43.18 34.72 38.87 41.61 41.28 42.32 45.47 41.08 41.92 45.89 43.75 40.37 36.91 37.80 36.52 38.19 41.94 41.13 37.85 36.20 35.31 34.94 33.86 35.62 39.00 40.93
56.10 54.44 53.62 53.25 53.05 53.17 52.94 52.70 52.52 52.10 51.93 51.25 50.90 50.37 50.05 51.53 44.86 41.17 39.42 43.67 44.91 42.66 22.60 30.92 37.65 40.93 44.23 44.64 39.61 46.31 46.90 43.76 40.57 35.98 38.44 38.53 41.45 40.64 39.21 36.85 36.94 33.54 37.60 36.62 35.92 35.31 31.91
55.83 54.07 53.03 52.82 52.66 52.67 52.61 52.37 51.95 51.65 51.20 51.00 50.46 50.35 50.11 50.85 40.97 39.80 42.36 44.40 43.78 37.53 14.38 33.47 37.06 46.54 45.05 40.38 40.29 41.53 47.93 45.42 37.16 38.41 39.88 36.58 38.32 38.85 37.49 37.76 38.87 35.50 37.87 36.21 35.47 33.31 32.77
55.58 53.70 52.74 52.35 52.25 52.29 51.96 51.74 51.64 51.39 51.20 50.94 50.63 50.45 50.37 48.86 46.29 43.39 44.49 44.14 39.31 21.68 16.56 30.88 39.57 37.71 38.71 41.59 40.77 42.79 44.38 47.16 45.45 40.78 40.64 39.29 41.89 40.71 39.91 40.75 39.47 37.89 35.72 34.26 32.59 31.92 27.62
55.06 53.24 52.26 51.97 51.94 51.81 51.50 51.21 51.25 50.93 50.87 50.47 50.86 51.02 48.95 47.24 41.08 45.45 44.94 37.91 21.30 16.39 29.67 33.41 34.78 36.59 36.23 36.84 37.79 39.18 38.23 38.81 36.08 31.91 32.95 38.19 37.83 39.87 40.73 38.13 40.03 37.75 33.32 27.02 24.62 23.93 24.84
54.55 52.94 51.86 51.60 51.44 51.18 50.96 50.81 51.23 50.82 50.74 50.17 50.01 49.98 48.98 47.01 45.42 44.80 42.00 29.78 16.48 24.55 30.10 37.54 37.85 36.88 32.61 36.67 37.59 38.21 36.10 35.62 38.92 37.71 34.14 31.83 29.79 36.84 39.37 37.10 35.36 35.30 33.90 25.62 20.14 21.82 24.05
54.02 52.64 51.53 51.26 50.59 50.57 50.54 50.55 50.64 50.71 50.36 50.05 48.81 42.03 43.01 44.41 47.90 46.23 37.43 17.08 20.80 25.70 36.28 36.15 36.74 32.31 33.19 36.80 35.99 36.85 35.58 36.42 37.48 37.43 31.96 28.08 31.48 39.25 40.10 39.27 38.33 34.90 31.79 32.70 25.01 23.27 22.07
53.60 52.09 51.29 50.85 49.99 49.77 49.98 50.09 50.40 50.44 49.85 49.17 39.67 39.31 41.10 45.43 47.96 44.31 32.52 27.05 26.46 33.27 37.62 36.98 31.36 34.15 28.62 34.03 33.16 35.29 35.28 37.85 38.33 38.94 37.29 32.30 29.99 37.49 39.40 39.73 39.50 36.21 36.18 29.24 29.21 19.38 19.91
53.23 51.80 51.14 50.38 49.44 49.08 49.20 49.70 50.13 50.20 49.40 48.10 39.15 37.17 43.20 45.08 46.82 39.75 22.91 25.22 32.27 37.37 38.13 34.15 32.15 33.38 31.18 31.31 33.79 32.05 33.43 38.11 40.15 38.35 37.27 33.70 31.49 33.83 37.99 35.68 35.77 35.51 33.17 32.55 31.08 27.20 22.68
52.56 51.60 50.95 49.85 49.04 48.51 48.67 49.21 49.66 49.75 48.62 42.79 36.99 35.09 44.90 43.75 38.73 38.07 27.52 31.45 39.28 36.44 38.32 35.94 36.21 35.98 33.35 35.36 32.79 32.23 32.49 35.92 41.30 39.66 34.08 34.95 31.34 29.87 32.88 38.77 40.40 38.55 35.77 33.38 27.13 23.69 24.49
52.27 51.43 50.49 49.57 48.65 47.94 48.23 48.88 49.35 49.10 47.82 37.99 34.48 39.29 46.04 43.75 32.08 28.47 31.77 35.38 37.29 35.78 35.46 34.48 34.13 37.07 35.84 35.94 29.85 32.13 33.74 37.92 41.10 38.22 35.04 35.62 29.19 26.37 29.23 33.62 37.04 35.18 36.77 37.28 33.59 30.94 22.24
51.94 51.14 50.18 49.34 48.31 47.63 48.01 48.49 48.98 47.73 48.13 39.40 34.81 30.93 41.60 43.05 40.87 36.31 30.86 31.84 32.17 37.40 36.11 35.82 34.00 35.10 35.10 33.26 33.29 31.66 32.13 36.96 40.27 41.39 43.07 38.73 30.16 26.05 23.09 26.76 32.29 31.77 34.49 36.13 34.87 30.61 30.00
51.51 50.61 50.12 49.14 48.23 47.59 47.50 48.09 48.46 46.09 48.78 37.51 31.94 30.11 31.87 31.96 36.22 30.58 31.48 33.85 32.33 32.23 35.66 35.47 32.30 33.22 31.80 30.03 31.54 31.08 33.18 33.97 37.18 42.90 39.42 36.97 26.17 25.27 29.39 30.79 32.72 32.15 32.32 34.19 32.51 33.81 30.20
51.09 50.42 49.95 48.94 48.15 47.86 47.76 47.75 47.79 45.07 43.96 32.58 30.02 29.95 29.96 28.64 29.95 28.52 31.39 31.46 35.87 36.61 36.92 33.16 31.44 33.77 32.41 29.71 31.27 30.53 32.85 31.86 32.66 33.92 35.22 34.34 26.21 26.78 24.24 30.40 30.79 29.74 31.12 32.97 34.48 35.18 34.69
50.59 50.42 49.60 48.85 48.65 48.33 47.87 47.93 47.21 44.53 39.57 30.22 29.38 31.50 31.71 28.54 27.39 28.77 28.86 30.36 35.82 36.51 38.72 38.94 35.35 33.77 31.76 33.62 35.45 34.26 35.17 35.23 35.54 33.60 31.75 31.33 28.60 24.13 21.06 26.76 26.95 24.51 28.71 29.99 31.82 33.74 34.89
50.94 50.18 49.37 48.87 48.57 47.95 47.79 47.79 46.77 45.11 39.28 32.83 30.84 30.36 29.79 27.20 27.71 28.68 27.50 29.76 34.54 34.69 35.77 38.56 39.35 34.00 36.42 39.11 36.14 35.84 35.39 34.53 34.56 32.29 33.70 29.22 28.37 25.91 22.41 23.45 14.03 27.88 31.42 32.48 31.39 33.09 34.54
50.53 49.86 49.24 48.51 48.36 48.25 47.72 47.80 47.23 45.15 43.50 33.96 31.95 29.33 25.92 23.90 26.42 25.79 26.26 28.71 32.30 34.98 36.25 37.04 40.14 39.38 39.28 37.09 32.66 30.43 30.19 31.63 32.00 32.27 31.89 31.52 28.43 24.31 20.60 17.93 23.56 27.20 31.46 29.97 29.24 31.01 33.78
50.65 49.71 49.06 48.58 48.25 48.08 47.85 47.30 47.44 46.09 43.65 35.09 32.88 32.15 27.73 24.35 23.79 27.85 24.80 25.93 25.10 28.55 33.01 33.99 38.34 39.99 40.30 35.26 33.65 26.23 24.46 26.19 25.51 30.18 34.73 35.09 34.11 28.41 24.10 18.83 18.20 26.26 31.80 35.65 34.46 27.42 35.86
50.82 49.57 48.73 48.24 48.26 48.03 47.83 46.98 47.04 46.48 44.76 37.14 34.83 33.54 30.70 26.54 26.93 26.38 24.51 24.54 26.96 24.83 25.28 30.84 30.03 36.57 38.08 32.84 30.32 27.78 23.87 28.09 25.19 26.34 29.91 31.66 31.39 26.40 25.71 22.74 25.51 30.97 32.89 35.32 25.13 28.33 36.14
50.68 49.74 48.26 48.16 47.98 47.98 47.34 47.13 46.32 45.80 44.52 38.18 35.06 37.04 32.39 27.53 27.79 30.07 31.49 25.97 27.64 25.69 24.01 27.75 33.68 35.45 36.53 31.37 31.34 28.90 24.80 25.73 25.65 26.83 27.04 27.52 26.67 25.63 26.91 25.26 19.30 33.29 33.92 31.44 34.22 36.94 38.24
50.53 49.71 48.24 47.82 48.03 47.61 47.21 47.13 46.83 46.08 44.67 40.64 34.47 40.32 38.08 30.58 29.67 32.64 33.04 32.99 32.56 31.63 28.25 26.97 29.84 34.10 34.66 33.58 31.99 29.14 28.40 25.43 23.67 22.38 26.86 26.65 28.78 26.89 28.01 27.46 33.18 33.03 34.79 36.48 37.74 37.53 37.75

GFSGBSN_sfc_wetblb_066.txt.gz
Wetbulb
58.05 56.87 56.45 56.16 55.83 55.53 55.07 55.31 54.87 54.76 54.98 54.98 54.09 54.33 55.03 54.65 53.49 52.35 52.78 53.17 52.96 52.81 52.83 52.79 52.94 52.48 49.22 41.98 42.48 51.18 54.01 55.76 54.78 52.72 50.21 50.85 49.66 48.86 46.02 48.38 49.70 46.94 50.78 52.36 53.00 53.16 52.91
58.29 57.00 56.41 55.97 55.45 55.27 55.08 54.74 54.53 54.45 54.48 54.75 54.41 53.57 53.86 54.33 53.64 52.42 51.94 52.45 52.69 52.59 52.85 52.94 52.22 50.89 45.13 35.77 49.38 51.90 50.88 51.22 51.81 50.73 49.13 51.34 49.83 50.72 48.60 48.52 48.60 50.55 49.50 50.93 52.32 51.61 52.07
58.58 57.26 56.37 55.93 55.41 55.09 55.04 54.62 54.65 54.62 54.37 54.89 54.41 53.48 52.75 53.25 53.95 52.93 52.50 52.73 53.14 53.11 53.17 53.19 52.41 50.06 43.33 39.90 50.05 51.68 50.49 50.00 50.88 50.67 47.59 52.21 52.23 49.92 50.56 47.32 51.26 50.78 46.68 48.59 50.40 51.23 50.85
59.03 57.69 56.38 55.79 55.15 54.61 54.73 54.61 54.39 54.46 54.71 54.53 54.61 53.87 52.63 52.52 53.11 53.49 53.01 52.82 53.09 53.37 52.69 51.77 51.46 48.15 38.91 48.40 52.08 49.83 50.42 48.73 50.16 51.17 50.18 53.11 53.31 50.67 49.78 51.46 49.28 47.01 47.29 41.85 48.93 50.45 51.16
59.46 58.08 56.51 55.67 55.13 54.38 54.13 54.13 54.39 54.38 54.20 54.41 54.15 53.75 52.88 51.87 52.54 52.70 53.29 53.18 53.30 52.98 52.27 51.38 47.52 44.95 38.09 49.98 46.77 49.15 49.24 46.21 49.06 50.97 51.58 52.11 52.07 48.66 48.54 44.99 42.24 44.29 39.21 41.63 44.18 50.92 49.84
59.87 58.39 56.54 55.42 54.87 54.56 54.03 53.76 53.99 54.25 54.23 53.85 53.83 53.22 52.48 51.84 52.24 52.14 52.99 52.99 50.96 50.58 50.02 50.06 48.31 41.35 42.73 40.54 45.60 47.84 49.65 49.13 47.33 47.88 47.46 45.34 47.34 44.60 44.82 42.56 34.41 37.58 39.24 41.68 41.74 47.12 48.37
60.06 58.25 56.63 55.23 54.76 54.36 53.91 53.85 53.58 53.14 53.16 53.47 53.23 52.75 51.89 51.38 51.92 51.84 51.32 47.73 43.38 41.53 43.76 41.47 41.54 40.41 42.40 45.99 47.40 44.40 48.94 47.65 47.98 44.99 39.40 40.88 40.51 38.13 41.34 43.63 42.83 42.31 40.57 39.66 43.65 47.38 46.29
60.10 58.01 56.56 55.04 54.69 54.16 53.77 53.38 53.44 53.12 53.11 52.97 52.60 51.53 51.38 50.95 52.11 50.96 48.86 43.58 42.32 44.38 39.14 43.98 43.77 43.72 46.25 46.10 42.13 44.29 50.58 43.88 42.97 38.61 41.18 37.85 37.14 43.23 45.06 43.60 42.59 42.11 40.08 40.19 42.85 47.02 46.85
59.83 58.17 56.40 54.90 54.48 53.94 53.58 53.30 53.07 52.90 52.61 52.40 52.05 51.13 50.83 50.58 51.53 49.69 45.64 43.75 48.67 47.45 39.81 40.56 44.09 43.50 44.06 46.22 41.89 43.60 47.10 45.72 41.89 38.45 38.04 36.39 40.20 44.76 43.72 41.60 40.62 41.03 39.75 40.32 40.54 45.19 46.30
59.85 58.02 56.17 54.71 54.11 53.52 53.17 53.08 52.74 52.43 52.03 51.87 51.81 50.64 50.66 50.51 47.44 47.07 44.56 47.20 49.23 47.49 35.91 36.19 39.52 42.28 45.56 45.54 40.05 47.24 47.97 44.46 41.30 37.66 38.92 39.47 43.92 42.73 41.16 39.73 41.72 36.68 42.78 42.43 40.84 40.28 35.69
59.67 57.68 55.76 54.32 53.65 53.01 52.78 52.42 52.17 51.93 51.86 51.61 51.02 50.81 50.51 50.78 47.08 44.54 45.69 48.82 48.56 44.95 26.35 37.49 40.37 47.52 45.67 41.80 42.49 43.06 49.30 45.44 38.73 38.63 38.60 37.64 40.57 40.98 39.84 40.50 42.79 38.51 42.57 41.82 41.07 39.27 38.38
59.32 57.31 55.33 53.99 53.16 52.63 52.42 51.88 51.63 51.54 51.10 51.19 50.68 50.97 50.48 48.52 48.84 47.74 48.79 48.68 46.15 33.27 24.51 35.01 40.84 38.59 39.64 41.69 40.47 44.08 44.92 46.94 44.92 40.10 40.43 40.08 44.14 43.52 42.50 42.85 43.24 41.97 41.24 40.92 40.45 39.11 31.46
58.85 56.82 54.88 53.70 52.76 52.28 51.81 51.37 51.21 51.34 50.99 50.78 50.76 51.16 49.55 49.95 46.21 49.51 49.34 45.26 33.64 29.81 33.75 33.68 35.86 38.72 38.91 37.18 37.89 40.06 39.73 38.33 36.33 31.98 32.88 38.75 39.55 42.77 43.58 40.03 41.98 42.30 39.21 31.14 29.35 30.24 29.66
58.34 56.28 54.40 53.18 52.50 51.95 51.19 50.83 51.00 50.78 50.49 50.24 50.13 50.10 49.73 49.63 50.24 49.57 45.65 37.93 29.87 31.21 33.15 39.61 38.58 38.83 35.81 37.87 37.74 38.28 38.38 36.23 40.16 38.68 36.36 32.99 32.00 40.18 41.39 41.32 39.09 40.16 39.31 32.57 24.08 26.40 30.81
57.88 55.83 53.95 52.82 52.29 51.52 50.63 50.22 50.33 50.29 50.30 49.69 49.34 49.25 49.24 49.52 49.19 47.89 40.66 33.81 32.72 33.90 38.54 37.66 37.94 35.49 35.96 37.68 38.14 37.28 36.79 36.48 39.75 41.98 35.71 33.62 32.12 40.84 41.03 42.25 42.04 38.76 35.64 38.10 32.07 30.80 31.07
57.27 55.34 53.54 52.58 52.05 50.99 50.12 49.74 49.78 49.92 49.74 49.05 47.64 46.51 47.08 49.09 49.28 46.10 37.90 32.68 34.92 36.62 40.45 40.19 34.26 37.36 33.35 35.96 35.74 36.01 36.57 39.81 38.96 41.15 41.41 37.22 31.46 38.31 39.80 42.62 42.49 40.49 41.67 33.49 36.00 26.32 24.92
56.69 54.69 53.12 52.36 51.41 50.44 49.68 49.28 49.37 49.40 48.90 48.36 46.60 43.57 47.00 49.56 48.09 41.99 35.16 34.84 36.55 40.45 41.20 38.50 36.69 36.19 36.58 35.60 36.83 35.34 35.82 39.00 41.56 39.73 40.91 39.44 37.14 34.97 40.09 37.53 37.42 38.19 36.59 37.40 37.26 34.78 29.38
56.03 54.14 52.80 51.92 50.83 49.92 49.37 48.91 49.03 48.90 48.32 47.51 45.24 39.37 46.79 49.21 39.51 39.58 37.25 36.63 40.23 40.45 42.25 40.08 39.95 38.53 37.94 38.15 36.96 36.73 36.01 38.66 43.54 42.01 37.36 38.91 37.36 31.21 34.74 39.79 41.23 41.76 39.28 39.28 33.07 30.64 33.04
55.22 53.54 52.54 51.37 50.35 49.49 49.01 48.93 48.81 48.48 48.25 44.78 43.17 41.50 47.03 46.04 33.51 35.21 38.40 38.30 40.51 39.64 39.68 38.77 38.22 39.67 39.82 38.50 35.43 37.06 38.09 41.00 43.42 40.92 38.50 39.75 35.12 29.24 30.38 34.78 38.02 35.96 38.51 39.66 38.59 36.55 31.50
54.58 53.20 52.14 50.91 49.86 49.19 48.91 48.62 48.41 47.28 48.44 46.57 42.80 36.56 41.85 43.13 42.15 37.37 36.96 37.17 36.84 41.39 40.11 39.80 38.88 39.90 38.13 36.67 38.26 35.97 36.92 40.28 43.32 43.15 42.58 42.10 35.81 33.45 30.25 32.28 37.22 33.85 36.38 38.08 36.87 32.38 31.82
54.16 52.76 51.55 50.64 49.61 49.12 48.71 48.51 47.88 46.13 49.27 45.34 40.95 38.77 39.21 35.08 37.16 38.09 37.78 37.17 36.28 36.60 40.13 40.28 37.67 38.26 37.47 35.36 35.87 35.87 37.61 38.70 40.86 43.43 42.17 41.23 34.01 32.98 33.90 35.11 36.26 35.46 35.49 36.63 34.49 35.19 31.90
53.59 52.22 51.17 50.18 49.47 49.07 48.71 48.31 46.97 47.18 46.47 41.48 37.62 37.81 38.00 37.19 36.80 37.41 37.00 37.36 36.57 37.86 38.82 37.14 36.55 37.78 38.39 36.09 37.61 35.85 37.99 38.68 38.50 40.02 39.64 39.25 33.28 32.50 30.65 33.38 34.28 33.03 36.02 37.09 37.14 37.30 36.24
53.22 51.54 50.78 49.87 49.40 49.21 48.59 48.33 45.90 46.86 43.77 39.56 37.15 39.15 40.49 33.61 35.00 36.17 37.14 36.57 36.93 38.57 40.58 40.84 39.54 38.66 37.13 38.21 40.53 40.89 42.14 42.40 41.95 40.13 38.24 38.00 34.71 32.27 30.01 30.66 31.37 28.84 33.45 35.21 36.56 38.50 38.07
52.46 51.43 50.34 49.75 49.52 49.01 48.55 47.58 46.08 45.64 42.28 40.85 38.69 40.58 38.24 32.63 35.25 36.65 33.24 33.64 36.57 36.85 38.28 40.71 42.09 39.46 41.32 44.57 41.44 42.30 41.51 40.37 40.69 38.64 40.94 36.41 35.40 33.81 30.13 28.85 23.82 32.42 36.18 36.65 35.45 37.02 38.92
52.18 50.90 50.11 49.85 49.32 48.92 48.55 47.39 46.00 44.94 42.71 40.19 37.97 37.46 37.48 32.37 34.36 31.36 32.08 33.52 35.57 38.13 38.77 39.59 41.55 41.73 42.71 41.42 38.27 35.61 35.76 35.94 36.04 37.43 37.42 39.35 36.61 30.82 29.20 28.08 31.54 34.17 35.60 35.42 34.17 35.76 39.55
51.95 51.16 50.23 49.60 48.95 48.63 48.50 47.92 46.01 45.16 43.41 40.33 38.42 38.44 37.14 34.13 30.84 32.42 31.98 31.96 34.22 33.70 37.16 37.17 41.14 41.63 43.58 41.11 37.52 31.02 29.38 31.76 31.18 33.60 37.78 37.45 38.28 34.75 30.38 24.85 22.76 33.54 37.80 40.53 39.73 32.92 41.19
51.67 50.93 49.62 49.19 49.08 48.61 48.08 47.95 47.03 45.72 44.26 41.75 38.88 38.87 38.92 32.78 33.15 32.90 31.73 31.61 32.80 32.20 34.80 36.18 34.10 39.00 41.79 38.03 34.24 31.97 30.94 33.49 30.28 30.43 31.73 32.66 33.60 31.16 30.43 28.39 31.48 37.69 38.10 40.31 30.87 33.43 42.04
51.14 50.51 49.63 48.96 48.76 48.44 47.77 47.66 46.65 46.01 44.23 42.01 39.42 40.78 38.92 33.85 33.41 34.81 34.83 32.63 32.72 32.60 33.36 32.48 36.03 37.23 36.21 35.39 35.05 34.55 33.09 33.55 32.48 33.74 33.55 32.72 31.61 30.60 31.45 28.08 24.96 38.92 38.39 35.40 39.17 41.73 42.08
50.75 50.22 49.70 49.35 48.74 47.97 47.60 46.90 46.58 45.81 44.70 42.86 38.97 42.02 40.97 37.10 34.42 37.19 36.69 37.36 36.81 35.68 34.49 33.21 33.35 34.53 35.15 33.90 35.27 35.88 33.41 32.75 32.27 29.86 34.89 31.21 35.52 33.94 34.28 34.01 38.58 39.75 39.99 41.41 41.45 41.14 41.87

GFSGBSN_sfc_wetblb_069.txt.gz
Wetbulb
60.36 58.93 57.56 56.96 56.57 56.13 55.45 55.43 54.95 54.85 54.73 54.91 55.19 54.98 54.14 54.34 55.08 53.96 52.90 53.16 53.34 53.21 53.01 53.49 53.50 53.12 50.33 43.29 43.02 52.29 53.24 55.91 54.37 53.17 50.99 50.41 49.46 49.22 45.56 49.31 49.77 49.90 50.78 52.68 52.90 53.52 53.74
61.13 59.58 58.08 57.10 56.38 56.01 55.70 55.53 54.95 54.83 55.02 55.07 55.20 54.85 53.71 53.38 53.87 54.47 53.18 52.96 53.29 53.57 53.44 53.65 53.68 52.59 47.25 37.96 49.89 52.38 51.63 52.47 52.14 51.13 50.02 50.93 50.05 51.51 48.53 48.99 48.71 50.32 48.85 51.29 52.36 52.82 53.50
61.52 60.26 58.75 57.31 56.50 55.84 55.44 55.24 55.13 54.96 54.85 55.08 55.18 54.67 54.08 53.35 53.03 53.79 54.16 53.21 53.53 53.74 53.66 53.27 52.86 50.97 45.25 42.27 50.45 52.72 51.75 50.64 51.91 50.44 47.55 50.56 52.80 49.64 50.37 47.48 52.30 48.93 45.26 46.34 49.53 51.37 51.32
62.11 60.89 59.48 57.80 56.72 55.82 55.02 54.83 54.58 54.82 54.70 54.57 54.68 54.38 53.87 53.21 52.49 52.93 53.45 54.01 53.52 53.50 53.60 52.31 52.11 49.14 41.50 49.59 52.26 50.44 51.33 49.31 51.47 52.30 50.04 50.79 52.38 52.02 50.15 51.04 49.78 45.27 44.56 39.29 47.18 50.35 51.69
62.80 61.41 59.98 58.14 56.80 55.86 55.19 54.73 54.60 54.46 54.73 54.63 54.30 53.94 53.39 53.00 52.58 52.53 52.57 53.31 53.98 53.57 53.15 52.20 49.32 46.48 39.98 50.36 46.97 50.27 50.31 46.79 49.24 50.51 50.75 51.16 51.14 49.17 49.61 45.33 42.09 44.56 37.96 40.21 42.40 47.75 49.74
63.48 61.94 60.20 58.19 56.85 55.86 55.28 54.71 54.47 54.25 53.59 53.36 53.42 53.38 52.61 52.48 52.21 52.27 52.37 53.18 52.80 51.85 51.68 51.03 49.38 42.36 44.14 40.02 45.08 47.91 50.33 49.05 46.84 47.95 46.58 45.67 46.46 44.80 45.05 42.65 34.19 37.18 37.88 41.09 41.80 44.91 47.74
63.14 62.48 60.40 58.16 56.88 55.84 55.08 54.70 54.16 54.17 53.65 53.32 53.23 52.64 51.79 51.90 51.73 52.38 51.57 50.33 45.13 43.94 45.71 42.72 43.24 42.84 44.33 44.78 46.96 45.09 48.76 47.48 47.02 43.92 37.16 41.30 39.27 38.04 42.24 44.24 43.87 42.55 41.05 41.17 44.37 47.82 46.57
63.51 62.71 60.45 58.42 56.83 55.74 54.93 54.58 53.95 53.86 53.43 52.95 52.50 52.00 51.42 51.34 51.55 52.13 50.76 45.42 44.96 46.27 40.65 45.99 45.71 45.67 47.31 46.91 40.12 43.70 49.29 42.90 41.99 38.37 39.22 38.47 37.85 43.12 45.13 44.90 42.99 42.76 40.96 41.00 43.88 47.05 46.24
63.56 62.44 60.34 58.69 56.64 55.69 54.72 54.31 53.84 53.50 52.97 52.14 52.08 51.72 51.12 51.22 51.32 50.54 48.45 45.33 50.53 49.25 41.47 42.50 45.25 44.69 44.32 46.90 41.71 42.94 46.75 45.03 41.03 38.65 38.14 36.50 40.55 44.90 43.64 42.61 41.27 41.68 40.02 40.10 40.59 44.80 46.99
63.21 62.23 60.24 58.52 56.58 55.42 54.38 53.78 53.44 53.00 52.27 52.10 51.67 50.86 51.21 50.66 47.51 49.83 45.93 48.73 50.92 49.88 36.44 37.59 40.43 43.81 46.29 46.44 40.72 47.87 48.78 44.88 41.43 38.48 40.65 39.46 44.14 43.10 41.94 40.81 42.43 37.80 43.92 43.23 42.43 41.58 36.49
62.92 61.95 60.12 58.05 56.24 55.07 53.96 53.44 52.83 52.37 51.86 51.25 51.15 50.37 51.19 50.13 49.14 46.31 47.91 50.22 50.45 47.46 26.94 39.14 41.49 49.15 47.03 42.37 42.19 44.00 50.67 46.34 39.86 39.80 40.55 38.17 41.00 41.30 40.18 41.07 43.96 40.18 44.59 43.40 42.59 40.76 39.80
62.67 61.76 59.74 57.51 55.67 54.54 53.62 53.09 52.26 51.81 51.47 51.14 50.79 50.63 50.75 49.44 50.27 49.65 50.47 50.11 48.30 33.67 25.42 35.16 41.72 40.13 39.99 41.89 42.29 45.17 45.04 48.15 46.13 41.14 41.34 40.91 44.87 44.12 43.18 44.66 44.36 44.84 42.43 41.61 41.30 39.35 32.06
62.06 61.17 59.17 57.07 55.23 54.13 53.30 52.55 51.71 51.39 50.97 50.49 50.59 50.96 50.37 50.91 46.75 51.43 50.77 46.92 33.23 31.47 36.50 35.05 36.93 40.17 38.92 37.11 38.74 40.90 39.88 39.50 37.24 32.44 32.80 38.81 40.00 43.81 44.97 41.43 43.81 43.05 39.27 31.70 29.75 30.23 30.15
61.73 60.48 58.73 56.79 54.94 53.76 53.07 52.11 51.31 50.86 50.13 49.72 50.03 50.63 49.80 51.04 52.40 51.16 48.76 39.39 30.48 33.81 35.28 40.81 39.92 40.01 36.26 38.29 38.52 38.69 38.78 37.59 40.25 37.75 35.67 33.72 31.37 40.48 43.34 41.87 38.71 40.31 39.23 32.73 25.07 27.82 31.46
61.17 59.75 58.04 56.29 54.63 53.60 52.86 51.80 50.98 50.41 49.68 49.22 50.43 51.01 50.32 51.14 51.37 50.50 42.38 33.29 34.53 36.25 40.00 38.82 39.34 36.48 36.21 38.56 38.21 37.81 37.67 37.98 39.97 39.24 35.83 34.83 33.23 41.86 42.37 43.78 43.24 39.79 36.35 40.33 34.06 34.89 31.85
60.79 59.31 57.39 55.61 54.30 53.37 52.45 51.48 50.69 50.25 49.58 49.81 49.03 48.48 47.65 51.41 50.84 47.55 38.50 34.94 36.93 40.45 41.83 41.53 35.54 38.31 33.79 36.95 35.88 35.63 36.78 40.76 39.99 43.24 43.56 39.27 31.91 38.83 40.67 43.80 43.75 41.72 43.54 34.00 35.69 26.52 25.50
57.18 58.68 56.93 55.24 53.81 52.98 51.89 51.18 50.60 50.07 49.19 49.95 48.43 43.15 48.66 50.94 49.43 42.77 34.95 37.84 39.49 42.96 43.22 40.36 37.98 37.52 37.78 36.63 37.68 36.31 36.50 39.83 42.89 42.17 43.05 42.08 37.90 35.77 40.61 38.81 38.17 38.86 37.31 38.39 38.25 35.66 29.42
55.71 58.32 56.73 54.71 53.34 52.13 51.29 50.70 50.42 50.01 49.43 47.86 47.23 39.12 48.38 49.64 40.25 41.13 37.32 39.49 41.39 42.45 43.78 41.83 41.72 40.66 39.40 39.69 37.37 37.65 36.47 39.43 44.86 43.20 38.30 41.29 38.25 32.13 35.73 41.62 43.23 41.77 39.27 38.96 32.82 31.08 34.43
54.26 57.99 56.25 54.15 52.62 51.55 50.63 50.18 50.23 50.14 50.12 48.70 44.31 41.42 47.93 46.63 34.14 35.89 40.84 40.12 41.71 40.74 41.51 40.60 40.01 41.53 42.27 39.84 36.29 38.90 39.32 42.69 44.95 42.63 40.39 41.48 37.07 30.20 31.79 36.91 40.28 37.91 40.32 40.76 39.54 38.56 33.19
55.48 56.95 55.42 53.67 51.88 50.87 50.26 49.93 49.89 50.05 49.57 48.37 44.60 36.73 41.72 42.79 43.13 39.34 38.33 38.91 38.78 43.14 41.72 41.52 40.85 42.08 40.48 39.48 40.73 38.06 38.77 41.73 44.49 43.66 43.21 43.30 38.51 35.58 31.70 34.37 38.60 34.92 37.73 39.72 38.33 33.06 33.60
52.63 55.97 54.78 53.18 51.55 50.46 49.97 49.70 49.64 49.23 48.77 48.17 44.96 41.94 42.96 35.57 37.52 38.84 40.68 40.14 38.13 37.73 41.93 42.26 39.64 40.52 39.71 36.78 38.06 37.75 39.81 41.08 43.25 43.20 43.07 42.21 35.76 34.51 35.87 37.40 37.68 36.71 36.98 37.91 35.78 36.60 32.99
52.52 55.53 54.42 52.58 50.99 50.24 49.75 49.40 49.12 47.88 49.67 45.84 41.42 40.49 41.58 41.60 40.73 39.37 38.94 39.03 38.15 39.57 40.22 38.68 37.90 39.95 40.59 38.05 39.10 37.43 40.12 40.63 39.43 42.01 41.60 42.11 34.84 34.88 32.40 35.28 35.61 34.07 37.09 38.06 37.94 38.13 37.15
52.89 54.63 53.67 52.03 50.58 50.06 49.45 49.08 48.13 49.95 48.92 44.14 42.38 43.07 43.38 39.15 39.94 38.86 39.51 39.95 39.67 41.56 41.90 42.80 41.24 40.07 38.86 40.11 41.76 42.67 44.60 44.09 43.55 41.45 40.09 39.71 36.22 33.32 30.90 33.33 33.14 29.81 34.69 36.52 37.75 39.82 39.14
54.78 54.04 52.95 51.11 50.27 49.69 49.25 48.98 47.50 50.30 47.36 45.20 43.91 44.10 40.18 36.07 38.74 39.09 38.39 39.53 39.70 40.39 39.77 42.64 43.43 40.86 42.62 46.09 44.37 44.75 43.78 43.01 43.19 42.18 43.48 39.03 37.47 36.14 31.62 30.82 24.56 34.02 38.38 38.10 37.19 38.86 39.90
50.23 52.83 52.36 50.41 50.02 49.57 49.16 48.08 47.27 49.04 46.06 43.82 42.94 42.44 41.35 36.47 39.25 36.33 36.51 38.60 39.34 40.89 41.09 42.04 42.73 43.20 45.70 43.22 39.16 36.43 36.59 37.18 38.05 40.02 40.48 42.35 38.31 33.38 30.28 29.89 34.10 35.11 36.15 36.32 35.22 36.62 41.37
51.37 53.17 51.36 50.17 49.68 49.20 48.63 47.53 46.96 46.86 45.40 43.49 42.63 42.41 41.26 37.65 35.75 38.04 37.01 38.37 38.26 39.34 39.62 40.01 43.09 45.61 45.33 41.30 38.37 31.13 30.01 33.61 32.48 34.72 39.67 39.77 40.64 34.74 31.82 26.96 24.36 35.60 39.35 42.00 41.17 32.82 42.20
53.46 52.28 50.69 50.24 49.54 49.12 48.02 47.15 46.53 45.69 45.04 44.47 41.47 42.28 42.78 35.59 35.26 36.26 36.36 36.29 36.85 37.81 39.05 39.73 38.74 41.72 44.22 38.82 34.85 32.97 31.82 36.16 30.97 30.88 31.78 33.47 34.48 31.20 30.74 28.60 33.06 39.25 39.73 41.91 30.45 33.74 42.15
52.35 51.39 50.88 49.84 49.27 49.01 48.38 47.16 46.69 45.84 45.41 45.04 40.91 43.23 42.51 36.45 35.29 37.35 37.10 35.56 35.23 36.40 37.45 35.76 38.88 39.21 38.22 35.11 34.51 35.22 34.11 35.38 33.82 35.97 34.34 32.43 31.02 31.04 32.18 29.12 25.75 41.12 39.60 35.39 39.61 43.00 42.87
51.59 51.07 50.40 49.86 49.29 48.60 48.37 47.83 47.18 45.67 44.96 45.54 40.03 43.09 44.89 38.99 35.28 38.96 38.09 38.84 38.29 37.47 37.63 37.99 36.37 35.66 35.78 35.14 37.50 38.32 34.86 36.34 35.13 30.36 37.43 32.31 36.44 34.21 34.78 33.79 40.15 42.29 41.01 42.84 43.15 41.63 41.73

GFSGBSN_sfc_wetblb_072.txt.gz
Wetbulb
62.55 61.81 60.52 59.08 57.87 57.08 56.59 56.14 56.06 55.59 55.51 55.62 55.75 55.80 55.55 54.63 53.94 54.30 55.10 53.56 53.20 53.48 53.73 53.70 54.03 54.02 50.14 43.11 42.64 52.00 53.79 56.12 55.01 51.73 48.22 48.46 47.85 47.55 44.37 46.41 48.24 46.48 47.98 50.89 52.98 53.25 53.31
63.76 62.90 61.68 59.79 58.18 57.28 56.80 56.18 55.97 55.77 55.58 55.47 55.52 55.58 55.18 54.81 54.25 53.43 54.33 54.56 53.63 53.62 53.73 53.93 53.83 53.59 46.81 37.51 49.24 51.95 51.30 51.91 51.55 50.41 47.05 49.37 48.74 50.22 47.31 46.27 46.02 45.23 48.54 50.87 51.51 51.58 51.82
64.27 63.83 62.55 60.58 58.87 57.59 56.83 56.09 55.59 55.21 55.37 55.36 55.23 55.07 54.79 54.46 54.18 53.20 53.27 54.22 54.57 53.58 53.59 54.11 53.23 50.56 44.59 41.98 49.70 51.56 51.15 50.47 51.37 49.73 46.21 50.20 49.34 48.94 49.00 45.08 49.81 47.58 43.84 48.78 49.36 50.30 49.21
64.27 64.25 63.57 61.38 59.63 57.85 56.94 56.13 55.45 54.99 55.11 55.29 55.20 54.79 54.27 53.85 53.74 53.18 52.84 53.46 53.71 54.10 53.85 53.89 52.92 48.79 40.63 50.16 50.45 50.27 50.63 49.27 51.63 50.79 48.27 49.77 50.24 49.07 48.04 49.74 47.62 43.58 43.07 40.49 47.11 48.60 49.00
64.07 64.39 64.23 61.80 60.26 58.33 57.22 56.35 55.53 54.81 54.82 54.20 53.81 53.85 53.74 53.00 52.90 52.68 51.95 53.07 53.25 53.93 53.52 53.29 48.90 46.20 39.29 50.26 46.95 49.70 50.34 46.64 49.23 49.21 49.35 50.18 49.31 47.35 48.12 43.16 40.46 42.62 34.89 38.05 42.04 48.33 47.79
64.14 64.20 63.70 62.01 60.42 58.62 57.60 56.46 55.63 54.80 54.81 54.15 53.88 53.71 52.93 52.33 52.37 51.76 52.84 53.08 53.15 52.38 51.50 51.12 49.33 42.09 44.30 41.97 45.75 46.80 49.82 48.99 46.61 46.40 45.42 44.25 45.85 42.75 43.21 40.74 33.07 35.65 37.21 37.32 38.17 43.97 45.74
63.84 64.00 63.28 62.43 60.58 58.70 57.58 56.39 55.61 54.52 54.44 54.01 53.35 52.85 52.50 51.99 51.40 51.33 51.74 50.15 44.51 42.33 45.33 42.24 42.76 42.70 44.64 45.30 47.14 44.73 48.19 46.54 46.53 42.78 36.33 40.25 37.97 37.53 40.56 42.02 42.19 38.86 38.89 38.22 41.48 46.07 43.42
63.26 63.51 63.36 62.79 60.69 58.97 57.36 56.29 55.36 54.55 54.12 53.67 52.63 52.44 52.13 51.27 51.35 52.19 50.18 45.28 45.19 45.55 38.89 46.59 45.74 45.84 46.98 45.95 40.45 43.60 48.54 41.80 41.08 36.44 39.01 38.93 35.42 41.63 44.50 43.69 42.51 40.67 38.27 38.40 42.28 45.68 42.69
60.67 63.02 63.24 62.93 60.65 59.22 57.30 56.18 55.16 54.38 53.82 53.05 52.44 51.63 51.60 51.49 51.35 50.15 47.80 45.88 50.97 49.16 39.78 42.83 45.37 44.03 44.12 46.27 40.81 41.32 45.75 43.31 40.00 37.48 38.22 36.84 40.08 44.12 42.39 41.88 39.86 38.30 37.46 37.81 38.76 43.29 44.97
59.06 59.63 62.77 62.67 60.82 59.04 57.13 55.88 54.74 53.94 53.20 52.29 51.81 51.53 50.66 51.36 47.43 49.60 45.60 49.35 51.06 49.96 34.81 37.67 40.93 43.79 46.21 46.12 40.39 47.74 48.15 44.78 41.31 38.40 39.40 39.41 43.57 42.07 40.36 40.28 40.62 35.60 42.41 42.13 41.30 38.07 33.39
58.13 58.74 60.81 62.16 60.75 58.84 56.92 55.53 54.41 53.52 52.53 51.83 51.32 50.87 50.58 50.96 47.75 45.71 48.02 50.42 50.54 46.91 24.29 39.25 41.16 49.39 47.21 42.07 42.46 43.17 50.14 45.87 39.69 39.96 40.31 37.60 40.38 40.42 39.28 40.94 43.16 39.32 43.46 41.79 41.46 38.67 36.93
57.35 58.19 58.02 61.69 60.59 58.42 56.59 55.16 54.05 53.03 52.05 51.38 50.74 50.75 51.17 48.76 49.07 49.94 50.79 50.45 47.53 32.53 20.42 34.82 41.84 40.66 39.79 42.14 42.39 44.93 45.07 47.95 46.64 41.08 41.17 40.28 45.35 43.19 41.28 43.67 43.65 43.85 41.63 40.40 39.09 36.57 27.75
56.12 56.25 57.53 58.26 59.79 58.11 56.13 54.63 53.69 52.49 51.65 50.32 50.07 50.81 50.32 50.75 46.23 51.45 50.36 46.09 33.00 28.29 37.02 33.88 36.80 39.96 38.34 37.22 39.15 40.90 39.79 38.47 36.31 31.06 32.39 38.37 39.82 43.36 44.32 39.48 42.61 41.48 36.82 27.41 24.67 24.01 23.84
55.48 55.72 56.40 55.33 59.38 57.57 55.79 54.23 53.31 52.19 51.23 49.92 49.98 51.04 50.14 50.69 51.88 51.43 48.25 38.51 27.96 33.93 34.89 40.43 39.82 39.43 35.32 37.98 37.63 38.52 37.80 35.84 39.96 37.91 34.93 32.42 30.57 39.74 42.83 39.99 36.51 36.93 35.64 28.06 21.41 22.16 24.90
54.87 55.01 55.14 55.11 58.95 57.14 55.46 54.00 52.88 51.80 50.88 49.98 50.81 49.22 48.94 50.61 51.79 50.19 42.28 31.55 33.11 35.06 39.23 37.64 39.17 35.22 34.75 37.59 37.91 37.18 37.50 37.09 38.48 39.72 34.57 33.05 32.82 41.64 42.79 43.01 41.54 36.32 31.23 36.61 30.52 29.09 24.32
52.87 54.59 54.87 55.30 58.64 56.76 55.17 53.81 52.47 51.39 50.75 50.57 47.81 47.23 46.86 51.47 51.43 47.43 38.58 34.17 36.09 41.47 42.18 40.76 34.81 38.21 33.43 35.37 34.86 35.54 35.78 39.71 39.10 42.04 41.66 38.48 30.73 39.06 40.94 43.53 42.69 39.96 40.53 29.29 29.85 20.53 20.75
52.81 54.18 53.98 54.20 57.69 56.16 54.60 53.47 52.20 51.34 50.71 50.56 47.27 42.10 47.89 51.31 49.73 42.48 33.63 35.96 39.70 42.90 43.67 39.76 37.91 37.14 37.42 35.18 36.34 34.76 35.37 39.43 42.25 41.88 40.82 39.16 34.72 35.31 38.87 37.00 36.73 37.30 34.22 35.69 34.46 30.18 22.40
51.01 50.48 53.45 54.38 54.89 55.28 53.98 52.76 51.82 51.23 50.32 48.83 46.35 38.86 48.80 49.07 39.35 40.68 35.85 39.77 41.52 41.64 43.85 41.94 41.32 40.56 38.54 38.88 36.54 36.71 35.35 38.90 43.34 42.48 36.65 40.40 36.60 30.35 33.72 40.74 42.34 39.93 36.59 36.01 28.59 26.50 27.29
49.87 50.58 52.18 52.95 55.36 54.36 53.01 52.29 51.63 51.05 50.66 47.75 42.69 41.27 47.47 47.01 33.82 34.68 39.23 40.11 42.05 40.96 41.37 40.66 39.91 41.45 41.75 39.32 35.28 38.10 38.83 43.48 43.79 41.66 38.92 38.52 33.68 28.23 27.57 33.85 37.84 35.64 38.44 39.36 37.22 35.01 27.71
49.27 49.61 50.87 52.40 55.06 53.47 51.99 51.75 51.36 50.94 51.53 48.27 42.28 35.53 41.55 42.71 41.36 37.75 36.95 37.69 38.18 43.29 41.96 41.88 40.98 41.85 39.59 37.95 39.95 36.66 37.65 41.09 43.77 42.69 43.94 41.94 36.18 31.47 28.84 30.42 35.44 31.79 36.00 38.03 35.49 28.08 30.25
48.55 48.72 50.36 50.84 54.62 52.83 51.36 51.02 51.09 51.42 51.43 47.39 43.72 39.21 40.24 33.76 35.80 37.51 39.71 39.70 37.33 37.04 41.70 41.93 39.06 40.07 38.78 36.13 36.80 36.88 39.14 40.08 42.31 42.79 41.15 39.75 31.49 29.02 33.31 36.00 36.17 34.53 34.84 35.60 32.59 34.16 28.25
47.98 48.33 48.95 49.80 54.24 52.41 50.97 50.67 50.87 51.18 50.63 45.00 39.87 39.39 40.50 39.43 39.83 37.21 38.50 37.75 37.47 39.37 39.43 37.90 37.28 40.21 39.57 37.41 37.58 36.06 38.66 38.24 37.71 39.88 39.59 40.57 30.63 30.75 27.31 33.75 33.33 29.96 34.95 35.58 36.03 36.41 35.39
46.78 48.07 48.09 53.43 53.70 51.62 50.61 50.39 50.85 50.69 49.52 43.63 41.30 42.56 40.72 39.43 37.84 36.25 37.25 38.89 39.09 41.20 41.90 42.63 40.59 38.75 37.96 38.40 39.70 40.33 41.66 42.13 41.92 38.85 37.61 37.82 33.73 29.07 26.48 30.43 29.40 25.53 31.59 33.84 35.27 36.85 35.91
46.56 47.73 47.68 48.93 52.91 51.18 50.38 50.10 50.61 49.77 49.88 44.31 41.90 42.61 38.11 33.60 36.69 37.12 39.76 40.55 40.15 40.64 39.26 42.02 42.28 39.15 41.23 44.29 42.05 41.01 39.73 40.39 41.09 39.04 42.12 37.08 35.40 32.02 26.19 25.56 16.02 31.35 36.14 36.48 35.64 37.44 38.17
46.54 47.73 47.50 48.47 49.93 51.04 50.38 49.96 49.41 50.34 50.59 43.17 42.19 41.56 38.29 33.82 36.34 37.05 38.26 39.18 39.39 40.22 40.97 40.89 41.84 41.76 43.81 40.74 36.25 33.86 33.27 33.94 36.23 37.41 36.84 38.75 37.41 30.99 25.96 25.07 29.84 30.98 33.75 33.69 32.26 33.18 38.29
46.53 47.25 48.06 49.02 49.93 50.78 50.19 49.72 48.78 50.63 48.75 42.81 41.55 40.94 38.27 35.53 31.53 37.22 36.30 38.26 35.71 36.75 38.07 39.41 41.92 44.41 42.74 38.79 35.88 29.81 25.90 30.01 29.91 32.49 37.17 37.98 38.47 31.61 28.42 22.33 21.04 31.49 36.74 39.21 37.45 28.50 39.07
46.32 46.13 47.57 51.67 51.45 50.22 49.64 49.28 48.19 50.10 48.65 43.60 40.44 41.76 40.32 32.89 33.18 34.47 33.83 33.90 35.83 36.63 36.43 38.36 38.65 39.94 41.65 36.86 31.59 29.21 28.31 33.70 28.46 28.19 29.58 30.68 30.79 26.99 28.05 26.01 28.72 36.02 37.64 38.98 24.36 30.77 39.19
45.82 46.09 49.38 51.37 50.32 49.59 49.02 48.07 47.85 49.23 46.92 44.36 39.94 42.53 40.04 33.77 33.55 36.84 37.23 33.59 34.01 34.13 34.02 34.05 37.05 37.51 36.98 33.41 33.21 30.87 29.66 30.90 28.80 32.71 30.88 29.43 27.25 27.64 28.60 25.86 21.89 36.93 35.92 30.80 35.27 38.77 38.81
45.46 46.26 47.31 50.11 50.00 49.04 48.23 47.67 47.14 46.57 46.42 45.92 38.25 42.43 42.14 36.07 33.63 37.20 37.15 37.42 36.44 36.70 34.41 36.51 35.74 35.18 36.78 34.84 33.62 33.73 29.86 30.61 29.87 26.14 33.16 28.02 32.46 30.39 31.53 30.07 36.98 37.63 37.77 38.61 38.09 36.54 36.04

GFSGBSN_sfc_wetblb_075.txt.gz
Wetbulb
64.42 64.02 63.52 62.69 60.89 59.33 58.34 57.61 56.98 56.50 56.23 55.80 56.07 55.98 55.86 55.94 55.33 54.84 53.82 54.73 55.12 53.81 53.50 54.11 54.30 54.06 50.02 42.69 41.68 51.54 54.05 55.20 53.91 51.80 48.13 46.73 46.04 46.80 42.99 44.69 47.84 46.95 48.67 50.59 51.69 52.39 51.66
64.77 64.41 63.97 63.81 61.79 59.99 58.80 57.96 57.07 56.28 55.87 55.75 55.84 55.74 55.58 55.28 54.89 54.48 53.83 53.36 54.82 54.75 53.65 53.90 54.34 53.44 46.62 37.09 47.37 50.72 50.34 52.17 51.28 50.06 47.34 47.70 47.05 48.56 46.55 44.96 45.39 47.17 47.87 48.91 51.31 51.36 51.81
64.35 64.39 64.22 64.23 63.16 60.57 59.08 58.14 57.14 56.15 55.64 55.57 55.64 55.66 54.92 54.60 54.37 54.17 53.71 52.94 54.04 54.36 54.50 53.81 54.15 50.21 44.31 41.31 47.69 50.45 50.48 50.83 50.73 50.12 45.76 48.61 48.60 47.38 48.20 44.40 48.09 47.72 44.24 47.75 49.66 49.86 49.54
63.71 64.05 64.09 64.08 64.07 61.14 59.38 58.24 57.19 56.27 55.64 55.28 54.64 54.33 54.18 54.06 53.41 53.03 52.70 52.42 53.14 53.61 53.98 54.38 53.77 47.89 39.91 49.94 47.89 50.15 50.09 49.83 51.22 50.17 48.66 48.59 48.83 47.44 47.49 48.26 46.69 43.13 43.09 37.04 45.30 48.31 49.11
62.35 63.22 63.56 63.71 64.01 61.85 59.92 58.43 57.36 56.51 55.70 55.12 54.85 54.11 54.24 53.29 52.56 52.18 52.06 52.01 53.43 53.61 54.06 53.48 48.65 45.93 39.56 50.47 46.75 48.62 48.96 46.51 48.99 48.81 48.66 49.23 47.53 46.33 46.87 41.99 39.84 40.76 33.72 34.85 39.01 48.61 47.95
59.17 62.05 62.04 62.83 63.27 62.48 60.84 59.16 57.80 56.66 55.78 55.08 54.60 53.91 53.26 52.88 52.03 51.75 51.93 52.97 53.28 52.78 50.64 50.56 49.06 42.11 44.42 42.60 46.06 47.13 47.76 47.33 46.53 45.85 45.07 44.78 44.53 41.84 41.95 40.08 32.46 35.67 34.83 36.76 35.43 43.97 46.65
57.64 58.65 60.41 60.65 62.57 62.66 61.64 59.65 58.11 56.63 55.78 54.66 54.20 53.46 52.67 52.39 51.49 51.35 50.15 46.24 41.49 39.75 42.55 40.04 42.09 42.36 43.63 45.40 47.17 44.65 46.57 46.73 45.74 42.68 37.34 40.56 36.58 35.90 37.57 40.73 40.47 39.32 39.13 36.48 39.73 45.24 43.36
57.12 57.78 57.99 59.13 59.75 61.76 61.76 59.82 58.17 56.43 55.59 54.56 53.91 52.81 51.93 51.90 51.50 51.49 48.78 42.80 42.69 42.97 36.43 45.16 44.86 44.87 46.89 45.54 39.94 43.45 47.91 41.67 40.49 36.44 38.54 37.92 35.27 40.32 43.61 43.16 41.48 39.85 37.15 37.99 42.01 44.32 43.15
54.73 56.36 57.23 57.84 58.96 59.58 61.83 59.94 58.21 56.41 55.29 54.41 53.32 52.39 51.60 50.72 51.36 48.56 45.34 45.07 48.08 46.32 36.62 42.59 45.18 43.79 43.71 45.66 39.90 40.78 44.88 43.01 39.78 37.05 38.17 35.39 37.89 42.75 41.81 41.24 39.08 38.43 36.33 37.13 38.74 43.58 43.74
53.64 54.60 56.08 56.95 57.61 58.42 60.38 59.84 57.81 56.22 54.89 54.13 52.57 51.45 51.22 50.48 46.64 47.00 43.12 47.81 48.01 46.21 31.00 37.15 40.68 43.24 45.98 45.76 39.70 47.60 47.71 44.14 40.63 36.70 39.94 38.68 42.71 41.50 40.04 38.90 40.31 34.82 41.48 41.33 40.13 37.76 32.69
52.84 53.16 55.13 56.02 57.22 57.49 57.21 59.48 57.60 55.76 54.33 53.46 52.14 51.16 50.63 50.53 45.27 43.81 46.12 47.46 46.59 43.01 13.14 38.14 40.48 48.74 46.86 41.16 41.48 42.46 49.82 45.45 39.16 39.94 39.52 36.88 40.50 40.05 38.89 39.79 42.07 38.68 43.14 41.48 40.16 37.88 35.49
52.00 52.26 53.94 55.36 55.98 57.04 56.72 59.16 57.29 55.28 53.96 52.97 51.69 50.70 50.84 48.14 46.85 48.65 47.43 46.45 44.05 26.38 11.60 32.05 41.42 40.18 39.57 41.82 41.59 43.71 44.88 46.39 46.19 40.66 41.42 40.80 44.90 42.41 41.38 42.77 43.01 42.90 39.84 38.70 38.13 35.56 24.23
51.83 51.98 52.61 53.65 55.01 56.20 56.44 57.99 56.49 54.85 53.56 52.32 50.92 50.82 50.25 50.15 44.78 48.22 46.72 42.31 30.19 16.80 34.52 30.93 36.54 39.56 38.21 37.48 39.17 40.92 39.12 37.37 33.86 30.12 32.94 36.85 39.31 42.38 43.03 37.65 41.02 39.01 33.71 25.13 24.31 21.57 23.32
51.19 51.36 51.47 52.43 53.84 55.88 55.69 56.91 55.91 54.58 52.85 51.61 50.34 51.32 50.34 50.34 49.18 47.82 44.49 35.67 19.24 30.89 32.20 39.77 38.55 38.22 32.62 38.08 37.71 38.81 37.26 33.15 38.11 35.07 31.14 30.26 27.65 39.16 41.65 38.19 34.40 34.56 34.01 26.49 20.84 20.98 23.67
50.45 51.24 50.80 51.38 52.83 55.10 55.58 56.49 55.42 53.73 52.35 50.86 51.18 47.03 47.08 48.21 49.33 46.72 41.09 23.42 30.82 30.38 38.75 37.37 38.05 34.28 33.01 36.36 37.37 37.20 35.49 34.68 36.72 37.95 30.78 31.38 31.16 41.11 41.54 41.39 39.25 34.69 27.87 34.58 28.37 26.90 22.42
50.33 50.41 50.30 50.94 52.26 53.13 54.14 56.68 54.57 52.97 51.65 50.72 45.50 45.19 46.38 49.43 48.50 44.37 36.58 30.79 31.29 39.76 41.13 39.11 33.58 35.32 32.20 33.77 32.67 35.13 34.76 37.79 36.90 40.15 39.04 35.77 30.46 38.58 40.19 42.22 40.44 37.19 37.55 27.67 25.09 18.48 20.17
49.48 49.80 50.75 50.43 50.82 52.38 52.92 54.40 53.74 52.39 51.62 51.10 44.89 40.32 46.52 48.99 46.68 41.45 31.59 32.80 38.73 41.45 42.06 37.89 36.13 35.55 33.89 32.49 34.38 33.34 35.23 37.39 40.07 39.31 39.41 38.86 33.02 34.42 38.11 35.99 35.26 35.41 32.55 33.67 31.25 27.54 21.60
49.90 49.58 50.40 50.19 50.40 51.22 52.56 52.60 53.17 51.38 50.76 49.39 43.36 37.42 47.52 47.47 36.89 38.08 32.46 37.09 41.61 39.85 41.60 40.22 38.53 38.22 35.58 35.56 33.05 34.67 33.73 36.93 42.47 40.41 34.57 40.00 32.73 31.18 32.76 38.46 40.74 38.36 36.20 35.32 25.76 24.01 24.64
48.52 48.93 50.30 49.84 49.10 51.03 51.41 53.04 52.48 51.14 51.03 45.83 40.52 40.66 47.00 46.08 29.05 32.86 37.14 38.88 40.30 39.66 39.37 39.20 37.96 39.42 39.75 36.58 33.44 37.72 37.94 41.61 42.27 39.76 35.92 36.72 29.73 27.00 30.09 33.30 35.86 35.26 37.61 38.13 35.20 31.40 23.34
47.86 48.63 49.84 48.95 48.35 50.43 51.08 53.40 52.31 50.79 50.84 47.52 39.67 35.28 40.43 41.98 38.67 35.81 33.58 36.31 36.42 42.02 41.69 39.97 39.94 39.34 37.97 36.20 38.60 34.88 37.25 40.54 42.99 41.84 44.23 41.21 33.44 27.41 22.43 27.31 32.72 30.74 35.00 36.84 33.33 22.03 29.35
48.37 49.06 49.11 48.48 47.57 49.65 49.49 52.39 52.10 51.27 50.84 47.22 40.75 35.36 37.46 32.78 34.07 35.35 36.60 36.85 37.26 35.92 39.87 39.46 36.32 37.54 35.95 32.81 34.19 35.65 38.39 40.05 42.46 43.49 39.45 37.72 29.39 27.17 32.45 34.40 34.93 32.98 33.24 34.55 31.04 33.08 28.86
48.90 48.97 49.14 48.41 47.52 48.72 50.07 52.44 51.62 51.12 50.42 44.42 38.41 37.15 37.16 34.47 35.77 34.04 35.14 35.27 36.51 37.44 37.41 35.81 34.71 37.76 39.57 35.54 34.51 33.90 36.64 38.03 37.15 38.11 36.56 37.97 27.34 30.10 26.78 32.68 31.94 29.75 33.23 33.95 34.20 34.37 34.37
48.71 48.91 48.48 48.23 47.07 47.99 53.06 51.75 51.41 50.77 49.91 41.65 40.37 40.30 38.37 36.95 33.41 32.35 32.77 35.80 37.41 39.01 39.65 39.96 37.91 36.63 36.27 37.35 38.50 37.13 41.01 40.25 40.51 36.85 36.04 35.72 30.40 26.21 22.06 29.38 27.82 24.86 29.70 32.25 33.36 35.05 35.24
48.40 48.38 47.71 47.80 47.16 48.33 51.37 51.31 51.03 50.86 49.13 41.48 39.59 40.28 35.91 32.48 34.04 34.46 36.94 38.62 38.58 38.66 37.10 40.03 40.04 37.45 39.66 41.97 40.33 39.41 38.86 39.09 38.90 37.40 41.34 35.56 33.39 29.01 23.39 24.68 16.51 29.20 33.26 34.35 34.24 35.94 36.73
47.81 47.91 47.79 47.53 47.31 48.07 48.49 51.19 50.87 50.28 50.68 40.70 39.83 39.09 35.35 31.62 34.30 35.19 36.64 37.16 37.70 39.03 38.56 39.18 38.83 39.47 41.52 38.43 33.88 32.05 31.73 32.45 34.08 36.12 36.06 40.55 37.32 32.43 23.08 20.73 26.76 28.66 32.40 31.79 30.30 31.39 36.82
47.31 47.72 47.32 47.20 46.85 47.84 48.81 51.01 50.79 50.27 50.02 41.10 38.97 38.96 36.66 33.42 29.20 31.81 34.49 35.68 33.06 32.92 35.58 37.26 40.44 42.33 40.82 36.51 33.75 25.92 24.19 27.63 28.42 30.49 35.84 37.48 38.38 30.83 26.86 20.66 21.38 29.62 35.00 38.07 36.43 27.84 37.13
47.21 47.30 46.98 46.15 47.17 49.77 51.24 51.09 50.40 49.72 49.81 41.58 38.19 39.87 36.07 30.51 31.47 32.42 31.95 32.68 34.23 33.72 32.86 35.45 36.99 37.64 39.07 33.19 29.62 27.04 24.35 31.97 26.54 26.31 27.58 28.35 30.27 27.86 26.69 22.75 27.18 34.24 35.61 37.79 24.79 27.01 37.22
46.79 46.82 46.93 46.04 49.40 51.44 50.88 50.38 49.11 48.85 49.91 41.59 38.17 40.99 36.71 31.33 31.65 33.71 34.21 31.60 31.95 32.56 31.57 33.05 34.60 35.26 33.65 30.61 29.96 28.23 27.42 29.20 27.66 29.81 29.13 27.63 25.56 25.11 26.18 22.33 20.64 34.37 34.24 29.49 33.41 35.44 35.91
46.52 46.54 46.48 46.04 46.27 49.66 50.01 49.34 48.60 48.37 48.41 43.60 36.75 40.16 40.05 33.45 31.18 35.47 35.88 35.91 34.80 34.41 33.48 33.90 32.18 32.28 35.07 31.30 30.37 30.64 28.23 27.89 26.37 24.55 30.38 26.58 29.87 27.65 28.91 28.54 34.91 36.40 34.95 34.93 35.44 34.34 35.54

GFSGBSN_sfc_wetblb_078.txt.gz
Wetbulb
63.61 63.81 63.96 64.29 64.06 63.86 62.08 60.27 59.04 58.14 57.38 56.86 55.98 56.24 56.09 56.13 55.62 55.31 54.84 54.28 53.80 55.25 54.62 53.78 54.18 54.29 49.52 42.07 41.14 50.36 53.22 53.82 53.48 51.55 47.46 44.45 41.92 44.21 41.42 43.64 45.63 44.03 47.65 49.37 51.03 51.94 51.39
60.29 61.81 63.06 63.54 63.71 63.63 63.58 61.07 59.62 58.45 57.35 56.83 55.84 55.79 55.89 55.29 55.04 54.69 54.53 54.18 53.15 54.12 54.81 54.35 53.75 53.47 45.75 36.90 46.77 49.52 49.17 51.00 51.03 49.79 47.20 47.48 46.61 47.43 45.27 43.97 43.27 47.27 48.24 49.20 50.76 50.82 51.16
58.41 59.35 60.66 62.63 62.84 63.10 63.22 61.95 59.92 58.70 57.44 56.62 56.16 55.10 54.56 54.41 54.51 53.79 53.26 53.33 52.84 53.26 54.24 54.38 54.36 50.51 43.30 40.68 46.77 50.10 50.07 49.55 49.89 49.82 45.26 48.28 47.42 45.36 46.83 43.36 47.68 47.76 44.30 47.10 48.77 49.93 48.86
57.09 57.68 58.42 59.69 61.01 61.42 61.95 62.22 59.93 58.83 57.81 56.84 55.93 54.92 53.95 54.41 53.93 52.96 52.52 52.41 52.06 52.30 53.28 53.88 54.29 47.76 39.46 49.12 46.73 49.87 49.37 48.98 50.25 49.94 48.70 48.50 48.62 46.56 45.97 47.30 45.88 43.54 41.72 39.41 43.82 46.97 48.39
55.39 55.94 56.58 57.58 58.15 59.81 60.54 62.29 60.15 59.07 58.17 56.95 55.73 55.04 53.91 53.73 53.35 52.39 52.14 52.18 52.50 53.16 53.72 53.80 48.41 44.83 39.80 50.47 46.34 48.91 48.85 45.52 48.85 48.28 48.48 49.10 47.63 45.14 44.76 40.17 38.76 40.51 34.08 36.38 39.44 45.11 46.14
54.19 54.46 55.07 56.22 57.80 57.87 59.21 60.06 61.29 59.65 58.45 56.82 55.73 54.76 52.94 52.81 52.61 51.64 51.83 52.66 52.61 52.61 50.50 50.66 48.66 41.98 44.28 42.27 45.68 47.11 48.67 46.44 45.69 45.82 44.66 44.66 43.47 40.81 40.31 36.47 31.60 34.78 33.93 36.44 36.83 42.47 45.08
53.96 53.80 54.38 55.09 55.78 57.62 57.77 59.04 58.97 60.63 58.62 56.72 55.26 54.21 52.46 52.19 52.23 51.49 49.71 45.41 40.48 39.39 41.40 39.46 40.63 41.72 43.76 45.21 46.95 44.99 45.98 45.46 45.71 43.03 36.53 40.99 37.37 32.71 37.41 38.34 40.06 38.72 36.94 36.32 38.84 42.27 41.58
52.34 52.75 53.43 54.60 54.70 55.89 57.19 58.30 58.40 59.97 58.52 56.57 54.99 53.91 52.26 51.33 51.23 51.40 48.13 42.03 41.60 41.86 35.02 43.24 43.22 44.20 46.13 44.75 39.06 42.94 47.34 41.38 40.25 36.29 39.20 37.74 34.44 39.30 41.16 40.20 40.62 40.17 37.28 37.32 39.85 42.34 42.56
52.01 52.22 53.07 53.27 53.53 54.64 55.85 57.42 58.16 58.61 58.27 56.33 54.96 53.48 52.09 50.78 50.96 48.12 44.88 44.82 47.10 45.20 35.67 41.63 44.08 42.92 43.25 44.93 39.20 39.57 44.78 42.48 39.40 36.04 36.81 32.97 37.39 42.08 41.19 37.81 38.59 38.22 36.55 36.74 38.42 41.76 43.40
51.88 52.18 52.48 52.78 53.25 53.27 55.17 56.44 56.93 57.49 57.86 55.79 54.71 52.89 51.44 50.34 46.38 46.44 43.46 47.43 46.85 45.32 24.91 34.73 39.62 42.43 45.47 45.01 39.10 47.05 46.86 44.13 40.04 37.28 38.76 37.39 40.13 39.58 39.53 38.10 39.15 34.84 40.76 39.15 37.87 37.02 33.10
51.44 51.70 52.00 52.30 52.45 52.55 53.09 55.16 56.46 56.45 57.55 55.36 54.06 52.60 51.26 50.16 45.11 43.08 45.79 46.77 46.17 40.98 10.73 35.38 39.34 47.91 46.05 40.45 39.96 42.16 49.20 45.54 40.05 39.21 38.97 36.70 37.04 39.80 38.00 38.84 41.40 37.63 41.64 39.93 38.89 36.86 35.71
51.01 51.29 51.57 51.57 51.92 52.27 52.33 53.10 54.01 56.27 57.09 54.73 53.41 51.93 51.00 48.47 46.42 47.41 46.76 46.20 43.28 23.77 9.99 32.04 40.68 38.94 39.00 40.69 41.01 42.73 44.01 46.08 45.93 40.58 41.54 40.89 44.58 41.90 39.79 41.97 42.32 43.09 40.97 39.90 38.37 35.14 27.73
50.69 50.91 50.43 51.02 51.38 52.11 51.79 52.29 54.43 55.71 56.54 54.19 52.79 51.64 50.22 48.61 43.64 47.88 46.30 41.40 24.29 14.71 32.43 30.31 35.18 38.87 36.75 35.86 37.66 39.03 38.46 37.68 35.13 32.02 32.53 38.07 38.49 41.20 41.78 38.04 41.75 40.89 35.73 28.02 27.14 24.91 24.81
49.59 50.20 50.18 50.27 50.87 51.40 50.76 51.43 52.81 55.29 55.87 53.45 51.84 51.04 50.70 49.47 48.89 46.82 43.76 31.21 16.80 27.41 29.77 38.17 37.56 36.11 31.26 35.74 35.34 36.57 34.81 32.23 37.03 34.94 31.33 28.12 29.71 38.11 40.84 37.82 36.01 36.62 34.10 26.85 22.01 22.61 24.92
49.25 49.66 49.67 49.80 50.48 51.01 51.21 51.11 53.10 53.71 54.85 52.26 51.05 47.04 47.26 48.46 48.50 46.43 36.88 18.55 23.11 29.05 36.52 36.76 37.01 31.68 30.80 35.06 34.73 33.84 32.13 32.85 34.77 35.88 28.80 27.14 28.57 38.90 40.39 40.30 38.38 34.34 29.68 33.61 27.28 25.73 24.43
48.70 48.97 49.25 49.25 49.78 49.77 50.12 49.64 51.96 55.70 52.75 51.40 46.36 45.66 45.81 48.84 47.69 44.16 32.54 28.26 30.34 38.29 38.84 39.19 32.19 34.47 28.69 31.88 30.86 31.38 34.21 35.63 35.78 38.74 38.22 34.04 26.53 36.62 39.14 40.12 39.43 35.87 36.78 28.14 26.06 20.23 20.44
47.99 48.38 48.78 48.62 49.25 48.62 49.42 49.16 50.97 52.99 51.74 51.50 46.21 41.44 46.67 48.40 46.30 41.26 28.87 26.96 36.04 40.24 40.84 36.62 35.89 34.28 33.29 31.69 31.52 30.95 31.44 35.91 38.90 38.33 36.95 35.15 30.52 31.28 36.16 33.91 32.76 33.82 31.88 32.30 29.48 26.61 21.49
47.84 48.03 48.32 49.34 49.34 49.07 49.11 48.63 50.26 51.33 51.31 50.09 44.33 36.27 47.13 48.12 36.82 37.76 32.24 34.76 41.05 38.81 40.40 39.00 38.45 38.69 33.81 33.48 30.87 31.06 33.19 34.50 40.63 38.84 33.44 36.80 32.21 24.25 29.79 36.82 38.68 36.64 33.30 31.89 24.72 23.74 23.41
47.47 47.63 48.36 49.33 49.25 49.16 49.31 48.24 50.23 50.89 50.57 46.55 41.20 40.55 47.10 45.77 31.62 32.81 34.13 37.44 39.80 38.22 38.20 38.15 36.92 39.40 39.87 34.68 31.25 34.65 37.12 40.23 40.55 38.56 34.41 35.62 28.76 21.24 25.30 31.00 34.05 33.00 35.64 35.72 32.36 28.70 21.75
47.50 47.80 48.27 49.22 48.99 49.07 48.66 47.67 49.79 52.08 51.40 48.04 41.17 33.89 40.39 42.14 38.80 32.89 31.81 35.43 36.21 40.48 39.77 39.27 37.88 39.65 38.18 36.95 37.43 34.48 37.01 40.77 42.50 40.59 43.93 40.32 31.29 26.45 21.42 26.35 30.99 29.58 33.54 35.42 31.43 21.02 25.89
47.63 47.90 47.84 48.16 48.77 48.78 47.93 47.39 48.91 51.62 51.81 47.91 41.19 36.39 38.12 33.36 34.57 34.68 33.96 35.74 35.97 35.67 40.49 38.40 35.13 37.09 37.36 32.94 33.18 33.23 38.22 39.99 42.17 43.02 39.14 36.22 27.36 25.54 30.43 32.76 33.17 31.49 31.66 33.54 30.81 32.87 27.13
47.54 47.81 47.68 47.99 48.38 48.41 46.89 47.42 47.82 51.44 51.82 45.02 39.51 36.65 36.80 33.82 35.05 33.93 33.51 33.45 35.69 36.16 36.53 34.37 33.89 36.67 37.32 33.04 34.05 33.21 35.69 38.27 37.30 37.68 35.36 36.26 27.71 27.97 26.45 32.14 31.50 29.74 31.97 32.45 32.91 33.14 33.42
47.38 47.67 47.58 47.70 48.04 47.93 46.85 46.87 48.70 51.45 50.59 43.18 42.79 40.62 38.16 35.36 32.00 31.27 30.81 34.24 38.15 37.96 38.28 38.48 36.86 36.07 35.10 36.40 36.73 37.84 38.65 38.92 38.63 36.10 34.69 34.19 28.53 25.00 20.97 27.33 27.68 25.25 28.87 30.99 32.10 33.54 33.97
47.69 47.23 47.53 48.17 48.01 47.50 47.37 46.80 50.61 51.49 49.65 43.07 41.20 39.85 36.17 31.97 32.54 32.79 35.17 36.90 38.57 37.76 36.39 38.62 38.03 36.42 38.55 40.97 39.82 39.29 40.39 39.39 38.61 35.64 40.02 33.14 30.94 26.77 20.72 23.89 14.58 28.86 31.84 33.19 32.94 34.23 35.13
47.14 47.31 47.62 47.73 47.52 47.76 46.98 47.34 48.43 51.16 50.61 42.44 39.83 38.06 35.62 31.54 33.67 33.75 35.00 36.62 38.91 38.87 38.09 37.47 37.66 38.85 40.89 37.83 35.00 33.34 33.10 33.76 34.31 34.03 35.21 37.37 33.81 31.52 20.64 18.67 25.67 29.33 30.86 30.28 29.45 30.73 35.02
47.14 47.48 47.58 47.64 47.97 46.47 46.57 48.27 48.81 50.80 50.72 46.27 38.91 39.07 36.51 33.89 29.28 30.85 34.17 36.05 33.21 33.37 33.91 36.08 40.51 41.41 39.83 35.40 32.84 26.09 24.89 26.81 26.70 29.14 36.50 37.69 36.52 28.79 27.42 20.42 20.63 27.60 33.09 36.07 34.85 26.07 35.88
47.03 47.31 47.38 47.40 47.08 46.20 48.65 49.87 50.64 50.32 50.39 44.12 38.41 39.96 36.15 30.09 30.36 31.26 32.15 32.79 35.20 33.88 32.03 34.34 35.53 36.57 37.56 31.73 28.99 26.31 23.62 30.19 25.33 25.36 28.82 30.92 32.26 26.87 25.24 21.12 26.00 32.13 34.48 35.29 23.46 25.18 35.06
46.99 47.25 47.24 47.07 46.54 47.41 48.94 51.02 51.05 50.38 49.63 41.27 38.03 40.56 36.63 30.49 30.03 32.23 32.86 31.01 31.93 33.95 31.61 33.61 34.07 34.83 33.03 29.68 28.88 27.56 25.97 28.41 27.11 28.04 27.79 26.82 24.54 24.24 25.48 24.06 22.11 33.87 33.47 28.87 31.37 33.70 34.41
46.80 47.03 47.08 46.74 46.68 47.23 48.12 51.32 50.73 48.75 47.54 43.22 36.65 39.68 39.38 32.73 31.03 35.05 34.70 34.82 34.58 33.64 33.73 32.78 31.14 31.76 33.64 28.88 29.01 29.47 27.56 26.36 26.17 23.71 28.63 26.00 28.70 26.67 27.96 27.55 33.42 33.44 33.62 33.61 35.14 33.46 33.88

GFSGBSN_sfc_wetblb_081.txt.gz
Wetbulb
58.34 58.75 59.31 60.05 60.17 60.11 61.72 62.37 62.35 61.39 60.21 59.21 58.12 56.98 56.52 56.47 56.45 55.56 54.96 55.00 54.60 53.82 54.64 55.06 53.95 53.71 48.70 41.37 40.87 49.51 53.34 52.58 52.72 51.30 47.17 44.55 41.32 40.03 38.81 41.46 43.86 42.35 43.83 46.90 47.42 51.03 51.38
56.49 56.76 57.29 58.01 58.50 58.84 59.06 60.17 61.04 62.17 60.63 59.66 58.21 56.87 56.14 56.02 55.19 54.84 54.22 53.58 54.12 53.43 54.07 54.70 54.58 53.13 44.81 35.58 46.20 48.51 47.96 49.78 50.39 48.75 46.38 45.22 43.32 44.80 42.82 42.03 41.71 44.17 44.73 44.98 45.98 49.10 50.73
54.88 55.33 55.67 56.15 56.66 57.05 57.78 58.61 59.46 60.38 60.96 59.99 58.57 56.79 56.09 55.16 54.92 54.74 53.67 52.87 53.07 52.95 53.47 54.13 54.15 51.08 42.73 39.09 46.39 49.33 50.02 48.91 49.02 48.19 44.89 47.90 46.87 44.56 45.79 41.34 46.09 45.50 41.59 42.66 47.05 48.67 47.51
53.97 54.89 54.75 54.78 55.27 55.80 56.82 58.07 58.48 59.38 61.22 60.27 58.69 57.06 55.87 54.78 54.67 54.01 53.17 52.70 52.11 51.94 52.41 53.31 53.88 48.51 39.77 48.39 46.44 49.08 48.77 47.61 49.42 49.46 47.91 48.83 48.61 45.82 45.46 45.36 44.38 41.94 41.39 35.60 43.27 47.47 47.51
53.59 53.31 53.45 54.35 54.25 54.73 55.34 56.66 57.58 57.42 58.71 59.60 58.93 56.99 55.84 54.76 54.12 53.08 52.24 52.15 52.10 52.17 52.86 53.32 48.13 44.93 39.27 49.79 45.69 48.69 49.12 45.04 45.89 48.19 47.75 48.89 47.12 43.84 44.55 40.05 36.07 39.50 32.45 34.45 40.08 46.08 44.34
52.82 52.79 53.08 53.72 53.98 54.16 54.36 55.16 56.58 57.58 58.04 58.80 59.01 56.68 55.31 54.30 53.32 52.74 51.92 52.59 52.18 51.83 50.50 50.57 48.19 41.71 43.13 41.94 44.78 46.80 48.17 46.79 43.66 45.75 44.04 43.50 42.77 38.68 38.78 36.43 29.68 34.72 32.90 34.40 37.85 43.29 42.83
52.43 52.48 52.72 53.34 53.58 53.68 54.03 54.25 54.96 56.11 57.79 58.16 58.77 56.26 54.96 53.45 52.42 52.20 49.44 45.55 39.86 39.05 40.88 38.78 39.54 40.67 42.79 44.42 46.38 44.67 45.71 44.58 44.64 42.64 36.55 41.02 35.73 32.59 36.84 35.87 36.88 37.52 35.67 34.80 39.62 42.76 40.33
51.77 51.88 52.71 53.16 52.91 53.48 53.87 53.39 53.80 55.28 57.08 57.57 58.25 55.73 54.40 52.58 52.06 51.50 47.78 41.66 40.79 40.72 34.31 41.59 41.88 42.41 45.25 43.98 38.67 42.52 47.12 40.56 39.93 35.80 39.37 37.19 32.79 37.93 40.61 38.60 37.00 38.53 36.58 36.01 39.69 42.20 41.77
51.55 51.52 52.03 52.30 52.47 53.20 52.81 53.00 53.10 53.68 55.31 56.66 57.70 55.28 53.34 52.27 51.22 48.48 44.83 44.12 46.21 44.53 34.79 39.94 42.76 41.97 42.42 43.97 38.99 39.36 43.95 41.88 38.73 35.81 36.82 34.20 37.65 41.37 40.32 37.55 37.03 38.00 35.49 35.90 37.01 40.43 42.22
51.24 51.21 51.33 51.50 51.17 51.65 51.54 52.03 52.51 52.54 53.88 54.56 56.52 54.93 53.15 51.74 46.30 46.75 44.03 47.22 45.91 44.23 23.84 32.86 38.45 41.46 44.35 43.93 38.89 44.93 45.50 42.91 39.51 35.79 37.99 37.41 40.46 40.10 38.34 36.25 37.31 33.95 40.05 39.24 38.44 36.20 33.06
50.43 51.01 50.83 51.08 51.23 50.95 51.28 51.72 51.96 51.85 52.84 52.60 53.91 54.73 52.44 51.33 45.90 43.80 45.43 46.12 45.60 39.35 11.07 33.60 38.35 47.12 45.02 39.73 39.52 42.65 48.82 44.93 39.20 38.33 37.48 35.51 36.95 38.18 35.23 38.59 40.87 36.74 41.06 38.65 37.50 35.29 36.04
49.90 49.98 49.88 49.84 50.24 50.94 51.29 51.18 51.88 51.88 52.38 52.84 55.16 54.02 52.33 49.30 47.15 47.31 46.45 45.64 42.00 24.58 11.71 30.14 39.13 37.84 37.99 39.87 40.23 43.12 44.11 45.93 45.23 40.53 40.98 39.06 43.76 42.32 40.78 42.22 42.27 42.45 39.70 38.49 37.87 35.44 29.20
49.39 49.08 49.64 49.41 49.86 50.54 51.18 51.33 51.93 51.97 51.69 52.83 53.22 53.30 50.74 48.97 43.45 47.72 46.06 40.44 25.53 17.70 31.71 28.98 33.97 37.47 35.69 34.74 36.54 38.08 37.32 36.33 35.57 31.60 32.57 37.99 38.49 41.76 42.29 39.18 41.29 40.77 35.92 28.41 27.51 26.34 26.40
48.92 48.77 48.76 49.17 49.34 49.83 50.66 50.64 50.49 51.59 51.25 50.80 50.72 52.66 50.74 48.97 48.91 46.91 43.45 31.56 21.69 25.98 29.17 36.29 36.41 35.10 30.70 34.57 33.95 35.33 33.87 31.25 36.45 34.85 28.85 28.78 29.49 37.09 41.27 37.17 37.52 36.51 34.59 28.07 22.64 23.20 24.95
48.72 48.56 48.40 48.45 48.77 48.96 49.39 49.73 50.52 50.55 50.35 49.35 53.02 48.78 47.62 49.06 48.18 46.35 35.98 21.43 22.28 27.33 34.28 34.94 35.23 29.67 29.21 33.86 33.42 32.55 31.02 32.90 34.95 33.93 27.78 27.46 28.91 38.35 40.50 40.50 39.42 35.73 31.00 34.45 27.50 26.75 23.23
48.10 48.60 48.59 48.07 48.35 48.39 48.48 49.32 49.32 49.50 50.00 52.69 45.86 45.39 45.75 49.32 48.54 43.91 32.43 28.11 28.15 35.89 37.83 36.64 28.80 31.53 26.56 29.72 28.99 28.94 31.51 34.85 34.95 37.91 35.86 31.77 26.54 35.38 38.35 39.41 40.00 36.16 37.08 28.68 27.75 22.17 21.33
48.03 48.13 48.26 48.29 48.71 48.54 47.93 48.40 48.91 49.32 49.32 51.20 46.34 40.90 47.03 48.82 47.22 40.30 27.15 26.07 33.94 38.90 38.94 35.33 32.99 31.39 30.29 30.26 30.20 28.91 30.20 34.92 37.47 37.42 36.42 33.34 29.80 30.18 34.28 32.89 32.17 33.30 32.03 31.09 29.57 27.39 21.24
47.55 47.67 48.31 48.59 48.58 47.77 47.91 48.14 48.52 49.02 48.41 48.30 43.86 33.51 47.24 47.98 36.64 36.32 29.30 32.49 39.85 37.71 39.86 38.02 37.92 36.22 32.39 32.19 29.81 29.47 30.73 32.65 39.51 37.64 33.04 35.33 30.53 24.13 28.75 35.93 37.19 35.27 32.80 30.74 24.28 23.07 22.40
47.45 47.60 48.21 48.19 48.09 47.68 47.88 47.97 48.37 48.58 48.04 44.93 38.98 38.71 47.30 46.03 31.41 32.22 33.13 34.80 37.55 37.29 37.28 37.50 37.61 38.10 36.31 32.62 28.94 31.71 33.85 39.12 39.71 37.57 33.79 34.52 28.01 18.43 24.45 29.76 33.50 31.82 34.22 33.31 30.64 27.53 21.71
47.15 47.46 47.97 48.06 48.37 48.21 48.06 47.87 48.29 47.92 48.56 46.34 40.04 32.60 40.04 41.65 39.71 32.45 30.71 32.45 35.05 39.52 38.50 38.45 38.15 38.61 37.15 33.33 34.94 31.31 35.14 39.35 40.12 39.23 42.92 38.95 29.62 25.44 20.57 25.17 29.98 29.07 32.32 34.13 30.34 21.35 25.08
46.89 47.55 47.90 47.70 47.86 48.15 48.80 48.06 47.71 47.55 48.42 46.96 40.57 34.59 38.94 32.32 34.63 33.80 32.38 33.89 34.81 34.61 39.87 37.44 34.32 38.14 36.38 31.86 32.36 31.90 37.47 39.02 40.34 41.87 37.61 34.78 26.76 24.80 29.32 31.83 31.80 30.74 31.07 32.63 28.60 29.65 25.63
47.11 47.52 47.57 47.59 47.87 47.89 48.40 47.85 46.94 47.91 48.75 45.38 38.05 36.44 38.54 34.97 37.29 33.23 31.63 32.48 34.93 35.46 35.20 33.23 33.70 37.61 37.94 32.74 33.32 32.07 34.94 37.94 35.47 37.44 37.17 34.58 27.46 27.20 24.90 30.10 29.75 28.62 30.21 31.37 31.81 32.21 31.80
47.18 47.38 47.50 47.86 47.80 47.81 48.22 47.61 48.11 47.10 48.77 43.24 42.88 42.70 38.61 34.94 34.44 32.53 31.41 33.96 36.50 36.84 37.30 37.44 36.04 35.15 35.57 35.44 36.62 37.39 37.71 38.52 38.56 36.28 35.37 32.29 27.76 24.37 20.57 26.54 27.13 24.15 28.18 29.94 31.42 32.43 32.89
47.11 47.16 47.54 47.65 47.83 47.92 47.70 47.53 47.12 47.84 48.75 44.01 41.63 41.32 36.75 31.53 31.98 32.67 33.60 34.63 37.50 36.59 35.51 36.94 37.31 35.62 37.17 38.97 39.12 38.85 39.05 39.72 38.13 35.46 37.32 31.36 28.73 25.34 18.85 23.81 14.41 27.89 30.99 32.26 31.82 32.51 33.26
47.10 47.35 47.50 47.75 47.83 47.76 47.80 46.56 47.38 49.76 49.49 43.17 41.30 38.57 35.31 30.31 32.40 33.11 33.79 35.08 38.98 37.65 36.58 36.12 36.86 38.32 39.69 37.55 34.57 33.61 33.64 34.38 34.85 33.21 35.14 35.30 31.57 27.65 19.77 17.80 24.82 27.65 29.94 29.67 29.60 29.49 33.87
47.11 47.42 47.53 48.00 47.70 47.59 46.97 47.37 49.37 49.31 48.76 43.73 40.02 39.35 35.31 32.65 28.03 30.07 33.47 36.56 35.34 34.30 32.89 35.69 39.64 41.21 38.70 34.78 33.41 26.92 24.98 26.62 26.47 31.58 37.14 36.18 34.70 27.57 28.62 19.89 20.24 27.10 31.93 34.35 33.14 25.14 34.26
47.19 47.32 47.36 47.53 47.61 47.84 46.98 47.69 49.61 50.92 48.99 43.89 39.02 40.18 35.98 29.25 28.58 29.94 32.28 35.13 36.71 34.31 31.40 33.85 34.38 36.86 37.58 30.58 28.35 26.01 22.53 28.78 24.72 25.42 29.15 32.07 32.51 29.54 25.03 21.44 25.32 31.13 33.75 33.60 22.94 25.16 34.72
47.04 47.08 47.60 47.42 47.74 47.32 46.90 48.00 50.08 51.26 48.64 43.33 38.28 39.60 36.17 29.53 29.19 31.80 32.24 30.94 33.63 33.94 32.04 33.87 35.13 35.66 33.29 30.67 28.97 26.78 25.13 27.24 25.53 26.69 26.58 27.90 28.44 27.01 28.31 26.76 20.88 33.08 32.94 27.99 30.49 32.99 34.34
46.86 47.35 47.57 47.38 47.07 46.43 47.48 48.76 51.27 51.24 48.05 43.68 35.91 39.48 38.99 32.20 30.66 34.03 34.13 34.64 33.53 33.26 34.33 32.03 31.22 31.48 33.27 28.30 28.54 28.42 27.01 25.22 25.35 22.91 26.69 26.03 28.74 26.38 27.76 27.07 32.39 32.49 32.55 33.16 33.72 32.69 32.81

GFSGBSN_sfc_wetblb_084.txt.gz
Wetbulb
55.22 55.77 56.14 56.13 56.46 57.15 57.66 57.90 58.55 58.91 60.16 62.36 61.26 59.99 59.15 57.35 56.96 56.67 55.66 55.58 55.00 55.24 54.21 54.19 55.16 53.78 47.77 40.30 39.51 48.60 54.04 52.01 52.02 50.74 46.62 44.71 42.06 40.53 37.16 38.11 40.42 38.28 42.08 44.69 47.41 48.10 49.10
54.59 54.27 54.60 54.82 55.29 55.42 56.06 56.54 56.76 57.71 58.84 62.28 61.55 60.05 58.82 56.84 56.60 55.61 55.34 54.99 54.40 54.02 53.98 54.01 54.77 53.29 44.60 37.01 45.05 47.81 48.83 48.04 49.47 47.32 45.28 45.68 43.25 43.51 39.48 38.98 38.70 42.44 42.63 44.51 46.79 47.44 47.64
53.99 54.04 54.23 54.13 53.97 54.71 54.89 54.70 55.89 56.66 57.27 58.74 58.94 60.44 58.39 57.05 55.87 55.53 55.38 54.67 54.08 53.26 53.43 53.46 53.88 51.17 43.96 40.85 45.90 47.51 48.61 48.21 48.59 46.87 44.08 46.21 47.22 41.20 42.99 38.57 42.14 42.08 39.53 43.01 44.68 44.97 44.58
53.31 53.55 53.88 53.92 54.25 54.42 53.88 54.05 53.89 55.68 56.58 58.16 58.23 59.48 58.56 56.61 55.47 55.43 54.51 53.80 52.93 52.79 52.22 52.47 53.30 49.05 39.14 47.73 46.23 47.54 49.02 47.11 48.71 48.74 46.87 47.24 48.47 43.97 43.23 45.31 42.90 38.71 40.20 35.08 41.86 44.30 44.52
53.02 53.08 53.29 53.79 54.37 54.42 54.19 54.48 53.66 53.58 54.55 56.54 57.73 58.66 58.46 56.15 55.26 54.72 53.57 53.32 52.64 52.80 52.54 53.06 48.63 44.02 37.79 49.23 44.98 48.00 47.88 44.46 45.19 47.06 47.87 48.12 46.61 41.98 42.93 39.05 35.56 37.65 33.07 34.58 37.22 45.18 43.21
52.34 52.63 53.02 53.45 53.91 53.88 54.24 53.96 53.85 53.75 54.03 54.46 56.54 57.17 57.39 55.86 54.50 53.63 52.87 52.72 52.73 52.26 50.45 50.49 48.05 41.05 42.27 41.04 43.99 46.32 47.19 46.48 43.19 43.81 43.60 43.27 42.04 36.14 35.46 37.06 29.08 33.59 32.92 34.67 35.28 42.10 42.01
52.12 52.46 52.09 52.79 52.86 52.49 53.12 53.11 52.85 53.40 53.17 53.46 55.35 55.43 56.79 55.07 53.36 52.20 49.82 46.21 40.94 40.24 41.58 37.81 38.63 39.19 41.97 43.88 45.85 43.96 45.05 43.77 43.63 42.37 36.45 40.60 36.15 32.52 33.04 38.46 37.41 35.93 34.81 34.34 37.98 42.69 41.07
51.61 51.72 51.87 52.15 52.23 52.38 52.03 52.41 52.34 52.75 52.81 52.86 54.00 54.23 55.80 54.12 52.28 51.42 48.37 42.37 41.28 40.72 33.92 40.90 41.44 41.70 44.12 43.69 38.01 41.80 46.66 40.50 39.59 35.58 38.81 36.58 31.96 38.55 39.73 39.11 37.48 37.63 34.62 33.83 37.88 42.02 40.14
51.04 51.09 51.26 51.27 51.31 51.40 51.26 51.08 52.07 52.07 52.62 52.01 52.59 53.98 54.82 53.16 51.79 48.95 45.31 44.48 46.53 44.20 34.67 38.97 41.63 40.80 41.58 43.07 38.99 40.88 44.05 41.51 38.47 35.89 36.30 33.12 36.27 41.09 39.55 37.39 36.36 37.92 35.05 35.25 35.63 38.93 41.46
50.24 50.47 50.87 50.24 50.68 50.66 50.48 50.57 50.86 51.01 51.23 51.86 51.56 52.94 54.20 52.44 46.01 46.86 44.09 47.76 46.73 43.70 24.55 32.29 37.49 40.56 43.48 43.03 38.88 45.06 45.18 42.23 40.12 35.57 37.12 36.97 40.62 38.98 37.54 36.46 36.82 34.94 39.77 38.85 37.52 35.55 31.98
50.13 49.70 49.96 49.69 49.75 49.94 50.30 50.25 50.35 50.25 50.67 51.52 51.93 52.57 53.12 50.84 46.65 44.43 45.99 46.83 45.67 39.43 13.32 32.38 37.59 46.16 44.32 38.78 39.26 43.03 47.85 44.30 38.78 37.79 36.54 35.58 38.22 36.82 36.28 36.75 38.91 37.09 40.25 37.95 37.75 35.15 35.14
50.22 50.14 49.71 49.45 49.28 49.17 49.52 49.59 49.74 49.98 51.04 50.98 51.13 50.54 52.59 49.50 47.43 47.61 46.93 46.34 41.65 26.67 15.65 29.84 38.03 36.96 37.13 39.03 39.49 43.27 44.13 46.11 44.72 39.78 38.66 38.13 43.33 41.64 39.47 42.13 41.74 42.05 38.04 37.66 37.45 34.94 28.55
50.01 49.97 49.57 49.31 48.96 48.91 48.94 48.93 49.12 49.87 50.34 49.72 49.64 50.84 49.28 49.66 43.15 48.65 46.55 41.35 24.56 20.52 30.76 28.44 33.09 36.54 34.72 33.71 35.59 38.58 37.81 37.31 35.61 31.79 32.28 34.02 38.10 41.54 42.34 38.82 41.76 39.70 34.60 28.49 26.71 26.26 26.22
49.47 49.20 48.85 48.74 48.84 48.76 49.00 48.82 48.58 48.64 48.86 49.90 49.98 50.91 49.93 48.73 49.28 47.05 43.33 32.84 19.24 26.86 28.28 34.85 35.49 34.33 30.24 33.63 32.77 34.48 34.29 32.16 37.20 33.22 28.87 28.72 29.66 37.49 41.35 38.75 37.16 35.50 34.26 28.08 22.07 23.18 25.52
49.02 48.48 48.53 48.25 48.90 49.18 49.05 48.55 48.53 49.91 49.72 48.55 48.75 49.37 48.11 48.61 48.84 47.06 37.95 26.62 23.17 27.83 33.32 33.53 33.79 28.74 28.83 32.82 31.97 30.88 29.34 31.56 33.73 33.07 27.38 26.19 31.89 39.08 40.49 40.80 39.69 36.26 29.25 32.73 26.99 25.97 22.31
48.74 48.40 48.44 48.02 48.77 48.85 48.84 48.42 48.44 49.19 49.46 48.62 42.57 44.76 44.27 49.96 48.77 44.28 34.59 29.13 29.23 33.59 36.35 34.79 27.84 29.81 26.03 28.52 28.08 28.09 29.80 33.75 34.28 36.94 34.24 30.28 28.86 36.15 38.66 41.46 40.54 36.90 37.37 29.37 28.34 21.82 20.66
48.42 48.31 48.27 48.02 48.32 48.38 48.61 48.47 48.40 48.72 48.84 48.68 42.79 40.08 46.70 49.10 47.81 38.78 30.53 29.64 33.24 37.20 37.77 33.66 31.07 29.69 27.74 28.81 29.18 27.50 28.99 34.08 36.82 35.64 35.23 31.86 29.37 29.85 34.23 33.65 33.55 32.50 30.27 30.66 29.89 26.95 22.10
47.67 47.81 47.68 47.87 47.95 48.27 48.42 48.22 48.46 48.65 48.66 45.85 40.63 32.77 47.12 48.29 35.36 36.46 32.70 33.09 38.25 36.46 38.36 36.45 36.47 34.52 30.51 31.03 28.28 27.92 29.35 31.67 38.21 36.89 31.93 33.42 29.05 26.68 28.45 34.80 36.58 35.89 32.02 30.10 24.70 23.09 20.66
47.45 47.40 47.59 47.72 47.99 48.02 48.07 47.95 48.32 48.66 48.33 43.19 36.78 37.31 47.24 46.05 31.45 33.62 34.90 34.92 35.94 36.20 36.16 35.81 35.59 36.56 34.71 31.55 28.10 30.75 33.02 38.57 38.41 36.16 33.08 33.00 26.98 18.81 24.22 29.13 32.78 32.38 34.02 31.38 28.82 26.83 21.92
47.14 47.08 47.54 47.63 48.33 48.00 47.85 48.00 48.09 48.46 48.02 44.57 37.41 32.57 39.53 40.99 39.77 34.89 32.95 32.25 32.42 38.10 37.12 37.41 37.11 37.49 34.39 31.39 33.36 30.04 33.33 38.43 39.19 38.70 42.20 37.58 28.34 25.12 20.11 25.08 29.59 28.74 31.07 31.55 28.74 19.49 23.76
46.89 47.05 47.48 47.63 47.92 47.95 47.93 47.97 48.08 48.17 47.90 43.78 38.21 34.71 38.43 31.53 34.62 34.54 33.74 32.12 33.58 34.00 37.83 36.49 36.24 37.60 35.25 30.07 30.56 30.45 35.09 36.23 38.92 40.90 36.81 33.60 26.16 24.41 28.84 30.76 30.76 30.67 31.01 30.87 26.80 28.00 24.76
46.59 46.89 47.48 47.86 47.60 47.96 47.85 47.78 48.11 47.95 47.38 41.15 36.47 36.31 38.23 34.59 37.14 33.44 33.25 30.18 32.72 36.33 36.87 32.30 34.85 38.02 36.44 32.22 32.45 31.27 34.25 34.09 32.51 35.96 32.97 33.11 26.50 26.77 24.88 29.21 29.13 28.38 29.90 30.60 31.05 31.09 29.50
46.36 46.98 47.57 47.70 47.89 47.87 47.98 47.99 47.76 47.48 46.73 41.53 43.03 42.85 38.85 35.23 34.75 33.31 31.05 31.35 34.76 37.93 38.06 36.63 35.89 34.78 35.78 36.41 36.15 35.91 36.30 37.25 36.82 34.35 32.52 31.00 27.36 24.20 20.43 25.93 26.77 24.14 27.68 29.23 30.52 30.60 31.89
46.34 47.25 47.64 47.85 47.80 47.88 47.95 47.75 47.98 47.16 47.59 44.62 42.31 41.83 37.08 32.40 33.52 33.51 33.26 33.38 36.14 37.55 36.00 35.56 36.45 35.79 35.71 38.63 38.62 38.65 37.74 37.77 36.57 34.44 37.35 31.93 27.86 24.67 18.32 22.80 13.66 27.39 30.06 30.85 31.01 32.07 33.27
46.90 47.24 47.47 47.69 47.80 47.60 47.83 47.70 47.30 48.01 49.95 43.29 41.82 40.48 37.23 30.59 32.95 33.45 32.50 32.89 36.39 37.38 36.31 35.33 36.65 37.01 39.70 38.61 35.03 33.83 34.22 34.74 34.28 33.65 35.16 36.31 31.29 27.13 19.18 16.91 23.85 26.52 28.79 28.89 28.69 28.67 33.64
46.87 47.12 47.50 47.58 47.92 47.86 47.85 47.93 47.54 49.00 48.20 42.33 40.19 40.26 36.17 32.03 29.40 28.70 31.49 35.87 34.70 32.25 33.62 36.09 39.38 41.41 38.60 35.94 33.34 28.26 25.06 26.00 25.21 30.10 37.48 34.40 35.17 29.18 27.99 19.13 19.16 25.95 30.49 33.56 32.12 24.14 33.08
46.89 47.07 47.48 47.49 47.78 48.19 47.84 47.40 48.33 49.38 48.23 42.77 39.42 40.37 36.04 28.34 28.09 28.31 32.01 34.61 36.51 33.86 31.12 33.81 37.25 38.16 37.16 30.44 30.61 25.79 22.19 26.52 24.38 25.13 27.06 31.22 32.38 29.49 28.54 21.97 24.97 30.42 32.26 32.55 22.85 24.61 33.74
46.46 47.00 47.52 47.61 48.10 47.48 47.20 48.26 49.13 49.99 47.14 42.85 37.10 39.35 35.58 28.60 29.19 31.25 32.22 32.62 35.62 34.72 31.73 33.99 36.21 36.59 33.98 30.55 29.82 27.65 24.83 26.18 23.96 24.78 25.86 26.28 24.41 27.40 29.19 26.30 18.65 32.13 31.96 27.81 30.20 31.77 33.75
46.52 46.60 47.54 48.37 48.29 47.23 47.92 49.68 49.97 49.74 47.39 44.00 36.23 39.33 37.98 31.70 30.21 33.44 34.59 35.50 33.44 32.63 34.01 31.50 31.14 31.33 33.19 28.36 28.03 27.91 26.70 24.33 23.79 22.12 25.78 25.20 27.77 25.49 26.95 26.37 31.45 31.01 30.77 31.98 33.45 32.81 31.81

GFSGBSN_sfc_wetblb_087.txt.gz
Wetbulb
54.56 54.70 54.76 54.73 54.65 55.03 55.10 55.20 55.18 55.77 57.56 58.07 59.39 60.97 61.55 60.44 58.35 57.18 56.93 55.85 55.64 55.10 54.50 54.82 54.42 54.64 48.25 40.70 39.83 48.12 53.03 51.15 52.20 50.61 46.82 44.61 41.94 40.80 36.93 38.26 39.37 37.44 38.36 40.28 43.32 45.82 46.30
54.22 54.27 54.24 54.46 54.52 54.94 55.22 54.99 55.04 54.52 55.63 57.17 57.88 59.08 58.43 59.85 57.98 56.66 55.77 55.73 55.54 54.53 54.19 54.16 53.96 53.21 45.35 37.84 46.26 47.44 48.51 48.48 49.22 47.70 45.55 45.33 43.00 43.41 39.90 38.80 38.36 40.18 39.29 38.26 38.69 44.31 46.99
53.90 53.83 53.48 54.23 54.46 54.64 54.60 54.81 54.73 54.28 54.51 55.07 56.44 56.86 57.86 58.79 58.11 56.56 55.40 55.53 54.77 53.77 53.48 53.45 53.11 51.15 44.47 41.24 46.57 47.46 47.25 48.02 49.14 47.30 43.94 45.84 46.23 41.63 40.37 37.74 42.21 40.89 36.84 37.17 37.38 44.64 44.78
53.15 53.16 53.04 53.69 53.94 53.73 53.62 54.23 53.70 53.85 53.91 54.55 54.19 55.34 56.86 57.45 57.84 55.85 55.02 54.72 53.39 52.34 52.39 52.47 53.40 49.57 41.20 47.96 47.14 46.53 49.31 47.04 49.28 48.77 46.99 47.28 46.90 43.49 39.53 40.46 40.46 37.22 35.16 31.67 41.14 44.03 44.32
52.88 53.20 53.32 53.43 53.53 53.55 53.32 53.07 53.07 53.05 53.76 53.45 54.04 53.99 55.05 55.88 56.78 55.45 54.25 53.72 53.07 52.44 52.46 52.64 49.31 45.42 38.51 49.32 45.17 47.73 48.55 44.71 45.66 46.01 47.64 48.29 46.08 41.11 41.18 36.50 34.58 34.73 29.21 33.80 37.04 44.35 43.20
52.21 52.73 52.44 52.63 52.56 52.56 53.10 52.63 52.25 52.79 53.08 53.38 52.76 52.98 54.47 56.55 56.22 54.28 52.76 52.56 52.06 51.77 50.73 50.86 48.33 40.32 41.91 40.80 44.54 45.94 47.11 46.33 43.63 43.36 43.04 42.91 41.79 37.92 36.87 34.39 28.61 31.08 31.88 35.30 35.64 41.48 42.32
51.63 51.76 51.99 51.92 51.67 51.90 51.73 51.93 51.86 52.57 52.17 52.30 52.19 52.32 53.40 56.87 54.73 52.97 49.95 46.84 43.05 42.00 43.94 39.81 39.96 39.16 41.75 44.35 46.16 44.12 45.55 43.40 42.99 41.65 36.05 40.36 35.59 32.62 34.44 36.45 37.32 36.16 35.06 34.46 38.70 42.96 40.31
51.36 51.30 50.72 50.92 51.01 50.67 50.98 50.92 50.78 51.17 51.35 51.23 50.76 52.29 52.56 54.65 53.26 52.04 48.71 42.97 42.45 41.15 35.21 42.40 42.17 41.80 43.32 43.96 37.99 42.41 46.12 40.28 39.88 35.13 38.31 36.36 33.08 37.03 38.20 38.46 38.48 37.22 35.05 35.37 39.66 42.20 39.36
51.51 51.48 51.26 50.76 50.59 50.43 50.01 50.34 50.22 50.33 50.21 49.91 50.44 51.51 52.07 53.02 52.26 49.78 46.26 44.50 46.83 44.55 35.18 38.75 40.77 39.95 41.33 42.95 38.97 41.38 43.91 41.38 37.84 35.78 35.48 34.26 35.75 40.88 37.73 36.22 36.76 35.90 34.73 34.52 34.99 38.99 40.71
51.08 51.14 50.85 51.11 50.70 50.46 50.14 49.69 49.60 49.87 49.81 49.32 49.75 49.73 50.79 51.22 45.77 46.84 44.21 47.99 47.39 44.64 26.70 33.65 38.01 40.52 43.02 42.93 39.00 45.32 45.83 42.36 39.17 35.84 36.42 36.79 40.51 38.47 37.50 36.56 37.77 33.64 39.58 37.90 36.80 35.44 30.63
50.71 50.68 50.50 50.63 50.23 49.57 49.27 49.17 49.47 49.22 50.20 50.34 49.20 49.49 50.16 50.74 46.33 44.41 46.29 46.89 45.67 40.18 20.15 34.56 37.97 45.71 43.65 38.54 38.94 42.94 46.85 42.85 37.41 37.19 37.89 35.75 38.19 36.67 35.48 36.67 37.22 36.93 41.08 38.94 37.61 35.21 35.48
51.12 50.73 50.14 49.40 49.40 49.27 49.60 49.74 49.60 49.32 49.67 49.96 49.73 48.85 49.60 47.48 47.60 47.77 47.29 46.56 42.68 28.15 20.04 32.11 38.22 37.09 37.44 38.96 39.08 43.45 43.85 45.29 44.69 39.79 38.58 38.69 43.07 41.19 39.44 40.77 41.11 42.04 39.02 38.22 37.21 35.26 28.31
50.80 50.50 49.88 49.47 49.20 48.55 49.12 49.37 49.26 49.06 49.26 49.00 48.59 48.56 47.25 47.97 43.71 49.33 46.76 41.65 28.93 23.39 32.83 30.95 33.35 36.11 34.71 33.92 35.89 38.36 37.84 37.84 34.76 30.94 32.23 34.29 37.13 41.83 42.37 38.68 41.40 39.70 35.13 27.02 24.46 24.99 26.28
50.43 49.44 49.56 49.23 48.93 48.95 48.81 48.99 49.08 49.17 48.79 48.71 48.53 48.37 45.68 46.32 49.30 47.89 44.04 34.69 22.62 28.27 29.82 35.61 35.24 34.18 30.80 33.27 33.05 34.57 35.20 33.95 37.47 33.86 31.52 29.76 30.16 37.09 41.22 38.59 36.75 35.71 34.07 27.82 22.08 23.27 27.05
50.07 49.10 48.56 48.78 48.70 48.64 48.60 48.81 49.13 48.80 48.62 48.47 48.11 44.14 42.42 48.04 48.97 47.22 38.60 27.21 26.28 30.01 34.33 33.82 32.99 28.87 29.21 32.60 32.27 31.66 32.47 32.96 33.57 34.41 30.00 28.39 32.07 39.51 40.25 40.89 39.81 36.17 31.55 34.60 27.32 27.41 26.28
49.66 48.65 48.34 48.20 48.45 48.21 48.59 48.85 48.95 48.70 48.84 48.46 43.14 40.90 42.15 48.89 48.44 44.11 34.49 29.75 31.17 34.51 36.81 35.01 27.59 29.00 26.17 29.51 29.25 29.45 31.58 34.24 34.53 36.71 35.09 32.02 30.17 36.38 38.73 41.09 40.86 37.42 37.17 29.14 28.38 22.22 20.22
49.28 48.15 48.08 48.08 48.14 48.16 48.44 48.73 48.79 48.66 48.74 48.59 40.99 35.28 45.93 48.71 47.34 38.14 30.32 28.18 33.48 37.79 37.95 33.04 29.62 28.11 27.47 28.47 28.83 28.27 29.30 34.13 36.93 35.72 35.15 32.26 30.76 32.39 35.79 34.78 34.00 33.69 32.18 31.04 30.77 26.89 23.71
48.67 47.81 47.92 47.93 47.78 48.21 48.45 48.51 48.69 48.72 48.87 44.79 39.98 31.66 45.30 48.09 33.70 35.25 32.88 32.49 38.40 37.33 38.72 35.70 35.02 32.93 29.06 30.34 27.75 27.85 29.35 32.02 38.44 36.79 32.20 33.97 29.85 27.87 30.61 35.42 36.35 35.81 33.06 30.34 28.00 25.55 22.82
47.75 47.38 47.59 47.57 47.70 48.13 48.26 48.34 48.48 48.76 48.70 42.56 35.85 36.23 45.88 45.29 31.13 32.27 35.52 34.77 36.42 36.90 36.20 35.10 34.68 35.40 33.64 30.75 27.83 30.70 33.16 38.49 38.60 36.49 32.93 33.40 27.69 21.20 24.76 29.77 33.26 32.78 33.81 31.14 29.50 28.70 23.44
46.96 47.06 47.43 47.40 47.77 48.16 48.29 48.20 48.25 48.54 48.66 43.39 37.03 31.21 37.58 40.39 38.79 35.21 33.79 33.47 33.03 39.03 37.05 36.68 35.79 35.75 33.02 31.04 32.26 30.35 33.24 38.21 39.05 38.69 41.27 36.89 28.26 25.75 20.80 26.00 30.68 30.70 32.90 32.28 29.68 23.41 26.11
46.63 46.81 47.20 47.60 48.00 48.18 48.16 48.19 48.40 48.52 48.21 42.78 37.35 34.16 37.84 32.33 33.92 35.39 35.16 34.28 32.69 33.71 37.55 35.74 34.35 35.00 32.98 29.37 30.08 30.50 34.87 35.78 38.32 39.81 36.32 33.39 26.66 25.44 28.51 29.89 31.77 31.58 31.98 32.12 28.53 28.86 26.53
46.28 46.69 47.10 47.94 48.19 48.13 48.13 48.08 48.32 48.08 47.66 40.73 35.22 35.66 37.85 35.44 37.16 34.57 34.23 32.93 32.89 35.65 36.52 31.76 33.55 35.79 34.26 31.52 32.26 30.74 33.95 33.36 32.34 35.45 33.51 32.83 26.99 27.47 25.58 29.26 29.06 29.24 30.86 31.26 32.50 31.68 31.28
46.10 46.77 47.34 48.03 48.01 47.96 47.91 47.93 48.02 47.97 46.76 40.19 42.57 42.60 39.34 34.44 34.23 33.83 33.57 32.47 34.33 36.97 37.99 35.87 36.60 34.41 34.40 35.10 35.43 35.33 35.75 36.26 36.15 34.14 32.21 30.78 27.87 24.86 21.63 25.95 26.83 24.90 28.04 30.70 31.68 32.38 32.38
46.14 46.75 47.67 47.80 47.93 47.96 47.96 48.11 47.90 48.04 47.07 44.01 43.01 41.87 37.19 32.21 34.83 34.69 33.75 33.89 34.35 37.41 35.73 36.42 37.36 35.65 34.80 38.06 38.48 38.02 36.51 35.84 35.73 34.47 35.86 30.49 27.47 25.12 20.12 23.19 15.30 28.09 30.62 31.49 31.37 32.57 33.71
46.48 47.12 47.51 47.65 47.89 48.03 48.28 48.31 48.25 47.53 48.25 44.21 42.79 41.02 38.38 32.35 34.12 31.92 33.35 31.72 37.44 37.13 35.19 36.17 37.36 36.51 38.49 37.32 33.53 30.93 30.94 31.94 33.52 35.85 35.65 36.32 31.69 25.87 20.59 18.29 24.32 27.44 29.94 29.64 29.21 29.17 33.48
46.74 47.48 47.21 47.49 47.85 48.66 48.76 47.83 47.69 48.78 48.23 40.66 40.90 41.07 37.34 32.07 28.89 29.51 32.60 33.07 35.04 35.12 32.27 36.51 39.34 39.66 38.98 34.91 31.43 26.08 23.26 25.61 25.19 31.23 37.62 35.48 34.86 28.81 26.41 19.61 19.64 26.38 30.93 32.96 32.39 25.52 34.02
47.13 47.15 47.17 47.58 48.18 48.94 47.79 48.43 48.98 49.09 46.62 42.72 39.47 39.82 34.35 28.10 26.95 27.54 32.43 34.05 35.99 34.99 32.29 33.47 35.84 37.06 36.41 31.82 29.70 25.73 22.28 25.87 24.18 24.98 29.65 31.54 32.48 28.14 28.45 24.40 25.30 30.42 32.34 33.07 23.99 26.00 34.67
47.22 47.10 47.20 47.58 48.29 47.96 47.76 48.98 49.93 49.37 46.64 41.83 37.57 37.85 34.01 28.31 28.03 29.87 32.03 31.88 34.14 33.47 31.89 33.73 36.61 36.91 34.42 32.03 29.79 26.52 24.13 25.72 23.88 24.85 26.34 26.58 24.23 24.32 27.92 22.18 18.49 32.53 32.19 28.80 31.18 33.35 34.80
47.02 47.12 47.09 48.43 48.92 48.58 48.84 50.77 50.17 49.67 47.31 43.44 36.13 38.19 36.86 31.51 29.88 32.77 35.30 34.20 32.15 32.62 34.13 31.95 32.19 31.73 34.77 28.10 27.87 27.77 26.46 24.16 23.24 21.90 25.70 24.97 27.32 25.40 27.01 26.50 31.23 32.06 31.89 32.86 33.98 34.39 33.76

GFSGBSN_sfc_wetblb_090.txt.gz
Wetbulb
54.36 54.44 54.55 54.65 55.18 55.61 55.23 55.61 55.48 55.16 55.30 55.31 55.66 56.46 57.55 58.75 58.03 60.02 58.00 57.12 55.52 56.06 54.92 54.39 54.07 54.52 49.27 43.41 43.63 50.80 52.37 52.14 52.81 50.69 46.56 44.16 42.50 41.93 36.55 39.77 40.11 38.07 41.00 42.51 42.88 42.47 43.53
54.53 54.01 54.12 53.85 54.49 54.42 54.14 54.41 54.53 54.19 54.49 54.98 54.82 54.67 55.61 57.02 57.16 58.92 57.36 55.87 55.45 55.26 54.06 53.63 53.22 54.27 46.35 39.63 50.67 51.15 50.62 50.22 49.77 49.12 46.70 45.93 42.91 44.47 40.56 38.67 38.40 41.25 41.54 41.46 42.22 41.97 42.99
53.72 53.92 54.12 53.69 54.05 54.18 54.17 53.89 53.40 53.60 54.14 54.57 54.34 54.10 54.09 55.08 55.60 57.53 57.39 55.59 55.21 54.13 52.95 53.12 52.97 52.27 45.75 43.64 50.90 50.22 49.42 48.76 49.99 49.10 45.43 47.34 46.73 43.64 41.74 37.69 41.36 41.16 37.93 40.27 40.53 40.69 40.08
53.03 52.92 53.32 53.14 53.46 53.08 53.07 53.15 52.96 52.81 53.50 53.72 54.29 53.41 53.37 53.48 54.64 56.92 56.73 55.57 54.39 52.98 52.53 52.88 52.88 50.56 41.30 50.86 52.26 49.32 50.56 49.09 50.15 50.73 48.98 49.16 48.62 44.65 42.06 41.41 39.34 38.10 38.02 33.18 38.61 37.55 38.27
52.95 52.42 52.57 52.75 52.97 52.69 52.50 52.61 52.41 52.18 52.69 52.81 52.57 51.91 52.70 52.91 53.90 57.00 55.45 54.54 53.19 52.92 52.88 52.77 50.15 46.46 40.38 50.61 46.88 49.81 50.35 46.50 48.07 48.80 49.06 48.74 46.67 42.41 41.06 34.32 34.08 35.80 31.10 32.65 33.55 41.90 40.78
53.45 53.12 52.41 51.76 51.49 52.12 51.56 51.85 51.76 51.70 51.77 51.82 51.34 51.53 52.32 53.06 55.22 55.77 54.30 52.52 51.98 52.18 52.38 52.30 48.77 41.80 44.40 41.94 47.09 47.68 49.19 47.87 45.16 45.02 44.10 43.50 42.27 38.04 37.18 34.89 29.63 31.92 31.49 32.81 33.38 41.70 42.92
52.92 52.76 52.56 52.38 52.24 51.50 51.19 50.83 50.50 50.79 50.70 50.81 50.42 50.75 50.75 52.17 54.51 54.36 51.00 48.73 44.67 43.35 46.39 42.26 42.60 41.96 42.51 46.57 47.99 45.61 47.51 45.49 44.54 42.15 36.44 41.44 36.41 32.35 37.09 37.47 38.50 35.40 34.73 35.52 39.44 43.39 41.45
52.75 52.66 51.92 51.89 51.80 51.82 51.49 51.02 50.58 50.09 49.99 50.03 49.86 49.59 50.33 51.08 52.16 52.11 49.44 43.42 44.16 44.53 38.54 44.87 44.06 43.95 45.26 46.88 41.03 43.10 47.68 41.68 40.96 36.37 38.98 37.16 33.25 39.11 38.32 37.94 37.27 35.64 36.12 36.38 39.93 42.90 41.17
52.34 52.48 51.86 51.48 51.40 51.09 50.65 50.28 50.27 50.38 50.14 49.41 49.13 49.04 49.76 50.36 51.03 50.32 46.59 44.82 48.55 47.34 38.57 39.68 42.95 41.60 42.66 44.99 41.27 42.18 44.54 42.36 38.30 36.23 37.54 34.75 37.57 40.40 38.78 36.53 37.03 37.49 36.60 37.19 36.69 39.91 41.53
52.22 52.06 52.17 51.60 51.06 50.36 49.83 49.73 49.94 50.19 50.15 49.83 48.92 48.73 49.52 49.50 47.76 48.28 44.51 49.08 50.05 47.77 34.29 35.76 38.66 42.11 44.40 44.78 40.41 46.26 46.50 42.91 39.22 36.80 37.85 37.52 41.03 38.30 38.39 36.75 37.94 33.93 40.80 39.76 37.90 37.49 33.54
51.84 51.79 51.69 50.71 50.57 50.16 49.81 49.44 49.61 49.75 49.59 49.45 49.01 48.81 49.30 48.92 45.52 44.08 46.65 49.08 48.33 44.83 24.94 37.56 39.15 47.75 45.31 41.44 42.34 42.80 47.00 43.41 38.38 38.26 38.52 36.17 37.94 37.48 36.56 37.45 39.76 37.73 41.62 39.89 39.53 37.69 37.86
51.98 51.52 51.21 50.13 49.74 49.68 49.63 49.40 49.31 49.53 49.40 49.28 48.85 48.78 48.92 47.39 46.28 47.79 48.38 47.72 45.03 31.65 23.62 33.76 39.86 38.98 39.48 41.34 41.11 43.84 43.70 44.95 44.05 40.19 38.87 38.57 43.34 41.32 38.72 40.10 39.67 43.69 41.31 40.26 39.18 38.10 32.02
51.82 51.46 50.68 49.86 48.83 49.38 49.13 48.93 49.15 49.37 49.27 48.99 48.76 48.37 47.64 47.46 41.86 49.79 47.73 43.04 31.40 27.17 34.43 32.77 34.59 38.49 38.31 37.47 38.75 40.65 39.60 39.00 35.81 32.77 32.97 35.29 37.06 41.69 42.70 38.58 42.09 41.54 37.58 31.46 30.62 31.36 28.37
52.01 51.07 50.27 49.36 48.87 48.90 48.78 48.89 49.16 49.36 49.09 48.92 48.72 48.12 46.59 46.43 48.13 48.81 44.81 34.69 27.10 31.04 31.38 37.63 37.17 37.47 34.94 37.36 37.07 37.90 36.95 34.48 35.84 33.67 33.99 33.48 31.25 37.40 41.80 39.11 37.66 37.95 36.76 31.88 24.74 27.70 29.63
51.56 50.36 49.92 48.52 48.61 48.80 48.66 48.89 49.22 49.04 48.85 48.83 49.41 46.19 43.78 44.80 47.51 47.63 37.92 30.60 31.80 31.76 35.79 35.55 36.00 33.56 33.44 36.29 36.68 36.49 36.79 35.94 38.20 39.45 33.64 33.48 32.30 39.41 41.68 42.54 41.67 37.78 34.76 37.85 32.38 34.05 32.14
50.56 49.73 49.23 48.13 48.39 48.58 48.68 49.02 49.09 48.99 48.85 49.13 44.31 41.64 39.74 46.46 47.49 43.21 34.48 32.15 33.15 36.82 38.22 37.62 31.28 33.99 31.64 34.18 34.54 35.22 36.04 38.45 38.22 39.93 40.75 37.15 31.86 37.74 40.73 42.67 42.47 39.53 40.41 33.27 35.03 27.27 25.40
49.43 49.39 48.18 47.86 48.29 48.10 48.62 48.98 49.10 48.97 49.01 48.93 42.21 35.84 42.77 49.58 47.48 37.83 32.25 34.37 35.04 39.07 39.59 35.47 33.22 32.78 33.53 33.53 34.72 34.08 34.88 38.56 40.94 40.01 40.46 38.68 37.67 34.48 38.96 37.73 36.36 38.03 36.57 35.77 35.89 32.99 30.35
49.35 49.41 47.40 47.88 47.87 48.32 48.74 48.92 49.01 49.01 48.96 45.85 39.66 32.07 43.58 47.82 34.43 34.98 34.45 35.51 39.09 37.23 40.13 38.28 38.56 35.94 35.06 35.22 34.11 34.52 34.93 37.90 42.17 40.92 37.14 38.70 37.78 32.82 34.28 39.22 39.49 38.93 37.21 35.78 33.84 29.55 30.65
49.18 47.62 47.20 47.60 47.92 48.25 48.54 48.64 48.81 49.02 48.60 43.55 36.45 34.71 44.97 45.46 32.61 34.46 36.52 36.09 37.17 36.84 38.04 38.26 38.39 38.87 37.89 35.24 32.93 36.11 37.72 41.65 42.27 40.85 38.21 39.18 34.83 31.47 32.58 36.33 38.33 37.07 37.23 36.55 35.56 36.26 28.91
48.50 46.80 47.10 47.55 48.02 48.41 48.45 48.59 48.67 48.84 48.42 44.56 38.02 32.48 37.32 38.68 39.35 36.05 34.99 34.15 34.13 39.01 37.99 40.11 39.07 39.43 37.28 36.08 37.92 35.78 37.58 40.95 42.34 41.75 40.85 40.66 34.76 32.06 30.62 31.46 35.29 34.27 36.42 37.63 36.36 35.19 33.38
47.04 46.54 47.18 47.82 48.19 48.32 48.37 48.39 48.46 48.66 48.56 44.53 37.88 34.75 37.03 33.76 35.78 36.61 36.61 34.47 33.98 33.75 39.99 40.13 38.56 38.62 37.10 34.21 35.59 35.79 38.78 39.60 41.60 41.36 40.66 40.29 32.60 32.59 33.53 34.09 35.39 35.04 35.68 36.64 34.84 34.37 33.45
46.34 46.69 47.47 47.92 48.10 48.24 48.35 48.38 48.55 48.42 47.92 42.40 35.91 36.27 38.57 36.44 37.06 36.30 35.21 33.85 34.45 35.05 37.95 37.19 37.74 38.77 39.11 36.61 37.21 35.39 38.40 38.69 37.86 40.95 39.05 39.04 33.58 33.40 31.71 34.12 34.14 33.28 35.41 36.33 36.44 35.11 36.13
46.15 46.94 47.56 48.05 48.00 48.32 48.54 48.64 48.72 48.27 47.11 40.93 42.10 42.72 39.76 34.85 34.81 34.71 34.71 34.74 35.50 37.88 39.45 39.37 40.31 39.88 38.66 38.95 40.97 42.82 42.62 42.27 41.58 39.60 37.50 37.26 35.86 33.76 29.90 32.16 32.37 31.49 33.03 35.08 36.11 37.08 37.43
46.22 47.18 47.93 47.49 47.88 48.31 48.74 48.95 48.65 48.46 47.16 44.65 43.18 41.89 37.63 32.78 33.82 34.09 34.46 36.58 35.71 38.98 37.44 39.24 40.98 40.66 39.84 44.27 44.97 44.39 43.28 42.26 41.98 40.24 40.78 36.29 34.64 33.90 31.12 32.29 27.37 32.94 36.28 36.48 35.69 37.40 39.19
46.41 47.42 47.50 47.63 47.96 48.58 48.98 48.46 48.26 48.94 49.10 47.15 44.54 42.02 39.41 33.95 35.63 34.99 35.04 35.62 38.03 40.21 38.29 38.91 40.36 40.78 43.87 42.20 39.15 35.95 36.19 36.26 37.02 38.47 39.10 40.49 36.89 31.85 31.06 29.75 31.38 32.99 34.39 34.57 34.44 34.89 38.30
46.58 47.59 47.55 47.69 47.89 48.72 48.73 48.28 48.89 49.33 48.57 46.15 44.90 42.34 39.47 36.38 32.87 31.49 34.17 36.50 36.68 36.24 38.57 39.15 42.41 43.99 42.81 40.46 37.35 30.82 29.36 31.62 30.94 34.35 39.32 37.57 38.47 35.42 31.40 26.60 24.87 33.20 36.39 38.28 37.96 32.73 38.57
46.73 47.57 47.43 47.53 48.09 48.71 48.79 48.99 49.98 49.17 47.89 45.64 40.43 41.20 39.13 35.01 33.74 32.69 36.27 36.43 38.17 37.85 37.00 38.98 39.96 40.08 43.60 38.82 34.44 32.21 30.94 32.64 30.07 30.33 32.03 34.19 34.08 31.58 31.48 29.54 32.15 37.36 38.40 38.83 30.07 33.02 40.04
46.55 47.44 47.45 47.50 48.24 48.47 49.07 51.05 50.70 49.22 46.25 43.59 39.39 41.59 40.49 35.24 33.79 34.06 34.58 35.60 38.61 38.07 37.96 39.68 39.60 40.50 39.48 35.84 35.23 33.50 33.13 33.36 32.67 33.17 33.23 33.05 31.58 31.17 32.06 28.64 25.63 38.41 37.31 34.07 37.60 38.66 40.80
46.48 47.48 47.57 47.72 48.81 49.21 51.18 50.51 50.17 48.72 45.94 43.42 39.72 41.23 40.72 37.83 35.17 37.14 37.32 37.47 36.16 35.88 37.88 38.37 38.52 38.80 40.88 38.18 35.71 35.44 33.01 32.86 32.32 30.17 34.00 31.58 35.07 33.90 34.20 34.15 37.14 39.22 39.08 39.39 39.69 40.51 40.55

GFSGBSN_sfc_wetblb_093.txt.gz
Wetbulb
54.63 54.54 54.67 54.32 54.74 54.82 54.56 54.71 54.18 53.87 54.28 54.99 55.06 55.31 54.60 54.68 55.23 56.49 56.99 59.41 58.22 56.43 55.78 54.73 54.11 55.14 51.58 45.61 46.43 52.37 53.08 53.12 54.11 52.06 47.13 45.21 42.88 42.23 38.52 39.83 40.69 38.52 40.56 42.45 43.43 44.32 44.35
54.03 53.74 53.94 53.96 53.96 53.91 53.31 53.51 53.73 53.35 53.58 54.57 54.24 54.31 53.64 54.10 54.45 54.73 55.35 58.53 57.39 56.27 55.43 54.09 54.13 54.94 48.77 39.69 52.44 52.95 51.37 50.88 50.30 49.61 47.30 46.75 43.82 44.18 40.07 38.44 38.77 41.36 41.48 41.29 42.79 43.07 44.24
54.08 53.63 53.17 53.21 52.95 53.11 53.25 53.03 52.68 52.83 52.64 53.41 53.62 52.97 52.84 52.67 53.97 54.31 54.85 56.59 55.87 55.48 53.94 53.86 53.81 52.63 45.95 44.39 52.38 52.73 51.15 49.48 50.31 49.42 45.70 47.27 47.12 42.82 42.69 38.81 42.76 40.91 36.33 39.25 41.39 42.66 41.40
54.04 53.98 53.46 53.03 52.59 52.21 52.47 52.19 52.05 52.13 52.37 52.49 52.60 52.00 51.93 51.95 52.37 53.89 54.56 56.93 55.99 54.74 52.98 53.32 53.47 50.34 43.29 52.14 54.32 51.62 51.64 49.91 51.07 50.73 49.16 49.45 48.76 44.83 42.26 42.93 39.77 36.66 37.34 32.46 40.01 42.06 42.27
53.50 53.59 53.42 53.34 53.20 52.81 52.61 52.09 51.76 51.36 51.54 51.49 51.70 51.58 50.99 51.51 52.07 54.14 56.21 56.40 54.66 53.46 52.58 53.13 50.35 48.01 42.10 51.84 47.85 51.03 51.56 47.38 47.83 49.07 49.46 49.45 47.03 42.31 42.05 36.13 33.35 34.94 30.82 33.91 35.52 41.16 39.89
53.75 53.76 53.58 52.87 52.84 52.74 52.43 52.17 51.57 51.12 50.96 50.76 50.85 50.68 50.39 50.55 51.72 54.67 54.88 53.93 52.93 52.53 52.36 51.96 49.62 43.06 45.57 43.68 48.53 49.61 50.42 48.56 45.30 44.44 43.03 43.39 40.94 37.95 37.60 34.27 27.61 32.37 31.80 34.70 34.30 39.87 40.56
53.59 53.49 53.14 52.95 52.34 52.30 52.04 51.56 51.43 50.74 50.80 50.67 50.59 50.04 49.52 49.79 50.71 52.11 51.18 50.21 44.73 43.70 46.81 43.78 43.38 42.95 44.84 48.51 49.74 46.86 48.83 46.73 45.74 42.79 35.89 40.87 36.34 33.60 36.86 37.24 37.24 36.46 35.35 34.92 37.75 42.14 40.35
53.18 53.02 52.91 52.85 52.62 51.96 51.56 50.97 50.53 50.41 50.35 50.65 50.44 50.03 49.44 49.51 50.17 50.67 49.42 43.43 44.86 44.04 40.00 46.11 45.97 45.80 47.05 48.06 42.39 45.13 48.83 42.63 40.76 36.35 39.92 37.33 34.29 39.17 40.47 38.86 37.21 36.88 35.18 35.64 38.67 42.27 40.61
53.41 53.34 52.66 52.53 52.00 51.38 50.97 50.62 50.52 50.18 50.10 50.24 50.01 49.86 49.29 49.51 50.05 49.55 46.79 45.30 49.07 48.42 37.95 42.05 44.97 44.02 44.42 45.92 42.20 42.93 45.70 42.93 39.52 35.76 36.91 34.80 38.39 41.39 38.03 37.20 35.57 36.62 35.35 36.20 36.87 40.60 42.41
53.98 53.34 52.83 52.12 51.56 50.66 49.95 50.15 50.05 49.92 49.75 49.69 49.78 49.64 49.18 49.49 46.54 46.08 44.01 49.36 49.80 49.79 34.47 37.00 39.12 42.37 44.68 45.83 40.86 47.85 48.00 43.74 39.67 35.57 38.54 38.19 42.04 39.34 37.57 36.43 38.44 34.37 40.77 39.32 38.89 36.96 33.20
54.70 53.97 52.89 51.76 50.92 50.20 49.49 49.57 49.55 49.54 49.38 49.30 49.28 49.25 48.98 48.70 45.05 42.30 46.63 48.97 50.07 45.61 24.85 38.66 39.09 48.49 46.13 42.34 43.58 43.12 47.90 44.48 37.76 38.59 39.40 36.63 38.83 37.76 36.70 37.95 40.79 37.71 41.91 39.65 38.84 37.65 35.02
56.26 55.05 52.30 50.48 50.26 49.38 49.35 49.36 49.29 49.31 49.30 49.13 49.07 48.72 48.40 46.74 46.34 46.28 49.14 48.01 44.87 32.00 25.22 34.44 40.03 39.32 39.55 41.95 42.31 43.69 43.07 44.54 44.19 39.09 39.91 39.56 42.66 39.93 39.07 41.06 41.50 43.22 40.19 39.17 39.33 37.31 31.19
56.13 55.68 50.69 49.31 49.36 48.74 49.07 49.09 49.13 49.40 49.28 49.05 48.89 48.79 46.29 46.60 40.97 49.36 48.32 42.82 31.09 27.24 37.11 32.58 34.97 38.52 39.26 38.48 39.81 41.35 39.59 37.81 36.17 33.00 32.68 36.12 36.07 39.26 41.51 37.25 42.65 41.33 37.73 30.59 30.12 30.42 29.22
55.22 51.71 49.38 48.69 48.12 48.80 48.82 48.88 49.33 49.44 49.30 49.09 49.04 49.00 48.55 47.28 48.31 48.29 44.94 33.80 27.33 33.04 33.64 38.57 38.13 38.57 35.57 39.42 38.96 39.74 37.79 34.88 36.86 34.92 34.54 33.66 31.36 37.26 41.25 39.73 38.23 38.11 36.41 31.30 26.21 28.08 30.01
51.14 49.88 47.88 48.11 48.69 48.95 48.68 49.13 49.34 49.33 49.09 49.07 49.00 46.69 44.58 45.97 47.65 47.14 37.06 28.91 32.18 33.89 36.85 36.35 37.21 34.90 35.26 37.79 37.86 37.70 36.85 37.40 39.18 37.92 34.46 34.63 32.81 40.31 41.98 43.26 41.96 38.15 35.43 39.36 34.43 36.75 32.19
49.76 49.01 48.22 48.41 48.86 48.77 49.11 49.39 49.43 49.27 49.20 49.18 44.76 41.79 39.34 45.29 46.98 44.22 34.06 33.34 34.23 39.04 39.50 38.79 32.44 36.52 33.46 35.81 35.81 36.26 37.11 40.49 39.65 41.23 42.29 38.74 33.27 38.81 41.57 43.88 43.91 40.21 41.48 34.65 36.01 28.05 26.11
50.36 49.64 47.98 47.94 48.52 48.71 49.16 49.45 49.32 49.39 49.42 48.87 44.12 36.51 43.57 46.92 47.24 38.64 31.67 34.27 36.93 40.75 41.19 36.99 35.05 34.76 36.60 35.44 37.19 36.52 37.08 40.24 42.43 41.61 42.53 40.65 38.69 36.12 40.17 38.50 36.72 39.19 37.32 37.69 37.12 34.27 30.89
50.15 48.36 47.60 48.11 48.26 48.77 49.03 49.12 49.32 49.47 49.28 47.12 41.16 32.87 44.27 48.42 35.82 36.38 36.28 37.20 39.36 38.68 41.84 39.30 39.93 38.21 37.16 37.34 36.44 37.13 37.09 40.02 43.90 43.02 38.68 41.17 39.11 34.34 35.98 41.19 41.75 40.23 37.56 38.04 33.63 31.52 34.56
49.25 47.74 47.56 48.05 48.44 48.74 48.84 49.03 49.15 49.52 49.38 45.48 37.22 35.26 45.84 45.55 34.28 34.92 37.43 36.93 38.23 37.51 38.99 39.39 39.19 40.28 40.02 37.21 34.72 38.48 39.56 43.16 44.28 42.37 39.70 40.88 37.12 32.85 33.66 37.71 40.74 38.65 39.90 39.76 38.38 38.92 31.82
48.06 47.19 47.80 48.12 48.67 48.76 48.85 49.05 49.22 49.37 49.36 45.83 40.11 33.84 38.63 41.45 41.89 37.57 35.17 34.07 35.24 40.32 39.18 41.28 40.54 40.91 38.93 37.49 40.10 37.65 39.02 42.09 43.96 43.32 42.28 43.21 37.69 34.52 30.86 32.59 36.79 35.45 37.85 39.31 38.39 35.55 33.94
47.22 47.17 47.87 48.43 48.61 48.72 48.99 49.22 49.33 49.19 48.79 46.22 40.55 34.86 37.92 35.29 36.42 38.34 37.77 35.13 34.10 35.08 40.91 42.36 40.13 39.58 38.25 35.34 37.07 37.49 40.02 41.17 43.09 43.31 42.89 42.42 34.23 34.68 36.23 36.71 37.46 36.66 36.71 37.92 35.71 37.62 33.89
46.77 47.35 48.16 48.58 48.13 48.73 49.09 49.27 49.49 48.89 48.56 43.13 37.57 37.01 39.31 36.44 37.18 35.91 36.29 34.47 35.02 36.76 39.25 38.15 38.82 40.17 40.68 37.68 38.79 36.41 39.41 40.02 39.26 42.56 41.24 42.24 35.20 35.79 34.17 36.82 36.69 34.78 37.45 38.24 38.06 38.34 38.19
46.53 47.29 48.16 48.20 48.37 48.73 49.41 49.75 48.78 48.80 48.33 43.17 43.10 43.06 40.69 36.07 35.14 35.55 35.92 36.04 36.41 39.48 41.00 41.54 41.55 40.91 39.85 40.15 43.89 44.33 44.83 44.09 43.09 41.16 39.55 39.36 37.03 35.32 31.52 35.21 34.81 32.91 34.47 36.87 37.69 39.45 39.28
46.50 47.40 48.26 48.19 48.34 48.46 49.34 49.28 48.76 48.76 47.63 46.92 44.93 42.96 39.19 32.97 34.52 34.66 35.57 37.12 37.65 39.92 39.12 41.89 43.06 41.40 42.10 47.21 47.24 46.23 44.97 43.77 43.22 42.16 43.12 38.27 37.14 36.61 33.20 33.52 28.18 35.10 38.59 37.87 37.17 39.00 40.82
46.45 47.53 48.31 48.06 48.22 48.53 49.03 49.20 49.03 49.32 49.51 46.97 46.79 43.92 39.88 34.27 36.86 36.12 36.09 37.15 39.30 41.75 40.74 40.67 41.85 44.56 46.18 44.63 40.25 36.60 37.39 37.55 38.56 40.76 40.81 42.22 39.01 34.28 32.76 31.94 33.44 34.44 36.53 36.72 35.99 36.03 40.24
46.27 47.47 48.07 48.18 48.16 49.29 49.48 49.26 49.61 49.61 48.86 48.96 48.03 46.35 43.07 36.96 35.09 34.66 37.38 39.14 36.76 39.26 40.46 40.80 43.77 46.48 45.42 42.63 39.00 32.06 30.88 32.96 32.43 35.28 41.16 40.58 40.62 36.61 33.33 28.48 26.41 34.75 38.10 40.14 39.75 33.78 40.47
46.15 47.09 48.13 48.31 48.47 49.48 49.87 50.32 50.99 49.92 48.55 49.01 45.05 43.93 40.91 39.03 37.93 36.31 37.05 37.91 40.62 39.89 37.84 41.06 41.01 42.30 46.22 40.53 35.77 33.67 32.57 35.49 31.63 31.53 32.83 35.04 35.48 32.90 33.23 31.25 34.17 38.58 39.76 40.73 31.56 33.63 41.54
45.94 47.10 47.91 48.27 48.65 49.71 51.66 51.52 50.28 49.54 47.22 47.32 42.77 44.90 42.85 39.85 37.74 37.23 37.91 39.72 41.26 42.05 38.47 41.70 41.28 42.16 42.31 37.69 36.66 35.78 34.69 35.96 34.37 35.83 34.47 33.87 32.73 32.74 33.56 30.17 27.56 40.44 39.05 35.24 38.85 41.20 42.72
45.76 47.12 47.78 48.06 48.25 49.76 50.87 50.17 48.67 46.96 45.73 46.39 42.90 43.97 44.83 41.35 38.00 39.79 39.59 39.79 38.34 38.50 40.66 42.66 40.71 42.02 43.59 40.74 39.16 38.59 35.27 36.32 34.93 31.81 37.52 32.98 37.14 35.03 35.66 35.40 39.56 41.94 41.07 41.71 42.48 42.49 42.82

GFSGBSN_sfc_wetblb_096.txt.gz
Wetbulb
55.26 54.66 54.32 54.30 54.37 53.93 54.17 53.94 53.57 53.41 53.62 53.68 54.16 54.24 53.93 53.75 53.83 54.23 54.63 55.56 56.35 59.50 57.13 56.47 54.97 55.59 51.76 44.84 44.98 53.99 57.00 56.04 55.27 52.23 47.87 44.76 42.25 41.29 37.05 38.89 39.88 37.00 38.98 41.13 42.07 42.07 42.07
55.09 55.28 54.83 54.57 53.95 53.50 53.10 53.31 52.91 52.42 52.65 53.05 53.31 53.23 53.07 52.58 52.68 52.81 53.22 54.94 55.47 57.06 56.61 55.77 55.02 55.56 48.16 39.08 52.33 53.25 51.63 51.03 50.48 49.85 47.13 45.93 43.19 44.21 39.45 38.00 36.69 39.62 39.25 39.59 40.99 41.06 42.21
54.83 54.71 54.64 54.42 54.05 53.93 53.54 53.31 53.03 52.61 52.42 52.50 52.42 52.14 52.23 52.22 51.74 52.15 52.86 53.81 54.57 56.98 57.17 55.27 55.02 52.69 46.20 43.81 52.44 52.39 51.02 49.54 50.44 49.08 45.64 47.49 46.45 42.77 41.93 37.57 41.34 39.57 35.16 37.75 38.74 40.18 39.53
54.90 54.71 54.70 54.53 54.19 53.24 53.56 52.94 52.71 52.41 52.17 52.08 51.68 51.54 51.53 51.08 50.99 51.54 52.87 56.38 55.34 57.15 54.90 54.79 54.73 50.68 42.09 52.74 53.27 50.76 50.87 48.93 50.60 50.34 48.31 48.90 48.48 43.98 40.84 41.83 38.99 35.42 35.58 29.69 37.18 39.59 41.02
54.85 54.86 54.36 53.98 54.15 53.58 53.05 52.97 52.40 51.90 51.63 51.49 51.43 51.51 51.60 50.83 50.32 51.01 51.77 55.96 56.14 54.64 53.97 53.95 49.74 47.11 41.58 52.51 47.74 51.03 51.01 47.29 48.26 48.60 48.96 48.64 46.67 41.43 40.72 35.12 32.85 34.41 27.19 30.22 33.90 41.03 40.39
55.15 54.67 54.12 53.82 53.73 53.67 53.28 52.60 51.97 51.54 51.24 50.75 50.99 51.07 51.26 50.98 50.01 50.51 51.07 54.01 53.72 52.75 51.91 51.59 49.40 43.01 45.24 43.59 48.07 49.71 50.89 48.80 45.34 44.75 43.06 42.43 40.44 35.58 36.46 33.65 24.93 29.30 30.46 32.58 32.80 39.02 38.82
55.59 55.12 54.56 54.13 53.47 53.07 52.49 51.63 51.47 51.24 50.92 50.60 50.57 50.64 50.90 50.88 50.07 50.11 49.34 47.53 43.94 42.88 47.03 42.86 42.65 43.00 44.97 48.16 50.31 47.06 48.54 46.44 45.28 41.53 34.60 39.10 33.44 30.02 32.70 35.47 34.51 33.68 32.91 31.82 36.20 41.18 38.40
56.33 55.90 55.40 54.63 53.82 52.85 51.89 51.05 50.73 50.50 50.52 50.38 50.20 50.25 50.47 50.63 50.02 49.92 48.97 41.54 42.75 44.61 38.95 45.52 46.39 45.14 47.59 48.02 42.24 44.91 48.70 41.53 40.06 34.34 38.26 36.17 32.85 36.31 38.78 39.18 37.27 35.79 33.55 31.70 37.28 40.48 39.17
56.40 56.31 57.06 56.55 53.11 50.83 50.29 50.30 50.05 50.16 50.13 49.92 49.85 49.95 50.09 49.96 49.83 48.61 45.04 44.35 49.62 47.98 37.98 42.41 45.10 43.77 44.51 45.78 41.56 42.25 44.96 42.97 38.92 36.17 36.37 33.60 36.57 40.85 38.75 36.87 35.47 35.63 32.94 33.49 34.59 39.07 40.36
56.71 56.28 56.46 52.04 49.01 48.82 49.51 49.63 49.75 49.73 49.49 49.49 49.56 49.88 49.63 49.39 45.21 43.74 42.80 47.59 50.36 48.89 33.71 35.28 39.56 42.60 45.12 44.54 39.90 47.30 47.02 43.61 39.21 34.88 36.35 35.48 39.79 38.73 37.99 35.67 36.94 32.87 40.03 38.55 36.12 35.83 31.26
56.45 52.98 50.98 49.75 48.35 49.47 48.97 49.55 49.64 49.50 49.36 49.31 49.24 49.40 49.14 48.43 43.80 41.10 43.93 48.40 49.83 45.04 23.64 37.28 38.65 47.76 45.29 41.28 42.57 42.86 48.56 43.94 37.40 37.66 38.68 35.98 38.21 37.73 36.12 37.28 40.36 36.45 41.51 38.37 37.70 35.92 32.83
53.01 51.09 49.73 48.05 48.19 48.20 49.35 49.38 49.33 49.39 49.35 49.11 49.19 49.18 48.24 44.80 45.09 45.48 49.07 48.13 44.86 31.02 23.58 34.69 39.35 38.79 38.31 40.91 42.19 43.01 42.86 44.53 43.83 39.17 39.21 38.14 42.98 39.53 38.28 39.81 39.97 41.62 39.25 38.55 37.87 35.69 29.45
51.21 50.44 48.44 48.08 48.60 49.30 48.98 49.09 49.43 49.48 49.36 49.22 49.21 49.07 47.79 46.65 40.38 48.23 47.38 42.88 29.99 24.67 36.50 32.53 34.67 38.35 37.47 36.79 38.90 40.12 38.67 37.39 35.02 31.24 32.16 35.73 35.65 37.43 39.92 37.28 40.61 39.74 36.70 29.17 27.71 27.65 27.50
50.90 49.76 48.85 49.36 49.38 49.35 49.48 49.56 49.75 49.73 49.56 49.33 48.98 48.52 47.16 46.89 48.22 47.83 43.88 34.24 24.83 33.31 32.97 38.82 37.48 37.53 35.32 38.43 38.42 38.87 38.03 35.55 37.48 35.67 32.73 32.31 29.99 36.58 41.40 39.82 37.59 36.76 35.25 29.86 23.51 26.83 28.42
51.29 50.11 48.74 48.82 49.22 49.61 49.86 49.90 49.89 49.85 49.52 49.49 48.81 45.46 44.12 45.91 48.16 47.55 37.60 27.85 28.26 33.32 36.90 35.94 37.00 33.95 34.12 37.84 37.68 37.75 36.30 34.74 38.49 37.15 33.47 33.87 32.65 40.70 41.54 42.80 41.48 37.63 33.65 37.89 31.34 34.53 29.48
50.92 49.08 48.39 48.89 49.35 49.72 49.86 50.00 50.03 49.90 50.36 49.74 45.04 40.94 40.71 46.78 48.03 44.01 34.22 31.59 34.55 39.59 39.71 38.79 32.40 35.78 32.27 34.76 35.26 35.61 36.32 40.16 38.79 40.87 41.17 37.76 33.15 39.00 41.28 43.58 43.09 39.54 40.98 32.06 32.01 26.46 24.58
50.16 48.50 48.59 48.98 49.32 49.43 49.73 50.06 50.16 50.28 50.72 50.06 43.83 37.02 43.11 47.84 46.83 39.41 31.33 33.74 37.17 40.77 41.02 36.64 35.38 35.24 36.43 34.85 36.78 36.16 36.39 39.49 41.54 41.03 40.69 38.93 37.33 34.96 39.60 37.34 35.18 36.79 33.54 35.02 33.71 31.25 25.86
49.47 48.11 48.61 48.94 49.39 49.43 49.65 49.96 50.21 50.24 50.27 48.05 40.99 31.84 44.30 48.13 35.79 36.18 35.00 37.00 39.62 38.46 42.09 40.15 39.84 38.31 36.52 37.41 35.59 36.31 35.90 38.21 42.81 42.42 37.17 39.26 37.38 32.05 34.21 39.99 40.37 38.45 35.82 35.07 27.08 27.00 29.21
48.91 48.01 48.64 49.03 49.15 49.91 49.87 49.95 50.14 50.15 49.61 45.61 37.27 37.88 46.81 45.03 33.86 34.30 37.69 36.69 38.24 37.80 38.57 39.31 38.60 39.68 39.69 36.51 33.83 38.07 38.42 42.77 43.22 40.83 37.18 38.39 33.14 26.95 28.44 34.53 38.07 35.51 37.19 37.47 36.20 34.97 27.47
48.19 47.95 48.64 49.17 49.26 49.99 50.37 50.32 50.13 49.81 49.87 46.31 39.14 33.62 39.84 42.92 42.00 37.26 35.31 33.49 34.95 40.44 39.26 41.35 40.24 40.45 38.30 36.88 39.20 36.49 38.00 41.73 43.01 41.64 42.81 41.46 34.42 29.97 24.77 27.55 33.79 30.98 35.03 36.68 34.51 27.09 28.69
47.69 48.06 48.58 48.98 48.75 49.26 49.97 50.22 49.55 49.64 49.70 46.41 40.95 35.59 38.20 33.53 35.58 36.92 36.63 35.34 34.55 34.25 40.83 42.17 39.44 39.22 37.86 33.88 36.49 36.06 38.98 39.83 42.04 43.70 40.16 39.11 29.85 29.27 33.29 34.91 35.38 34.10 34.57 35.21 32.18 33.36 27.93
47.28 47.99 48.69 48.93 48.90 49.12 49.84 50.20 49.40 49.42 49.88 43.42 38.10 37.67 39.56 36.97 37.34 36.62 36.31 34.36 34.91 37.04 38.84 38.43 37.83 40.13 39.76 36.28 36.99 35.11 37.92 37.85 36.62 39.76 37.50 39.50 29.33 30.43 27.34 34.84 34.59 31.69 34.95 35.77 35.67 35.76 35.24
46.80 47.84 48.63 48.89 48.79 48.84 49.86 50.13 49.64 49.64 49.04 42.18 44.24 44.06 40.33 35.82 35.75 35.47 35.37 36.15 36.79 39.72 41.04 41.69 41.05 39.62 38.02 39.40 41.51 40.82 41.03 40.72 39.32 37.65 36.60 36.07 33.05 29.85 25.34 31.34 31.11 27.07 31.57 34.37 35.15 36.63 35.59
46.35 47.68 48.45 48.73 48.73 48.72 49.37 49.89 49.90 49.70 48.80 45.02 44.70 43.67 39.01 32.90 35.21 34.26 35.92 37.57 38.00 39.48 38.67 41.37 41.31 39.73 41.34 44.77 44.42 41.74 40.99 40.82 40.17 38.74 39.69 35.23 33.54 31.37 25.46 26.88 18.16 30.44 35.44 35.58 35.13 37.67 38.07
46.10 47.50 48.20 48.81 48.83 48.82 49.19 49.54 49.92 50.00 49.73 46.33 46.30 44.02 40.23 33.75 35.42 35.91 36.29 37.26 39.17 40.95 40.01 40.10 40.83 42.23 43.63 41.86 37.39 34.46 33.87 34.45 36.27 37.67 37.56 38.28 34.88 28.04 24.55 22.52 28.42 31.12 33.87 33.24 31.94 32.12 37.21
45.70 47.09 48.15 48.71 48.75 49.64 50.26 51.00 51.13 50.19 49.37 47.54 46.31 46.20 41.97 36.32 32.23 35.55 37.01 38.92 36.15 36.86 37.98 40.15 42.55 44.19 43.45 39.84 35.85 27.70 25.55 28.80 28.45 32.18 37.29 38.08 36.84 30.73 28.19 22.84 21.35 30.09 34.73 36.84 36.07 27.37 36.93
45.61 46.87 47.91 48.59 48.88 50.08 51.73 51.99 51.24 50.47 49.59 47.61 44.14 43.81 40.09 36.27 35.40 35.75 35.26 35.99 40.09 38.16 36.07 38.19 39.41 40.36 42.75 36.62 31.20 28.21 26.42 31.83 27.29 27.39 29.28 31.11 31.33 27.15 27.87 24.65 28.79 34.73 36.03 36.98 24.52 28.60 37.46
45.53 46.74 47.91 48.45 48.87 50.65 50.81 51.22 50.26 49.14 47.72 45.86 41.89 43.73 40.65 37.12 35.71 37.39 38.32 36.00 38.38 39.62 36.06 38.56 38.13 39.25 38.40 33.63 32.21 30.39 28.71 30.86 28.99 31.03 29.95 29.30 27.12 26.79 28.10 22.99 20.52 36.20 34.96 30.23 34.31 37.47 39.02
45.38 46.62 47.63 48.12 48.53 50.39 49.91 48.69 47.76 47.05 46.72 46.66 41.33 43.06 43.08 38.61 35.86 39.32 39.38 39.17 37.63 36.82 34.71 40.00 38.16 39.25 39.20 34.80 33.59 32.55 29.75 30.56 30.24 25.29 32.73 27.64 31.69 28.71 30.20 29.64 36.01 35.95 36.02 36.84 38.24 38.44 38.37

GFSGBSN_sfc_wetblb_099.txt.gz
Wetbulb
56.23 55.93 55.64 55.71 55.51 55.11 54.87 54.58 53.78 53.68 53.66 53.42 53.22 53.32 52.95 53.07 53.18 52.74 52.50 53.01 54.15 55.34 55.92 58.14 56.85 56.32 52.24 44.63 43.88 54.12 58.60 58.33 56.08 53.52 49.26 45.43 40.77 39.34 35.19 35.98 37.45 35.39 37.64 40.08 41.11 41.25 40.80
56.22 55.90 55.79 55.50 55.52 55.29 54.38 54.45 53.93 53.56 53.35 53.37 53.04 52.80 52.21 52.35 52.24 51.88 51.83 52.84 54.47 54.71 55.31 57.60 56.29 56.03 48.04 38.54 50.34 54.77 53.39 53.09 52.56 50.09 46.94 44.78 42.24 43.30 38.05 35.73 34.10 37.66 37.63 37.89 39.23 39.21 40.06
56.37 56.07 55.72 55.58 55.04 54.80 54.72 53.75 53.53 53.03 52.71 52.45 52.38 52.23 51.89 51.97 51.98 51.14 51.44 52.33 53.38 55.71 55.59 57.77 56.22 52.76 45.57 42.64 51.38 52.89 50.53 48.77 49.25 49.30 45.06 47.11 47.18 42.61 40.60 35.56 39.63 38.01 33.02 35.77 36.90 38.07 37.70
56.93 56.66 56.26 55.73 55.22 54.46 54.27 54.07 53.42 52.73 52.28 51.96 51.53 51.44 51.53 51.66 51.62 50.94 50.93 51.85 52.48 56.03 56.82 56.66 56.45 51.01 42.23 52.15 50.05 49.67 49.44 47.65 49.18 49.35 47.55 47.33 48.51 43.66 41.24 39.75 37.98 33.82 33.67 27.28 35.79 38.47 39.29
57.58 57.76 57.73 56.95 55.84 55.23 54.38 53.49 52.64 51.93 51.68 51.67 51.21 50.93 51.15 51.42 51.17 50.87 50.58 51.71 54.44 56.06 56.11 55.16 50.90 47.40 40.99 53.59 47.88 50.11 49.10 46.40 48.10 48.73 49.22 48.29 46.71 41.16 40.82 35.14 30.61 33.66 23.84 27.51 31.69 39.34 38.40
56.90 56.91 57.33 56.41 56.43 56.70 55.02 52.96 51.89 51.10 51.08 51.07 50.79 50.58 50.78 50.94 50.90 50.52 50.48 51.10 53.08 54.06 53.30 52.18 49.67 43.00 44.68 43.22 47.42 48.92 48.84 49.37 45.18 45.14 43.41 42.50 40.88 36.11 34.98 31.61 22.95 24.33 24.17 30.73 30.96 37.46 39.50
56.89 57.30 57.26 55.92 56.18 52.32 50.75 50.43 50.82 50.60 50.60 50.58 50.54 50.25 50.32 50.54 50.44 50.26 48.33 46.12 40.53 43.58 46.88 41.69 42.20 42.97 44.15 47.75 49.56 46.32 47.73 45.87 44.38 41.34 33.80 37.76 30.48 27.14 29.52 32.58 32.49 31.30 30.83 30.06 33.90 38.73 37.28
54.14 52.90 53.57 51.69 50.27 49.76 48.94 49.58 49.32 49.73 49.93 50.17 49.97 49.83 50.17 50.13 49.99 50.05 47.11 40.56 40.26 41.51 37.83 45.23 45.50 45.37 46.53 47.29 41.36 44.38 47.82 40.59 38.93 34.38 37.45 35.00 30.36 34.15 35.76 35.48 34.60 35.09 33.63 31.16 34.88 38.15 38.34
53.91 53.74 51.89 50.85 49.62 49.15 49.18 49.24 49.89 49.83 49.97 49.83 49.78 49.59 49.66 49.67 49.33 45.01 42.33 42.76 47.40 47.40 37.03 41.38 45.11 43.83 44.37 45.80 41.57 41.17 44.63 42.73 38.41 35.45 35.47 32.23 34.15 39.19 36.74 35.15 35.98 33.56 33.27 32.97 31.79 36.05 38.84
52.97 52.44 51.02 49.78 49.48 49.55 49.47 49.83 49.78 49.85 49.51 49.41 49.52 49.61 49.51 48.79 42.97 41.78 42.18 47.40 49.41 49.14 32.75 37.19 40.61 43.08 44.59 44.45 39.31 46.28 46.54 43.68 39.52 34.65 35.91 34.87 37.89 36.62 35.74 35.01 35.97 32.01 38.41 38.37 37.07 34.64 30.12
52.38 50.24 50.04 50.13 50.23 50.14 50.05 49.78 49.86 49.82 49.63 49.50 49.36 49.29 49.04 47.47 40.69 39.60 43.83 47.78 49.00 44.23 21.52 36.78 38.97 48.12 44.41 40.71 41.95 42.11 47.71 44.03 36.92 36.40 37.65 35.05 37.46 36.97 35.94 36.80 39.51 35.87 40.30 38.20 38.12 36.27 32.04
52.15 50.67 49.89 49.97 50.23 50.21 50.31 50.35 50.26 49.85 49.52 49.40 49.10 49.04 48.44 43.76 41.32 44.70 46.73 47.24 44.72 29.72 22.12 34.38 38.63 37.46 37.40 39.67 41.53 42.79 42.53 44.02 43.27 37.92 38.11 36.85 42.30 39.85 37.89 38.78 38.98 40.07 37.97 37.72 37.97 35.63 28.02
51.69 50.05 49.45 49.81 49.86 50.39 50.39 50.45 50.26 50.19 49.96 49.31 48.75 48.12 46.53 46.30 38.84 45.91 45.27 42.02 27.80 23.95 36.56 31.32 35.08 37.10 36.31 36.29 39.02 39.20 37.90 36.60 34.71 30.96 32.30 35.75 35.62 38.22 39.28 36.15 39.96 38.76 35.45 28.37 26.09 27.41 26.86
51.38 49.62 49.46 49.72 50.32 50.43 50.43 50.62 50.63 50.92 50.23 49.21 48.65 47.74 46.19 46.23 46.06 45.09 41.26 34.09 25.61 33.93 32.97 38.36 37.05 36.89 34.99 37.08 37.95 38.63 38.03 35.13 37.67 35.88 31.88 30.84 28.82 37.00 40.73 39.11 37.14 37.11 34.95 29.33 22.11 26.04 28.48
50.79 49.13 49.53 49.92 50.20 50.51 50.44 50.58 50.77 50.66 49.72 47.54 46.37 42.58 42.37 44.26 46.57 44.86 36.30 27.18 28.22 34.21 36.94 35.68 36.51 34.71 34.47 37.32 37.14 37.30 36.01 35.05 38.38 36.63 31.96 33.08 31.77 40.59 40.95 42.09 40.59 37.02 34.34 37.40 31.78 33.98 29.82
50.43 48.96 49.56 49.95 50.37 50.30 50.61 50.76 50.99 51.14 50.92 48.53 39.95 39.61 41.51 46.25 45.37 40.50 30.75 31.68 34.73 39.46 39.39 38.19 30.68 34.52 29.72 33.63 35.31 34.25 35.57 39.74 39.03 39.61 39.54 37.26 32.26 38.25 40.05 42.66 42.02 38.80 40.65 30.99 31.35 24.36 25.63
49.93 48.95 49.55 49.98 49.77 50.06 50.62 51.06 50.93 50.85 50.60 50.95 39.01 34.15 41.30 45.70 42.92 35.22 31.26 32.91 36.01 40.33 40.33 35.73 34.35 34.19 33.93 34.23 36.55 35.94 35.51 37.52 40.68 39.97 40.21 38.91 36.01 33.64 38.45 36.01 34.23 35.89 33.34 34.67 33.61 30.98 26.27
49.54 48.87 49.46 49.45 49.37 49.96 50.38 50.91 50.58 50.72 50.42 45.31 36.72 28.25 41.52 47.47 32.16 36.19 32.26 35.46 39.05 37.41 40.34 38.70 37.50 36.44 33.51 34.67 33.28 33.45 33.70 36.35 42.01 41.41 36.91 39.01 36.03 30.81 32.54 38.55 39.66 37.00 34.54 32.64 27.24 25.74 28.39
49.16 48.64 49.22 49.30 49.58 50.69 50.09 50.64 50.44 50.49 50.82 44.35 37.35 37.35 45.11 44.15 32.34 28.84 36.70 36.06 37.78 36.56 37.16 37.82 36.63 37.88 37.10 33.66 31.98 36.01 36.42 41.55 42.39 40.07 36.06 37.33 31.97 24.84 27.83 33.26 35.55 34.17 35.39 34.86 34.57 31.95 25.48
48.76 48.21 49.06 49.31 49.60 50.35 50.20 50.45 50.36 50.42 50.72 42.02 36.33 31.35 34.98 41.34 39.89 36.35 31.53 33.22 33.25 38.92 38.19 39.92 38.84 37.81 35.74 35.54 37.08 34.30 35.81 40.27 42.05 40.76 43.94 40.79 32.54 27.95 22.11 27.16 32.03 30.04 33.49 35.03 31.89 25.61 27.09
48.51 47.86 49.00 49.53 49.43 49.56 49.70 50.06 50.49 50.31 50.70 41.50 35.99 34.51 38.17 32.16 34.68 35.21 34.65 34.00 33.31 33.08 38.59 39.72 37.03 37.62 35.33 32.26 33.65 33.86 36.71 37.85 40.87 42.69 39.96 37.06 28.86 27.57 31.70 33.62 33.88 31.99 32.37 33.83 30.40 31.03 26.46
48.23 47.51 48.80 49.24 49.31 49.45 49.57 50.02 50.41 50.34 50.17 40.74 34.55 36.33 37.33 35.48 35.27 33.82 33.94 31.86 33.86 35.73 36.99 36.17 36.30 38.00 37.33 33.91 33.87 32.70 35.34 35.36 33.97 37.77 36.24 36.87 26.58 30.03 27.88 32.89 32.12 29.33 32.18 33.50 33.83 33.94 32.45
47.85 47.11 48.52 49.04 49.45 49.41 49.52 50.24 50.21 50.30 48.35 38.77 42.72 40.46 38.41 34.16 31.77 31.18 32.91 33.69 36.26 39.16 39.36 39.84 38.11 36.68 36.01 37.38 38.52 38.12 37.80 37.45 35.88 34.31 33.90 33.96 30.49 26.77 23.53 29.32 29.59 25.40 29.63 31.42 32.94 34.52 33.65
47.65 46.76 48.29 48.74 49.21 49.36 50.03 50.02 50.26 50.15 48.19 43.91 39.87 41.78 35.25 30.19 34.02 33.36 33.78 35.94 36.21 38.51 36.97 39.12 38.86 36.69 39.27 41.69 41.20 38.85 38.06 37.93 37.59 36.39 36.72 33.18 31.08 27.90 21.93 25.19 15.69 29.52 33.55 33.72 33.52 34.45 35.81
47.21 46.60 47.96 48.65 49.18 49.67 50.58 51.21 50.61 49.94 49.56 44.61 43.40 41.43 39.21 31.76 34.60 33.03 33.67 34.40 36.34 38.05 37.80 37.84 38.99 39.69 40.93 39.56 34.87 31.96 31.18 32.35 33.89 35.05 35.79 35.26 32.14 25.59 22.36 18.12 25.66 29.43 32.23 31.50 30.26 30.27 34.80
46.59 46.53 47.93 48.62 49.21 50.58 51.80 51.88 51.88 50.33 49.80 45.96 44.35 41.66 38.72 34.00 29.05 32.99 32.42 37.79 34.49 33.70 34.85 38.25 41.31 42.02 40.87 37.92 32.96 25.54 23.52 26.97 27.02 30.45 35.97 36.12 33.86 28.50 25.69 21.13 21.08 28.58 32.83 35.39 34.16 26.34 35.71
45.86 46.60 47.83 48.56 49.29 51.00 51.42 51.80 51.11 50.35 49.65 44.99 40.04 40.38 37.31 32.76 31.72 35.32 32.70 32.46 36.79 36.47 32.57 35.42 38.04 38.40 40.39 34.07 29.09 26.02 23.76 30.33 25.59 25.16 26.77 28.53 28.65 25.25 25.21 22.47 26.90 32.71 34.51 35.32 24.41 26.88 35.82
44.93 46.34 47.57 48.30 49.14 50.79 50.35 50.04 49.67 48.96 47.63 42.97 38.58 40.28 37.79 32.07 32.04 34.72 36.09 32.83 34.94 34.74 32.46 35.88 35.92 36.66 35.59 31.23 29.82 27.78 26.52 28.86 26.47 29.21 27.91 27.53 24.71 24.78 25.66 21.23 19.46 35.54 33.47 29.76 32.82 35.92 37.62
44.63 46.07 47.25 47.88 48.56 50.25 48.63 48.24 49.02 49.11 48.65 45.98 37.00 40.51 40.25 35.53 34.39 36.95 37.09 37.35 36.16 35.53 33.66 33.69 35.36 35.95 36.26 29.78 30.80 29.75 28.18 27.77 27.11 23.50 30.71 25.86 30.40 27.67 28.42 28.02 34.37 35.44 34.74 35.70 36.83 37.14 36.89

GFSGBSN_sfc_wetblb_102.txt.gz
Wetbulb
57.71 57.52 57.28 56.96 56.69 56.51 56.03 55.91 55.09 54.61 54.19 53.70 53.42 52.90 53.23 52.61 52.61 52.67 52.10 52.16 52.89 54.21 54.83 55.52 59.43 57.63 51.81 44.28 43.84 53.30 59.51 58.42 54.19 51.34 47.97 45.88 40.12 38.02 33.85 34.60 36.19 33.95 36.38 39.11 40.20 40.36 39.98
57.92 57.82 57.89 58.26 58.13 57.31 56.25 55.46 55.15 54.14 53.70 53.14 52.62 52.03 52.05 51.84 52.41 52.32 51.69 51.29 52.30 53.34 53.93 55.07 57.63 55.58 48.34 39.18 50.66 54.93 54.78 54.23 53.57 50.31 47.10 43.85 41.28 41.73 37.05 34.80 33.08 36.36 36.70 36.97 38.39 38.21 38.96
57.33 57.89 58.29 57.90 58.27 57.40 56.74 56.83 54.96 54.39 53.27 52.64 51.72 51.08 51.07 51.50 51.73 51.83 51.79 51.25 52.07 52.82 54.28 56.12 57.41 52.03 46.20 43.64 53.21 53.79 52.06 50.79 50.97 48.73 44.48 45.53 44.85 40.55 39.35 34.85 38.47 37.36 32.63 35.19 36.03 36.81 36.05
57.40 57.52 55.30 54.64 54.36 54.43 55.68 57.33 55.04 53.09 52.65 51.87 51.01 50.78 50.62 50.96 51.26 51.48 51.44 51.08 51.61 53.88 56.22 57.42 56.49 50.90 42.57 51.51 51.19 50.39 49.17 47.14 48.54 48.89 46.56 46.28 47.50 42.75 39.82 38.75 36.61 32.75 32.09 26.73 34.20 37.04 37.99
54.99 55.25 54.81 53.49 52.26 52.03 51.70 52.70 51.48 50.90 51.05 50.91 50.66 50.88 50.73 50.64 50.84 50.99 50.95 51.23 50.95 55.16 56.62 57.07 50.46 47.50 41.32 52.73 46.78 49.12 48.38 45.34 46.68 48.13 47.10 48.08 45.29 39.69 40.68 34.48 30.95 30.84 26.44 26.88 30.15 37.95 37.21
54.63 54.08 52.72 52.10 52.05 51.59 51.37 51.01 50.27 50.05 50.38 50.47 50.57 50.28 50.21 50.18 50.56 50.54 50.77 50.89 50.96 54.72 52.70 51.47 50.18 42.80 44.94 43.19 48.14 48.80 48.36 48.43 45.63 45.09 43.28 42.06 39.85 34.45 35.38 31.74 18.38 23.70 26.26 28.33 28.67 35.53 37.15
53.32 52.33 51.97 51.10 50.87 51.26 51.21 50.64 50.31 50.10 50.20 50.30 49.98 49.79 49.94 50.00 50.24 50.28 47.31 43.85 39.81 41.51 46.48 40.69 41.64 42.91 43.72 47.71 49.73 46.47 47.50 45.77 44.95 40.60 33.56 36.90 32.49 26.67 28.93 30.78 30.62 29.12 29.13 29.64 33.06 37.09 35.22
52.06 51.33 51.19 51.16 51.13 51.10 51.02 50.90 50.67 50.43 50.27 50.18 49.99 49.77 49.60 49.57 49.61 49.56 43.98 37.71 38.60 39.70 36.97 45.98 45.01 44.95 46.59 47.36 40.99 43.59 47.27 39.38 37.98 33.04 36.78 33.85 28.22 32.53 34.03 33.13 32.19 31.58 30.00 30.69 34.28 37.33 35.86
51.98 51.38 50.99 50.96 50.97 51.36 51.21 51.01 50.61 50.57 50.36 50.10 49.85 49.45 49.32 49.43 48.65 43.53 41.61 41.48 47.04 45.33 36.61 40.93 44.56 43.25 44.11 45.78 40.72 40.35 43.82 41.99 37.19 34.08 34.37 29.88 32.59 37.73 35.03 33.10 31.84 32.91 31.61 31.30 31.78 36.82 38.46
51.42 50.84 50.76 50.93 51.15 51.33 51.32 51.23 51.00 50.86 50.41 49.99 49.64 49.53 49.36 48.92 41.58 40.94 41.38 46.96 48.62 48.04 32.48 33.68 38.77 42.73 44.42 44.43 39.41 45.72 46.32 43.20 39.59 34.86 36.21 34.92 37.92 36.06 34.42 32.60 34.51 31.02 36.13 36.14 36.15 34.89 29.20
51.40 50.43 50.48 50.33 51.06 51.22 51.14 51.13 51.13 50.90 50.35 49.80 49.58 49.51 49.24 47.97 40.67 40.12 43.94 47.58 47.98 43.85 20.23 36.86 38.30 47.21 45.01 40.24 40.43 40.45 47.67 43.28 37.03 35.44 37.10 30.94 36.34 36.45 35.34 35.97 37.81 35.00 39.34 36.93 35.58 34.26 32.89
50.92 50.21 50.42 50.71 50.97 51.22 51.41 51.60 51.54 51.17 50.77 50.20 49.18 48.80 48.47 43.10 40.70 44.19 46.52 47.52 44.25 27.22 20.45 34.10 38.29 38.30 37.27 39.85 40.81 42.76 42.11 44.26 43.30 37.55 37.02 35.62 40.01 38.66 37.52 38.38 38.25 39.26 36.31 36.69 36.32 33.85 27.54
50.63 50.14 50.22 50.82 50.62 51.05 51.47 51.84 51.51 50.27 49.55 49.86 49.57 48.16 46.30 45.54 38.01 45.42 44.87 42.09 23.81 21.28 35.68 30.74 35.07 36.96 36.00 36.11 37.58 38.87 37.61 35.32 33.77 30.92 31.06 35.37 36.51 39.20 39.60 35.52 39.18 36.96 34.61 25.95 25.64 27.04 25.73
50.38 50.20 50.34 50.58 50.69 51.41 52.01 52.17 51.61 49.92 48.63 48.56 48.87 47.49 46.21 45.49 45.39 44.67 40.73 27.75 22.01 31.49 31.90 37.84 36.56 36.32 32.94 36.60 37.59 37.82 36.27 34.87 38.16 36.11 32.33 26.71 27.83 36.95 39.65 37.73 35.35 37.34 35.30 28.42 21.80 24.97 28.36
50.19 50.07 50.17 50.48 50.62 51.33 51.66 52.14 51.59 50.75 49.04 48.37 47.00 40.81 40.82 43.09 45.29 42.16 32.02 28.57 29.31 32.82 37.15 35.02 36.42 33.36 33.50 36.64 37.72 37.43 35.24 35.13 37.71 36.69 30.73 32.62 31.13 40.26 40.80 41.66 40.95 36.95 34.08 38.07 31.55 32.65 28.69
50.23 49.84 50.02 50.17 50.69 51.17 51.77 51.61 51.57 52.16 51.42 49.33 39.13 37.36 38.66 43.96 44.57 38.85 33.76 32.40 35.18 38.77 38.63 37.05 28.90 33.33 29.52 34.34 35.20 34.93 35.72 38.40 38.35 39.31 39.45 36.89 30.71 37.10 39.14 41.37 41.08 38.80 40.77 31.74 30.30 23.54 24.81
50.27 49.58 50.04 50.16 50.34 50.66 51.24 51.76 51.36 51.46 51.41 48.02 37.58 32.06 39.71 44.17 41.96 35.36 31.33 32.08 35.25 39.06 38.94 34.94 32.45 32.21 33.91 34.04 35.66 35.87 33.79 37.26 39.60 39.42 39.61 38.04 35.18 31.54 38.12 35.91 34.38 35.78 33.89 34.50 33.27 30.09 25.67
50.19 49.04 49.79 49.93 49.99 50.22 50.84 51.24 51.21 51.38 51.26 44.28 35.42 28.21 41.28 44.29 32.11 32.69 30.17 34.43 38.87 36.79 39.16 37.69 36.10 34.72 32.28 34.70 33.36 32.91 33.03 36.31 40.72 39.41 35.39 37.35 34.55 29.63 33.18 38.46 39.69 37.47 35.17 34.18 26.90 27.19 26.57
50.15 48.58 49.66 49.84 49.85 50.04 50.44 50.97 51.04 51.18 51.16 40.40 36.38 32.73 42.62 41.57 31.67 27.19 33.18 34.90 36.26 35.92 36.37 37.18 36.14 36.51 35.63 32.45 31.80 34.77 35.81 41.03 41.26 38.42 34.43 35.93 31.40 26.43 28.52 30.91 35.25 33.55 35.04 34.87 34.09 31.28 24.63
49.95 48.24 49.45 49.73 49.93 50.50 50.25 50.69 51.02 51.07 51.28 40.67 33.90 26.45 34.05 38.81 36.42 31.87 29.98 31.67 32.29 37.90 37.31 38.76 37.78 36.99 35.60 34.37 36.04 33.90 35.39 39.85 41.43 39.40 44.18 39.81 31.81 27.78 21.53 27.24 31.55 29.82 32.77 33.85 31.93 27.26 27.59
49.72 48.11 49.02 49.48 49.79 49.88 49.84 50.09 50.76 50.89 50.31 40.08 33.83 29.85 35.05 25.95 32.60 33.10 32.71 32.70 32.34 32.85 37.66 38.63 36.79 36.65 34.36 31.29 32.38 32.44 35.07 36.20 39.13 40.91 37.84 35.37 28.29 26.51 29.76 31.78 32.09 30.59 30.97 32.90 29.88 30.36 28.67
49.48 48.13 48.24 49.10 49.57 49.82 49.98 50.21 50.48 50.65 48.77 39.04 32.87 32.22 34.72 31.14 33.55 31.59 31.61 31.25 33.06 35.10 36.39 35.53 34.94 36.79 36.21 33.03 32.72 31.44 33.76 34.02 33.11 36.09 34.55 35.17 26.24 28.76 26.87 31.17 30.37 28.75 31.26 32.27 32.84 32.93 31.85
49.37 47.86 47.54 48.92 49.27 49.85 49.79 50.28 50.71 50.45 46.36 37.13 38.61 38.87 35.65 32.22 30.41 27.11 29.78 32.30 35.48 37.91 38.29 38.50 36.79 35.28 35.34 36.39 37.19 37.20 36.53 35.83 34.44 33.32 32.94 32.79 29.08 25.67 22.37 28.28 28.56 24.64 28.60 30.25 31.84 33.27 32.37
49.17 47.75 47.40 48.80 49.34 50.17 51.06 51.86 51.33 49.98 47.12 39.81 38.37 38.53 32.15 27.88 30.55 31.12 32.89 34.41 35.07 35.93 35.67 38.30 37.63 35.51 38.15 40.55 39.38 37.67 36.16 36.58 36.05 34.95 35.13 31.98 29.47 26.42 20.65 24.18 14.14 27.94 32.28 32.38 32.18 32.86 34.49
48.62 47.31 47.54 48.85 49.73 50.85 51.56 51.76 51.21 49.96 49.41 41.68 40.30 38.42 35.41 27.26 30.55 32.01 32.54 33.46 35.26 36.75 36.61 37.13 38.03 39.38 39.92 38.66 33.41 30.16 29.74 30.75 31.93 33.90 34.11 33.86 30.80 24.37 21.37 17.06 24.13 28.35 30.78 30.42 28.98 29.75 33.45
47.98 46.58 47.50 48.68 49.75 51.39 51.96 51.97 50.90 50.13 49.44 42.56 40.20 39.85 36.12 31.43 28.40 31.75 30.92 33.44 31.58 31.42 34.16 36.67 40.45 41.14 39.85 35.88 31.26 25.02 23.29 25.87 26.71 29.42 33.84 34.06 31.98 27.48 24.65 20.23 20.20 27.07 31.84 33.85 32.75 25.09 33.95
47.55 45.79 47.35 48.39 49.73 50.58 50.48 50.99 50.56 50.09 49.12 42.83 39.04 39.14 35.93 30.51 30.88 31.71 30.91 31.36 34.17 32.82 31.50 33.55 36.44 37.29 38.33 32.19 28.66 25.48 23.16 28.46 24.55 23.73 25.99 27.42 27.17 24.68 24.48 21.78 26.09 31.49 33.38 34.03 23.35 25.31 35.23
47.49 45.24 47.17 47.95 49.22 49.38 49.34 49.11 49.00 48.73 48.61 41.83 37.97 39.17 36.71 30.95 31.99 34.80 35.62 32.41 34.21 33.81 31.47 34.72 34.43 34.96 34.39 29.96 29.11 27.35 25.10 27.39 24.71 27.09 25.80 26.15 23.90 23.92 24.87 20.86 18.92 34.21 32.58 28.52 31.65 33.92 36.47
47.76 45.30 46.82 47.74 48.31 49.88 48.53 48.85 49.54 48.89 48.98 43.99 36.42 39.85 39.44 35.09 34.12 36.19 36.92 37.41 36.81 36.52 34.04 33.44 33.84 34.19 34.75 28.28 29.63 28.59 27.57 26.22 25.38 22.50 28.76 25.97 29.23 26.66 27.35 27.13 33.06 34.22 33.83 34.96 36.08 36.13 35.55

GFSGBSN_sfc_wetblb_105.txt.gz
Wetbulb
57.99 57.22 56.62 55.91 54.27 53.36 53.53 53.45 54.50 56.61 55.99 54.94 54.16 53.07 51.49 51.59 52.00 52.24 52.48 52.19 51.78 52.30 53.19 54.40 55.05 57.75 51.02 44.10 44.07 52.25 59.27 59.55 53.64 50.16 47.09 44.19 39.32 37.08 33.48 33.46 35.31 32.62 35.17 37.97 38.96 39.11 38.56
56.57 56.03 54.77 54.66 53.04 53.18 52.84 52.40 54.22 55.65 56.41 54.32 52.78 51.74 50.59 50.81 51.59 51.83 52.04 52.17 51.91 51.99 52.92 53.69 56.37 54.89 48.17 40.45 51.41 53.48 54.10 52.99 50.99 48.92 46.61 43.10 40.45 40.62 36.12 33.76 32.36 35.30 35.96 36.25 37.49 37.32 37.82
55.68 55.05 53.74 53.11 52.71 52.29 51.98 51.99 51.45 52.50 52.86 53.39 52.37 51.09 50.32 50.76 51.31 51.49 51.69 51.99 51.67 52.17 52.67 54.40 55.78 52.05 45.71 44.08 52.48 54.33 52.86 51.19 51.15 47.79 43.70 44.47 43.75 39.70 38.12 33.58 37.57 36.75 32.05 34.12 34.96 36.04 35.00
54.88 53.36 52.63 52.38 52.33 52.10 51.69 51.74 51.16 51.19 51.34 51.45 51.31 50.57 50.82 50.82 50.83 51.26 51.49 51.54 51.92 51.99 54.15 55.86 55.88 50.78 42.53 51.68 53.11 52.44 49.69 46.92 48.87 48.08 45.72 45.99 45.66 41.47 38.27 37.63 35.39 31.03 30.06 25.19 32.80 36.13 36.83
53.07 52.44 52.44 52.66 52.08 51.78 51.78 51.67 51.41 51.23 51.09 50.64 49.97 50.28 50.49 50.50 50.70 50.99 50.94 51.51 51.92 54.86 55.98 56.69 50.56 47.73 41.62 52.80 48.39 50.02 48.97 44.87 46.13 46.36 46.21 47.99 43.84 37.84 38.05 30.68 26.06 27.64 17.76 26.53 29.30 36.61 35.86
52.87 52.08 52.14 51.90 52.05 52.45 52.19 51.88 51.45 51.26 51.19 51.01 50.72 50.35 50.11 50.23 50.37 50.52 50.86 50.22 51.04 53.14 52.50 51.48 49.93 43.62 45.00 43.44 47.05 47.97 48.62 47.91 44.72 44.31 42.13 40.63 37.19 31.73 32.95 30.71 15.86 22.06 24.10 27.02 27.09 33.57 35.41
52.23 51.82 51.75 51.67 52.31 52.37 52.33 52.23 51.79 51.34 50.90 50.52 50.28 50.08 50.17 50.15 49.97 50.06 45.81 41.47 40.12 41.46 43.87 42.04 41.66 43.04 43.95 47.96 49.33 46.02 48.46 46.63 45.17 39.99 31.92 36.21 30.97 24.33 27.05 29.40 28.53 27.07 26.51 25.86 29.98 34.99 34.16
51.95 51.47 51.33 51.54 52.23 52.31 52.24 52.11 51.82 51.61 51.16 50.62 50.11 49.76 49.92 49.97 49.47 48.73 41.97 37.97 39.64 40.61 39.23 45.60 45.29 45.01 46.90 47.73 41.14 43.94 47.89 40.43 38.66 31.61 34.76 32.38 27.63 31.78 33.14 32.06 30.87 30.55 28.72 28.34 32.26 35.59 35.71
51.53 51.42 51.21 51.64 52.09 52.40 52.49 52.48 52.27 52.12 51.27 50.71 50.09 49.99 49.92 49.39 48.49 43.56 40.49 42.00 46.59 44.33 38.24 40.98 44.96 43.36 44.02 45.60 40.50 40.79 44.46 41.41 36.12 33.40 32.59 27.87 31.92 36.77 33.70 31.47 29.92 30.35 29.11 29.08 30.01 34.34 36.97
51.23 51.12 51.58 51.68 51.64 52.40 52.73 52.47 51.89 51.88 51.58 50.63 50.05 50.06 49.86 48.02 41.42 41.08 40.93 46.71 48.19 46.86 32.63 33.40 39.07 42.30 44.46 44.98 38.97 45.54 46.08 42.52 38.92 33.69 34.05 32.50 35.97 34.33 34.18 31.34 32.08 27.52 34.01 33.79 33.29 33.22 29.42
50.85 51.00 50.98 51.06 51.77 52.32 52.44 52.23 51.21 50.21 50.23 50.92 49.68 49.78 49.18 47.09 38.70 39.21 43.60 47.52 48.17 43.88 19.67 34.14 37.31 46.59 43.80 40.02 40.22 40.98 46.99 43.23 37.02 35.52 36.43 29.44 33.60 35.01 34.92 35.76 36.27 32.20 37.43 36.05 35.25 33.70 31.74
50.50 50.79 50.81 50.94 51.71 52.12 52.36 52.03 50.43 49.79 49.95 50.76 49.44 49.20 48.20 42.74 40.68 43.25 45.92 48.05 44.10 23.83 20.77 33.05 37.56 38.50 37.82 40.00 40.68 42.15 41.88 44.01 42.97 37.86 37.68 34.89 39.14 38.00 36.24 37.68 38.13 38.78 35.04 34.75 34.71 32.65 26.22
50.25 50.73 50.82 50.75 51.64 51.89 52.13 52.01 51.09 49.81 49.24 49.63 49.85 48.86 46.14 45.37 38.76 45.26 44.60 42.74 21.41 21.37 34.56 31.07 34.25 36.74 36.48 36.64 36.73 38.79 37.19 35.47 33.18 30.38 30.48 35.21 36.17 39.72 40.11 35.72 38.00 36.50 33.67 25.50 22.53 27.04 25.08
50.32 50.57 50.40 50.69 51.30 51.77 52.23 52.18 51.99 51.81 50.93 49.00 47.98 46.87 45.39 44.98 44.08 43.79 39.21 29.08 21.76 31.59 32.61 36.94 35.93 35.50 33.36 36.93 36.27 36.84 36.24 34.48 36.46 36.07 32.72 26.55 22.54 36.54 39.84 37.23 36.07 36.76 35.90 27.99 21.20 24.01 27.11
50.59 50.30 50.53 50.61 50.89 51.27 51.74 52.00 52.00 52.04 51.23 49.80 46.48 40.04 40.46 42.42 44.76 41.62 33.45 27.14 27.90 33.40 36.48 34.16 36.56 32.95 33.02 36.89 37.48 37.23 35.56 35.39 37.46 37.33 29.39 32.33 27.93 39.35 40.09 40.90 40.52 37.08 33.69 38.46 31.52 32.24 28.51
50.95 49.64 50.38 50.48 50.53 50.92 51.20 52.03 51.97 52.13 51.27 48.45 38.60 36.74 37.60 42.99 43.18 37.68 33.11 32.20 34.41 38.26 38.27 36.95 30.11 32.56 29.60 33.32 33.37 33.73 35.79 38.18 38.01 38.23 39.68 36.79 30.58 36.32 38.67 40.49 40.32 38.36 40.73 31.98 31.77 23.19 23.40
51.11 49.29 50.35 50.33 50.57 50.52 50.77 51.44 51.74 52.05 51.15 46.99 36.19 33.94 40.73 43.94 41.03 35.30 30.01 32.60 34.50 37.89 38.07 34.38 31.34 31.79 33.07 32.84 35.30 35.09 32.65 36.26 39.35 38.20 39.45 38.37 35.03 32.58 36.74 34.73 32.77 36.16 35.12 35.21 34.41 31.20 25.52
51.19 49.38 50.06 50.08 50.31 50.30 50.33 50.88 51.57 51.71 51.13 42.87 35.38 30.88 42.79 43.48 32.39 30.02 29.56 33.80 38.54 36.11 38.01 36.56 35.25 33.64 32.28 34.45 32.70 31.33 32.15 34.87 39.62 39.40 35.97 38.07 34.62 29.49 32.03 36.77 38.60 37.10 34.53 34.36 28.53 26.57 27.52
51.26 49.71 49.16 49.81 49.95 50.38 50.47 50.64 51.21 51.42 50.79 38.70 33.27 31.22 41.49 40.87 27.51 26.35 31.73 34.21 35.30 35.48 36.00 36.43 35.64 36.20 35.06 32.25 30.75 33.53 34.61 39.59 40.31 38.23 34.58 36.07 31.40 26.90 27.47 32.03 36.42 32.80 34.01 33.71 32.56 30.80 26.43
51.27 50.03 48.35 49.61 49.69 50.26 50.10 50.61 51.02 51.34 50.77 38.99 32.83 27.68 33.32 35.68 34.17 29.31 29.54 30.67 31.76 37.24 36.69 37.53 36.48 36.08 34.44 32.68 34.25 32.21 33.74 38.60 40.36 39.08 43.83 39.73 30.98 28.37 22.03 27.94 32.13 29.35 32.42 33.47 32.54 28.43 29.86
51.29 50.03 48.17 49.11 49.48 49.68 50.30 50.29 50.87 51.12 49.78 38.87 32.86 28.52 33.99 25.44 30.46 31.13 30.65 31.17 31.58 32.28 37.01 37.86 35.79 35.49 33.02 30.11 30.83 30.94 33.51 34.90 37.96 39.70 37.49 34.88 28.53 26.67 29.61 31.38 31.61 30.32 30.37 32.89 31.24 31.07 30.59
51.36 49.96 48.29 48.67 49.38 49.83 50.54 50.87 51.21 51.03 48.51 37.59 32.30 31.56 32.41 30.04 31.77 30.40 30.44 30.70 32.72 34.93 35.85 34.81 34.10 35.90 35.27 31.98 31.41 29.94 32.11 32.20 31.24 34.49 33.49 34.18 26.43 28.40 26.51 30.57 30.40 28.71 30.65 31.61 32.37 32.06 31.71
51.31 49.77 48.16 48.72 49.40 50.01 51.30 51.74 51.81 50.62 45.26 35.83 36.93 37.49 33.92 30.07 28.56 26.56 28.59 31.13 34.09 35.98 37.20 37.33 36.06 34.39 34.25 35.19 36.68 36.65 36.52 35.08 33.63 31.54 31.83 31.60 28.17 25.09 21.08 27.32 27.82 24.58 28.31 29.87 30.55 32.27 31.77
50.91 49.56 47.87 48.77 49.52 50.65 52.02 52.28 51.39 49.97 45.88 38.34 37.01 36.06 30.85 27.35 29.79 30.24 31.45 33.14 33.88 34.47 34.11 37.53 37.03 34.76 37.42 39.77 37.96 36.05 34.63 34.99 34.35 32.72 33.81 30.75 28.23 25.68 20.43 23.43 14.41 27.30 31.61 31.82 31.29 32.59 32.95
50.62 49.10 47.36 48.68 49.69 51.18 51.73 51.92 50.60 49.85 48.53 40.81 38.77 36.99 31.99 26.51 29.82 30.27 31.36 32.04 34.21 34.73 35.12 36.06 37.34 38.65 39.11 37.23 32.66 29.31 28.40 29.19 30.15 31.72 32.41 32.75 29.31 23.74 20.66 16.71 23.29 26.81 30.14 30.39 29.17 30.23 33.46
51.50 48.22 46.74 48.39 49.55 50.68 51.02 50.83 50.35 50.00 49.69 41.64 38.78 38.32 34.91 29.15 28.16 32.31 30.94 31.61 30.67 30.46 33.07 35.37 38.58 39.93 38.27 33.89 29.99 25.34 22.48 24.59 24.69 28.25 31.78 32.10 30.76 26.74 23.76 19.38 19.21 25.77 31.41 32.62 31.92 24.47 33.44
52.26 47.65 46.46 48.11 49.16 49.77 50.19 50.12 48.95 48.33 47.83 41.79 38.21 37.97 35.22 29.77 30.60 30.84 30.86 32.06 33.14 31.17 30.68 32.30 35.25 36.24 36.80 30.79 28.65 25.07 22.62 26.44 23.31 23.28 24.86 26.03 26.00 23.62 23.32 21.15 24.84 29.80 32.58 32.57 23.11 24.76 34.47
52.55 47.81 46.15 47.74 48.55 49.21 48.67 49.54 49.74 49.43 49.10 40.86 36.74 38.19 35.78 30.37 31.55 33.91 35.13 32.87 33.22 33.11 31.11 34.00 33.36 33.79 33.38 29.21 28.78 26.67 24.19 26.01 23.90 25.06 24.46 25.02 23.23 23.03 23.89 20.31 17.90 32.98 32.13 27.44 30.85 32.56 35.09
52.76 48.32 46.36 47.38 47.80 49.06 48.78 48.77 49.10 49.13 48.43 43.07 36.04 39.07 38.79 34.56 33.60 35.20 36.23 36.64 36.74 36.38 34.38 32.60 33.09 32.82 34.01 27.98 28.79 27.97 27.34 25.40 23.63 22.56 26.83 25.60 27.96 25.55 27.01 26.47 32.12 33.10 32.43 34.15 34.93 35.32 34.20

GFSGBSN_sfc_wetblb_108.txt.gz
Wetbulb
55.51 54.06 53.16 53.55 53.38 53.01 52.75 52.64 52.79 52.58 52.63 55.39 55.30 54.36 51.97 51.78 51.57 51.82 52.03 52.15 51.98 51.51 51.87 53.13 54.08 55.08 51.16 45.07 44.44 52.57 59.21 59.10 52.53 49.78 46.93 42.33 38.79 36.39 33.04 32.90 34.50 31.98 34.24 36.98 37.98 37.88 37.08
53.92 53.17 53.46 53.46 52.97 52.71 52.84 52.54 52.14 52.65 52.21 53.75 53.28 52.83 51.23 51.85 51.70 51.75 51.80 51.93 52.22 51.77 51.72 52.97 54.41 56.25 49.24 41.75 51.79 55.44 54.09 52.89 50.31 48.71 44.73 42.73 39.92 39.59 35.52 32.90 31.57 34.42 35.45 35.57 36.76 36.59 36.99
53.30 52.94 53.26 53.48 52.99 53.01 52.83 52.54 52.39 52.26 52.25 51.50 51.60 51.65 51.46 51.28 51.19 51.47 51.57 51.64 51.90 52.13 52.34 52.99 54.83 52.20 47.07 44.90 52.91 54.48 51.99 51.44 49.59 47.48 42.64 43.75 43.23 39.24 36.95 32.63 36.65 35.79 30.72 32.96 33.58 34.94 34.20
53.01 52.73 53.02 53.27 52.83 53.02 52.69 52.59 52.24 52.12 52.14 51.71 50.86 51.13 51.06 50.99 51.16 51.35 51.29 51.67 52.40 54.03 52.74 53.52 55.79 50.86 43.11 52.38 54.42 52.31 50.79 47.76 47.87 47.26 45.33 45.17 44.77 40.72 37.10 36.40 34.42 29.91 29.00 23.94 31.14 34.96 36.09
52.82 52.75 52.45 52.68 53.14 53.17 53.11 52.90 52.47 52.12 51.74 51.47 51.35 51.15 51.07 50.94 50.90 50.87 50.99 51.16 53.72 56.38 55.58 56.19 50.57 47.83 42.04 52.98 49.79 50.51 50.35 45.44 45.60 46.05 46.40 47.35 43.01 37.05 36.87 28.46 24.56 26.88 17.47 25.02 28.85 35.39 34.77
52.49 52.87 52.18 52.73 53.31 53.32 53.53 53.14 52.84 52.41 51.81 51.24 50.89 50.61 50.60 50.54 50.21 50.18 49.12 50.15 51.90 52.61 52.13 51.51 50.01 43.32 45.18 44.08 47.05 48.01 48.31 47.76 43.87 42.41 41.28 39.94 36.32 30.35 30.29 24.91 15.45 20.87 17.65 25.48 26.05 31.98 33.97
52.30 52.49 52.72 52.55 52.97 53.52 53.55 53.19 52.61 52.48 51.69 51.16 50.71 50.50 50.37 50.17 49.95 49.12 43.99 42.86 41.88 42.54 45.49 42.54 42.82 42.36 44.25 47.17 49.23 45.87 48.06 45.23 43.91 38.89 30.59 35.26 28.32 21.31 26.58 28.25 27.05 25.40 24.33 24.62 28.66 33.32 32.04
51.93 52.27 52.45 52.23 53.24 53.80 53.32 52.71 52.06 52.33 52.06 50.99 50.61 50.28 50.20 49.20 49.71 49.03 42.23 39.13 40.01 41.70 39.59 45.66 45.34 44.92 45.98 46.95 40.88 43.88 47.62 39.69 37.79 31.22 33.74 29.77 25.05 30.58 32.33 31.14 29.79 28.50 25.76 25.94 30.53 34.19 33.21
51.63 51.94 52.25 52.61 53.47 53.54 52.59 51.49 51.01 51.21 51.49 50.80 50.51 50.43 49.94 48.34 48.19 43.28 41.94 41.65 45.76 44.82 38.98 40.17 44.22 43.83 44.08 45.91 40.77 40.89 44.30 40.75 35.72 32.06 31.76 27.16 30.25 35.42 32.60 30.11 28.56 27.62 25.77 26.78 27.86 32.16 35.10
51.46 51.73 51.97 52.27 53.32 53.35 52.26 50.80 50.56 51.38 51.35 50.63 50.32 50.22 49.28 46.88 41.74 40.02 40.04 46.38 47.58 46.37 27.07 32.96 38.14 40.81 44.25 44.83 38.54 45.23 46.21 41.24 37.73 32.43 32.84 30.10 34.26 33.00 31.48 29.97 31.44 28.01 32.42 31.80 30.79 30.66 26.98
51.27 51.60 51.53 51.98 52.99 53.47 52.55 50.94 50.68 51.18 51.44 50.36 49.96 49.81 48.35 46.56 38.53 39.51 43.67 47.00 46.42 41.59 17.92 35.24 37.87 46.03 44.22 40.41 40.13 40.58 46.48 42.92 36.81 35.79 34.96 29.07 31.39 33.30 33.53 34.29 35.39 31.57 35.66 34.51 34.44 33.23 31.77
51.05 51.44 51.43 51.70 52.21 52.90 53.02 52.52 51.46 50.16 50.43 50.10 49.64 49.02 47.32 42.95 40.62 43.47 45.51 45.75 41.76 25.10 19.66 32.86 38.10 37.65 37.33 39.24 39.87 41.62 40.35 43.46 41.86 37.79 37.09 33.27 37.23 36.97 35.10 37.29 37.07 37.52 34.86 33.97 33.13 32.26 25.21
51.34 51.17 51.31 51.33 51.48 51.98 52.74 52.58 52.67 51.95 49.38 48.97 48.97 48.84 45.91 44.22 38.24 44.07 43.44 40.32 22.98 18.32 34.38 32.07 33.72 37.19 36.56 36.47 36.81 38.29 36.37 34.45 32.40 29.01 27.28 32.64 35.01 39.13 40.05 35.77 37.74 36.23 33.32 23.67 19.83 26.55 23.41
51.93 50.46 51.02 51.21 51.29 51.41 51.95 52.40 52.43 52.59 52.19 49.17 48.37 47.00 44.50 44.54 43.67 43.00 38.72 28.95 19.58 31.48 32.05 36.17 35.16 36.08 32.58 35.19 35.06 36.63 35.13 33.01 35.38 34.58 32.01 26.13 21.12 35.38 38.88 36.69 35.44 36.38 35.79 27.57 20.32 20.15 25.17
52.25 50.02 50.87 51.17 51.35 51.22 51.49 51.74 51.78 51.72 52.43 50.98 47.88 39.34 39.56 41.55 44.04 41.23 32.94 25.10 29.20 31.42 35.18 33.50 34.46 31.38 33.32 36.77 37.19 35.83 35.45 34.52 37.58 36.45 31.06 31.97 28.66 38.41 39.22 39.86 39.50 36.60 33.07 38.18 31.73 32.15 27.52
52.38 50.73 50.38 50.72 51.28 51.01 51.09 51.32 51.46 51.80 52.24 49.81 37.19 36.18 36.96 42.33 42.44 37.80 32.51 31.57 32.81 36.87 37.65 36.49 29.25 32.06 28.94 33.31 33.88 34.39 35.44 38.31 38.13 39.15 39.48 36.53 29.67 35.23 37.56 39.67 39.76 38.29 39.98 31.50 31.99 23.33 21.91
52.23 51.40 49.62 50.56 50.50 50.58 50.76 51.36 51.63 51.92 52.53 47.70 35.89 33.65 40.67 43.55 40.55 35.48 30.43 32.58 34.34 37.41 37.51 34.44 30.44 32.88 33.53 32.78 34.88 34.36 33.06 36.18 39.62 38.59 39.63 38.13 34.64 31.19 35.45 34.72 33.28 36.02 35.07 35.10 33.39 31.69 25.28
52.64 51.72 49.87 49.91 50.08 50.25 50.57 50.73 51.49 51.72 51.90 41.68 34.75 28.72 41.76 41.78 32.40 28.21 27.70 32.19 38.22 35.36 37.30 35.94 34.91 33.02 32.31 33.67 31.18 31.09 32.18 35.11 39.68 38.98 35.12 37.25 33.38 27.64 31.64 36.54 39.00 36.30 33.90 34.64 28.55 27.75 28.46
52.77 51.78 50.53 48.86 49.83 49.80 50.46 50.76 50.81 51.54 50.13 38.10 32.01 29.48 40.55 40.24 26.89 25.78 31.08 33.48 34.66 35.10 35.28 35.57 34.67 35.34 34.44 31.49 29.48 33.18 33.71 38.87 39.95 38.20 34.66 36.07 30.38 26.66 27.77 31.99 35.64 31.92 33.14 33.31 33.29 31.40 25.24
52.82 51.73 50.69 48.82 49.69 49.69 50.65 51.11 51.34 51.50 50.76 37.90 32.27 26.48 33.59 35.13 32.87 29.60 29.25 30.41 31.42 36.64 35.70 36.54 35.44 35.20 33.30 31.69 33.21 30.99 32.90 37.71 38.75 38.03 43.61 39.12 30.40 28.68 24.48 28.40 31.21 30.01 32.03 34.15 31.19 27.81 29.28
53.23 51.71 50.55 48.81 49.76 49.99 50.98 51.45 51.74 51.78 50.11 38.44 31.99 27.74 31.10 24.96 29.85 29.48 29.25 30.51 31.27 32.22 36.35 36.79 34.58 34.59 32.15 29.42 30.27 30.45 33.20 34.18 37.32 38.74 36.20 34.35 28.75 26.55 29.86 31.48 31.11 30.77 30.07 32.32 32.18 31.03 30.38
53.45 51.75 50.58 48.82 49.84 50.17 51.47 52.30 52.00 51.31 47.74 36.46 31.86 30.67 31.33 29.35 30.54 28.06 29.88 29.77 31.45 33.18 34.79 33.85 33.05 34.78 34.38 31.27 29.87 29.66 32.12 31.16 29.77 33.95 32.90 33.32 26.93 28.96 26.41 29.30 29.92 28.99 30.55 30.98 31.53 31.84 33.39
53.92 51.71 50.35 48.76 49.80 50.67 51.97 52.41 51.66 50.18 44.20 35.31 35.53 36.12 32.65 29.09 27.95 27.56 27.43 29.44 32.89 34.39 36.28 36.83 34.74 33.24 33.18 34.66 36.14 36.45 35.93 34.69 32.75 30.11 30.79 30.32 27.74 25.62 21.78 25.90 26.59 23.93 27.83 28.87 30.36 31.50 32.17
53.97 51.50 49.96 48.56 49.77 51.12 51.64 51.94 50.68 50.17 44.52 37.85 36.09 34.93 30.23 27.36 29.35 30.57 31.77 32.27 32.68 33.24 32.84 36.88 35.41 32.78 36.37 38.88 36.62 34.20 32.74 33.91 33.03 32.67 32.51 29.46 27.06 24.98 20.83 22.89 14.85 26.57 30.98 31.14 30.74 32.50 32.80
53.48 51.17 49.33 48.04 49.69 50.87 51.15 50.82 50.44 50.01 48.32 39.86 37.78 35.70 30.63 26.05 28.99 29.68 31.18 32.06 32.52 33.23 33.73 35.17 36.34 37.72 38.38 35.67 31.45 28.95 27.51 27.55 29.03 29.91 30.22 31.46 28.03 23.33 19.38 15.97 22.83 25.44 29.43 29.42 28.41 29.37 33.44
53.29 51.15 48.30 47.61 49.27 50.34 50.82 50.48 49.86 49.04 49.02 40.40 37.53 37.13 33.42 28.69 28.27 30.13 29.66 30.90 30.26 28.76 31.35 34.11 37.28 38.26 36.36 32.57 29.17 24.45 21.77 23.61 23.97 27.23 30.48 31.07 29.48 25.55 23.48 18.54 18.23 23.78 30.00 31.90 31.62 24.58 32.17
53.22 51.72 47.85 46.98 48.72 49.68 49.42 49.88 49.53 49.35 48.25 41.15 37.42 36.96 34.29 29.50 30.42 31.08 30.20 30.65 31.52 30.04 30.15 31.27 33.93 34.99 34.90 30.04 28.41 24.80 22.04 24.63 22.35 21.32 22.90 25.22 24.97 23.14 22.57 20.26 23.92 28.35 31.46 32.16 21.96 24.74 32.06
53.11 52.16 48.40 46.77 47.89 49.37 48.55 49.23 49.48 49.53 48.70 40.06 36.16 37.19 35.14 30.04 31.27 33.00 34.59 32.32 32.32 31.93 29.63 32.64 32.17 32.60 31.74 28.36 28.52 26.37 23.49 24.95 22.89 24.11 22.89 24.83 22.51 21.79 22.53 19.52 17.00 32.07 30.59 27.21 30.43 31.55 33.42
53.05 52.64 49.19 47.13 47.80 48.31 49.50 48.73 49.09 49.11 47.93 42.56 36.14 38.43 38.25 33.99 33.28 34.63 35.60 36.30 35.79 36.53 34.00 31.81 31.23 31.91 33.20 28.33 28.24 27.46 27.30 23.95 22.79 22.28 24.82 24.12 27.18 24.64 26.46 25.81 31.45 32.28 32.69 33.33 33.39 34.18 34.01

GFSGBSN_sfc_wetblb_111.txt.gz
Wetbulb
53.77 53.85 53.96 54.04 54.39 54.02 53.65 53.32 52.73 53.17 53.07 53.47 53.09 53.56 53.29 52.78 51.93 51.79 51.71 51.41 51.11 51.07 50.94 51.73 52.75 55.32 52.39 45.93 46.44 53.88 58.99 59.10 53.79 51.04 47.21 43.27 40.04 38.60 34.77 35.44 36.68 35.00 35.67 37.54 38.91 38.66 38.13
53.91 53.80 53.77 53.99 54.26 54.15 53.80 53.49 52.68 52.48 52.91 52.72 52.86 51.75 51.93 52.02 51.86 51.48 51.35 51.24 51.43 51.78 51.13 51.81 53.29 54.30 49.14 40.76 52.50 54.82 53.72 52.38 50.99 48.76 44.93 44.15 41.60 41.00 36.78 35.18 34.53 36.31 36.43 36.51 37.51 37.42 37.88
53.52 53.96 53.49 54.03 54.35 54.37 54.20 53.48 52.93 52.38 52.07 52.46 52.28 51.83 51.53 51.49 51.47 51.48 51.61 51.68 51.54 51.58 51.82 52.30 55.51 53.21 47.63 45.03 53.92 52.97 52.05 50.56 49.79 47.49 43.69 45.11 44.30 40.78 39.02 35.01 38.33 36.84 32.37 33.89 34.63 35.97 35.38
53.32 53.73 54.03 54.20 54.25 54.51 54.36 53.70 52.82 52.27 52.00 51.64 51.57 51.35 51.20 51.08 51.00 51.02 51.01 51.76 53.53 54.91 53.28 52.99 54.67 50.99 43.39 53.13 55.25 52.21 50.94 47.26 48.34 47.77 45.99 46.05 45.56 41.66 38.91 38.85 35.19 31.98 31.24 27.23 32.94 35.98 36.99
53.27 53.55 53.92 53.89 54.40 54.61 54.40 53.65 52.82 52.36 51.54 51.34 51.12 50.91 50.79 50.70 50.68 50.53 50.32 52.43 56.33 55.42 54.87 55.39 50.49 47.37 39.80 53.77 49.63 50.88 50.58 45.29 46.71 47.20 46.74 46.71 43.83 38.54 37.94 30.73 27.39 28.73 23.79 26.49 30.16 36.10 35.62
53.21 53.35 53.47 53.88 54.37 54.57 54.31 53.36 52.98 52.39 51.30 51.09 50.90 50.80 50.47 50.43 50.21 49.88 49.68 51.08 53.83 52.99 52.50 52.26 50.06 43.37 45.03 44.26 47.34 48.85 49.08 48.03 44.22 42.97 41.47 40.60 37.17 32.42 31.78 28.07 21.92 23.76 22.94 26.40 27.05 32.92 34.26
52.97 53.18 53.33 53.55 54.34 54.23 52.76 52.31 52.08 52.51 51.29 51.04 50.75 50.40 49.89 50.33 50.58 49.30 45.53 44.82 42.55 43.32 47.00 42.96 42.92 43.22 44.51 46.99 49.64 46.08 48.17 45.41 43.52 38.85 32.61 36.63 30.64 25.50 28.16 29.75 28.57 27.74 26.52 25.77 29.17 33.49 31.67
52.69 52.65 53.11 53.35 54.40 54.02 52.08 51.82 52.27 51.99 51.46 51.05 50.75 50.09 49.38 49.40 49.59 49.38 43.73 39.62 40.26 42.70 39.11 44.81 45.34 44.17 46.17 47.31 40.21 43.89 48.00 39.65 38.22 31.49 34.43 30.84 27.14 31.57 32.73 31.49 29.99 28.81 26.90 26.40 30.59 33.97 33.19
52.32 52.48 52.51 53.06 53.88 54.32 53.04 52.12 51.76 52.31 51.53 51.03 50.59 49.62 49.22 48.95 48.25 43.03 42.34 42.79 46.43 44.42 38.96 39.97 43.65 43.25 44.42 45.94 40.45 40.76 44.23 40.73 36.03 32.43 31.72 28.24 30.91 34.47 32.61 30.52 28.95 28.44 26.81 26.76 27.51 31.71 34.74
51.87 52.29 52.33 52.38 53.02 53.61 53.70 53.08 51.89 51.58 51.35 50.83 50.60 49.56 48.56 47.37 41.68 39.62 41.35 45.00 46.44 46.11 27.01 33.30 38.18 41.46 44.33 44.70 38.75 45.47 45.97 41.53 37.63 32.05 32.62 30.99 34.46 32.80 31.42 30.21 30.81 28.20 32.14 31.61 30.51 30.23 27.19
51.96 52.10 51.91 51.99 52.11 52.68 53.25 53.17 53.20 51.49 50.88 50.79 50.26 49.31 49.09 46.38 38.38 38.91 43.05 44.74 45.63 40.04 12.15 35.37 38.28 45.68 44.04 40.36 39.86 40.43 46.41 42.98 36.22 36.29 33.74 29.34 31.94 32.77 32.72 34.12 34.51 32.42 35.74 33.87 33.28 31.70 31.42
52.77 51.36 51.63 51.60 51.90 52.11 52.43 52.93 53.16 53.34 51.46 50.00 50.03 49.36 47.80 41.89 40.39 42.06 44.16 45.24 40.82 24.25 17.57 32.82 38.37 37.07 37.42 38.87 39.64 41.19 40.37 42.93 41.31 37.27 35.98 32.33 37.12 36.75 34.75 37.24 36.66 37.60 34.79 34.54 34.04 32.59 25.51
53.10 51.22 51.62 51.65 51.71 51.78 51.79 52.11 52.55 52.59 52.84 51.82 49.20 49.28 45.95 43.57 37.54 43.54 42.96 37.71 23.74 18.14 33.33 31.97 33.57 37.02 36.66 35.82 36.24 37.81 35.20 34.45 31.84 28.62 25.59 31.37 33.92 37.76 38.78 35.22 37.31 36.24 32.75 25.59 21.43 25.14 24.59
53.28 52.47 50.78 51.51 51.51 51.55 51.58 51.72 51.76 52.38 52.09 51.71 50.25 46.89 44.28 44.13 43.35 42.12 37.83 29.57 19.63 30.49 31.46 35.96 35.85 35.17 32.22 35.24 35.05 36.45 34.49 30.93 34.49 33.31 30.63 27.03 22.64 34.62 38.60 36.03 35.48 35.99 34.99 28.31 20.93 21.97 26.06
53.38 52.66 51.00 51.06 51.26 51.23 51.36 51.69 52.14 51.66 52.28 51.63 46.78 38.63 38.94 40.93 43.36 40.67 35.02 26.83 27.47 30.22 34.27 32.78 33.60 31.90 32.85 36.54 36.15 35.18 34.79 33.30 36.50 35.86 30.34 31.14 27.57 37.63 38.72 40.00 39.14 36.72 33.64 37.58 31.66 32.73 28.37
53.69 52.77 52.10 50.18 51.04 50.80 51.14 51.49 51.66 51.80 52.29 49.30 37.04 35.34 36.85 41.86 41.83 37.43 32.14 31.64 32.24 36.02 36.71 35.56 29.59 31.62 28.16 32.26 33.57 33.45 34.80 36.71 37.53 39.06 39.57 36.18 29.92 35.18 38.37 39.81 39.99 38.18 40.12 31.95 32.12 23.20 22.89
53.98 53.18 52.44 50.63 50.35 50.36 50.59 51.28 51.34 51.29 51.17 46.18 35.73 33.41 39.60 42.48 39.51 35.62 30.01 30.93 33.36 36.93 37.11 34.07 30.10 31.63 32.70 32.91 34.61 33.37 32.33 36.71 39.75 39.17 40.00 38.23 35.03 31.91 36.40 35.58 34.70 36.08 34.93 35.03 33.59 31.69 25.60
54.12 53.29 52.78 51.28 49.57 50.28 50.39 50.91 51.17 51.91 50.28 41.57 34.22 28.98 40.23 40.70 32.88 28.07 27.72 31.52 38.00 34.84 36.70 35.34 34.35 32.37 31.74 32.86 31.06 31.67 32.57 35.52 40.42 39.00 35.23 37.30 34.39 29.75 31.92 37.60 38.94 37.11 34.92 34.24 28.30 27.58 29.14
54.57 53.40 52.46 51.52 49.49 50.30 50.64 51.51 52.18 52.21 49.27 37.22 31.87 29.13 39.38 39.06 27.88 24.87 30.85 33.06 34.13 34.75 34.65 34.87 33.90 34.66 33.89 31.49 29.67 33.59 34.78 39.88 40.42 38.62 36.00 37.12 31.01 26.06 28.40 32.98 36.17 33.32 34.92 34.17 34.65 31.55 26.56
54.62 53.43 52.16 51.39 49.86 50.89 51.05 52.11 52.35 51.76 49.72 37.10 31.91 27.16 33.39 34.12 31.84 30.13 29.99 29.70 31.15 36.00 35.02 35.98 34.72 34.89 32.74 31.09 32.01 30.65 32.12 37.33 38.46 38.39 42.86 39.30 30.97 28.75 25.46 29.68 32.17 29.60 32.01 35.02 32.75 27.07 29.71
54.22 53.78 52.05 51.04 49.75 50.85 52.00 52.54 51.96 50.88 48.21 38.00 31.27 27.90 30.74 24.99 29.48 28.40 29.36 31.08 30.83 31.86 35.45 35.97 33.48 33.88 31.28 28.66 28.81 29.71 32.77 33.45 36.82 38.27 36.45 34.35 28.32 27.52 29.91 31.48 31.43 30.99 30.70 32.82 31.03 31.67 29.42
53.94 54.10 51.99 50.66 49.68 51.24 51.88 51.45 50.67 49.93 45.97 35.76 31.69 30.64 29.93 28.46 29.40 26.84 29.90 28.32 30.93 31.58 33.09 32.94 32.22 33.96 33.62 30.21 30.70 29.74 31.11 30.15 29.48 33.06 31.84 33.11 27.83 29.46 27.25 30.31 30.11 29.19 30.60 31.64 31.93 33.12 33.31
53.92 53.89 51.90 50.08 49.65 51.37 51.58 51.35 50.54 49.48 43.90 35.63 36.68 35.08 32.73 28.64 27.30 25.83 27.60 30.38 32.63 33.70 36.09 36.16 34.18 32.09 31.56 34.02 35.83 36.07 35.75 34.72 32.85 30.09 30.07 29.65 27.76 25.27 22.44 26.51 26.51 24.07 28.00 30.59 31.54 32.17 33.19
53.61 53.81 51.75 49.43 49.56 51.02 51.24 50.94 50.75 49.82 44.30 38.39 35.78 33.65 30.15 27.67 28.67 29.48 30.27 31.45 32.67 33.14 32.78 35.51 35.60 31.61 35.57 37.95 35.43 33.38 32.34 33.79 32.89 31.75 32.10 29.18 27.41 25.47 21.02 22.57 14.80 27.09 31.03 31.44 31.35 32.69 33.47
53.55 53.51 51.39 48.87 49.30 50.72 50.93 50.50 49.91 49.83 47.36 39.96 37.07 35.07 29.79 26.67 29.03 29.69 29.21 29.22 31.98 31.85 32.30 34.45 36.55 37.88 36.73 34.03 31.00 28.34 26.67 26.62 28.53 30.04 30.18 30.65 27.84 23.72 19.61 17.29 23.70 25.59 29.13 29.75 29.45 30.38 33.05
53.55 53.43 51.13 48.40 48.61 50.17 49.92 49.87 49.76 49.50 47.48 39.44 37.04 36.34 33.07 28.08 28.04 30.80 29.26 29.08 28.62 26.86 30.00 33.15 36.42 37.82 35.02 31.79 29.17 24.14 21.51 23.43 24.41 26.85 30.58 29.91 28.98 25.57 23.01 18.14 18.92 24.66 29.85 32.39 31.75 25.17 31.57
53.46 53.41 51.59 48.44 47.87 49.70 49.31 49.83 49.63 49.45 47.78 40.28 36.59 36.70 34.30 29.81 29.99 29.95 30.04 30.29 31.87 29.38 28.27 29.75 32.49 33.56 34.13 29.26 27.94 24.94 22.00 25.05 22.07 21.48 22.58 25.12 24.52 23.03 22.56 20.40 24.00 27.79 30.96 32.03 24.20 25.85 31.88
53.58 53.42 52.26 49.36 47.86 48.70 49.52 48.71 49.46 49.59 47.51 39.75 36.11 37.49 35.85 30.73 31.13 32.46 34.45 32.08 31.54 31.00 29.10 31.38 30.99 31.24 31.12 27.70 27.90 25.43 23.15 24.55 22.24 23.35 23.09 24.02 21.66 21.55 22.55 20.19 17.53 31.46 30.82 27.95 31.53 31.36 33.81
53.68 53.36 52.77 50.26 48.34 48.14 49.10 49.74 48.97 48.87 47.75 42.71 36.73 38.09 37.90 34.28 33.69 34.76 35.44 35.99 36.58 35.72 33.65 30.91 30.48 30.66 32.45 27.24 27.84 27.24 27.41 23.27 22.08 21.72 23.83 23.01 27.02 24.19 25.87 25.68 31.16 32.24 32.47 32.71 32.98 33.83 34.52

GFSGBSN_sfc_wetblb_114.txt.gz
Wetbulb
54.39 54.50 54.59 55.17 55.43 55.32 55.16 54.75 53.60 53.02 53.30 53.63 52.92 53.21 53.02 53.11 52.64 52.54 52.42 51.87 51.29 51.30 50.92 51.75 53.26 57.66 53.49 47.08 47.61 55.06 58.98 60.05 53.84 52.16 48.20 46.28 43.71 43.01 40.46 41.06 41.45 39.66 40.14 40.84 42.56 42.31 42.20
53.94 54.54 54.80 54.87 55.28 55.33 55.11 54.70 53.86 52.93 52.69 52.59 52.62 52.53 52.44 52.26 52.09 51.96 51.50 51.35 51.22 51.16 50.83 51.64 53.18 55.09 50.43 42.76 53.47 55.01 54.11 52.89 51.41 49.69 47.57 47.59 44.68 44.70 41.21 39.46 39.01 40.28 39.72 40.43 41.36 41.31 41.40
54.00 54.43 54.48 55.18 55.44 55.14 54.89 54.62 53.74 52.87 52.47 52.13 51.80 51.66 51.46 51.14 51.42 51.47 51.28 51.52 51.70 51.25 51.57 52.41 54.05 54.07 48.76 46.36 52.49 53.31 51.84 49.38 50.41 49.08 46.00 46.88 46.98 43.60 42.75 38.76 41.25 39.48 36.31 39.16 39.59 39.44 39.07
54.02 54.35 54.42 55.20 55.43 54.02 53.60 53.42 53.71 52.88 52.23 51.97 51.63 51.33 51.19 50.88 50.92 50.89 51.40 53.39 53.72 53.60 53.15 54.33 56.22 51.44 45.32 54.03 53.92 50.69 50.33 48.75 51.26 51.14 48.95 48.97 48.89 44.77 42.06 42.31 38.78 36.34 36.60 35.29 37.42 38.95 39.87
53.87 54.07 54.13 55.03 55.12 53.57 53.12 53.29 53.31 52.79 52.03 51.79 51.65 51.14 51.38 51.13 50.71 51.00 52.33 56.03 56.08 55.31 55.76 54.56 50.22 47.54 42.57 54.26 49.31 50.94 50.01 46.66 48.93 49.46 49.25 48.66 46.73 41.87 41.13 37.18 35.85 35.68 32.73 32.65 35.10 39.29 38.66
53.91 53.76 53.91 54.33 55.17 53.97 53.05 53.26 53.40 53.03 51.95 51.52 51.16 50.40 50.99 51.48 50.81 51.24 51.76 55.76 55.22 54.05 52.80 52.46 50.05 42.26 44.78 43.92 47.99 48.73 49.50 49.19 46.08 46.13 44.37 43.28 41.90 38.81 38.12 37.11 32.95 30.90 27.93 32.19 32.82 37.18 37.63
53.54 53.53 53.38 53.82 54.69 54.70 53.69 52.68 53.68 53.05 52.09 51.49 50.76 49.98 50.37 50.85 51.17 50.57 49.71 50.30 47.00 44.30 46.81 43.16 43.55 41.92 42.93 47.01 49.32 46.42 48.89 46.45 44.85 42.13 37.17 39.69 37.61 33.27 33.25 34.66 34.18 32.96 31.58 31.67 35.58 38.26 35.81
53.00 53.31 53.46 53.02 53.82 54.45 54.05 53.89 52.27 52.45 51.91 51.75 50.48 50.10 49.79 49.96 50.87 49.97 49.58 43.70 41.62 45.11 39.37 45.16 45.16 44.64 46.63 46.58 41.17 44.13 48.82 41.46 40.23 35.97 37.92 36.75 34.16 36.34 36.39 35.25 33.50 32.76 32.16 33.54 36.47 36.94 37.02
52.57 52.82 53.20 53.21 53.02 53.83 53.95 53.94 53.62 52.03 51.84 51.61 50.86 50.53 49.25 49.08 48.86 48.49 44.99 43.68 48.24 46.68 39.90 39.67 43.57 43.14 44.28 46.30 40.76 41.23 45.32 42.13 38.25 35.39 35.02 33.80 35.17 37.73 35.61 33.94 32.62 33.85 33.06 33.60 32.78 36.69 39.62
53.17 52.55 52.76 53.13 53.19 52.94 53.29 53.47 53.76 53.47 51.89 50.94 50.92 50.13 49.71 48.05 46.55 45.34 43.50 47.10 48.85 47.77 35.70 34.00 38.45 42.05 44.70 44.98 39.48 46.05 46.91 43.04 39.07 34.60 35.33 34.92 37.08 35.04 34.23 33.09 34.76 31.83 36.93 35.48 34.25 32.74 30.49
54.00 51.98 52.36 52.92 53.01 52.91 52.79 52.97 53.36 53.25 53.17 52.00 50.55 50.55 49.63 48.11 45.58 43.96 45.23 48.55 49.16 46.29 24.41 36.12 38.99 47.08 45.38 41.02 41.17 41.40 47.51 43.68 37.41 36.98 36.98 33.27 35.37 35.15 34.23 35.58 37.30 34.95 38.40 37.08 35.84 32.82 32.15
54.35 53.23 51.58 52.01 52.48 52.74 52.76 52.67 52.63 52.79 52.54 52.52 50.58 50.16 48.68 46.01 47.06 46.17 47.86 48.83 45.94 36.88 22.52 32.69 38.75 37.87 38.12 39.77 39.84 41.74 41.71 44.51 42.67 38.41 38.56 37.07 39.70 38.90 37.87 39.43 39.44 40.32 37.02 37.23 36.49 33.56 27.54
54.37 53.61 52.13 51.57 51.63 51.77 52.39 52.82 52.87 52.39 52.25 52.33 51.77 49.22 47.90 47.17 43.36 48.05 47.31 44.38 36.40 26.75 34.13 31.39 33.59 37.13 37.34 36.25 36.88 38.69 36.49 36.75 34.87 32.35 31.95 35.40 36.51 39.64 40.03 36.66 39.88 36.91 33.45 30.75 28.93 28.43 29.38
54.66 53.86 53.04 51.08 51.51 51.27 51.92 52.64 52.71 52.30 52.03 52.01 50.90 47.57 46.02 46.81 48.40 47.26 45.37 41.85 27.36 31.23 32.02 37.12 36.79 36.81 33.83 37.26 36.61 37.44 36.11 34.03 36.60 35.42 33.45 29.78 30.72 37.29 41.21 38.69 37.28 36.42 35.54 30.25 24.50 27.02 29.79
55.06 54.05 53.28 52.31 50.70 51.21 51.46 52.35 52.40 51.85 52.41 51.07 46.73 46.39 46.43 46.25 47.20 47.38 44.95 32.56 30.32 32.35 36.44 35.31 36.27 33.95 33.82 37.01 37.12 36.12 35.27 34.30 36.60 36.95 31.77 31.63 31.07 39.87 40.60 41.53 40.77 37.02 34.40 38.12 32.40 33.41 30.32
55.09 54.11 53.57 52.90 50.72 51.15 51.31 51.94 52.31 51.97 51.80 47.73 46.06 45.09 44.67 46.37 46.76 46.02 42.24 32.63 34.76 38.56 38.97 38.00 32.95 35.37 32.32 33.59 34.51 34.64 35.41 38.84 37.23 38.93 40.06 36.68 31.18 37.88 39.98 41.34 41.30 38.30 40.13 33.21 33.55 25.80 25.31
55.24 54.27 53.90 52.78 50.94 50.98 51.29 52.02 52.60 52.90 51.05 45.47 45.42 44.63 45.53 46.92 46.06 44.74 34.21 35.38 37.11 39.76 39.78 37.18 35.22 35.36 36.14 34.72 36.13 35.41 35.86 39.51 41.70 40.89 41.11 38.89 35.75 34.99 38.00 37.39 36.06 36.90 35.51 35.68 35.00 32.41 28.30
54.86 54.67 53.82 52.95 50.90 50.93 51.65 52.44 53.04 52.57 49.54 45.06 44.17 41.42 45.53 46.66 42.31 40.33 37.50 36.67 38.62 38.62 40.49 39.21 38.88 36.65 36.43 37.27 36.24 36.09 35.67 38.36 43.15 42.19 36.70 39.41 36.36 31.54 34.94 40.79 42.91 39.22 36.21 35.52 30.78 29.74 32.06
54.50 54.62 53.49 52.71 50.94 51.60 52.50 52.67 52.53 52.20 48.80 45.08 42.36 42.20 45.94 45.82 39.29 38.29 36.86 37.12 38.21 38.61 38.52 38.30 37.56 38.56 39.27 36.46 34.40 36.96 37.78 41.79 43.16 41.34 39.10 39.91 35.18 30.08 31.69 36.81 39.02 36.15 37.08 35.57 35.32 34.41 31.12
54.32 54.51 53.32 52.34 51.07 52.11 52.56 51.73 51.37 51.04 49.69 44.48 41.90 40.72 43.61 42.98 39.80 39.19 37.17 36.08 36.72 39.75 39.13 39.23 38.41 39.32 37.88 36.11 37.03 35.34 36.07 39.81 40.94 41.37 42.91 41.94 36.21 32.88 30.31 33.00 35.68 32.80 35.02 36.21 35.08 31.07 32.96
54.27 54.02 53.24 51.93 50.50 51.79 51.87 51.31 51.06 50.61 48.06 45.02 40.47 37.41 37.62 38.31 38.91 37.44 37.93 37.04 36.08 36.49 39.52 40.16 38.45 37.54 36.15 34.32 34.96 34.77 37.25 38.12 39.93 39.86 40.42 39.24 33.60 33.58 35.42 36.25 35.58 34.23 34.18 35.83 33.51 34.89 33.33
53.77 53.63 52.89 51.33 50.27 51.66 51.59 51.15 51.24 49.90 46.48 42.75 40.58 39.43 37.75 37.20 35.76 36.29 36.44 36.56 36.23 36.65 38.26 37.26 37.43 38.14 38.87 36.36 36.94 34.99 36.73 36.98 35.94 39.14 37.66 38.16 34.43 33.51 31.26 34.54 34.79 32.60 35.37 35.70 37.07 37.07 36.65
53.37 53.80 52.64 50.73 49.92 51.36 51.35 51.40 51.54 49.53 45.67 42.43 40.60 41.43 41.07 34.06 35.63 35.83 36.82 36.52 37.01 37.76 39.76 40.61 39.38 38.21 36.95 39.37 41.59 42.02 42.21 41.79 40.14 37.51 35.85 35.24 34.80 32.63 29.75 31.91 31.88 29.88 34.19 35.19 36.58 38.16 38.81
53.91 53.84 52.77 50.25 49.50 50.96 51.01 50.39 50.37 49.60 45.75 44.51 42.40 41.26 39.28 35.26 35.69 36.11 35.30 35.54 36.03 37.08 36.52 40.08 39.95 38.45 40.87 43.41 41.23 40.11 39.50 39.16 39.27 38.97 38.93 35.31 33.73 32.70 30.11 31.04 25.12 33.09 37.00 38.02 37.06 37.92 39.81
53.80 53.64 53.15 50.16 48.91 50.47 50.26 50.12 50.10 49.62 47.00 44.39 42.49 41.54 38.83 35.22 36.16 34.78 35.22 36.19 37.17 37.99 37.29 38.25 40.74 41.43 43.24 40.95 37.70 35.20 34.74 33.93 35.33 36.90 36.85 37.52 35.25 32.16 28.61 28.15 32.96 32.50 33.71 35.13 34.87 36.36 38.96
54.05 53.72 53.42 51.01 48.23 50.00 49.84 50.10 49.67 49.60 47.01 43.59 42.10 41.27 39.53 36.01 34.59 36.97 36.40 36.72 37.10 37.00 37.24 38.44 41.38 42.79 42.29 38.75 36.16 30.77 30.30 31.09 31.08 32.00 35.21 34.95 35.96 33.17 28.98 25.43 25.03 32.50 36.34 38.53 37.95 32.49 37.97
54.26 53.70 53.50 52.11 48.95 48.64 49.55 49.34 49.75 49.49 46.96 43.95 41.65 40.96 39.92 36.37 36.95 36.48 36.15 36.69 38.49 37.11 36.93 36.85 38.55 39.63 40.52 37.67 33.50 31.67 31.01 31.66 29.61 29.02 29.23 31.37 31.93 29.76 30.64 28.42 32.20 35.98 37.93 38.36 30.28 33.32 38.56
54.41 54.00 53.47 52.93 50.54 48.45 49.40 49.48 49.20 49.18 47.00 43.73 40.96 41.34 40.59 37.24 37.89 36.09 38.06 37.01 37.16 37.80 36.50 37.26 37.29 37.01 38.46 34.87 33.52 33.92 31.48 33.07 30.29 32.49 31.97 31.83 30.44 29.54 29.81 27.31 25.33 37.93 36.57 33.84 38.55 38.92 40.03
54.32 54.03 53.57 53.04 51.51 49.50 48.65 49.55 49.67 48.70 47.35 44.12 41.78 41.35 41.17 38.29 38.75 38.37 39.56 40.37 41.06 41.10 39.97 37.67 36.94 37.18 40.21 37.62 35.62 35.74 33.19 32.98 31.21 29.12 32.37 29.59 34.31 32.38 32.78 34.10 37.40 39.23 39.91 40.46 39.83 39.61 40.70

GFSGBSN_sfc_wetblb_117.txt.gz
Wetbulb
55.12 55.12 55.54 56.30 56.21 55.11 54.97 55.04 54.35 53.37 53.12 52.91 53.07 53.03 53.09 53.36 53.14 52.89 53.00 52.59 51.86 51.62 51.70 52.43 53.77 57.28 53.81 47.44 46.84 55.30 58.21 59.36 54.13 51.99 49.42 47.27 45.35 45.27 42.54 43.93 43.58 41.51 42.85 43.46 44.70 44.27 44.00
55.21 55.09 55.58 56.31 54.61 54.52 54.55 54.42 54.39 53.25 52.93 52.61 52.45 52.46 52.24 52.25 51.94 51.93 51.95 51.74 51.62 51.46 50.88 52.11 55.00 56.24 50.54 41.96 53.64 55.58 54.48 52.56 52.26 50.67 48.55 48.13 45.71 46.79 43.75 42.82 42.11 43.12 42.71 42.79 43.26 43.15 43.45
55.08 55.11 55.50 56.20 54.81 54.38 54.24 54.04 53.92 53.09 52.65 52.60 52.31 52.06 51.69 51.52 51.73 51.53 51.76 51.39 51.27 50.94 51.40 52.32 54.18 54.26 47.77 45.14 52.20 53.03 53.41 51.52 51.09 51.25 47.21 48.82 48.58 45.24 44.87 40.69 43.14 41.52 38.34 41.48 42.35 42.28 40.97
54.96 54.85 55.14 55.74 55.56 54.60 53.74 54.09 53.64 53.00 52.51 52.22 51.87 51.94 52.13 52.06 52.07 53.35 54.50 54.28 53.23 52.48 52.36 53.62 54.49 52.68 45.02 52.38 53.68 51.05 51.04 49.54 51.44 52.40 50.30 50.25 49.62 45.70 43.77 44.10 40.87 38.74 38.74 37.03 40.71 41.10 41.92
54.55 54.80 54.61 55.08 55.65 55.03 53.93 54.12 53.46 52.81 52.34 51.88 51.27 51.39 51.99 52.53 52.82 55.24 56.10 55.62 55.68 55.06 55.13 53.73 50.60 48.85 41.50 53.65 48.57 50.29 50.56 47.79 49.54 50.17 50.05 49.56 47.92 43.56 42.75 39.45 37.50 37.96 36.35 36.02 38.14 41.47 40.58
54.25 54.54 54.34 54.18 54.91 54.82 54.98 53.03 52.97 52.66 52.46 51.49 51.25 50.90 51.34 52.78 52.78 53.09 54.96 54.85 54.54 53.36 51.67 51.71 50.53 43.44 45.04 43.67 47.95 48.19 49.62 50.29 47.97 47.62 45.80 44.46 43.98 40.81 40.65 38.15 34.17 35.63 33.59 35.38 35.86 39.95 39.74
53.73 54.09 54.15 54.09 53.92 54.68 54.67 54.71 52.75 52.72 52.32 51.85 51.25 50.70 50.81 51.73 52.51 52.05 51.82 50.58 46.56 43.51 46.18 41.14 41.02 41.67 43.64 47.38 49.51 46.84 48.57 47.02 46.31 43.82 39.42 41.85 39.28 37.05 37.05 37.53 37.01 36.00 34.62 34.40 38.17 41.18 37.91
53.19 53.49 54.01 54.00 53.79 53.84 54.13 54.29 54.34 52.76 52.14 51.83 51.23 50.93 50.12 50.28 51.52 52.01 52.45 46.01 43.17 45.35 39.12 45.51 45.60 44.86 46.37 47.42 41.09 44.57 49.85 42.73 42.11 38.23 40.20 38.87 37.10 38.53 38.66 37.27 35.89 35.27 34.52 36.02 38.93 39.36 39.11
54.41 52.92 53.16 53.83 53.81 53.73 53.64 53.48 53.77 53.92 53.20 51.66 51.24 50.80 50.60 49.55 49.81 51.56 47.29 45.11 49.55 49.15 40.36 41.44 45.00 43.98 44.87 46.80 41.65 42.74 46.76 43.75 40.66 37.98 37.97 37.52 37.50 39.61 37.68 35.98 35.05 36.32 34.63 35.76 34.78 38.88 41.95
54.92 52.98 52.73 52.62 53.18 53.49 53.44 53.35 53.07 53.30 53.36 52.64 51.37 51.54 50.79 49.99 48.62 49.70 46.78 49.44 51.17 50.78 36.80 35.47 39.98 43.27 45.74 46.18 40.18 46.93 48.14 44.70 40.68 36.75 37.76 37.55 38.82 37.04 36.13 35.08 36.63 34.33 38.87 37.22 36.55 34.33 31.47
55.12 54.38 52.07 52.42 52.12 52.49 53.18 53.48 53.55 53.02 52.62 52.86 52.15 51.05 49.74 50.41 48.96 48.24 47.86 50.48 51.37 48.55 25.54 37.70 39.53 48.54 46.19 41.78 41.98 42.47 48.18 45.12 37.85 37.59 38.94 35.13 37.06 36.57 36.31 37.33 39.06 36.96 40.00 38.43 36.96 33.47 32.80
55.21 54.60 53.42 51.52 51.98 51.74 52.60 53.35 53.21 52.90 52.46 52.48 52.49 50.30 50.18 49.39 50.92 48.55 50.42 50.44 48.62 35.99 23.40 34.59 39.57 38.95 39.24 41.50 41.03 42.89 42.90 45.42 43.69 39.56 39.91 38.67 41.41 40.04 39.84 40.21 40.57 41.42 38.64 38.49 36.95 34.69 27.70
55.42 54.78 53.95 52.12 51.40 51.66 52.27 52.78 53.05 52.85 52.83 52.32 51.99 49.24 49.23 49.81 47.28 50.74 50.15 47.76 36.65 27.90 35.66 33.03 35.45 38.83 38.86 37.54 38.77 40.12 38.58 38.24 35.51 33.32 32.74 37.47 38.60 41.17 41.25 37.83 40.83 38.73 34.78 30.34 29.29 28.24 29.76
55.76 54.61 54.26 53.23 51.14 51.72 52.11 52.54 52.80 52.88 52.68 51.53 49.88 48.32 47.31 48.97 50.89 50.32 48.55 43.69 28.37 32.44 33.81 38.76 38.24 38.83 36.02 38.51 38.30 39.08 37.75 35.85 39.35 37.39 33.53 32.02 31.38 39.25 42.65 40.24 38.37 36.23 36.04 31.19 24.81 28.13 30.81
55.64 54.87 54.44 53.30 51.40 51.77 52.17 52.57 52.99 53.35 53.27 50.33 48.23 50.99 50.26 49.58 50.06 49.51 46.69 33.50 30.48 34.49 38.20 37.03 38.35 35.59 35.85 38.16 38.26 38.48 37.41 36.42 37.57 38.79 32.71 34.03 33.92 41.42 41.93 42.88 41.52 37.22 34.66 38.87 32.25 34.38 29.84
55.25 55.30 54.57 53.56 51.74 51.79 52.21 53.15 53.30 53.19 51.91 48.62 49.78 50.11 47.66 50.48 50.75 48.65 43.49 34.43 36.68 40.10 40.45 39.83 34.17 37.19 33.14 35.80 35.96 36.27 37.27 40.63 38.95 40.12 41.27 37.24 31.98 39.48 41.15 42.46 42.46 39.48 40.58 33.34 33.33 26.54 26.76
54.91 55.29 54.39 53.63 51.60 51.95 52.74 53.18 53.12 52.56 51.14 48.12 49.29 48.28 49.00 50.68 49.92 48.01 38.72 37.99 39.53 41.91 41.97 39.09 37.51 36.87 37.78 36.38 37.19 36.47 37.99 40.99 42.23 40.89 41.64 38.87 36.21 36.66 39.48 38.53 37.97 37.41 35.45 35.04 34.71 33.25 28.57
54.80 54.89 54.60 53.49 51.41 52.17 52.62 52.26 52.07 51.80 50.51 48.14 48.21 43.43 49.61 51.04 45.74 45.40 40.44 40.39 40.05 40.80 42.65 41.20 40.88 39.19 38.15 39.03 37.77 37.24 36.83 39.65 44.08 43.27 38.38 41.09 37.38 32.05 36.55 42.26 43.77 40.67 37.11 35.90 31.48 30.66 32.78
54.58 54.56 54.43 53.27 51.79 52.44 52.31 51.82 51.83 51.58 49.38 48.32 46.47 47.31 50.84 49.53 42.16 40.80 40.38 39.77 40.82 40.55 40.64 40.47 39.76 40.84 41.38 38.59 36.04 38.59 39.51 43.43 44.17 42.21 40.29 41.31 36.24 31.53 34.34 38.03 40.63 37.29 38.30 36.60 36.05 34.60 30.85
54.19 54.23 54.23 52.98 51.81 52.47 52.07 51.61 51.72 50.98 48.49 48.57 46.59 41.65 47.46 47.85 45.40 42.72 39.96 39.03 38.58 42.12 41.27 41.70 41.14 41.63 40.02 38.15 39.36 37.41 37.54 41.40 42.68 43.05 42.54 42.68 38.63 34.60 30.85 34.44 37.72 34.84 36.88 37.30 35.15 30.86 33.66
53.56 53.90 53.91 52.56 51.21 51.95 51.90 51.52 51.71 50.63 48.00 48.94 45.33 41.75 41.25 42.44 41.77 41.56 41.21 39.72 38.27 38.22 41.86 42.30 40.50 40.44 39.52 36.38 37.38 36.69 39.08 40.21 41.75 42.23 42.25 41.16 34.75 36.47 37.14 37.73 37.68 36.82 36.36 37.13 35.02 35.37 33.34
53.42 53.68 53.55 52.20 50.94 51.74 51.64 51.56 51.55 50.38 47.90 46.96 43.73 43.46 43.29 41.84 40.23 40.73 39.08 39.42 38.10 39.58 39.86 39.38 38.87 40.55 40.77 38.20 38.66 36.81 39.17 39.74 38.73 41.15 39.67 41.01 34.71 36.30 32.07 37.06 36.91 34.84 37.30 37.49 37.28 37.96 37.56
53.94 53.76 53.58 51.86 50.53 51.39 51.10 51.03 51.19 50.17 49.59 45.79 44.73 44.65 43.71 38.58 39.90 39.77 40.77 39.52 39.30 40.15 42.14 42.17 40.72 40.08 39.52 40.19 41.95 42.97 43.43 43.20 42.62 39.61 38.93 37.54 36.21 33.85 30.63 34.88 34.53 30.82 35.29 36.23 37.31 39.29 39.60
54.27 53.96 53.87 51.76 50.00 50.89 50.79 50.87 51.00 49.77 48.14 47.30 45.81 44.87 41.09 39.13 39.64 39.65 38.48 39.18 39.40 40.21 39.13 41.71 42.47 40.35 42.73 45.85 45.67 44.11 42.23 41.71 41.76 41.43 42.03 37.48 36.25 34.81 30.80 33.17 26.00 36.35 39.50 39.51 38.31 40.06 41.66
54.63 54.08 53.79 52.72 49.52 50.19 50.43 50.52 50.19 49.82 47.91 46.25 46.04 45.04 41.56 37.58 39.63 38.56 38.28 38.96 40.29 41.16 39.26 40.60 43.07 45.08 45.98 43.55 39.42 37.14 38.02 36.72 37.86 39.82 40.02 40.36 36.88 32.80 29.37 29.36 34.06 36.07 35.31 36.75 36.10 37.14 42.24
55.03 54.50 53.96 53.82 50.04 49.16 49.87 50.06 50.08 49.70 47.42 46.59 44.18 44.85 42.38 38.79 38.41 39.60 39.01 40.03 38.86 39.74 39.85 40.28 43.87 45.26 44.35 41.42 37.80 32.22 31.10 33.41 33.38 34.59 37.47 38.87 38.56 33.78 32.70 26.49 25.15 33.90 38.23 40.55 40.02 32.66 40.46
55.06 54.71 54.07 53.69 52.50 49.39 49.68 49.49 49.65 49.35 46.81 46.50 44.04 44.15 43.07 38.77 41.03 39.63 38.11 39.06 41.82 40.41 38.87 40.31 41.12 41.22 43.40 39.03 34.65 33.22 32.92 35.13 30.87 31.12 31.92 32.87 33.51 30.66 31.50 29.65 33.34 38.26 39.46 40.36 30.67 33.03 40.82
54.62 54.58 54.22 53.66 53.39 50.99 49.22 49.94 49.39 49.23 47.11 46.10 44.48 44.11 42.67 40.08 41.17 39.60 40.85 39.60 39.93 40.26 38.35 40.60 39.40 39.33 39.85 35.69 35.29 35.65 33.60 35.95 32.75 36.04 34.25 33.60 32.24 31.01 32.22 29.28 26.01 39.55 38.05 34.66 39.03 41.65 41.72
54.18 54.24 54.05 53.64 53.08 52.35 50.35 49.32 50.04 49.43 47.40 45.27 44.22 44.14 43.61 39.91 41.12 41.81 42.95 44.05 43.76 43.14 41.79 41.43 39.93 40.35 42.53 38.93 37.90 38.06 34.58 36.10 34.41 30.12 37.11 31.11 36.12 35.06 35.25 35.42 39.88 41.49 41.98 43.25 42.36 41.00 41.60